# Wetter Temperatur Luftdruck Luftfeuchtigkeit Sichtweite Windgeschwindigkeit Windrichtung Zeit
1 Clouds 24 1008 94 10000 2.6 110 20:59 12.07.2020
2 Clouds 24 1008 94 10000 2.6 110 20:41 12.07.2020
3 Clouds 24 1008 94 10000 2.6 110 20:20 12.07.2020
4 Clouds 24 1007 100 10000 1 160 19:55 12.07.2020
5 Clouds 24 1007 100 10000 1 160 19:37 12.07.2020
6 Rain 25 1007 94 10000 4.6 110 19:18 12.07.2020
7 Rain 25 1007 94 10000 4.6 110 18:42 12.07.2020
8 Clouds 24 1007 94 10000 1 200 18:20 12.07.2020
9 Clouds 24 1007 94 10000 1 200 17:58 12.07.2020
10 Clouds 24 1007 94 10000 1 200 17:37 12.07.2020
11 Clouds 24 1007 94 10000 1 200 17:19 12.07.2020
12 Clouds 26 1008 88 10000 2.6 200 16:45 12.07.2020
13 Clouds 26 1008 88 10000 2.6 200 16:21 12.07.2020
14 Clouds 24 1007 94 10000 1.5 90 15:45 12.07.2020
15 Clouds 24 1007 94 10000 1.5 90 15:26 12.07.2020
16 Clouds 25 1007 83 10000 1.5 160 14:56 12.07.2020
17 Clouds 25 1007 83 10000 1.5 160 14:37 12.07.2020
18 Clouds 25 1007 83 10000 1.5 160 14:18 12.07.2020
19 Clouds 24 1008 94 10000 2.6 140 13:39 12.07.2020
20 Clouds 24 1008 94 10000 2.6 140 13:20 12.07.2020
21 Clouds 26 1008 83 10000 2.6 110 12:54 12.07.2020
22 Clouds 26 1008 83 10000 2.6 110 12:54 12.07.2020
23 Clouds 26 1008 83 10000 2.6 110 12:36 12.07.2020
24 Clouds 27 1008 78 10000 3.1 110 12:18 12.07.2020
25 Clouds 27 1008 78 10000 3.1 110 11:42 12.07.2020
26 Clouds 27 1008 78 10000 3.1 110 11:19 12.07.2020
27 Clouds 27 1007 83 10000 4.6 110 10:42 12.07.2020
28 Clouds 27 1007 83 10000 4.6 110 10:21 12.07.2020
29 Clouds 28 1007 83 10000 2.1 140 09:43 12.07.2020
30 Clouds 28 1007 83 10000 2.1 140 09:24 12.07.2020
31 Clouds 29 1007 79 10000 4.1 110 08:58 12.07.2020
32 Clouds 29 1007 79 10000 4.1 110 08:40 12.07.2020
33 Clouds 29 1007 79 10000 4.1 110 08:21 12.07.2020
34 Clouds 30 1007 74 10000 5.1 90 07:50 12.07.2020
35 Clouds 30 1007 74 10000 5.1 90 07:31 12.07.2020
36 Clouds 31 1007 74 10000 5.1 110 06:56 12.07.2020
37 Clouds 31 1007 74 10000 5.1 110 06:38 12.07.2020
38 Clouds 29 1007 83 10000 4.1 90 06:19 12.07.2020
39 Clouds 29 1007 83 10000 4.1 90 06:19 12.07.2020
40 Clouds 32 1007 66 10000 5.1 110 04:59 12.07.2020
41 Clouds 32 1007 66 10000 5.1 110 04:29 12.07.2020
42 Clouds 30 1008 74 10000 6.2 90 03:45 12.07.2020
43 Clouds 30 1008 74 10000 6.2 90 03:25 12.07.2020
44 Clouds 30 1009 74 10000 6.2 110 02:26 12.07.2020
45 Clouds 29 1009 79 10000 3.1 110 01:29 12.07.2020
46 Clouds 29 1009 79 10000 3.1 110 01:29 12.07.2020
47 Clouds 27 1009 83 10000 1 110 00:39 12.07.2020
48 Clouds 27 1009 83 10000 1 110 00:21 12.07.2020
49 Clouds 24 1008 94 10000 1 180 23:41 11.07.2020
50 Clouds 24 1008 94 10000 1 180 23:22 11.07.2020
51 Clouds 23 1008 100 10000 2.1 200 22:57 11.07.2020
52 Clouds 23 1008 100 10000 2.1 200 22:38 11.07.2020
53 Clouds 23 1008 100 10000 2.1 200 22:20 11.07.2020
54 Clouds 23 1007 100 10000 1.87 133 21:44 11.07.2020
55 Clouds 23 1007 100 10000 1.56 142 21:25 11.07.2020
56 Clouds 23 1006 100 10000 1 180 20:59 11.07.2020
57 Clouds 23 1006 100 10000 1 180 20:41 11.07.2020
58 Clouds 23 1006 100 10000 1 180 20:21 11.07.2020
59 Clouds 26 1007 72 0 1.76 127 19:59 11.07.2020
60 Clouds 26 1007 72 0 1.76 127 19:59 11.07.2020
61 Clouds 26 1007 72 0 1.76 127 19:41 11.07.2020
62 Clouds 26 1007 72 0 2 146 19:23 11.07.2020
63 Clouds 26 1007 72 0 2 146 18:57 11.07.2020
64 Clouds 26 1007 72 0 2 146 18:39 11.07.2020
65 Clouds 26 1007 72 0 2 146 18:39 11.07.2020
66 Clouds 26 1008 73 0 2.64 130 18:19 11.07.2020
67 Clouds 26 1008 73 0 2.64 130 17:55 11.07.2020
68 Clouds 23 1009 100 10000 1 180 17:37 11.07.2020
69 Clouds 26 1008 73 0 2.9 128 17:19 11.07.2020
70 Clouds 26 1008 73 0 2.9 128 16:43 11.07.2020
71 Clouds 26 1009 73 0 3.12 129 16:24 11.07.2020
72 Clouds 26 1009 73 0 3.12 129 15:58 11.07.2020
73 Clouds 26 1009 73 0 3.12 129 15:40 11.07.2020
74 Clouds 24 1009 94 10000 1 140 15:20 11.07.2020
75 Clouds 24 1009 94 10000 1 140 14:57 11.07.2020
76 Clouds 24 1009 94 10000 1 140 14:37 11.07.2020
77 Clouds 24 1009 94 10000 1 140 14:19 11.07.2020
78 Drizzle 24 1009 100 10000 3.55 119 13:42 11.07.2020
79 Drizzle 24 1009 100 10000 3.55 119 13:42 11.07.2020
80 Drizzle 24 1009 100 10000 3.16 128 13:21 11.07.2020
81 Clouds 24 1009 100 10000 3.16 128 12:55 11.07.2020
82 Clouds 24 1009 100 10000 3.21 133 12:37 11.07.2020
83 Drizzle 25 1009 94 10000 3.21 133 12:18 11.07.2020
84 Drizzle 25 1009 94 10000 3.21 133 11:41 11.07.2020
85 Drizzle 25 1009 94 10000 4.21 127 11:21 11.07.2020
86 Clouds 25 1008 94 10000 4.21 127 10:56 11.07.2020
87 Clouds 25 1008 94 10000 4.21 127 10:38 11.07.2020
88 Clouds 25 1008 94 10000 5.19 112 10:19 11.07.2020
89 Drizzle 25 1007 94 10000 5.19 112 09:39 11.07.2020
90 Drizzle 25 1007 94 10000 6.64 94 09:20 11.07.2020
91 Rain 25 1007 94 10000 1.5 140 08:46 11.07.2020
92 Rain 25 1007 94 10000 1.5 140 08:28 11.07.2020
93 Clouds 25 1008 94 10000 3.6 140 07:56 11.07.2020
94 Clouds 25 1008 94 10000 3.6 140 07:36 11.07.2020
95 Rain 24 1008 100 0 6.2 110 07:18 11.07.2020
96 Rain 24 1008 100 0 6.2 110 06:27 11.07.2020
97 Rain 29 1008 79 10000 9.3 90 05:54 11.07.2020
98 Rain 29 1008 79 10000 9.3 90 05:19 11.07.2020
99 Rain 31 1008 74 10000 6.7 70 04:50 11.07.2020
100 Rain 31 1008 74 10000 6.7 70 04:20 11.07.2020
101 Rain 31 1008 74 10000 6.7 70 04:20 11.07.2020
102 Rain 30 1009 66 10000 3.6 90 02:54 11.07.2020
103 Rain 30 1009 66 10000 3.6 90 02:25 11.07.2020
104 Clouds 30 1009 70 10000 3.1 70 01:24 11.07.2020
105 Rain 27 1010 88 10000 2.1 160 00:57 11.07.2020
106 Rain 27 1010 88 10000 2.1 160 00:37 11.07.2020
107 Clouds 25 1009 94 10000 1.91 113 00:18 11.07.2020
108 Clouds 25 1009 94 10000 1.91 113 23:45 10.07.2020
109 Clouds 25 1009 94 10000 1.75 137 23:26 10.07.2020
110 Clouds 24 1009 94 10000 1.5 180 22:56 10.07.2020
111 Clouds 24 1009 94 10000 1.5 180 22:38 10.07.2020
112 Clouds 24 1009 94 10000 1.5 180 22:18 10.07.2020
113 Clouds 24 1008 94 10000 1.5 140 21:38 10.07.2020
114 Clouds 24 1008 94 10000 1.5 140 21:20 10.07.2020
115 Clouds 24 1008 94 10000 1.99 150 20:55 10.07.2020
116 Clouds 24 1008 94 10000 1.99 150 20:36 10.07.2020
117 Clouds 24 1008 94 10000 2.19 138 20:18 10.07.2020
118 Clouds 24 1008 94 10000 2.19 138 19:43 10.07.2020
119 Clouds 24 1009 100 10000 1 200 19:22 10.07.2020
120 Clouds 24 1009 100 10000 1 200 18:58 10.07.2020
121 Clouds 24 1009 100 10000 1 200 18:58 10.07.2020
122 Clouds 24 1009 100 10000 1 200 18:37 10.07.2020
123 Clouds 24 1009 94 10000 2.1 160 18:18 10.07.2020
124 Clouds 24 1009 94 10000 2.1 160 17:42 10.07.2020
125 Clouds 24 1009 94 10000 2.1 160 17:23 10.07.2020
126 Clouds 24 1009 100 10000 1.5 160 16:57 10.07.2020
127 Clouds 24 1009 100 10000 1.5 160 16:39 10.07.2020
128 Clouds 24 1009 100 10000 1.5 160 16:18 10.07.2020
129 Clouds 24 1010 100 10000 1 140 15:43 10.07.2020
130 Clouds 24 1010 100 10000 1 140 15:21 10.07.2020
131 Clouds 25 1010 94 10000 1 180 14:44 10.07.2020
132 Clouds 25 1010 94 10000 1 180 14:24 10.07.2020
133 Clouds 25 1010 94 10000 3.28 116 13:59 10.07.2020
134 Clouds 25 1010 94 10000 3.28 116 13:40 10.07.2020
135 Clouds 25 1010 94 10000 1 140 13:22 10.07.2020
136 Clouds 25 1010 94 10000 1 140 13:00 10.07.2020
137 Clouds 25 1010 94 10000 1 140 12:41 10.07.2020
138 Clouds 25 1010 94 10000 1 140 12:22 10.07.2020
139 Clouds 26 1009 94 10000 1 110 11:57 10.07.2020
140 Clouds 26 1009 94 10000 1 110 11:38 10.07.2020
141 Clouds 26 1009 88 10000 2.1 110 11:18 10.07.2020
142 Rain 27 1009 81 0 3.88 110 10:41 10.07.2020
143 Clouds 27 1008 83 10000 3.1 110 10:21 10.07.2020
144 Clouds 27 1008 83 10000 3.1 110 09:55 10.07.2020
145 Clouds 27 1008 83 10000 3.1 110 09:36 10.07.2020
146 Clouds 27 1008 83 10000 3.1 110 09:18 10.07.2020
147 Clouds 28 1008 83 10000 4.1 90 08:46 10.07.2020
148 Clouds 30 1008 74 10000 4.1 90 08:28 10.07.2020
149 Clouds 30 1008 74 10000 4.1 90 07:59 10.07.2020
150 Clouds 30 1008 74 10000 4.1 90 07:41 10.07.2020
151 Rain 31 1008 70 10000 5.1 90 07:20 10.07.2020
152 Rain 31 1008 70 10000 5.1 90 06:45 10.07.2020
153 Rain 32 1008 66 10000 5.1 110 05:53 10.07.2020
154 Rain 33 1009 63 10000 8.2 90 04:31 10.07.2020
155 Rain 32 1010 66 10000 6.2 110 03:22 10.07.2020
156 Clouds 31 1010 66 10000 8.2 110 02:41 10.07.2020
157 Clouds 31 1010 74 10000 4.6 110 01:33 10.07.2020
158 Clouds 29 1010 79 10000 4.6 110 00:40 10.07.2020
159 Clouds 25 1010 94 10000 1 160 00:18 10.07.2020
160 Clouds 25 1010 94 10000 1 160 23:39 09.07.2020
161 Clouds 25 1010 94 10000 1 160 23:19 09.07.2020
162 Clouds 23 1009 100 10000 3.94 114 22:57 09.07.2020
163 Clouds 24 1009 94 10000 3.94 114 22:39 09.07.2020
164 Clouds 24 1009 94 10000 3.95 121 22:20 09.07.2020
165 Clouds 24 1009 94 10000 3.95 121 21:55 09.07.2020
166 Clouds 24 1009 94 10000 3.95 121 21:36 09.07.2020
167 Clouds 24 1009 94 10000 1.5 160 21:18 09.07.2020
168 Clouds 24 1009 94 10000 1.5 160 20:41 09.07.2020
169 Clouds 24 1009 94 10000 1.5 160 20:23 09.07.2020
170 Clouds 24 1009 100 10000 1 140 19:55 09.07.2020
171 Clouds 24 1009 100 10000 1 140 19:37 09.07.2020
172 Clouds 23 1009 100 10000 3.6 140 19:18 09.07.2020
173 Clouds 23 1009 100 10000 3.6 140 18:41 09.07.2020
174 Clouds 23 1010 94 10000 2.6 110 18:19 09.07.2020
175 Clouds 23 1010 94 10000 2.6 110 17:43 09.07.2020
176 Clouds 23 1010 94 10000 2.6 110 17:25 09.07.2020
177 Clouds 23 1010 100 10000 1.5 110 16:59 09.07.2020
178 Clouds 23 1010 100 10000 1.5 110 16:41 09.07.2020
179 Clouds 23 1010 100 10000 1.5 110 16:19 09.07.2020
180 Clouds 24 1010 94 10000 1.5 160 15:59 09.07.2020
181 Clouds 24 1010 94 10000 1.5 160 15:40 09.07.2020
182 Clouds 24 1010 94 10000 1.5 160 15:21 09.07.2020
183 Clouds 24 1010 100 10000 1 160 14:58 09.07.2020
184 Clouds 24 1010 100 10000 1 160 14:40 09.07.2020
185 Clouds 24 1010 100 10000 1 160 14:22 09.07.2020
186 Clouds 25 1010 94 10000 2.1 140 13:57 09.07.2020
187 Clouds 25 1010 94 10000 2.1 140 13:38 09.07.2020
188 Clouds 25 1010 94 10000 2.1 140 13:38 09.07.2020
189 Clouds 25 1010 94 10000 2.1 140 13:19 09.07.2020
190 Clouds 26 1010 94 10000 1.5 110 12:42 09.07.2020
191 Clouds 26 1010 94 10000 1.5 110 12:24 09.07.2020
192 Clouds 26 1010 94 10000 1.5 110 12:24 09.07.2020
193 Clouds 27 1010 88 10000 3.1 110 11:58 09.07.2020
194 Clouds 27 1010 88 10000 3.1 110 11:40 09.07.2020
195 Clouds 27 1010 88 10000 3.1 110 11:19 09.07.2020
196 Clouds 28 1009 83 10000 3.1 110 10:56 09.07.2020
197 Clouds 28 1009 83 10000 3.1 110 10:56 09.07.2020
198 Clouds 28 1009 83 10000 3.1 110 10:38 09.07.2020
199 Clouds 28 1009 83 10000 3.1 110 10:19 09.07.2020
200 Clouds 28 1009 83 10000 4.1 110 09:43 09.07.2020
201 Clouds 28 1009 83 10000 4.1 110 09:22 09.07.2020
202 Clouds 30 1008 70 10000 4.1 110 08:49 09.07.2020
203 Clouds 30 1008 70 10000 4.1 110 08:26 09.07.2020
204 Clouds 32 1008 66 10000 6.2 110 07:50 09.07.2020
205 Clouds 32 1008 66 10000 6.2 110 07:31 09.07.2020
206 Clouds 32 1008 66 10000 5.1 110 06:59 09.07.2020
207 Clouds 32 1008 66 10000 5.1 110 06:20 09.07.2020
208 Clouds 30 1009 70 10000 5.7 110 05:50 09.07.2020
209 Clouds 32 1010 66 10000 8.2 110 04:29 09.07.2020
210 Clouds 32 1011 62 10000 6.2 90 02:47 09.07.2020
211 Clouds 28 1011 83 10000 2.1 110 01:55 09.07.2020
212 Clouds 27 1011 83 10000 1.5 160 00:59 09.07.2020
213 Clouds 27 1011 83 10000 1.5 160 00:38 09.07.2020
214 Thunderstorm 25 1011 94 10000 3.66 106 00:19 09.07.2020
215 Thunderstorm 25 1011 94 10000 3.66 106 23:43 08.07.2020
216 Thunderstorm 25 1011 94 10000 3.66 106 23:43 08.07.2020
217 Thunderstorm 25 1011 94 10000 3.57 118 23:24 08.07.2020
218 Clouds 24 1010 100 10000 1 140 22:55 08.07.2020
219 Clouds 24 1010 100 10000 1 140 22:36 08.07.2020
220 Clouds 24 1010 100 10000 1 140 22:36 08.07.2020
221 Clouds 24 1010 100 10000 1 140 22:18 08.07.2020
222 Clouds 25 1010 94 10000 2.1 140 21:39 08.07.2020
223 Clouds 25 1010 94 10000 2.1 140 21:21 08.07.2020
224 Rain 25 1009 94 10000 2.6 50 20:58 08.07.2020
225 Rain 25 1009 94 10000 2.6 50 20:39 08.07.2020
226 Rain 25 1009 94 10000 2.6 50 20:39 08.07.2020
227 Rain 25 1009 94 10000 2.6 50 20:21 08.07.2020
228 Rain 24 1009 100 0 2.94 129 19:43 08.07.2020
229 Rain 24 1009 100 0 2.69 136 19:24 08.07.2020
230 Rain 24 1009 100 10000 1 160 18:58 08.07.2020
231 Rain 24 1009 100 10000 1 160 18:40 08.07.2020
232 Rain 24 1009 100 10000 1 160 18:20 08.07.2020
233 Clouds 25 1010 88 10000 1.5 140 17:56 08.07.2020
234 Clouds 25 1010 88 10000 1.5 140 17:37 08.07.2020
235 Clouds 25 1010 94 10000 1.5 140 17:19 08.07.2020
236 Clouds 25 1010 94 10000 1.5 140 16:43 08.07.2020
237 Clouds 25 1010 94 10000 1.5 140 16:24 08.07.2020
238 Clouds 25 1010 94 10000 1 180 15:59 08.07.2020
239 Clouds 25 1010 94 10000 1 180 15:41 08.07.2020
240 Clouds 25 1010 94 10000 1 180 15:20 08.07.2020
241 Clouds 25 1010 94 10000 2.73 125 14:57 08.07.2020
242 Clouds 25 1010 94 10000 2.73 125 14:39 08.07.2020
243 Clouds 25 1010 94 10000 3.09 120 14:18 08.07.2020
244 Clouds 25 1010 100 10000 1 180 13:42 08.07.2020
245 Clouds 25 1010 100 10000 1 180 13:22 08.07.2020
246 Clouds 26 1010 94 10000 1 180 12:45 08.07.2020
247 Clouds 27 1009 88 10000 1.5 90 12:21 08.07.2020
248 Clouds 27 1009 88 10000 1.5 90 11:57 08.07.2020
249 Clouds 27 1009 88 10000 1.5 90 11:38 08.07.2020
250 Clouds 27 1009 88 10000 1.5 90 11:20 08.07.2020
251 Clouds 27 1010 80 0 2.86 123 10:45 08.07.2020
252 Clouds 28 1008 83 10000 1.5 90 10:26 08.07.2020
253 Clouds 28 1008 83 10000 1.5 90 09:47 08.07.2020
254 Clouds 28 1008 83 10000 1.5 90 09:26 08.07.2020
255 Clouds 30 1008 74 10000 2.6 110 08:59 08.07.2020
256 Clouds 30 1008 74 10000 2.6 110 08:39 08.07.2020
257 Clouds 30 1008 74 10000 2.6 110 08:20 08.07.2020
258 Clouds 30 1008 74 10000 2.6 110 08:20 08.07.2020
259 Clouds 30 1008 74 10000 1.5 140 07:46 08.07.2020
260 Clouds 31 1008 70 10000 2.1 140 07:22 08.07.2020
261 Clouds 31 1008 70 10000 2.1 140 06:53 08.07.2020
262 Clouds 31 1008 70 10000 2.1 140 06:32 08.07.2020
263 Clouds 30 1009 70 10000 5.1 90 05:50 08.07.2020
264 Clouds 31 1009 70 10000 5.1 90 04:58 08.07.2020
265 Clouds 31 1009 70 10000 5.1 90 04:20 08.07.2020
266 Clouds 31 1010 66 10000 6.2 140 02:20 08.07.2020
267 Clouds 30 1011 70 10000 6.2 110 01:39 08.07.2020
268 Clouds 29 1011 74 10000 5.1 110 00:56 08.07.2020
269 Clouds 29 1011 74 10000 5.1 110 00:22 08.07.2020
270 Clouds 27 1011 83 10000 3.1 110 23:44 07.07.2020
271 Clouds 27 1011 83 10000 3.1 110 23:22 07.07.2020
272 Clouds 25 1010 94 10000 1.5 160 22:58 07.07.2020
273 Clouds 25 1010 94 10000 1.5 160 22:39 07.07.2020
274 Clouds 25 1010 94 10000 1.5 160 22:20 07.07.2020
275 Clouds 25 1009 94 10000 2.1 110 21:57 07.07.2020
276 Clouds 25 1009 94 10000 2.1 110 21:38 07.07.2020
277 Clouds 25 1009 94 10000 2.1 110 21:38 07.07.2020
278 Clouds 24 1009 100 10000 2.1 160 21:19 07.07.2020
279 Clouds 24 1009 100 10000 2.1 160 20:43 07.07.2020
280 Clouds 24 1009 100 10000 2.1 160 20:23 07.07.2020
281 Clouds 24 1009 100 10000 1 180 19:59 07.07.2020
282 Clouds 24 1009 100 10000 1 180 19:39 07.07.2020
283 Clouds 24 1009 100 10000 1 180 19:20 07.07.2020
284 Clouds 24 1009 100 10000 1 180 19:20 07.07.2020
285 Clouds 24 1009 100 10000 1 180 18:55 07.07.2020
286 Clouds 24 1009 100 10000 1 180 18:37 07.07.2020
287 Clouds 24 1010 100 10000 1.5 160 18:18 07.07.2020
288 Clouds 24 1010 100 10000 1.5 160 17:44 07.07.2020
289 Clouds 24 1010 100 10000 1.5 160 17:23 07.07.2020
290 Clouds 24 1011 100 10000 1.5 140 16:59 07.07.2020
291 Clouds 24 1011 100 10000 1.5 140 16:40 07.07.2020
292 Clouds 24 1011 100 10000 1.5 140 16:22 07.07.2020
293 Clouds 24 1011 100 10000 1.5 140 15:55 07.07.2020
294 Clouds 24 1011 100 10000 1.5 140 15:36 07.07.2020
295 Clouds 24 1011 100 10000 1.5 140 15:18 07.07.2020
296 Clouds 25 1011 94 10000 2.6 116 14:42 07.07.2020
297 Clouds 25 1011 94 10000 2.49 117 14:23 07.07.2020
298 Clouds 25 1011 94 10000 1.5 140 13:43 07.07.2020
299 Clouds 26 1011 88 10000 2.1 140 13:19 07.07.2020
300 Clouds 26 1011 88 10000 2.1 140 12:47 07.07.2020
301 Clouds 26 1011 88 10000 2.1 140 12:27 07.07.2020
302 Clouds 26 1010 88 10000 1.5 160 11:59 07.07.2020
303 Clouds 26 1010 88 10000 1.5 160 11:41 07.07.2020
304 Clouds 26 1010 88 10000 1.5 160 11:21 07.07.2020
305 Rain 27 1009 83 10000 3.1 110 10:58 07.07.2020
306 Rain 27 1009 83 10000 3.1 110 10:38 07.07.2020
307 Rain 27 1009 83 10000 3.1 110 10:19 07.07.2020
308 Rain 29 1009 79 10000 3.1 90 09:41 07.07.2020
309 Rain 29 1009 79 10000 3.1 90 09:21 07.07.2020
310 Clouds 31 1008 70 10000 3.1 50 08:43 07.07.2020
311 Clouds 31 1008 70 10000 3.1 50 08:24 07.07.2020
312 Clouds 31 1008 74 10000 5.1 70 07:49 07.07.2020
313 Clouds 31 1008 74 10000 5.1 70 07:27 07.07.2020
314 Clouds 31 1008 74 10000 6.2 50 06:50 07.07.2020
315 Clouds 31 1008 74 10000 6.2 50 06:50 07.07.2020
316 Clouds 31 1008 74 10000 6.2 50 06:31 07.07.2020
317 Clouds 31 1008 74 10000 4.1 50 05:54 07.07.2020
318 Clouds 31 1008 74 10000 4.1 50 05:23 07.07.2020
319 Clouds 32 1010 70 10000 4.1 50 04:42 07.07.2020
320 Clouds 31 1010 70 10000 4.1 50 03:41 07.07.2020
321 Clouds 31 1011 66 10000 4.1 90 02:28 07.07.2020
322 Clouds 30 1012 74 10000 4.1 90 01:25 07.07.2020
323 Clouds 28 1012 78 10000 2.1 160 00:44 07.07.2020
324 Clouds 28 1012 78 10000 2.1 160 00:25 07.07.2020
325 Clouds 24 1011 94 10000 1 180 23:59 06.07.2020
326 Clouds 24 1011 94 10000 1 180 23:40 06.07.2020
327 Clouds 24 1011 94 10000 1 180 23:22 06.07.2020
328 Clouds 23 1011 94 10000 2.1 180 22:41 06.07.2020
329 Clouds 23 1011 94 10000 2.1 180 22:41 06.07.2020
330 Clouds 23 1011 94 10000 2.1 180 22:20 06.07.2020
331 Clouds 23 1010 100 10000 2.1 180 21:57 06.07.2020
332 Clouds 23 1010 100 10000 2.1 180 21:39 06.07.2020
333 Clouds 23 1010 100 10000 2.1 180 21:39 06.07.2020
334 Clouds 23 1010 100 10000 2.1 180 21:19 06.07.2020
335 Clouds 23 1010 100 10000 2.1 180 20:59 06.07.2020
336 Clouds 23 1010 100 10000 2.1 180 20:38 06.07.2020
337 Clouds 23 1010 100 10000 2.1 180 20:20 06.07.2020
338 Clouds 23 1010 100 10000 2.1 180 19:56 06.07.2020
339 Clouds 23 1010 100 10000 2.1 180 19:38 06.07.2020
340 Clouds 23 1010 100 10000 2.1 160 19:20 06.07.2020
341 Clouds 23 1010 100 10000 2.1 160 18:41 06.07.2020
342 Clouds 24 1011 94 10000 1 160 18:23 06.07.2020
343 Clouds 24 1011 94 10000 1 160 17:59 06.07.2020
344 Clouds 24 1011 94 10000 1 160 17:41 06.07.2020
345 Clouds 24 1011 94 10000 1 160 17:21 06.07.2020
346 Clouds 24 1011 94 10000 1.5 160 16:55 06.07.2020
347 Clouds 24 1011 94 10000 1.5 160 16:37 06.07.2020
348 Clouds 24 1011 94 10000 1.5 160 16:18 06.07.2020
349 Clouds 24 1011 94 10000 1.5 160 16:18 06.07.2020
350 Clouds 24 1012 100 10000 1 180 15:42 06.07.2020
351 Clouds 24 1012 100 10000 1 180 15:24 06.07.2020
352 Clouds 25 1012 94 10000 1 160 14:56 06.07.2020
353 Clouds 25 1012 94 10000 1 160 14:37 06.07.2020
354 Clouds 25 1012 94 10000 1 160 14:18 06.07.2020
355 Clouds 25 1012 94 10000 1.55 160 13:44 06.07.2020
356 Clouds 25 1012 94 10000 2.22 147 13:26 06.07.2020
357 Clouds 26 1012 83 10000 1.5 200 12:56 06.07.2020
358 Clouds 26 1012 83 10000 1.5 200 12:38 06.07.2020
359 Clouds 26 1012 83 10000 1.5 200 12:18 06.07.2020
360 Clouds 26 1012 83 10000 1.5 200 11:42 06.07.2020
361 Clouds 26 1012 83 10000 1.5 200 11:24 06.07.2020
362 Rain 26 1011 88 10000 1.5 200 10:59 06.07.2020
363 Rain 26 1011 88 10000 1.5 200 10:41 06.07.2020
364 Rain 26 1011 88 10000 1.5 200 10:21 06.07.2020
365 Rain 27 1010 83 10000 1.5 230 09:55 06.07.2020
366 Rain 27 1010 83 10000 1.5 230 09:37 06.07.2020
367 Rain 27 1010 83 10000 1.5 230 09:18 06.07.2020
368 Rain 29 1009 79 10000 3.6 160 08:40 06.07.2020
369 Rain 29 1009 79 10000 3.6 160 08:22 06.07.2020
370 Clouds 30 1009 74 10000 3.6 90 07:50 06.07.2020
371 Clouds 30 1009 74 10000 3.6 90 07:30 06.07.2020
372 Rain 31 1009 74 10000 6.2 50 06:55 06.07.2020
373 Rain 31 1009 74 10000 6.2 50 06:37 06.07.2020
374 Rain 31 1010 74 10000 6.7 50 05:53 06.07.2020
375 Rain 31 1010 74 10000 6.7 50 05:26 06.07.2020
376 Clouds 31 1011 70 10000 3.1 20 03:58 06.07.2020
377 Clouds 31 1012 70 10000 2.6 90 02:32 06.07.2020
378 Clouds 28 1012 83 10000 2.1 110 01:54 06.07.2020
379 Clouds 26 1012 94 10000 1 140 00:49 06.07.2020
380 Clouds 26 1012 94 10000 1 140 00:23 06.07.2020
381 Clouds 25 1012 94 10000 1 160 23:54 05.07.2020
382 Clouds 25 1012 94 10000 1 160 23:36 05.07.2020
383 Clouds 25 1012 94 10000 1 160 23:18 05.07.2020
384 Clouds 23 1011 100 10000 1.5 180 22:41 05.07.2020
385 Clouds 23 1011 100 10000 1.5 180 22:20 05.07.2020
386 Clouds 23 1010 100 10000 1 200 21:58 05.07.2020
387 Clouds 23 1010 100 10000 1 200 21:40 05.07.2020
388 Clouds 23 1010 100 10000 1 200 21:19 05.07.2020
389 Clouds 23 1010 100 10000 1 180 20:58 05.07.2020
390 Clouds 23 1010 100 10000 1 180 20:39 05.07.2020
391 Clouds 23 1010 100 10000 1 180 20:20 05.07.2020
392 Clouds 23 1010 100 10000 1 180 20:20 05.07.2020
393 Rain 25 1009 80 0 1.36 167 19:43 05.07.2020
394 Clouds 25 1009 80 0 1.45 158 19:22 05.07.2020
395 Clouds 25 1009 80 0 1.45 158 18:58 05.07.2020
396 Clouds 25 1009 80 0 1.45 158 18:58 05.07.2020
397 Clouds 25 1009 80 0 1.45 158 18:40 05.07.2020
398 Clouds 24 1010 94 10000 2.1 180 18:21 05.07.2020
399 Clouds 24 1010 94 10000 2.1 180 17:55 05.07.2020
400 Clouds 24 1010 94 10000 2.1 180 17:37 05.07.2020
401 Clouds 24 1010 94 10000 2.1 180 17:18 05.07.2020
402 Clouds 24 1010 100 10000 2.1 160 16:42 05.07.2020
403 Clouds 24 1010 100 10000 2.1 160 16:24 05.07.2020
404 Clouds 24 1011 100 10000 1.5 110 15:54 05.07.2020
405 Clouds 24 1011 100 10000 1.5 110 15:36 05.07.2020
406 Clouds 24 1011 100 10000 1.5 110 15:18 05.07.2020
407 Clouds 24 1010 100 10000 1 140 14:40 05.07.2020
408 Clouds 24 1010 100 10000 1 140 14:20 05.07.2020
409 Clouds 24 1010 100 10000 1 140 14:20 05.07.2020
410 Clouds 24 1010 100 10000 1 140 13:42 05.07.2020
411 Clouds 24 1010 100 10000 1 140 13:23 05.07.2020
412 Clouds 24 1010 100 10000 2.1 140 12:47 05.07.2020
413 Clouds 24 1010 100 10000 2.1 140 12:26 05.07.2020
414 Clouds 26 1009 94 10000 1.9 145 11:58 05.07.2020
415 Clouds 26 1009 94 10000 1.9 145 11:39 05.07.2020
416 Clouds 26 1009 94 10000 1.57 138 11:21 05.07.2020
417 Clouds 26 1009 94 10000 1 180 10:58 05.07.2020
418 Clouds 26 1009 94 10000 1 180 10:39 05.07.2020
419 Clouds 26 1009 94 10000 1 180 10:19 05.07.2020
420 Drizzle 27 1009 94 10000 3.6 50 09:42 05.07.2020
421 Drizzle 27 1009 94 10000 3.6 50 09:21 05.07.2020
422 Thunderstorm 29 1008 83 10000 3.6 50 08:58 05.07.2020
423 Thunderstorm 29 1008 83 10000 3.6 50 08:38 05.07.2020
424 Thunderstorm 29 1008 83 10000 3.6 50 08:20 05.07.2020
425 Clouds 28 1008 83 10000 1.61 91 07:44 05.07.2020
426 Rain 31 1008 74 10000 3.6 50 07:26 05.07.2020
427 Rain 31 1008 74 10000 3.6 50 06:49 05.07.2020
428 Clouds 32 1009 70 10000 3.6 20 04:42 05.07.2020
429 Clouds 32 1011 62 10000 3.6 90 03:19 05.07.2020
430 Clouds 32 1011 62 10000 3.6 90 02:41 05.07.2020
431 Clouds 31 1011 70 10000 2.6 90 01:59 05.07.2020
432 Clouds 31 1011 70 10000 2.6 90 01:31 05.07.2020
433 Clouds 29 1011 79 10000 2.6 110 00:53 05.07.2020
434 Clouds 29 1011 79 10000 2.6 110 00:31 05.07.2020
435 Rain 24 1011 100 10000 2.16 118 23:57 04.07.2020
436 Rain 24 1011 100 10000 2.16 118 23:39 04.07.2020
437 Rain 24 1011 100 10000 2.39 129 23:20 04.07.2020
438 Clouds 23 1010 100 10000 1 140 22:42 04.07.2020
439 Clouds 23 1010 100 10000 1 140 22:24 04.07.2020
440 Drizzle 23 1010 100 10000 1.5 230 21:58 04.07.2020
441 Drizzle 23 1010 100 10000 1.5 230 21:40 04.07.2020
442 Drizzle 23 1010 100 10000 1.5 230 21:22 04.07.2020
443 Clouds 24 1010 100 10000 2.53 130 20:43 04.07.2020
444 Clouds 24 1010 100 10000 2.71 130 20:21 04.07.2020
445 Clouds 25 1010 78 0 2.71 130 19:58 04.07.2020
446 Clouds 25 1010 78 0 2.71 130 19:39 04.07.2020
447 Rain 25 1009 78 0 2.77 127 19:20 04.07.2020
448 Rain 25 1009 78 0 2.77 127 18:44 04.07.2020
449 Clouds 23 1010 100 10000 2.85 122 18:23 04.07.2020
450 Clouds 23 1010 100 10000 2.85 122 17:46 04.07.2020
451 Clouds 23 1010 100 10000 2.86 116 17:28 04.07.2020
452 Clouds 24 1010 94 10000 1.5 160 16:59 04.07.2020
453 Clouds 24 1010 94 10000 1.5 160 16:40 04.07.2020
454 Clouds 24 1010 94 10000 1.5 160 16:39 04.07.2020
455 Clouds 24 1010 94 10000 1.5 160 16:21 04.07.2020
456 Clouds 24 1011 94 10000 2.1 140 15:58 04.07.2020
457 Clouds 24 1011 94 10000 2.1 140 15:40 04.07.2020
458 Clouds 24 1011 94 10000 2.1 140 15:21 04.07.2020
459 Clouds 24 1011 94 10000 2.1 160 14:55 04.07.2020
460 Clouds 24 1011 94 10000 2.1 160 14:36 04.07.2020
461 Clouds 24 1011 94 10000 2.1 160 14:18 04.07.2020
462 Clouds 25 1011 94 10000 1.5 160 13:41 04.07.2020
463 Clouds 25 1011 94 10000 1.5 180 13:19 04.07.2020
464 Clouds 25 1011 94 10000 1.5 180 12:43 04.07.2020
465 Clouds 25 1011 94 10000 1.5 180 12:23 04.07.2020
466 Clouds 26 1010 88 10000 1.5 140 11:59 04.07.2020
467 Clouds 26 1010 88 10000 1.5 140 11:40 04.07.2020
468 Clouds 26 1010 88 10000 1.5 140 11:21 04.07.2020
469 Rain 26 1010 79 0 3.45 115 10:54 04.07.2020
470 Rain 26 1010 79 0 3.45 115 10:36 04.07.2020
471 Rain 26 1010 80 0 3.47 112 10:18 04.07.2020
472 Rain 26 1010 80 0 3.47 112 09:40 04.07.2020
473 Clouds 31 1008 70 10000 3.1 110 09:20 04.07.2020
474 Clouds 31 1008 70 10000 3.1 110 08:50 04.07.2020
475 Clouds 31 1008 70 10000 3.1 110 08:32 04.07.2020
476 Clouds 32 1008 66 10000 5.1 110 07:54 04.07.2020
477 Clouds 32 1008 66 10000 5.1 110 07:35 04.07.2020
478 Clouds 32 1007 66 10000 6.2 140 06:56 04.07.2020
479 Clouds 32 1007 66 10000 6.2 140 06:23 04.07.2020
480 Clouds 29 1008 83 10000 4.1 140 05:40 04.07.2020
481 Clouds 31 1009 70 10000 4.1 110 04:55 04.07.2020
482 Clouds 30 1010 74 10000 5.7 140 03:19 04.07.2020
483 Clouds 32 1011 70 10000 5.7 110 02:27 04.07.2020
484 Clouds 30 1011 70 10000 4.1 110 01:35 04.07.2020
485 Clouds 29 1011 79 10000 4.1 140 00:44 04.07.2020
486 Clouds 29 1011 79 10000 4.1 140 00:25 04.07.2020
487 Clouds 24 1011 94 10000 2.1 140 23:41 03.07.2020
488 Clouds 24 1011 94 10000 2.1 140 23:19 03.07.2020
489 Clouds 23 1010 100 10000 1 110 22:58 03.07.2020
490 Clouds 23 1010 100 10000 1 110 22:39 03.07.2020
491 Clouds 23 1010 100 10000 1 110 22:21 03.07.2020
492 Clouds 23 1010 94 10000 1 160 21:43 03.07.2020
493 Clouds 23 1010 94 10000 1 160 21:20 03.07.2020
494 Rain 23 1010 94 10000 2.1 110 20:56 03.07.2020
495 Rain 23 1010 94 10000 2.1 110 20:56 03.07.2020
496 Rain 23 1010 94 10000 2.1 110 20:38 03.07.2020
497 Rain 23 1010 94 10000 2.1 110 20:20 03.07.2020
498 Clouds 25 1010 82 0 3.12 124 19:41 03.07.2020
499 Thunderstorm 23 1009 100 10000 2.6 180 19:21 03.07.2020
500 Thunderstorm 23 1009 100 10000 2.6 180 18:57 03.07.2020
501 Thunderstorm 23 1009 100 10000 2.6 180 18:39 03.07.2020
502 Clouds 23 1010 100 10000 3.39 110 18:20 03.07.2020
503 Clouds 23 1010 100 10000 3.39 110 17:43 03.07.2020
504 Clouds 24 1010 94 10000 1.5 70 17:22 03.07.2020
505 Clouds 24 1010 94 10000 1.5 70 16:46 03.07.2020
506 Clouds 24 1010 94 10000 1.5 70 16:27 03.07.2020
507 Clouds 24 1011 100 10000 3.1 180 15:48 03.07.2020
508 Clouds 24 1011 100 10000 3.1 180 15:26 03.07.2020
509 Clouds 25 1011 94 10000 2.1 50 14:59 03.07.2020
510 Clouds 25 1011 94 10000 2.1 50 14:41 03.07.2020
511 Clouds 25 1011 94 10000 2.1 50 14:22 03.07.2020
512 Clouds 25 1011 94 10000 1 200 13:48 03.07.2020
513 Clouds 25 1011 94 10000 1 200 13:29 03.07.2020
514 Clouds 25 1011 94 10000 1 160 12:59 03.07.2020
515 Clouds 25 1011 94 10000 1 160 12:40 03.07.2020
516 Clouds 26 1010 94 10000 1 180 12:20 03.07.2020
517 Clouds 26 1010 94 10000 1 180 11:44 03.07.2020
518 Clouds 26 1010 94 10000 1 180 11:25 03.07.2020
519 Clouds 26 1010 94 10000 2.1 140 10:59 03.07.2020
520 Clouds 26 1010 94 10000 2.1 140 10:40 03.07.2020
521 Clouds 26 1010 94 10000 2.1 140 10:21 03.07.2020
522 Clouds 27 1009 88 10000 1 250 09:56 03.07.2020
523 Clouds 27 1009 88 10000 1 250 09:37 03.07.2020
524 Clouds 27 1009 88 10000 1 250 09:18 03.07.2020
525 Clouds 27 1009 88 10000 2.33 117 08:40 03.07.2020
526 Clouds 27 1009 88 10000 2.6 109 08:19 03.07.2020
527 Clouds 27 1009 88 10000 2.1 140 07:50 03.07.2020
528 Clouds 27 1009 88 10000 2.1 140 07:27 03.07.2020
529 Clouds 27 1009 88 10000 2.6 110 06:54 03.07.2020
530 Clouds 27 1010 83 10000 2.6 90 06:20 03.07.2020
531 Rain 28 1010 78 0 3.59 90 04:55 03.07.2020
532 Clouds 29 1012 74 10000 4.1 90 03:32 03.07.2020
533 Clouds 29 1012 70 10000 1.5 110 02:47 03.07.2020
534 Clouds 29 1012 70 10000 1.5 110 02:27 03.07.2020
535 Clouds 29 1012 74 10000 2.1 140 01:28 03.07.2020
536 Clouds 27 1012 83 10000 1 250 00:49 03.07.2020
537 Clouds 27 1012 83 10000 1 250 00:28 03.07.2020
538 Clouds 24 1011 94 10000 1 180 23:47 02.07.2020
539 Clouds 24 1011 94 10000 1 180 23:20 02.07.2020
540 Clouds 24 1011 94 10000 1 360 22:58 02.07.2020
541 Clouds 24 1011 94 10000 1 360 22:39 02.07.2020
542 Clouds 24 1011 94 10000 1 360 22:20 02.07.2020
543 Clouds 24 1010 94 10000 1.5 200 21:55 02.07.2020
544 Clouds 24 1010 94 10000 1.5 200 21:37 02.07.2020
545 Clouds 24 1010 94 10000 1.5 200 21:18 02.07.2020
546 Clouds 24 1010 94 10000 2.6 180 20:42 02.07.2020
547 Clouds 24 1010 94 10000 2.6 180 20:21 02.07.2020
548 Rain 25 1011 87 0 2.49 123 19:59 02.07.2020
549 Clouds 24 1010 94 10000 2.6 110 19:38 02.07.2020
550 Clouds 24 1010 94 10000 2.6 110 19:20 02.07.2020
551 Clouds 24 1010 94 10000 2.6 110 18:57 02.07.2020
552 Clouds 24 1010 94 10000 2.6 110 18:38 02.07.2020
553 Clouds 24 1010 94 10000 2.1 110 18:20 02.07.2020
554 Clouds 24 1010 94 10000 2.1 110 17:40 02.07.2020
555 Clouds 24 1010 94 10000 2.1 110 17:20 02.07.2020
556 Clouds 24 1011 94 10000 2.1 160 16:56 02.07.2020
557 Clouds 24 1011 94 10000 2.1 160 16:38 02.07.2020
558 Clouds 24 1011 94 10000 2.1 160 16:19 02.07.2020
559 Clouds 25 1012 94 10000 4.1 140 15:54 02.07.2020
560 Clouds 25 1012 94 10000 4.1 140 15:36 02.07.2020
561 Clouds 25 1012 94 10000 4.1 140 15:18 02.07.2020
562 Clouds 24 1012 100 10000 3.42 116 14:42 02.07.2020
563 Clouds 24 1012 100 10000 3.4 125 14:19 02.07.2020
564 Clouds 24 1012 100 10000 1.5 200 13:40 02.07.2020
565 Clouds 24 1012 100 10000 1.5 200 13:21 02.07.2020
566 Clouds 24 1012 100 10000 1 110 12:59 02.07.2020
567 Clouds 24 1012 100 10000 1 110 12:39 02.07.2020
568 Clouds 24 1012 100 10000 1 110 12:21 02.07.2020
569 Clouds 25 1011 94 10000 1.5 110 11:44 02.07.2020
570 Clouds 25 1011 94 10000 1.5 110 11:26 02.07.2020
571 Clouds 25 1011 94 10000 1.5 140 10:48 02.07.2020
572 Clouds 25 1011 94 10000 1.5 140 10:28 02.07.2020
573 Clouds 25 1011 94 10000 1.5 140 10:28 02.07.2020
574 Clouds 25 1011 94 10000 1.5 140 10:28 02.07.2020
575 Clouds 26 1010 88 10000 1.5 70 09:59 02.07.2020
576 Clouds 26 1010 88 10000 1.5 70 09:40 02.07.2020
577 Clouds 26 1010 88 10000 1.5 70 09:20 02.07.2020
578 Rain 27 1009 83 10000 2.6 140 08:55 02.07.2020
579 Rain 27 1009 83 10000 2.6 140 08:37 02.07.2020
580 Clouds 28 1009 78 10000 4.1 110 08:18 02.07.2020
581 Clouds 28 1009 78 10000 4.1 110 07:40 02.07.2020
582 Clouds 28 1009 78 10000 4.1 110 07:19 02.07.2020
583 Clouds 28 1009 78 10000 4.1 110 06:40 02.07.2020
584 Clouds 28 1009 78 10000 4.1 110 06:20 02.07.2020
585 Clouds 28 1009 78 10000 4.1 110 05:44 02.07.2020
586 Clouds 29 1010 74 10000 1 200 03:57 02.07.2020
587 Clouds 29 1010 74 10000 1 200 03:31 02.07.2020
588 Drizzle 24 1012 94 10000 1.5 200 00:54 02.07.2020
589 Drizzle 24 1012 94 10000 1.5 200 00:25 02.07.2020
590 Drizzle 23 1011 94 10000 1.5 180 23:48 01.07.2020
591 Drizzle 23 1011 94 10000 1.5 180 23:30 01.07.2020
592 Rain 23 1010 94 10000 2.1 90 22:57 01.07.2020
593 Rain 23 1010 94 10000 2.1 90 22:38 01.07.2020
594 Rain 23 1010 94 10000 2.1 90 22:19 01.07.2020
595 Clouds 25 1011 81 0 2.11 137 21:58 01.07.2020
596 Clouds 25 1011 81 0 2.11 137 21:40 01.07.2020
597 Clouds 23 1010 94 10000 2.1 140 21:22 01.07.2020
598 Clouds 23 1010 94 10000 2.1 140 20:56 01.07.2020
599 Clouds 23 1010 94 10000 2.1 140 20:56 01.07.2020
600 Clouds 23 1010 94 10000 2.1 140 20:38 01.07.2020
601 Clouds 23 1010 94 10000 2.1 140 20:38 01.07.2020
602 Clouds 23 1009 94 10000 2.1 160 20:19 01.07.2020
603 Clouds 23 1009 94 10000 2.1 160 19:43 01.07.2020
604 Clouds 23 1009 94 10000 2.1 160 19:24 01.07.2020
605 Clouds 23 1009 94 10000 2.48 130 18:59 01.07.2020
606 Clouds 23 1009 94 10000 2.48 130 18:40 01.07.2020
607 Clouds 23 1009 94 10000 2.57 127 18:21 01.07.2020
608 Clouds 25 1010 82 0 2.57 127 17:56 01.07.2020
609 Clouds 24 1009 94 10000 2.57 127 17:37 01.07.2020
610 Clouds 24 1009 94 10000 2.6 124 17:18 01.07.2020
611 Clouds 24 1009 94 10000 2.6 124 16:43 01.07.2020
612 Clouds 24 1009 94 10000 2.55 121 16:24 01.07.2020
613 Clouds 24 1010 94 10000 2.1 200 15:43 01.07.2020
614 Clouds 24 1010 94 10000 2.1 200 15:25 01.07.2020
615 Clouds 24 1010 94 10000 2.42 124 14:59 01.07.2020
616 Clouds 24 1010 94 10000 2.42 124 14:41 01.07.2020
617 Clouds 24 1010 94 10000 2.97 123 14:20 01.07.2020
618 Clouds 24 1010 94 10000 1 200 13:55 01.07.2020
619 Clouds 24 1010 94 10000 1 200 13:37 01.07.2020
620 Clouds 24 1010 94 10000 1 200 13:37 01.07.2020
621 Rain 24 1010 100 10000 2.6 140 13:18 01.07.2020
622 Rain 24 1010 100 10000 2.6 140 12:41 01.07.2020
623 Rain 24 1010 100 10000 2.6 140 12:23 01.07.2020
624 Rain 24 1010 100 10000 2.6 140 12:23 01.07.2020
625 Rain 25 1010 88 10000 1.5 140 11:58 01.07.2020
626 Rain 25 1010 88 10000 1.5 140 11:40 01.07.2020
627 Rain 25 1010 88 10000 1.5 140 11:21 01.07.2020
628 Clouds 25 1009 94 10000 2.1 160 10:55 01.07.2020
629 Clouds 25 1009 94 10000 2.1 160 10:55 01.07.2020
630 Clouds 25 1009 94 10000 2.1 160 10:36 01.07.2020
631 Clouds 25 1009 94 10000 2.1 160 10:18 01.07.2020
632 Clouds 26 1009 88 10000 1.5 160 09:38 01.07.2020
633 Clouds 26 1009 88 10000 1.5 160 09:20 01.07.2020
634 Clouds 26 1009 88 10000 1.5 160 09:20 01.07.2020
635 Rain 27 1008 78 10000 3.1 180 08:57 01.07.2020
636 Rain 27 1008 78 10000 3.1 180 08:38 01.07.2020
637 Rain 27 1008 78 10000 3.1 180 08:19 01.07.2020
638 Clouds 27 1008 83 10000 3.1 200 07:41 01.07.2020
639 Thunderstorm 28 1007 78 10000 3.1 200 07:21 01.07.2020
640 Thunderstorm 28 1007 78 10000 3.1 200 06:51 01.07.2020
641 Thunderstorm 31 1007 70 10000 5.1 70 06:30 01.07.2020
642 Rain 30 1007 79 10000 5.1 50 05:30 01.07.2020
643 Clouds 31 1009 66 10000 3.6 50 03:55 01.07.2020
644 Clouds 31 1009 66 10000 3.6 50 03:36 01.07.2020
645 Clouds 31 1009 66 10000 3.6 50 03:18 01.07.2020
646 Clouds 32 1010 59 10000 2.1 70 01:53 01.07.2020
647 Clouds 29 1010 70 10000 2.1 200 00:48 01.07.2020
648 Clouds 29 1010 70 10000 2.1 200 00:26 01.07.2020
649 Clouds 25 1010 88 10000 1 180 23:43 30.06.2020
650 Clouds 25 1010 88 10000 1 180 23:23 30.06.2020
651 Clouds 23 1009 100 10000 1.5 110 22:59 30.06.2020
652 Clouds 23 1009 100 10000 1.5 110 22:40 30.06.2020
653 Clouds 23 1009 100 10000 1.5 110 22:18 30.06.2020
654 Clouds 23 1008 94 10000 1.5 160 21:41 30.06.2020
655 Clouds 23 1008 94 10000 1.5 160 21:19 30.06.2020
656 Clouds 24 1008 94 10000 1 160 20:54 30.06.2020
657 Clouds 24 1008 94 10000 1 160 20:36 30.06.2020
658 Clouds 24 1008 94 10000 1 160 20:18 30.06.2020
659 Clouds 24 1008 94 10000 1.5 180 19:41 30.06.2020
660 Clouds 25 1009 81 0 1.71 132 19:19 30.06.2020
661 Clouds 25 1009 81 0 1.71 132 19:19 30.06.2020
662 Clouds 25 1009 81 0 1.71 132 18:43 30.06.2020
663 Clouds 25 1009 88 10000 1 180 18:21 30.06.2020
664 Clouds 25 1009 88 10000 1 180 17:59 30.06.2020
665 Clouds 25 1009 88 10000 1 180 17:37 30.06.2020
666 Clouds 25 1009 88 10000 1 180 17:19 30.06.2020
667 Clouds 25 1009 94 10000 1 230 16:43 30.06.2020
668 Clouds 25 1009 94 10000 1 230 16:23 30.06.2020
669 Clouds 25 1010 94 10000 1.5 180 15:57 30.06.2020
670 Clouds 25 1010 94 10000 1.5 180 15:39 30.06.2020
671 Clouds 25 1010 94 10000 1.5 180 15:21 30.06.2020
672 Clouds 25 1010 94 10000 1 140 14:47 30.06.2020
673 Clouds 25 1010 94 10000 1 140 14:23 30.06.2020
674 Clouds 25 1010 94 10000 1 160 13:59 30.06.2020
675 Clouds 25 1010 94 10000 1 160 13:39 30.06.2020
676 Clouds 25 1010 94 10000 1.5 180 13:20 30.06.2020
677 Clouds 25 1010 94 10000 1.5 180 12:57 30.06.2020
678 Clouds 25 1010 94 10000 1.5 180 12:39 30.06.2020
679 Clouds 26 1010 88 10000 0.66 171 12:20 30.06.2020
680 Clouds 26 1010 88 10000 0.66 171 11:57 30.06.2020
681 Clouds 26 1010 88 10000 0.66 171 11:38 30.06.2020
682 Clouds 26 1010 88 10000 0.46 162 11:18 30.06.2020
683 Clouds 26 1009 88 10000 0.46 162 10:54 30.06.2020
684 Clouds 24 1010 100 10000 1.25 154 16:38 28.06.2020
685 Clouds 25 1010 94 10000 1.5 160 16:18 28.06.2020
686 Clouds 25 1010 94 10000 1.5 160 15:54 28.06.2020
687 Clouds 25 1010 94 10000 1.5 160 15:36 28.06.2020
688 Clouds 25 1010 94 10000 1.5 160 15:18 28.06.2020
689 Clouds 25 1010 94 10000 1.68 135 14:41 28.06.2020
690 Clouds 25 1010 94 10000 1.95 134 14:23 28.06.2020
691 Clouds 25 1010 94 10000 1 160 13:40 28.06.2020
692 Clouds 26 1010 88 10000 1 160 13:21 28.06.2020
693 Clouds 26 1010 88 10000 1 160 12:58 28.06.2020
694 Clouds 26 1010 88 10000 1 160 12:38 28.06.2020
695 Clouds 27 1009 83 10000 1 110 12:19 28.06.2020
696 Clouds 27 1009 83 10000 1 110 11:59 28.06.2020
697 Clouds 27 1009 83 10000 1 110 11:40 28.06.2020
698 Clouds 27 1009 83 10000 1.5 160 11:20 28.06.2020
699 Clouds 27 1009 83 10000 1.5 160 10:58 28.06.2020
700 Clouds 27 1009 83 10000 1.5 160 10:40 28.06.2020
701 Clouds 27 1009 83 10000 1.5 160 10:21 28.06.2020
702 Clouds 27 1009 83 10000 1.5 160 10:21 28.06.2020
703 Clouds 29 1008 74 10000 3.6 90 09:41 28.06.2020
704 Clouds 29 1008 74 10000 3.6 90 09:22 28.06.2020
705 Clouds 31 1008 66 10000 5.1 70 08:55 28.06.2020
706 Clouds 31 1008 66 10000 5.1 70 08:35 28.06.2020
707 Clouds 31 1007 70 10000 5.1 70 07:55 28.06.2020
708 Clouds 31 1007 70 10000 5.1 70 07:31 28.06.2020
709 Clouds 32 1007 62 10000 5.1 70 06:55 28.06.2020
710 Clouds 33 1008 59 10000 4.1 70 06:32 28.06.2020
711 Clouds 33 1008 59 10000 4.1 70 05:30 28.06.2020
712 -273 0 0 0 0 0 03:52 28.06.2020
713 Clouds 31 1011 66 10000 3.1 140 02:51 28.06.2020
714 Clouds 31 1011 66 10000 3.1 140 02:19 28.06.2020
715 Clouds 30 1011 60 0 1.26 112 01:27 28.06.2020
716 Clouds 27 1011 74 10000 1 250 00:51 28.06.2020
717 Clouds 27 1011 74 10000 1 250 00:27 28.06.2020
718 Clouds 24 1011 88 10000 1.5 160 23:43 27.06.2020
719 Clouds 24 1011 88 10000 1.5 160 23:24 27.06.2020
720 Clouds 22 1010 100 10000 1.7 147 22:59 27.06.2020
721 Clouds 22 1010 100 10000 1.7 147 22:40 27.06.2020
722 Clouds 22 1010 100 10000 1.7 147 22:40 27.06.2020
723 Clouds 22 1010 100 10000 1.67 149 22:22 27.06.2020
724 Clouds 23 1009 94 10000 1.67 149 21:56 27.06.2020
725 Clouds 23 1009 94 10000 1.67 149 21:38 27.06.2020
726 Clouds 23 1009 94 10000 1.7 165 21:19 27.06.2020
727 Clouds 23 1009 94 10000 1.5 160 20:44 27.06.2020
728 Clouds 23 1009 94 10000 1.5 160 20:19 27.06.2020
729 Clouds 23 1009 94 10000 1.5 160 19:56 27.06.2020
730 Clouds 23 1009 94 10000 1.5 160 19:37 27.06.2020
731 Clouds 23 1009 94 10000 1.72 154 19:18 27.06.2020
732 Clouds 23 1009 94 10000 1.72 154 18:46 27.06.2020
733 Clouds 23 1009 94 10000 1.95 159 18:28 27.06.2020
734 Clouds 23 1010 94 10000 1 140 17:58 27.06.2020
735 Clouds 23 1010 94 10000 1 140 17:38 27.06.2020
736 Clouds 23 1010 94 10000 1 140 17:19 27.06.2020
737 Clouds 23 1010 94 10000 1 180 16:46 27.06.2020
738 Clouds 23 1010 94 10000 1 180 16:27 27.06.2020
739 Clouds 23 1010 94 10000 1.5 140 15:55 27.06.2020
740 Clouds 23 1010 94 10000 1.5 140 15:55 27.06.2020
741 Clouds 23 1010 94 10000 1.5 140 15:37 27.06.2020
742 Clouds 23 1010 94 10000 1.5 140 15:18 27.06.2020
743 Clouds 23 1011 100 10000 1.5 160 14:42 27.06.2020
744 Clouds 23 1011 100 10000 1.5 160 14:24 27.06.2020
745 Clouds 24 1011 94 10000 2.6 90 13:57 27.06.2020
746 Clouds 24 1011 94 10000 2.6 90 13:37 27.06.2020
747 Clouds 24 1011 100 10000 2.9 121 13:19 27.06.2020
748 Clouds 24 1011 100 10000 2.9 121 12:56 27.06.2020
749 Clouds 24 1011 100 10000 2.9 121 12:37 27.06.2020
750 Clouds 26 1010 88 10000 1.5 200 12:19 27.06.2020
751 Clouds 26 1010 88 10000 1.5 200 11:42 27.06.2020
752 Clouds 26 1010 88 10000 1.5 200 11:23 27.06.2020
753 Clouds 27 1009 83 10000 4.1 90 10:57 27.06.2020
754 Clouds 27 1009 83 10000 4.1 90 10:38 27.06.2020
755 Clouds 27 1009 83 10000 4.1 90 10:18 27.06.2020
756 Clouds 29 1009 74 10000 4.1 90 09:41 27.06.2020
757 Clouds 29 1009 74 10000 4.1 90 09:21 27.06.2020
758 Clouds 31 1008 62 10000 5.1 90 08:56 27.06.2020
759 Clouds 31 1008 62 10000 5.1 90 08:37 27.06.2020
760 Clouds 31 1008 62 10000 5.1 90 08:19 27.06.2020
761 Clouds 32 1007 62 10000 8.2 90 07:38 27.06.2020
762 Clouds 32 1007 62 10000 8.2 90 07:19 27.06.2020
763 Clouds 33 1008 55 10000 6.2 90 06:37 27.06.2020
764 Clouds 32 1008 55 10000 6.2 90 05:46 27.06.2020
765 Clouds 34 1008 56 10000 6.2 90 04:21 27.06.2020
766 Clouds 34 1009 56 10000 7.2 110 03:51 27.06.2020
767 Clouds 32 1010 59 10000 5.1 90 02:48 27.06.2020
768 Clouds 32 1010 59 10000 5.1 90 02:27 27.06.2020
769 Clouds 30 1010 70 10000 1 110 01:40 27.06.2020
770 Clouds 27 1010 83 10000 1.5 100 00:52 27.06.2020
771 Clouds 22 1010 94 10000 1.33 129 23:58 26.06.2020
772 Clouds 22 1010 94 10000 1.33 129 23:40 26.06.2020
773 Clouds 22 1010 94 10000 1.63 148 23:21 26.06.2020
774 Clouds 23 1010 88 10000 1 160 22:45 26.06.2020
775 Clouds 23 1010 88 10000 1 160 22:26 26.06.2020
776 Clouds 25 1011 79 0 1.66 148 21:58 26.06.2020
777 Clouds 22 1009 94 10000 1 140 21:40 26.06.2020
778 Clouds 22 1009 94 10000 1 140 21:21 26.06.2020
779 Clouds 22 1009 94 10000 1 140 20:59 26.06.2020
780 Clouds 22 1009 94 10000 1 140 20:40 26.06.2020
781 Clouds 22 1008 100 10000 1 180 20:18 26.06.2020
782 Clouds 22 1008 100 10000 1 180 19:41 26.06.2020
783 Clouds 22 1008 100 10000 1 110 19:23 26.06.2020
784 Clouds 22 1008 100 10000 1 110 18:43 26.06.2020
785 Clouds 22 1008 100 10000 1 110 18:25 26.06.2020
786 Clouds 23 1009 94 10000 1 90 17:55 26.06.2020
787 Clouds 23 1009 94 10000 1 90 17:37 26.06.2020
788 Clouds 23 1009 94 10000 1 90 17:19 26.06.2020
789 Clouds 23 1010 94 10000 1 180 16:42 26.06.2020
790 Clouds 23 1010 94 10000 1 180 16:23 26.06.2020
791 Clouds 23 1010 94 10000 1 140 15:41 26.06.2020
792 Clouds 23 1010 94 10000 1 140 15:22 26.06.2020
793 Clouds 23 1010 100 10000 2.06 158 14:58 26.06.2020
794 Clouds 23 1010 100 10000 2.06 158 14:40 26.06.2020
795 Clouds 23 1010 100 10000 2.07 152 14:22 26.06.2020
796 Clouds 23 1010 100 10000 1.5 180 13:47 26.06.2020
797 Clouds 23 1010 100 10000 1.5 180 13:25 26.06.2020
798 Clouds 25 1010 88 10000 1 160 12:57 26.06.2020
799 Clouds 25 1010 88 10000 1 160 12:38 26.06.2020
800 Clouds 26 1010 83 10000 1.5 140 12:19 26.06.2020
801 Clouds 26 1010 83 10000 1.5 140 11:57 26.06.2020
802 Clouds 26 1010 83 10000 1.5 140 11:38 26.06.2020
803 Clouds 26 1010 83 10000 1.5 140 11:20 26.06.2020
804 Clouds 27 1009 78 10000 1.5 140 10:56 26.06.2020
805 Clouds 27 1009 78 10000 1.5 140 10:37 26.06.2020
806 Clouds 27 1009 78 10000 1.5 140 10:37 26.06.2020
807 Clouds 27 1009 78 10000 1.5 140 10:18 26.06.2020
808 Clouds 29 1009 70 10000 3.6 90 09:42 26.06.2020
809 Clouds 29 1009 70 10000 3.6 90 09:22 26.06.2020
810 Clouds 32 1008 59 10000 5.1 90 08:48 26.06.2020
811 Clouds 32 1008 59 10000 5.1 90 08:27 26.06.2020
812 Clouds 32 1008 62 10000 6.2 70 07:48 26.06.2020
813 Clouds 32 1008 62 10000 6.2 70 07:24 26.06.2020
814 Clouds 32 1008 62 10000 4.6 70 06:54 26.06.2020
815 Clouds 32 1008 62 10000 4.6 70 06:33 26.06.2020
816 Clouds 33 1008 63 10000 7.7 70 05:55 26.06.2020
817 Clouds 33 1008 63 10000 7.7 70 05:29 26.06.2020
818 Clouds 33 1010 52 10000 8.2 90 02:40 26.06.2020
819 Clouds 31 1011 58 10000 4.1 90 01:39 26.06.2020
820 Clouds 28 1011 74 10000 1.99 105 00:52 26.06.2020
821 Clouds 28 1011 74 10000 1.99 105 00:31 26.06.2020
822 Clouds 25 1011 83 10000 1 160 23:48 25.06.2020
823 Clouds 25 1011 83 10000 1 160 23:22 25.06.2020
824 Clouds 22 1010 94 10000 1 180 22:58 25.06.2020
825 Clouds 22 1010 94 10000 1 180 22:39 25.06.2020
826 Clouds 22 1010 94 10000 1 180 22:20 25.06.2020
827 Clouds 26 1010 79 0 1.67 145 21:57 25.06.2020
828 Clouds 26 1010 79 0 1.67 145 21:57 25.06.2020
829 Clouds 26 1010 79 0 1.67 145 21:39 25.06.2020
830 Clouds 22 1009 94 10000 1.5 140 21:20 25.06.2020
831 Clouds 22 1009 94 10000 1.5 140 20:57 25.06.2020
832 Clouds 22 1009 94 10000 1.5 140 20:37 25.06.2020
833 Clouds 22 1009 94 10000 1.5 140 20:19 25.06.2020
834 Clouds 25 1009 80 0 1.74 156 19:41 25.06.2020
835 Clouds 22 1009 100 10000 1.77 145 19:20 25.06.2020
836 Clouds 22 1009 100 10000 1.77 145 18:59 25.06.2020
837 Clouds 22 1009 100 10000 1.77 145 18:39 25.06.2020
838 Clouds 22 1009 100 10000 1.9 145 18:20 25.06.2020
839 Clouds 23 1009 94 10000 2.6 200 17:44 25.06.2020
840 Clouds 23 1009 94 10000 2.6 200 17:44 25.06.2020
841 Clouds 23 1009 94 10000 2.6 200 17:20 25.06.2020
842 Clouds 23 1010 94 10000 1 140 16:58 25.06.2020
843 Clouds 23 1010 94 10000 1 140 16:37 25.06.2020
844 Clouds 23 1010 94 10000 1 140 16:19 25.06.2020
845 Clouds 23 1010 94 10000 1 140 16:19 25.06.2020
846 Clouds 23 1010 100 10000 1.96 153 15:41 25.06.2020
847 Clouds 23 1010 100 10000 1.94 152 15:22 25.06.2020
848 Clouds 24 1011 94 10000 1.94 152 14:45 25.06.2020
849 Clouds 24 1011 94 10000 2.14 148 14:25 25.06.2020
850 Clouds 24 1011 94 10000 2.14 148 13:59 25.06.2020
851 Clouds 24 1011 94 10000 2.14 148 13:41 25.06.2020
852 Clouds 24 1011 94 10000 2.3 144 13:19 25.06.2020
853 Clouds 25 1010 88 10000 1.5 140 12:46 25.06.2020
854 Clouds 26 1010 83 10000 1.5 140 12:21 25.06.2020
855 Clouds 26 1010 83 10000 1.5 140 11:59 25.06.2020
856 Clouds 26 1010 83 10000 1.5 140 11:40 25.06.2020
857 Clouds 26 1010 83 10000 1.5 140 11:21 25.06.2020
858 Clouds 27 1010 78 10000 1 140 10:43 25.06.2020
859 Clouds 27 1010 78 10000 1 140 10:25 25.06.2020
860 Clouds 30 1009 62 10000 2.6 110 09:42 25.06.2020
861 Clouds 30 1009 62 10000 2.6 110 09:23 25.06.2020
862 Clouds 32 1009 55 10000 3.1 90 08:59 25.06.2020
863 Clouds 32 1009 55 10000 3.1 90 08:40 25.06.2020
864 Clouds 32 1008 66 10000 4.6 70 08:18 25.06.2020
865 Clouds 32 1008 66 10000 4.6 70 07:42 25.06.2020
866 Clouds 32 1008 62 10000 6.2 50 07:24 25.06.2020
867 Clouds 32 1008 62 10000 6.2 50 06:37 25.06.2020
868 Clouds 32 1008 59 10000 5.7 50 06:18 25.06.2020
869 Clouds 32 1008 59 10000 5.7 50 05:31 25.06.2020
870 Clouds 32 1010 66 10000 3.6 50 03:39 25.06.2020
871 Clouds 32 1011 59 10000 6.2 90 02:46 25.06.2020
872 Clouds 32 1011 59 10000 6.2 90 02:25 25.06.2020
873 Clouds 31 1012 66 10000 4.1 90 01:41 25.06.2020
874 Clouds 29 1012 70 10000 2.6 110 00:50 25.06.2020
875 Clouds 25 1011 83 10000 2.6 230 00:22 25.06.2020
876 Clouds 25 1011 83 10000 2.6 230 23:58 24.06.2020
877 Clouds 25 1011 83 10000 2.6 230 23:38 24.06.2020
878 Clouds 25 1011 83 10000 2.6 230 23:19 24.06.2020
879 Clouds 22 1011 94 10000 1.2 160 22:42 24.06.2020
880 Clouds 22 1011 94 10000 1.53 173 22:21 24.06.2020
881 Clouds 22 1010 94 10000 2.1 160 21:57 24.06.2020
882 Clouds 22 1010 94 10000 2.1 160 21:37 24.06.2020
883 Clouds 22 1010 94 10000 2.1 160 21:19 24.06.2020
884 Clouds 22 1010 94 10000 1.65 180 20:58 24.06.2020
885 Clouds 22 1010 94 10000 1.65 180 20:39 24.06.2020
886 Clouds 22 1010 94 10000 1.74 173 20:21 24.06.2020
887 Clouds 22 1009 100 10000 1.5 230 19:57 24.06.2020
888 Clouds 22 1009 100 10000 1.5 230 19:38 24.06.2020
889 Clouds 23 1009 94 10000 1 180 19:20 24.06.2020
890 Clouds 23 1009 94 10000 1 180 18:58 24.06.2020
891 Clouds 23 1009 94 10000 1 180 18:39 24.06.2020
892 Clouds 23 1010 94 10000 2.1 230 18:20 24.06.2020
893 Clouds 23 1010 94 10000 2.1 230 17:55 24.06.2020
894 Clouds 23 1010 94 10000 2.1 230 17:36 24.06.2020
895 Clouds 23 1010 94 10000 2.1 230 17:18 24.06.2020
896 Clear 25 1010 79 0 1.71 145 16:55 24.06.2020
897 Clouds 23 1011 100 10000 1.5 180 16:36 24.06.2020
898 Clouds 23 1011 100 10000 1.5 180 16:18 24.06.2020
899 Clouds 23 1011 100 10000 1.5 180 15:39 24.06.2020
900 Clouds 24 1011 94 10000 1.49 155 15:20 24.06.2020
901 Clouds 24 1011 94 10000 1.49 155 14:59 24.06.2020
902 Clouds 24 1011 94 10000 1.49 155 14:40 24.06.2020
903 Clouds 24 1011 94 10000 1.35 151 14:21 24.06.2020
904 Clouds 25 1011 94 10000 1.35 151 13:42 24.06.2020
905 Clouds 26 1012 79 0 1.4 141 13:21 24.06.2020
906 Clouds 26 1012 79 0 1.4 141 12:44 24.06.2020
907 Clouds 25 1011 94 10000 1 180 12:21 24.06.2020
908 Clouds 25 1011 94 10000 1 180 11:58 24.06.2020
909 Clouds 25 1011 94 10000 1 180 11:39 24.06.2020
910 Clouds 25 1011 94 10000 1 180 11:21 24.06.2020
911 Clouds 28 1010 78 10000 1 140 10:45 24.06.2020
912 Clouds 29 1010 74 10000 2.1 50 10:19 24.06.2020
913 Clouds 29 1010 74 10000 2.1 50 09:46 24.06.2020
914 Clouds 29 1010 74 10000 2.1 50 09:24 24.06.2020
915 Clouds 31 1009 62 10000 2.1 50 08:59 24.06.2020
916 Clouds 31 1009 62 10000 2.1 50 08:39 24.06.2020
917 Clouds 31 1009 66 10000 2.6 20 08:18 24.06.2020
918 Clouds 31 1009 66 10000 2.6 20 07:44 24.06.2020
919 Clouds 32 1009 62 10000 2.6 50 07:24 24.06.2020
920 Clouds 32 1009 62 10000 2.6 50 06:44 24.06.2020
921 Clouds 31 1009 66 10000 2.6 20 06:24 24.06.2020
922 Clouds 31 1009 66 10000 2.6 20 05:38 24.06.2020
923 Clouds 32 1010 66 10000 3.1 50 04:38 24.06.2020
924 Clouds 32 1011 66 10000 3.1 50 03:38 24.06.2020
925 Clouds 32 1012 62 10000 2.6 50 02:54 24.06.2020
926 Clouds 31 1012 70 10000 1 140 02:21 24.06.2020
927 Clouds 29 1013 79 10000 1 180 00:52 24.06.2020
928 Clouds 29 1013 79 10000 1 180 00:33 24.06.2020
929 Clouds 25 1012 88 10000 1.61 99 23:48 23.06.2020
930 Clouds 23 1012 100 10000 1 200 23:21 23.06.2020
931 Clouds 23 1012 100 10000 1 200 22:58 23.06.2020
932 Clouds 23 1012 100 10000 1 200 22:40 23.06.2020
933 Clouds 23 1011 94 10000 1 180 22:18 23.06.2020
934 Clouds 23 1011 94 10000 1 180 21:43 23.06.2020
935 Clouds 23 1011 94 10000 1 180 21:20 23.06.2020
936 Clouds 23 1011 94 10000 1 180 20:57 23.06.2020
937 Clouds 23 1011 94 10000 1 180 20:39 23.06.2020
938 Clouds 23 1011 94 10000 1 180 20:19 23.06.2020
939 Clouds 23 1011 100 10000 1.5 160 19:57 23.06.2020
940 Clouds 23 1011 100 10000 1.5 160 19:38 23.06.2020
941 Clouds 24 1010 94 10000 1.02 147 19:20 23.06.2020
942 Clouds 24 1011 94 10000 1.5 180 18:38 23.06.2020
943 Clouds 24 1011 94 10000 1.5 180 18:18 23.06.2020
944 Clouds 24 1011 94 10000 1.5 180 17:41 23.06.2020
945 Clouds 24 1011 94 10000 1.5 180 17:22 23.06.2020
946 Clouds 24 1011 100 10000 1 200 16:56 23.06.2020
947 Clouds 24 1011 100 10000 1 200 16:38 23.06.2020
948 Clouds 24 1011 100 10000 1 200 16:38 23.06.2020
949 Clouds 24 1011 100 10000 0.93 185 16:20 23.06.2020
950 Clouds 24 1011 100 10000 0.93 185 15:45 23.06.2020
951 Clouds 24 1011 100 10000 0.85 163 15:25 23.06.2020
952 Clouds 24 1011 94 10000 1 200 14:59 23.06.2020
953 Clouds 24 1011 94 10000 1 200 14:41 23.06.2020
954 Clouds 25 1011 94 10000 0.38 110 14:19 23.06.2020
955 Clouds 25 1011 94 10000 0.38 110 13:56 23.06.2020
956 Clouds 25 1011 94 10000 0.38 110 13:37 23.06.2020
957 Clouds 25 1011 100 10000 1 180 13:19 23.06.2020
958 Clouds 25 1011 100 10000 1 180 12:41 23.06.2020
959 Clouds 26 1010 94 10000 1 180 12:22 23.06.2020
960 Clouds 26 1010 94 10000 1 180 11:54 23.06.2020
961 Clouds 26 1010 94 10000 1 180 11:54 23.06.2020
962 Clouds 26 1010 94 10000 1 180 11:36 23.06.2020
963 Clouds 27 1010 88 10000 1 200 11:18 23.06.2020
964 Clouds 27 1010 88 10000 1 200 10:41 23.06.2020
965 Clouds 27 1010 88 10000 1 200 10:41 23.06.2020
966 Clouds 27 1010 88 10000 1 200 10:22 23.06.2020
967 Clouds 28 1009 83 10000 1.5 90 09:58 23.06.2020
968 Clouds 28 1009 83 10000 1.5 90 09:39 23.06.2020
969 Clouds 28 1009 83 10000 1.5 90 09:20 23.06.2020
970 Clouds 28 1009 83 10000 1.5 90 09:20 23.06.2020
971 Clouds 29 1009 79 10000 1.5 20 08:47 23.06.2020
972 Clouds 29 1009 79 10000 1.5 20 08:26 23.06.2020
973 Clouds 30 1008 74 10000 3.1 20 07:51 23.06.2020
974 Clouds 30 1008 74 10000 3.1 20 07:25 23.06.2020
975 Clouds 30 1009 74 10000 3.1 20 06:57 23.06.2020
976 Clouds 30 1009 74 10000 3.1 20 06:38 23.06.2020
977 Clouds 30 1009 74 10000 1.5 360 06:19 23.06.2020
978 Clouds 30 1009 74 10000 1.5 360 05:28 23.06.2020
979 Clouds 29 1011 79 10000 1.5 110 03:23 23.06.2020
980 Clouds 29 1012 79 10000 1.5 140 02:52 23.06.2020
981 Clouds 29 1012 79 10000 1.5 140 02:33 23.06.2020
982 Clouds 28 1012 78 10000 2.1 110 01:46 23.06.2020
983 Clouds 26 1012 88 10000 1 160 01:24 23.06.2020
984 Clouds 26 1012 88 10000 1 160 00:46 23.06.2020
985 Clouds 25 1011 88 10000 1 160 00:21 23.06.2020
986 Clouds 25 1011 88 10000 1 160 23:55 22.06.2020
987 Clouds 25 1011 88 10000 1 160 23:36 22.06.2020
988 Clouds 23 1011 100 10000 1.62 138 23:18 22.06.2020
989 Clouds 23 1011 100 10000 1.62 138 22:54 22.06.2020
990 Clouds 23 1011 100 10000 1.62 138 22:36 22.06.2020
991 Rain 26 1010 81 0 1.31 130 22:18 22.06.2020
992 Rain 26 1010 81 0 1.31 130 22:18 22.06.2020
993 Rain 26 1010 81 0 1.31 130 21:40 22.06.2020
994 Clouds 23 1010 100 10000 1 180 21:22 22.06.2020
995 Clouds 23 1010 100 10000 1 180 20:58 22.06.2020
996 Clouds 23 1010 100 10000 1 180 20:40 22.06.2020
997 Clouds 23 1010 100 10000 1 140 20:20 22.06.2020
998 Clouds 23 1010 100 10000 1 140 19:44 22.06.2020
999 Clouds 23 1010 100 10000 1 140 19:19 22.06.2020
1000 Clouds 24 1010 100 10000 1.14 90 18:57 22.06.2020
1001 Clouds 24 1010 100 10000 1.14 90 18:37 22.06.2020
1002 Clouds 24 1010 100 10000 1.5 180 18:18 22.06.2020
1003 Clouds 24 1010 100 10000 1.5 180 17:55 22.06.2020
1004 Clouds 24 1010 100 10000 1.5 180 17:37 22.06.2020
1005 Clouds 24 1011 100 10000 1.25 119 17:18 22.06.2020
1006 Clouds 24 1011 100 10000 1.25 119 16:42 22.06.2020
1007 Clouds 24 1011 100 10000 1 180 16:18 22.06.2020
1008 Clouds 24 1011 100 10000 1 180 15:57 22.06.2020
1009 Clouds 24 1011 100 10000 1 180 15:39 22.06.2020
1010 Clouds 24 1011 100 10000 1 180 15:21 22.06.2020
1011 Clouds 25 1011 94 10000 1.72 149 14:39 22.06.2020
1012 Clouds 25 1011 94 10000 1.14 140 14:20 22.06.2020
1013 Clouds 25 1011 94 10000 1.5 160 13:56 22.06.2020
1014 Clouds 25 1011 94 10000 1.5 160 13:37 22.06.2020
1015 Clouds 25 1011 94 10000 2.6 160 13:19 22.06.2020
1016 Clouds 25 1011 94 10000 2.6 160 12:42 22.06.2020
1017 Clouds 25 1011 94 10000 2.6 160 12:23 22.06.2020
1018 Rain 26 1010 88 10000 4.1 110 11:39 22.06.2020
1019 Rain 26 1010 88 10000 4.1 110 11:20 22.06.2020
1020 Rain 28 1009 83 10000 3.6 70 10:57 22.06.2020
1021 Rain 28 1009 83 10000 3.6 70 10:57 22.06.2020
1022 Rain 28 1009 83 10000 3.6 70 10:39 22.06.2020
1023 Rain 29 1008 79 10000 3.1 90 10:19 22.06.2020
1024 Rain 29 1008 79 10000 3.1 90 09:59 22.06.2020
1025 Rain 29 1008 79 10000 3.1 90 09:41 22.06.2020
1026 Rain 29 1008 79 10000 3.1 90 09:20 22.06.2020
1027 Rain 31 1008 66 10000 4.1 110 08:57 22.06.2020
1028 Rain 31 1008 66 10000 4.1 110 08:38 22.06.2020
1029 Clouds 31 1007 66 10000 4.1 110 08:19 22.06.2020
1030 Clouds 31 1007 66 10000 4.1 110 07:50 22.06.2020
1031 Clouds 31 1007 66 10000 4.1 110 07:31 22.06.2020
1032 Clouds 32 1007 62 10000 5.1 90 06:44 22.06.2020
1033 Clouds 32 1007 62 10000 5.1 90 06:25 22.06.2020
1034 Clouds 30 1008 70 10000 6.2 140 05:43 22.06.2020
1035 Clouds 32 1009 70 10000 6.2 70 03:48 22.06.2020
1036 Clouds 32 1009 62 10000 4.1 70 02:28 22.06.2020
1037 Clouds 30 1010 70 10000 2.1 110 01:18 22.06.2020
1038 Clouds 30 1010 70 10000 2.1 110 00:39 22.06.2020
1039 Clouds 24 1009 88 10000 1 180 23:58 21.06.2020
1040 Clouds 24 1009 88 10000 1 180 23:39 21.06.2020
1041 Clouds 24 1009 88 10000 1 180 23:39 21.06.2020
1042 Clouds 24 1009 88 10000 1 180 23:20 21.06.2020
1043 Clouds 23 1009 94 10000 1.86 142 22:56 21.06.2020
1044 Clouds 23 1009 94 10000 1.86 142 22:37 21.06.2020
1045 Clouds 25 1009 76 0 1.78 136 22:19 21.06.2020
1046 Clouds 25 1009 76 0 1.78 136 21:56 21.06.2020
1047 Clouds 25 1009 76 0 1.78 136 21:37 21.06.2020
1048 Clouds 25 1008 74 0 1.48 146 21:19 21.06.2020
1049 Clouds 25 1008 74 0 1.48 146 20:57 21.06.2020
1050 Clouds 25 1008 74 0 1.48 146 20:36 21.06.2020
1051 Clouds 23 1007 94 10000 1 110 20:18 21.06.2020
1052 Clouds 23 1007 94 10000 1 110 19:41 21.06.2020
1053 Clouds 23 1007 94 10000 1 110 19:21 21.06.2020
1054 Clouds 23 1007 100 10000 1 110 18:56 21.06.2020
1055 Clouds 23 1007 100 10000 1 110 18:38 21.06.2020
1056 Clouds 23 1007 100 10000 1 110 18:20 21.06.2020
1057 Clouds 23 1007 100 10000 1 110 17:55 21.06.2020
1058 Clouds 23 1007 100 10000 1 110 17:36 21.06.2020
1059 Clouds 23 1007 100 10000 1 140 17:18 21.06.2020
1060 Clouds 23 1007 100 10000 1 140 16:40 21.06.2020
1061 Clouds 23 1007 100 10000 1 140 16:22 21.06.2020
1062 Clouds 23 1008 100 10000 1 140 15:42 21.06.2020
1063 Clouds 23 1008 100 10000 1.5 200 15:24 21.06.2020
1064 Clouds 23 1008 100 10000 1.5 200 14:59 21.06.2020
1065 Clouds 23 1008 100 10000 1.5 200 14:38 21.06.2020
1066 Clouds 24 1008 94 10000 1.5 140 14:19 21.06.2020
1067 Clouds 24 1008 94 10000 1.5 140 13:55 21.06.2020
1068 Clouds 24 1008 94 10000 1.5 140 13:37 21.06.2020
1069 Clouds 24 1008 100 10000 1.5 180 13:18 21.06.2020
1070 Clouds 24 1008 100 10000 1.5 180 12:43 21.06.2020
1071 Clouds 24 1008 100 10000 1.5 180 12:24 21.06.2020
1072 Clouds 25 1008 88 10000 1.5 160 11:43 21.06.2020
1073 Clouds 25 1008 88 10000 1.5 160 11:43 21.06.2020
1074 Clouds 25 1008 88 10000 1.5 160 11:25 21.06.2020
1075 Clouds 26 1007 88 10000 2.6 110 10:59 21.06.2020
1076 Clouds 26 1007 88 10000 2.6 110 10:41 21.06.2020
1077 Clouds 26 1007 88 10000 2.6 110 10:22 21.06.2020
1078 Clouds 27 1008 83 10000 3.1 140 09:58 21.06.2020
1079 Clouds 27 1008 83 10000 3.1 140 09:36 21.06.2020
1080 Rain 28 1007 74 10000 3.1 140 09:18 21.06.2020
1081 Rain 28 1007 74 10000 3.1 140 08:54 21.06.2020
1082 Rain 28 1007 74 10000 3.1 140 08:36 21.06.2020
1083 Clouds 29 1007 74 10000 6.2 110 08:18 21.06.2020
1084 Clouds 29 1007 74 10000 6.2 110 07:40 21.06.2020
1085 Clouds 27 1007 83 10000 4.6 110 07:20 21.06.2020
1086 Clouds 27 1007 83 10000 4.6 110 07:20 21.06.2020
1087 Clouds 27 1007 83 10000 4.6 110 06:46 21.06.2020
1088 Rain 32 1008 66 10000 8.7 90 05:58 21.06.2020
1089 Clouds 32 1008 62 10000 5.7 90 04:49 21.06.2020
1090 Clouds 31 1009 70 10000 7.7 90 03:20 21.06.2020
1091 Clouds 31 1009 62 10000 6.7 90 02:49 21.06.2020
1092 Clouds 30 1009 74 10000 3.6 90 01:48 21.06.2020
1093 Clouds 30 1009 74 10000 3.6 90 01:21 21.06.2020
1094 Clouds 28 1009 83 10000 2.1 140 00:55 21.06.2020
1095 Clouds 28 1009 83 10000 2.1 140 00:36 21.06.2020
1096 Clouds 25 1009 94 10000 2.1 140 00:18 21.06.2020
1097 Clouds 25 1009 94 10000 2.1 140 23:41 20.06.2020
1098 Clouds 25 1009 94 10000 2.1 110 23:21 20.06.2020
1099 Clouds 25 1009 94 10000 2.1 110 22:55 20.06.2020
1100 Clouds 25 1009 94 10000 2.1 110 22:36 20.06.2020
1101 Clouds 25 1007 94 10000 2.1 90 22:18 20.06.2020
1102 Clouds 25 1007 94 10000 2.1 90 21:54 20.06.2020
1103 Clouds 25 1007 94 10000 2.1 90 21:36 20.06.2020
1104 Clouds 25 1007 94 10000 2.1 200 21:18 20.06.2020
1105 Clouds 25 1007 94 10000 2.1 200 20:54 20.06.2020
1106 Clouds 25 1007 94 10000 2.1 200 20:36 20.06.2020
1107 Clouds 25 1007 94 10000 1 140 20:18 20.06.2020
1108 Clouds 25 1007 94 10000 1 140 19:41 20.06.2020
1109 Clouds 25 1007 94 10000 1 140 19:21 20.06.2020
1110 Clouds 25 1007 94 10000 1 140 18:43 20.06.2020
1111 Clouds 25 1007 94 10000 1 140 18:21 20.06.2020
1112 Clouds 25 1008 94 10000 1 90 17:58 20.06.2020
1113 Clouds 25 1008 94 10000 1 90 17:39 20.06.2020
1114 Clouds 25 1008 100 10000 1 250 17:20 20.06.2020
1115 Clouds 25 1008 100 10000 1 250 16:55 20.06.2020
1116 Clouds 25 1008 100 10000 1 250 16:36 20.06.2020
1117 Clouds 25 1009 100 10000 1.5 180 16:18 20.06.2020
1118 Clouds 25 1009 100 10000 1.5 180 15:41 20.06.2020
1119 Clouds 26 1009 94 10000 1 110 15:18 20.06.2020
1120 Clouds 26 1009 94 10000 1 110 14:43 20.06.2020
1121 Clouds 26 1009 94 10000 1 110 14:21 20.06.2020
1122 Clouds 26 1009 94 10000 2.1 140 13:46 20.06.2020
1123 Clouds 26 1009 94 10000 2.1 140 13:26 20.06.2020
1124 Clouds 27 1009 88 10000 1 50 12:59 20.06.2020
1125 Clouds 27 1009 88 10000 1 50 12:40 20.06.2020
1126 Clouds 27 1009 88 10000 1 50 12:20 20.06.2020
1127 Clouds 27 1008 83 10000 1.5 110 11:55 20.06.2020
1128 Clouds 27 1008 83 10000 1.5 110 11:36 20.06.2020
1129 Clouds 27 1008 94 10000 2.1 110 11:18 20.06.2020
1130 Clouds 27 1008 94 10000 2.1 110 10:44 20.06.2020
1131 Clouds 27 1008 94 10000 2.1 110 10:21 20.06.2020
1132 Clouds 28 1008 83 10000 2.6 110 09:54 20.06.2020
1133 Clouds 28 1008 83 10000 2.6 110 09:36 20.06.2020
1134 Clouds 29 1007 79 10000 1.5 110 09:18 20.06.2020
1135 Clouds 29 1007 79 10000 1.5 110 08:44 20.06.2020
1136 Clouds 29 1007 79 10000 1.5 110 08:26 20.06.2020
1137 Clouds 30 1007 74 10000 2.6 90 07:51 20.06.2020
1138 Clouds 30 1007 74 10000 2.6 90 07:27 20.06.2020
1139 Clouds 30 1007 74 10000 4.6 70 06:53 20.06.2020
1140 Clouds 30 1007 74 10000 4.6 70 06:23 20.06.2020
1141 Rain 31 1007 70 10000 4.1 50 05:50 20.06.2020
1142 Clouds 31 1008 74 10000 3.6 20 04:50 20.06.2020
1143 Rain 30 1010 66 10000 2.1 50 02:23 20.06.2020
1144 Clouds 29 1010 74 10000 1 160 01:46 20.06.2020
1145 Clouds 29 1010 70 10000 1.5 160 00:52 20.06.2020
1146 Clouds 26 1010 83 10000 1.5 160 00:21 20.06.2020
1147 Clouds 26 1010 83 10000 1.5 160 23:49 19.06.2020
1148 Clouds 26 1010 83 10000 1.5 160 23:22 19.06.2020
1149 Clouds 23 1010 94 10000 2.1 200 22:59 19.06.2020
1150 Clouds 23 1010 94 10000 2.1 200 22:40 19.06.2020
1151 Clouds 23 1010 94 10000 2.1 200 22:22 19.06.2020
1152 Clouds 22 1009 100 10000 1.5 200 21:56 19.06.2020
1153 Clouds 22 1009 100 10000 1.5 200 21:56 19.06.2020
1154 Clouds 22 1009 100 10000 1.5 200 21:37 19.06.2020
1155 Clouds 23 1009 94 10000 1.99 150 21:18 19.06.2020
1156 Clouds 23 1009 94 10000 1.99 150 20:57 19.06.2020
1157 Clouds 23 1009 94 10000 1.99 150 20:39 19.06.2020
1158 Clouds 23 1009 94 10000 1.8 148 20:20 19.06.2020
1159 Clouds 23 1008 94 10000 1.8 148 19:55 19.06.2020
1160 Clouds 23 1008 94 10000 1.8 148 19:37 19.06.2020
1161 Clouds 23 1009 100 10000 2.6 140 19:18 19.06.2020
1162 Clouds 23 1009 100 10000 2.6 140 18:40 19.06.2020
1163 Clouds 23 1009 100 10000 2.6 140 18:21 19.06.2020
1164 Clouds 24 1009 94 10000 2.03 143 17:54 19.06.2020
1165 Clouds 24 1009 94 10000 2.03 143 17:36 19.06.2020
1166 Clouds 24 1009 94 10000 2.3 133 17:18 19.06.2020
1167 Clouds 24 1009 94 10000 2.3 133 16:41 19.06.2020
1168 Clouds 24 1009 94 10000 2.53 124 16:22 19.06.2020
1169 Clouds 25 1009 94 10000 2.53 124 15:54 19.06.2020
1170 Clouds 25 1009 94 10000 2.53 124 15:36 19.06.2020
1171 Clouds 25 1010 88 10000 1 160 15:18 19.06.2020
1172 Clouds 25 1010 88 10000 1 160 14:41 19.06.2020
1173 Clouds 25 1010 88 10000 1 160 14:21 19.06.2020
1174 Clouds 25 1010 94 10000 2.1 140 13:59 19.06.2020
1175 Clouds 25 1010 94 10000 2.1 140 13:40 19.06.2020
1176 Clouds 26 1011 88 10000 1 160 13:22 19.06.2020
1177 Clouds 26 1011 88 10000 1 160 12:45 19.06.2020
1178 Clouds 26 1011 88 10000 1 160 12:22 19.06.2020
1179 Clouds 27 1010 83 10000 1.5 140 11:57 19.06.2020
1180 Clouds 27 1010 83 10000 1.5 140 11:36 19.06.2020
1181 Clouds 27 1010 83 10000 2.1 110 11:18 19.06.2020
1182 Clouds 27 1010 83 10000 2.1 110 10:43 19.06.2020
1183 Clouds 27 1010 83 10000 2.1 110 10:25 19.06.2020
1184 Clouds 28 1009 78 10000 2.1 110 09:56 19.06.2020
1185 Clouds 28 1009 78 10000 2.1 110 09:37 19.06.2020
1186 Clouds 30 1009 66 10000 5.1 90 09:19 19.06.2020
1187 Clouds 30 1009 66 10000 5.1 90 08:41 19.06.2020
1188 Clouds 30 1009 66 10000 5.1 90 08:23 19.06.2020
1189 Clouds 30 1008 74 10000 5.7 110 07:42 19.06.2020
1190 Clouds 30 1008 74 10000 5.7 110 07:22 19.06.2020
1191 Clouds 32 1008 70 10000 6.2 90 06:52 19.06.2020
1192 Clouds 32 1008 70 10000 6.2 90 06:22 19.06.2020
1193 Clouds 31 1008 74 10000 6.2 70 05:32 19.06.2020
1194 Clouds 33 1010 66 10000 3.6 50 03:50 19.06.2020
1195 Clouds 33 1010 63 10000 5.1 90 02:22 19.06.2020
1196 Clouds 30 1011 74 10000 2.6 140 00:45 19.06.2020
1197 Clouds 30 1011 74 10000 2.6 140 00:22 19.06.2020
1198 Clouds 30 1011 74 10000 2.6 140 00:22 19.06.2020
1199 Clouds 25 1010 88 10000 1 160 23:58 18.06.2020
1200 Clouds 25 1010 88 10000 1 160 23:39 18.06.2020
1201 Clouds 25 1010 88 10000 1 160 23:21 18.06.2020
1202 Clouds 23 1010 100 10000 1.5 180 22:41 18.06.2020
1203 Clouds 22 1009 100 10000 1.5 160 22:21 18.06.2020
1204 Clouds 22 1009 100 10000 1.5 160 21:57 18.06.2020
1205 Clouds 22 1009 100 10000 1.5 160 21:38 18.06.2020
1206 Clouds 25 1010 82 0 2.09 139 21:19 18.06.2020
1207 Clouds 25 1010 82 0 2.09 139 20:41 18.06.2020
1208 Clouds 23 1009 94 10000 1.5 160 20:22 18.06.2020
1209 Clouds 23 1009 94 10000 1.5 160 19:58 18.06.2020
1210 Clouds 23 1009 94 10000 1.5 160 19:40 18.06.2020
1211 Clouds 23 1009 100 10000 1.5 160 19:19 18.06.2020
1212 Clouds 23 1009 100 10000 1.5 160 19:19 18.06.2020
1213 Clouds 23 1009 100 10000 1.5 160 18:41 18.06.2020
1214 Clouds 23 1009 100 10000 1.5 160 18:22 18.06.2020
1215 Clouds 24 1010 94 10000 1.93 116 17:55 18.06.2020
1216 Clouds 24 1010 94 10000 1.93 116 17:37 18.06.2020
1217 Clouds 24 1010 94 10000 2.26 109 17:18 18.06.2020
1218 Clouds 24 1010 94 10000 2.26 109 16:42 18.06.2020
1219 Clouds 24 1010 94 10000 2.56 113 16:24 18.06.2020
1220 Clouds 24 1011 94 10000 1 180 15:58 18.06.2020
1221 Clouds 24 1011 94 10000 1 180 15:39 18.06.2020
1222 Clouds 24 1011 94 10000 1 180 15:20 18.06.2020
1223 Clouds 24 1011 94 10000 1 180 14:56 18.06.2020
1224 Clouds 24 1011 94 10000 1 180 14:37 18.06.2020
1225 Clouds 24 1011 100 10000 1 180 14:19 18.06.2020
1226 Clouds 24 1011 100 10000 1 180 13:47 18.06.2020
1227 Clouds 24 1011 100 10000 1 180 13:28 18.06.2020
1228 Clouds 25 1011 94 10000 1.28 132 12:57 18.06.2020
1229 Clouds 25 1011 94 10000 1.28 132 12:39 18.06.2020
1230 Clouds 26 1010 88 10000 1.5 180 12:19 18.06.2020
1231 Clouds 26 1010 88 10000 1.5 180 11:47 18.06.2020
1232 Clouds 26 1010 88 10000 1.5 180 11:21 18.06.2020
1233 Clouds 28 1010 83 10000 3.1 70 10:58 18.06.2020
1234 Clouds 28 1010 83 10000 3.1 70 10:38 18.06.2020
1235 Clouds 30 1009 74 10000 3.6 70 10:18 18.06.2020
1236 Clouds 30 1009 74 10000 3.6 70 09:44 18.06.2020
1237 Clouds 30 1009 74 10000 3.6 70 09:24 18.06.2020
1238 Clouds 31 1008 66 10000 3.6 70 08:43 18.06.2020
1239 Clouds 31 1008 66 10000 3.6 70 08:25 18.06.2020
1240 Clouds 31 1008 70 10000 5.1 50 08:00 18.06.2020
1241 Clouds 31 1008 70 10000 5.1 50 07:41 18.06.2020
1242 Clouds 31 1008 70 10000 5.1 50 07:23 18.06.2020
1243 Clouds 31 1009 70 10000 5.1 50 06:29 18.06.2020
1244 Clouds 31 1010 70 10000 4.1 50 04:27 18.06.2020
1245 Clouds 31 1011 70 10000 3.1 50 03:26 18.06.2020
1246 Clouds 30 1012 70 10000 3.1 110 01:40 18.06.2020
1247 Clouds 28 1012 78 10000 2.1 140 01:18 18.06.2020
1248 Clouds 28 1012 78 10000 2.1 140 01:18 18.06.2020
1249 Clouds 28 1012 78 10000 2.1 140 00:49 18.06.2020
1250 Clouds 28 1012 78 10000 2.1 140 00:24 18.06.2020
1251 Clouds 25 1011 94 10000 1.5 160 23:47 17.06.2020
1252 Clouds 25 1011 94 10000 1.5 160 23:23 17.06.2020
1253 Clouds 23 1011 100 10000 1.86 123 22:59 17.06.2020
1254 Clouds 23 1011 100 10000 1.86 123 22:40 17.06.2020
1255 Clouds 26 1011 75 0 1.76 139 22:21 17.06.2020
1256 Clouds 26 1011 75 0 1.76 139 21:57 17.06.2020
1257 Clouds 23 1010 100 10000 1 160 21:39 17.06.2020
1258 Clouds 23 1010 100 10000 1 160 21:20 17.06.2020
1259 Clouds 23 1010 100 10000 1 160 20:38 17.06.2020
1260 Clouds 23 1010 100 10000 2.1 140 20:20 17.06.2020
1261 Clouds 23 1010 100 10000 2.1 140 20:20 17.06.2020
1262 Clouds 23 1010 100 10000 2.1 140 19:57 17.06.2020
1263 Clouds 23 1010 100 10000 2.1 140 19:39 17.06.2020
1264 Clouds 23 1010 100 10000 1 180 19:19 17.06.2020
1265 Clouds 23 1010 100 10000 1 180 18:45 17.06.2020
1266 Clouds 23 1010 100 10000 1 180 18:27 17.06.2020
1267 Clouds 24 1011 100 10000 1 180 17:46 17.06.2020
1268 Clouds 24 1011 100 10000 1 180 17:23 17.06.2020
1269 Clouds 25 1011 94 10000 1 160 16:58 17.06.2020
1270 Clouds 25 1011 94 10000 1 160 16:39 17.06.2020
1271 Clouds 25 1011 94 10000 1 160 16:21 17.06.2020
1272 Clouds 25 1011 94 10000 2.88 123 15:57 17.06.2020
1273 Clouds 25 1011 94 10000 2.88 123 15:38 17.06.2020
1274 Drizzle 25 1012 100 10000 1.5 160 15:19 17.06.2020
1275 Drizzle 25 1012 100 10000 1.5 160 14:57 17.06.2020
1276 Drizzle 25 1012 100 10000 1.5 160 14:38 17.06.2020
1277 Rain 26 1011 80 0 2.49 116 14:19 17.06.2020
1278 Rain 26 1011 80 0 2.49 116 14:19 17.06.2020
1279 Rain 26 1011 78 0 2.26 131 13:42 17.06.2020
1280 Rain 26 1012 78 0 2.33 130 13:22 17.06.2020
1281 Rain 26 1012 78 0 2.33 130 12:59 17.06.2020
1282 Rain 26 1012 78 0 2.33 130 12:40 17.06.2020
1283 Rain 26 1011 94 10000 1.5 140 12:21 17.06.2020
1284 Rain 26 1011 94 10000 1.5 140 11:44 17.06.2020
1285 Rain 26 1011 94 10000 1.5 140 11:26 17.06.2020
1286 Rain 26 1010 88 10000 1.5 140 10:56 17.06.2020
1287 Rain 26 1010 88 10000 1.5 140 10:37 17.06.2020
1288 Rain 27 1009 83 10000 3.1 90 10:19 17.06.2020
1289 Rain 27 1009 83 10000 3.1 90 09:55 17.06.2020
1290 Rain 27 1009 83 10000 3.1 90 09:36 17.06.2020
1291 Rain 27 1009 83 10000 3.1 90 09:36 17.06.2020
1292 Rain 29 1009 79 10000 3.6 70 09:18 17.06.2020
1293 Rain 29 1009 79 10000 3.6 70 08:42 17.06.2020
1294 Clouds 31 1008 70 10000 5.1 90 08:19 17.06.2020
1295 Clouds 31 1008 70 10000 5.1 90 07:43 17.06.2020
1296 Clouds 31 1008 70 10000 5.1 90 07:23 17.06.2020
1297 Clouds 31 1008 70 10000 4.1 70 06:57 17.06.2020
1298 Clouds 31 1008 70 10000 4.1 70 06:39 17.06.2020
1299 Clouds 31 1008 70 10000 4.1 70 06:21 17.06.2020
1300 Clouds 33 1008 63 10000 6.2 90 05:45 17.06.2020
1301 Clouds 31 1009 74 0 3.6 70 04:18 17.06.2020
1302 Clouds 28 1010 83 10000 1 90 01:55 17.06.2020
1303 Clouds 27 1011 83 10000 1.5 140 00:48 17.06.2020
1304 Clouds 27 1011 83 10000 1.5 140 00:25 17.06.2020
1305 Clouds 25 1010 94 10000 2.1 140 23:57 16.06.2020
1306 Clouds 25 1010 94 10000 2.1 140 23:38 16.06.2020
1307 Clouds 23 1009 100 10000 1.74 136 23:19 16.06.2020
1308 Clouds 23 1009 100 10000 1.74 136 22:56 16.06.2020
1309 Clouds 23 1009 100 10000 1.74 136 22:37 16.06.2020
1310 Rain 26 1010 81 0 1.69 119 22:18 16.06.2020
1311 Rain 26 1010 81 0 1.69 119 21:47 16.06.2020
1312 Clouds 24 1009 94 10000 1.5 90 21:24 16.06.2020
1313 Clouds 24 1009 94 10000 1.5 90 20:58 16.06.2020
1314 Clouds 24 1009 94 10000 1.5 90 20:40 16.06.2020
1315 Clouds 24 1009 94 10000 1 140 20:19 16.06.2020
1316 Clouds 24 1009 94 10000 1 140 19:58 16.06.2020
1317 Clouds 24 1009 94 10000 1 140 19:39 16.06.2020
1318 Clouds 24 1009 94 10000 1 140 19:21 16.06.2020
1319 Clouds 24 1009 94 10000 1.5 160 18:55 16.06.2020
1320 Clouds 24 1009 94 10000 1.5 160 18:36 16.06.2020
1321 Clouds 24 1009 94 10000 1 140 18:18 16.06.2020
1322 Clouds 24 1009 94 10000 1 140 17:54 16.06.2020
1323 Clouds 24 1009 94 10000 1 140 17:36 16.06.2020
1324 Clouds 24 1009 94 10000 2.15 144 17:18 16.06.2020
1325 Clouds 24 1009 94 10000 2.15 144 16:42 16.06.2020
1326 Clouds 24 1010 100 10000 2.17 138 16:20 16.06.2020
1327 Clouds 24 1010 100 10000 2.17 138 15:58 16.06.2020
1328 Clouds 24 1010 100 10000 2.17 138 15:39 16.06.2020
1329 Clouds 24 1010 100 10000 2.22 133 15:21 16.06.2020
1330 Clouds 24 1010 94 10000 1 140 14:56 16.06.2020
1331 Clouds 24 1010 94 10000 1 140 14:38 16.06.2020
1332 Clouds 25 1010 94 10000 2.7 134 14:20 16.06.2020
1333 Clouds 25 1010 94 10000 2.7 134 13:46 16.06.2020
1334 Clouds 25 1010 94 10000 3.01 128 13:25 16.06.2020
1335 Clouds 25 1010 94 10000 3.01 128 12:55 16.06.2020
1336 Clouds 25 1010 94 10000 3.01 128 12:37 16.06.2020
1337 Clouds 26 1009 88 10000 3.35 123 12:18 16.06.2020
1338 Clouds 26 1009 88 10000 3.35 123 11:41 16.06.2020
1339 Clouds 26 1009 88 10000 3.55 119 11:23 16.06.2020
1340 Clouds 27 1009 83 10000 1 90 10:59 16.06.2020
1341 Clouds 27 1009 83 10000 1 90 10:40 16.06.2020
1342 Clouds 29 1008 74 10000 2.6 90 10:20 16.06.2020
1343 Clouds 29 1008 74 10000 2.6 90 09:45 16.06.2020
1344 Clouds 29 1008 74 10000 2.6 90 09:24 16.06.2020
1345 Clouds 30 1007 62 10000 6.2 90 08:55 16.06.2020
1346 Clouds 30 1007 62 10000 6.2 90 08:55 16.06.2020
1347 Clouds 30 1007 62 10000 6.2 90 08:34 16.06.2020
1348 Clouds 31 1007 62 10000 7.7 90 07:55 16.06.2020
1349 Clouds 31 1007 62 10000 7.7 90 07:37 16.06.2020
1350 Clouds 33 1006 55 10000 8.2 90 07:19 16.06.2020
1351 Clouds 33 1006 55 10000 8.2 90 06:34 16.06.2020
1352 Clouds 32 1007 62 10000 7.7 90 05:52 16.06.2020
1353 Clouds 33 1008 59 10000 7.2 70 04:58 16.06.2020
1354 Clouds 33 1008 59 10000 7.2 70 04:26 16.06.2020
1355 Clouds 31 1009 58 10000 8.2 70 02:46 16.06.2020
1356 Clouds 31 1011 66 10000 6.2 90 01:34 16.06.2020
1357 Clouds 28 1010 78 10000 3.6 110 00:57 16.06.2020
1358 Clouds 28 1010 78 10000 3.6 110 00:25 16.06.2020
1359 Clouds 24 1010 94 10000 1.5 160 23:56 15.06.2020
1360 Clouds 24 1010 94 10000 1.5 160 23:38 15.06.2020
1361 Clouds 22 1009 100 10000 2.1 140 23:19 15.06.2020
1362 Clouds 22 1009 100 10000 2.1 140 22:42 15.06.2020
1363 Clouds 22 1009 100 10000 2.1 140 22:22 15.06.2020
1364 Clouds 22 1009 100 10000 1.5 160 21:58 15.06.2020
1365 Clouds 22 1009 100 10000 1.5 160 21:38 15.06.2020
1366 Clouds 23 1008 100 10000 2.1 160 21:20 15.06.2020
1367 Clouds 23 1008 100 10000 2.1 160 20:57 15.06.2020
1368 Clouds 23 1008 100 10000 2.1 160 20:38 15.06.2020
1369 Clouds 23 1008 100 10000 3.55 123 20:19 15.06.2020
1370 Clouds 23 1008 100 10000 3.55 123 19:57 15.06.2020
1371 Clouds 23 1008 100 10000 3.55 123 19:38 15.06.2020
1372 Clouds 23 1008 100 10000 3.6 122 19:20 15.06.2020
1373 Clouds 23 1008 100 10000 3.6 122 18:56 15.06.2020
1374 Clouds 23 1009 100 10000 1.5 160 18:37 15.06.2020
1375 Clouds 23 1009 100 10000 1.5 160 18:19 15.06.2020
1376 Clouds 23 1009 100 10000 1.5 160 17:42 15.06.2020
1377 Clouds 23 1009 100 10000 1.5 160 17:22 15.06.2020
1378 Clouds 23 1009 100 10000 3.57 122 16:59 15.06.2020
1379 Clouds 23 1009 100 10000 3.57 122 16:59 15.06.2020
1380 Clouds 23 1009 100 10000 3.57 122 16:41 15.06.2020
1381 Clouds 24 1009 100 10000 3.65 119 16:19 15.06.2020
1382 Clouds 24 1009 100 10000 3.65 119 15:56 15.06.2020
1383 Clouds 24 1009 100 10000 3.65 119 15:38 15.06.2020
1384 Clouds 24 1010 100 10000 1.5 160 15:18 15.06.2020
1385 Clouds 24 1010 100 10000 1.5 160 14:42 15.06.2020
1386 Clouds 24 1010 100 10000 1 110 14:21 15.06.2020
1387 Clouds 24 1010 100 10000 1 110 13:59 15.06.2020
1388 Clouds 24 1010 100 10000 1 110 13:40 15.06.2020
1389 Clouds 24 1010 100 10000 1 110 13:22 15.06.2020
1390 Clouds 25 1010 94 10000 4 114 12:56 15.06.2020
1391 Clouds 25 1010 94 10000 4.1 109 12:38 15.06.2020
1392 Clouds 26 1009 88 10000 2.1 140 12:19 15.06.2020
1393 Clouds 26 1009 88 10000 2.1 140 11:43 15.06.2020
1394 Clouds 26 1009 88 10000 2.1 140 11:24 15.06.2020
1395 Clouds 26 1009 94 10000 1.5 160 10:44 15.06.2020
1396 Clouds 26 1009 94 10000 1.5 160 10:22 15.06.2020
1397 Clouds 27 1009 88 10000 2.6 140 09:48 15.06.2020
1398 Clouds 27 1009 88 10000 2.6 140 09:27 15.06.2020
1399 Clouds 30 1008 70 10000 5.1 90 08:58 15.06.2020
1400 Clouds 30 1008 70 10000 5.1 90 08:39 15.06.2020
1401 Clouds 29 1008 83 10000 3.1 90 08:20 15.06.2020
1402 Clouds 29 1008 83 10000 3.1 90 07:45 15.06.2020
1403 Clouds 29 1008 83 10000 3.1 90 07:26 15.06.2020
1404 Clouds 28 1008 83 10000 1.5 110 06:42 15.06.2020
1405 Drizzle 27 1008 88 10000 3.94 91 06:20 15.06.2020
1406 Drizzle 27 1008 88 10000 3.94 91 05:43 15.06.2020
1407 Drizzle 27 1008 88 10000 4.1 90 05:24 15.06.2020
1408 Rain 30 1009 64 0 4.82 90 04:19 15.06.2020
1409 Rain 30 1009 64 0 4.82 90 03:41 15.06.2020
1410 Rain 29 1011 70 10000 3.1 110 02:34 15.06.2020
1411 Clouds 28 1011 83 10000 4.1 140 01:53 15.06.2020
1412 Clouds 28 1011 83 10000 4.1 140 01:31 15.06.2020
1413 Drizzle 25 1012 94 10000 4.1 140 00:58 15.06.2020
1414 Drizzle 25 1012 94 10000 4.1 140 00:39 15.06.2020
1415 Rain 26 1011 83 10000 5.1 110 00:19 15.06.2020
1416 Rain 26 1011 83 10000 5.1 110 23:46 14.06.2020
1417 Rain 26 1011 83 10000 5.1 110 23:24 14.06.2020
1418 Rain 25 1011 94 10000 4.6 110 22:58 14.06.2020
1419 Rain 25 1011 94 10000 4.6 110 22:38 14.06.2020
1420 Clouds 24 1010 100 10000 1.5 140 22:19 14.06.2020
1421 Clouds 24 1010 100 10000 1.5 140 21:57 14.06.2020
1422 Clouds 24 1010 100 10000 1.5 140 21:38 14.06.2020
1423 Clear 26 1010 78 0 3.68 121 21:19 14.06.2020
1424 Clear 26 1010 78 0 3.39 127 20:58 14.06.2020
1425 Clear 26 1010 78 0 3.39 127 20:38 14.06.2020
1426 Clouds 26 1009 79 0 3.25 128 20:19 14.06.2020
1427 Clouds 26 1009 79 0 3.25 128 19:56 14.06.2020
1428 Clouds 26 1009 79 0 3.25 128 19:37 14.06.2020
1429 Clouds 26 1009 79 0 3.16 127 19:19 14.06.2020
1430 Clouds 26 1009 79 0 3.16 127 18:56 14.06.2020
1431 Clouds 24 1009 94 10000 1.5 140 18:37 14.06.2020
1432 Clouds 24 1009 94 10000 1.5 140 18:19 14.06.2020
1433 Clouds 24 1009 94 10000 1.5 140 17:55 14.06.2020
1434 Clouds 24 1009 94 10000 1.5 140 17:37 14.06.2020
1435 Clouds 24 1010 100 10000 1.5 160 17:18 14.06.2020
1436 Clouds 24 1010 100 10000 1.5 160 16:40 14.06.2020
1437 Clouds 24 1011 100 10000 2.99 130 16:20 14.06.2020
1438 Clouds 24 1011 100 10000 2.99 130 16:20 14.06.2020
1439 Clouds 24 1011 100 10000 2.99 130 15:57 14.06.2020
1440 Clouds 24 1011 100 10000 2.99 130 15:39 14.06.2020
1441 Clouds 25 1011 94 10000 1 160 15:18 14.06.2020
1442 Clouds 25 1011 94 10000 1 160 14:55 14.06.2020
1443 Clouds 25 1011 94 10000 1 160 14:36 14.06.2020
1444 Clouds 25 1011 94 10000 1 170 14:18 14.06.2020
1445 Clouds 25 1011 94 10000 1 170 13:41 14.06.2020
1446 Clouds 25 1011 94 10000 1 170 13:22 14.06.2020
1447 Clouds 26 1011 88 10000 1 140 12:57 14.06.2020
1448 Clouds 26 1011 88 10000 1 140 12:39 14.06.2020
1449 Clouds 26 1011 88 10000 1 140 12:39 14.06.2020
1450 Clouds 27 1011 78 10000 4.1 110 12:21 14.06.2020
1451 Clouds 27 1011 78 10000 4.1 110 11:58 14.06.2020
1452 Clouds 27 1011 78 10000 4.1 110 11:38 14.06.2020
1453 Clouds 28 1010 78 10000 3.1 90 11:20 14.06.2020
1454 Clouds 28 1010 78 10000 3.1 90 10:42 14.06.2020
1455 Clouds 29 1010 74 10000 4.1 110 10:20 14.06.2020
1456 Clouds 29 1010 74 10000 4.1 110 09:56 14.06.2020
1457 Clouds 29 1010 74 10000 4.1 110 09:38 14.06.2020
1458 Clouds 31 1009 62 10000 3.6 110 09:20 14.06.2020
1459 Clouds 31 1009 62 10000 3.6 110 08:41 14.06.2020
1460 Clouds 33 1008 63 10000 6.2 70 08:19 14.06.2020
1461 Clouds 33 1008 63 10000 6.2 70 07:52 14.06.2020
1462 Clouds 33 1008 63 10000 6.2 70 07:32 14.06.2020
1463 Clouds 33 1008 63 10000 5.1 110 06:39 14.06.2020
1464 Clouds 29 1009 83 10000 3.6 160 05:45 14.06.2020
1465 Clouds 33 1009 66 10000 5.1 70 04:59 14.06.2020
1466 Clouds 33 1009 66 10000 5.1 70 04:33 14.06.2020
1467 Clouds 33 1010 63 10000 4.6 110 03:27 14.06.2020
1468 Clouds 32 1011 66 10000 6.2 90 02:30 14.06.2020
1469 Clouds 31 1011 70 10000 5.1 90 01:45 14.06.2020
1470 Clouds 31 1011 70 10000 5.1 90 01:23 14.06.2020
1471 Clouds 28 1011 83 10000 3.1 110 00:39 14.06.2020
1472 Rain 25 1010 88 10000 1.5 140 00:19 14.06.2020
1473 Rain 25 1010 88 10000 1.5 140 23:43 13.06.2020
1474 Rain 25 1010 88 10000 1.5 140 23:24 13.06.2020
1475 Clouds 23 1010 100 10000 1 160 22:57 13.06.2020
1476 Clouds 23 1010 100 10000 1 160 22:37 13.06.2020
1477 Clouds 23 1010 100 10000 1 160 22:37 13.06.2020
1478 Clear 26 1011 81 0 3.2 123 22:18 13.06.2020
1479 Clear 26 1011 81 0 3.2 123 22:18 13.06.2020
1480 Clear 26 1011 81 0 3.2 123 21:55 13.06.2020
1481 Clouds 23 1010 100 10000 2.1 160 21:37 13.06.2020
1482 Clouds 23 1010 100 10000 2.1 160 21:18 13.06.2020
1483 Clouds 23 1010 100 10000 2.1 160 20:42 13.06.2020
1484 Clouds 26 1010 80 0 2.92 123 20:19 13.06.2020
1485 Clouds 26 1010 80 0 2.92 123 19:42 13.06.2020
1486 Clouds 26 1010 80 0 2.7 124 19:22 13.06.2020
1487 Clouds 26 1010 80 0 2.7 124 18:59 13.06.2020
1488 Clouds 26 1010 80 0 2.7 124 18:41 13.06.2020
1489 Clouds 23 1010 100 10000 1 110 18:21 13.06.2020
1490 Clouds 23 1010 100 10000 1 110 18:21 13.06.2020
1491 Clouds 23 1010 100 10000 1 110 17:59 13.06.2020
1492 Clouds 23 1010 100 10000 1 110 17:40 13.06.2020
1493 Clouds 23 1010 100 10000 1 110 17:22 13.06.2020
1494 Clouds 24 1011 94 10000 1.5 140 16:56 13.06.2020
1495 Clouds 24 1011 94 10000 1.5 140 16:37 13.06.2020
1496 Clouds 24 1011 100 10000 1 160 16:19 13.06.2020
1497 Clouds 24 1011 100 10000 1 160 15:44 13.06.2020
1498 Clouds 24 1011 100 10000 1 160 15:26 13.06.2020
1499 Clouds 25 1011 94 10000 1 110 14:55 13.06.2020
1500 Clouds 25 1011 94 10000 1 110 14:36 13.06.2020
1501 Clouds 25 1011 94 10000 1 110 14:18 13.06.2020
1502 Clouds 25 1011 94 10000 1 110 13:41 13.06.2020
1503 Clouds 25 1011 94 10000 1 110 13:23 13.06.2020
1504 Clouds 25 1011 94 10000 1 110 12:44 13.06.2020
1505 Clouds 25 1011 94 10000 1 110 12:26 13.06.2020
1506 Clouds 26 1010 88 10000 1 160 11:59 13.06.2020
1507 Clouds 26 1010 88 10000 1 160 11:39 13.06.2020
1508 Clouds 27 1010 88 10000 1 110 11:19 13.06.2020
1509 Clouds 27 1010 88 10000 1 110 10:57 13.06.2020
1510 Clouds 27 1010 88 10000 1 110 10:38 13.06.2020
1511 Clouds 29 1010 83 10000 1 140 10:19 13.06.2020
1512 Clouds 29 1010 83 10000 1 140 09:44 13.06.2020
1513 Clouds 29 1010 83 10000 1 140 09:44 13.06.2020
1514 Clouds 29 1010 83 10000 1 140 09:25 13.06.2020
1515 Clouds 30 1009 70 10000 2.1 90 08:49 13.06.2020
1516 Clouds 30 1009 70 10000 2.1 90 08:31 13.06.2020
1517 Clouds 28 1009 78 10000 2.1 160 07:55 13.06.2020
1518 Clouds 28 1009 78 10000 2.1 160 07:30 13.06.2020
1519 Clouds 31 1009 66 10000 5.1 140 06:50 13.06.2020
1520 Clouds 31 1009 66 10000 5.1 140 06:30 13.06.2020
1521 Clouds 32 1010 62 10000 4.1 70 05:45 13.06.2020
1522 Clouds 32 1010 62 10000 4.1 70 05:24 13.06.2020
1523 Clouds 31 1011 62 10000 4.1 70 03:47 13.06.2020
1524 Clouds 31 1012 62 10000 3.1 70 02:54 13.06.2020
1525 Clouds 31 1012 62 10000 3.1 70 02:29 13.06.2020
1526 Clouds 31 1012 62 10000 3.1 110 01:41 13.06.2020
1527 Clouds 29 1011 74 10000 2.1 200 01:18 13.06.2020
1528 Clouds 29 1011 74 10000 2.1 200 00:42 13.06.2020
1529 Clouds 26 1012 83 10000 2.1 200 00:23 13.06.2020
1530 Clouds 26 1012 83 10000 2.1 200 23:41 12.06.2020
1531 Clouds 23 1011 100 10000 2.6 160 23:19 12.06.2020
1532 Clouds 23 1011 100 10000 2.6 160 23:19 12.06.2020
1533 Clouds 23 1011 100 10000 2.6 160 22:56 12.06.2020
1534 Clouds 23 1011 100 10000 2.6 160 22:38 12.06.2020
1535 Clouds 24 1010 100 10000 1 180 22:18 12.06.2020
1536 Clouds 24 1010 100 10000 1 180 21:44 12.06.2020
1537 Clouds 24 1010 100 10000 1 180 21:24 12.06.2020
1538 Clouds 23 1010 100 10000 1.5 200 20:58 12.06.2020
1539 Clouds 23 1010 100 10000 1.5 200 20:39 12.06.2020
1540 Clouds 26 1010 79 0 2.43 127 20:20 12.06.2020
1541 Clouds 26 1010 79 0 2.43 127 19:46 12.06.2020
1542 Clouds 23 1009 100 10000 1.5 160 19:22 12.06.2020
1543 Clouds 26 1010 80 0 2.72 117 18:59 12.06.2020
1544 Clouds 24 1010 94 10000 2.72 117 18:37 12.06.2020
1545 Clouds 24 1010 94 10000 2.55 114 18:18 12.06.2020
1546 Clouds 24 1010 94 10000 2.55 114 17:44 12.06.2020
1547 Clouds 24 1010 94 10000 2.06 129 17:26 12.06.2020
1548 Clouds 24 1010 94 10000 1.5 160 16:47 12.06.2020
1549 Clouds 24 1010 94 10000 1.5 160 16:24 12.06.2020
1550 Clouds 26 1011 79 0 2.05 138 15:56 12.06.2020
1551 Clouds 24 1011 100 10000 1 140 15:37 12.06.2020
1552 Clouds 24 1011 100 10000 1 140 15:19 12.06.2020
1553 Clouds 24 1011 100 10000 1 140 14:41 12.06.2020
1554 Clouds 24 1011 100 10000 1 140 14:22 12.06.2020
1555 Clouds 25 1011 94 10000 1.5 160 13:56 12.06.2020
1556 Clouds 25 1011 94 10000 1.5 160 13:38 12.06.2020
1557 Clouds 25 1011 100 10000 1.5 160 13:18 12.06.2020
1558 Clouds 25 1011 100 10000 1.5 160 12:40 12.06.2020
1559 Clouds 27 1010 88 10000 1.76 148 12:19 12.06.2020
1560 Clouds 27 1010 88 10000 1.76 148 11:45 12.06.2020
1561 Clouds 27 1010 88 10000 1.55 144 11:23 12.06.2020
1562 Clouds 27 1010 88 10000 1.55 144 11:23 12.06.2020
1563 Clouds 28 1009 78 10000 3.1 90 10:57 12.06.2020
1564 Clouds 28 1009 78 10000 3.1 90 10:39 12.06.2020
1565 Clouds 29 1009 79 10000 1.5 110 10:21 12.06.2020
1566 Clouds 29 1009 79 10000 1.5 110 09:44 12.06.2020
1567 Clouds 32 1008 62 10000 4.1 110 09:20 12.06.2020
1568 Clouds 32 1008 62 10000 4.1 110 08:41 12.06.2020
1569 Clouds 32 1008 62 10000 4.1 110 08:23 12.06.2020
1570 Rain 29 1008 75 0 1.56 106 07:42 12.06.2020
1571 Rain 29 1008 74 0 1.37 70 07:24 12.06.2020
1572 Clouds 32 1008 66 10000 4.6 70 06:43 12.06.2020
1573 Clouds 32 1008 66 10000 4.6 70 06:22 12.06.2020
1574 Clouds 32 1008 62 10000 4.1 110 05:49 12.06.2020
1575 Clouds 32 1008 62 10000 4.1 110 05:23 12.06.2020
1576 Clouds 31 1010 70 10000 5.1 110 03:53 12.06.2020
1577 Clouds 32 1010 62 10000 5.1 110 02:42 12.06.2020
1578 Clouds 31 1011 70 10000 4.6 110 01:39 12.06.2020
1579 Clouds 29 1011 74 10000 2.1 160 00:59 12.06.2020
1580 Clouds 29 1011 74 10000 2.1 160 00:39 12.06.2020
1581 Clouds 25 1010 88 10000 1 180 00:20 12.06.2020
1582 Clouds 25 1010 88 10000 1 180 23:56 11.06.2020
1583 Clouds 25 1010 88 10000 1 180 23:37 11.06.2020
1584 Clouds 23 1010 94 10000 1 180 23:19 11.06.2020
1585 Clouds 23 1010 94 10000 1 180 22:41 11.06.2020
1586 Clouds 23 1009 94 10000 3.06 115 22:21 11.06.2020
1587 Clouds 23 1009 94 10000 3.06 115 21:57 11.06.2020
1588 Clouds 23 1009 94 10000 3.06 115 21:38 11.06.2020
1589 Clouds 23 1008 94 10000 2.85 120 21:20 11.06.2020
1590 Clouds 23 1008 94 10000 2.85 120 20:55 11.06.2020
1591 Clouds 23 1008 94 10000 2.85 120 20:37 11.06.2020
1592 Clouds 24 1008 94 10000 2.1 140 20:19 11.06.2020
1593 Clouds 24 1008 94 10000 2.1 140 19:41 11.06.2020
1594 Clouds 24 1008 94 10000 2.1 140 19:22 11.06.2020
1595 Clouds 24 1008 94 10000 3.18 120 18:42 11.06.2020
1596 Clouds 24 1009 94 10000 1.5 160 18:24 11.06.2020
1597 Clouds 24 1009 94 10000 1.5 160 17:57 11.06.2020
1598 Clouds 24 1009 94 10000 1.5 160 17:38 11.06.2020
1599 Clouds 24 1009 94 10000 1.5 160 17:20 11.06.2020
1600 Clouds 25 1009 94 10000 1 160 16:57 11.06.2020
1601 Clouds 25 1009 94 10000 1 160 16:38 11.06.2020
1602 Clouds 25 1009 94 10000 1 160 16:20 11.06.2020
1603 Clouds 25 1010 94 10000 1 140 15:43 11.06.2020
1604 Clouds 25 1010 94 10000 1 140 15:25 11.06.2020
1605 Clouds 25 1010 94 10000 1 160 14:58 11.06.2020
1606 Clouds 25 1010 94 10000 1 160 14:38 11.06.2020
1607 Clouds 25 1010 94 10000 1.5 140 14:20 11.06.2020
1608 Clouds 25 1010 94 10000 1.5 140 13:55 11.06.2020
1609 Clouds 25 1010 94 10000 1.5 140 13:37 11.06.2020
1610 Clouds 25 1010 100 10000 1 180 13:18 11.06.2020
1611 Clouds 25 1010 100 10000 1 180 12:54 11.06.2020
1612 Clouds 25 1010 100 10000 1 180 12:36 11.06.2020
1613 Clouds 26 1009 88 10000 1 160 12:18 11.06.2020
1614 Clouds 26 1009 88 10000 1 160 11:41 11.06.2020
1615 Clouds 26 1009 88 10000 1 160 11:22 11.06.2020
1616 Clouds 27 1009 83 10000 2.6 70 10:59 11.06.2020
1617 Clouds 27 1009 83 10000 2.6 70 10:41 11.06.2020
1618 Clouds 28 1008 78 10000 3.1 90 10:18 11.06.2020
1619 Clouds 28 1008 78 10000 3.1 90 09:43 11.06.2020
1620 Clouds 28 1008 78 10000 3.1 90 09:25 11.06.2020
1621 Rain 30 1008 70 10000 6.2 110 08:44 11.06.2020
1622 Rain 30 1008 74 10000 5.1 90 08:21 11.06.2020
1623 Rain 30 1008 74 10000 5.1 90 07:59 11.06.2020
1624 Rain 30 1008 74 10000 5.1 90 07:41 11.06.2020
1625 Rain 30 1008 70 10000 6.7 90 07:21 11.06.2020
1626 Rain 32 1008 66 10000 7.2 90 06:29 11.06.2020
1627 Rain 32 1008 66 10000 7.2 90 05:46 11.06.2020
1628 Rain 31 1010 61 0 3.19 80 03:56 11.06.2020
1629 Clouds 31 1011 66 10000 6.2 90 03:24 11.06.2020
1630 Clouds 31 1011 66 10000 6.2 90 02:32 11.06.2020
1631 Clouds 30 1011 74 10000 3.6 110 01:53 11.06.2020
1632 Clouds 30 1011 74 10000 3.6 110 01:31 11.06.2020
1633 Clouds 30 1011 70 10000 3.1 90 00:51 11.06.2020
1634 Clouds 27 1011 83 10000 1.5 160 00:30 11.06.2020
1635 Clouds 27 1011 83 10000 1.5 160 23:49 10.06.2020
1636 Clouds 27 1011 83 10000 1.5 160 23:27 10.06.2020
1637 Clouds 24 1010 94 10000 1 140 22:59 10.06.2020
1638 Clouds 24 1010 94 10000 1 140 22:38 10.06.2020
1639 Clouds 24 1010 94 10000 2.31 136 22:20 10.06.2020
1640 Clouds 24 1010 94 10000 2.31 136 21:58 10.06.2020
1641 Clouds 24 1010 94 10000 2.31 136 21:58 10.06.2020
1642 Clouds 24 1010 94 10000 2.31 136 21:40 10.06.2020
1643 Clouds 24 1009 100 10000 2 143 21:18 10.06.2020
1644 Clouds 24 1009 100 10000 2 143 20:57 10.06.2020
1645 Clouds 24 1009 100 10000 2 143 20:57 10.06.2020
1646 Clouds 24 1009 100 10000 2 143 20:39 10.06.2020
1647 Clouds 26 1010 73 0 2.03 145 20:21 10.06.2020
1648 Clouds 26 1010 73 0 2.03 145 19:41 10.06.2020
1649 Clouds 24 1009 100 10000 2.02 148 19:20 10.06.2020
1650 Clouds 24 1009 100 10000 2.02 148 18:59 10.06.2020
1651 Clouds 24 1009 100 10000 2.02 148 18:41 10.06.2020
1652 Clouds 25 1010 94 10000 1.8 145 18:20 10.06.2020
1653 Clouds 25 1010 94 10000 1.8 145 17:56 10.06.2020
1654 Clouds 25 1010 94 10000 1.8 145 17:37 10.06.2020
1655 Clouds 25 1010 94 10000 1.88 138 17:19 10.06.2020
1656 Clouds 25 1010 94 10000 1.88 138 17:19 10.06.2020
1657 Clouds 25 1010 94 10000 1.88 138 16:57 10.06.2020
1658 Clouds 25 1010 94 10000 1.88 138 16:39 10.06.2020
1659 Clouds 25 1011 100 10000 1 110 16:20 10.06.2020
1660 Clouds 25 1011 100 10000 1 110 16:20 10.06.2020
1661 Clouds 25 1011 100 10000 1 110 15:41 10.06.2020
1662 Clouds 26 1011 88 10000 1.5 180 15:22 10.06.2020
1663 Clouds 26 1011 88 10000 1.5 180 14:56 10.06.2020
1664 Clouds 26 1011 88 10000 1.5 180 14:38 10.06.2020
1665 Clouds 25 1011 100 10000 1 140 14:20 10.06.2020
1666 Clouds 25 1011 100 10000 1 140 13:40 10.06.2020
1667 Clouds 25 1011 100 10000 1 140 13:40 10.06.2020
1668 Clouds 26 1011 100 10000 1 140 13:21 10.06.2020
1669 Clouds 26 1011 100 10000 1 140 12:44 10.06.2020
1670 Clouds 27 1010 88 10000 1.5 160 12:20 10.06.2020
1671 Clouds 27 1010 88 10000 1.5 160 11:58 10.06.2020
1672 Clouds 27 1010 88 10000 1.5 160 11:40 10.06.2020
1673 Clouds 28 1009 88 10000 1.5 200 11:19 10.06.2020
1674 Clouds 28 1009 88 10000 1.5 200 10:57 10.06.2020
1675 Clouds 28 1009 88 10000 1.5 200 10:39 10.06.2020
1676 Clouds 28 1009 88 10000 1.5 200 10:20 10.06.2020
1677 Clouds 30 1009 74 10000 3.1 70 09:41 10.06.2020
1678 Clouds 30 1009 74 10000 3.1 70 09:41 10.06.2020
1679 Clouds 30 1009 74 10000 3.1 70 09:41 10.06.2020
1680 Clouds 30 1009 74 10000 3.1 70 09:22 10.06.2020
1681 Clouds 31 1009 66 10000 2.6 50 08:44 10.06.2020
1682 Clouds 31 1008 70 10000 4.1 50 08:24 10.06.2020
1683 Clouds 31 1008 70 10000 4.1 50 07:57 10.06.2020
1684 Clouds 31 1008 70 10000 4.1 50 07:38 10.06.2020
1685 Clouds 31 1008 70 10000 4.1 50 07:18 10.06.2020
1686 Clouds 32 1008 66 10000 2.6 360 06:44 10.06.2020
1687 Clouds 32 1009 66 10000 3.1 70 06:22 10.06.2020
1688 Clouds 32 1009 66 10000 3.1 70 05:55 10.06.2020
1689 Clouds 32 1010 70 10000 2.6 20 05:23 10.06.2020
1690 Clouds 32 1010 70 10000 2.6 20 04:32 10.06.2020
1691 Clouds 32 1011 62 10000 2.6 90 02:50 10.06.2020
1692 Clouds 31 1012 66 10000 3.6 90 01:54 10.06.2020
1693 Clouds 31 1012 66 10000 3.6 90 01:31 10.06.2020
1694 Clouds 30 1011 74 10000 2.6 140 00:39 10.06.2020
1695 Clouds 26 1011 88 10000 1 160 00:21 10.06.2020
1696 Clouds 26 1011 88 10000 1 160 23:55 09.06.2020
1697 Clouds 26 1011 88 10000 1 160 23:36 09.06.2020
1698 Clouds 24 1011 94 10000 1.5 200 23:18 09.06.2020
1699 Clouds 24 1011 94 10000 1.5 200 22:54 09.06.2020
1700 Clouds 24 1011 94 10000 1.5 200 22:36 09.06.2020
1701 Clouds 24 1010 100 10000 2.6 180 22:18 09.06.2020
1702 Clouds 24 1010 100 10000 2.6 180 21:54 09.06.2020
1703 Clouds 24 1010 100 10000 2.6 180 21:36 09.06.2020
1704 Clouds 24 1010 100 10000 2.6 180 21:36 09.06.2020
1705 Clouds 24 1009 94 10000 1.5 160 21:18 09.06.2020
1706 Clouds 24 1009 94 10000 1.5 160 20:55 09.06.2020
1707 Clouds 24 1009 94 10000 1.5 160 20:37 09.06.2020
1708 Clouds 24 1009 100 10000 1.5 160 20:18 09.06.2020
1709 Clouds 24 1009 100 10000 1.5 160 19:54 09.06.2020
1710 Clouds 24 1009 100 10000 1.5 160 19:36 09.06.2020
1711 Clouds 24 1010 100 10000 1.5 160 19:18 09.06.2020
1712 Clouds 24 1010 100 10000 1.5 160 18:42 09.06.2020
1713 Clouds 25 1010 94 10000 1 200 18:24 09.06.2020
1714 Clouds 25 1010 94 10000 1 200 17:57 09.06.2020
1715 Clouds 25 1010 94 10000 1 200 17:38 09.06.2020
1716 Clouds 25 1010 94 10000 1 200 17:20 09.06.2020
1717 Clouds 25 1011 100 10000 2.52 124 16:46 09.06.2020
1718 Clouds 25 1011 100 10000 2.19 138 16:28 09.06.2020
1719 Clouds 26 1011 94 10000 2.19 138 15:59 09.06.2020
1720 Clouds 26 1011 94 10000 2.19 138 15:39 09.06.2020
1721 Clouds 26 1011 94 10000 2.19 138 15:39 09.06.2020
1722 Clouds 26 1011 94 10000 1.82 152 15:21 09.06.2020
1723 Clouds 26 1011 88 10000 1 160 14:55 09.06.2020
1724 Clouds 26 1011 88 10000 1 160 14:37 09.06.2020
1725 Clouds 26 1011 88 10000 1 160 14:37 09.06.2020
1726 Clouds 26 1011 94 10000 1.5 140 14:18 09.06.2020
1727 Clouds 26 1011 94 10000 1.5 140 13:43 09.06.2020
1728 Clouds 27 1011 79 0 1.48 167 13:21 09.06.2020
1729 Clouds 27 1011 79 0 1.48 167 12:58 09.06.2020
1730 Clouds 27 1010 88 10000 1 160 12:40 09.06.2020
1731 Clouds 27 1010 88 10000 1 160 12:18 09.06.2020
1732 Clouds 27 1010 88 10000 1 160 11:55 09.06.2020
1733 Clouds 27 1010 88 10000 1 160 11:37 09.06.2020
1734 Clouds 28 1009 83 10000 1 180 11:18 09.06.2020
1735 Clouds 28 1009 83 10000 1 180 10:43 09.06.2020
1736 Clouds 30 1008 74 10000 2.1 50 10:25 09.06.2020
1737 Clouds 30 1008 74 10000 2.1 50 09:44 09.06.2020
1738 Clouds 30 1008 74 10000 2.1 50 09:25 09.06.2020
1739 Clouds 31 1008 70 10000 2.1 50 08:57 09.06.2020
1740 Clouds 31 1008 70 10000 2.1 50 08:38 09.06.2020
1741 Clouds 31 1008 70 10000 3.1 50 08:20 09.06.2020
1742 Clouds 31 1008 70 10000 3.1 50 07:38 09.06.2020
1743 Clouds 32 1008 70 10000 2.1 50 07:20 09.06.2020
1744 Clouds 32 1008 70 10000 2.1 50 06:54 09.06.2020
1745 Clouds 32 1008 70 10000 2.1 50 06:34 09.06.2020
1746 Clouds 32 1008 62 10000 4.1 20 05:34 09.06.2020
1747 Clouds 32 1009 70 10000 3.1 20 03:21 09.06.2020
1748 Clouds 31 1011 70 10000 2.1 70 01:43 09.06.2020
1749 Clouds 31 1011 70 10000 2.1 70 01:19 09.06.2020
1750 Clouds 29 1011 74 10000 1.5 180 00:49 09.06.2020
1751 Clouds 26 1011 88 10000 1.5 180 00:20 09.06.2020
1752 Clouds 26 1011 88 10000 1.5 180 23:58 08.06.2020
1753 Clouds 26 1011 88 10000 1.5 180 23:37 08.06.2020
1754 Clouds 24 1010 94 10000 1.59 127 23:19 08.06.2020
1755 Clouds 24 1010 94 10000 1.59 127 22:41 08.06.2020
1756 Clouds 24 1010 94 10000 1.66 139 22:22 08.06.2020
1757 Clouds 26 1011 80 0 1.66 139 21:58 08.06.2020
1758 Clouds 26 1011 80 0 1.66 139 21:58 08.06.2020
1759 Clouds 26 1011 80 0 1.66 139 21:40 08.06.2020
1760 Clouds 23 1009 100 10000 1.5 160 21:21 08.06.2020
1761 Clouds 23 1009 100 10000 1.5 160 20:56 08.06.2020
1762 Clouds 23 1009 100 10000 1.5 160 20:38 08.06.2020
1763 Clouds 24 1009 100 10000 1 160 20:19 08.06.2020
1764 Clouds 24 1009 100 10000 1 160 19:44 08.06.2020
1765 Clouds 24 1010 100 10000 1 160 19:22 08.06.2020
1766 Clouds 24 1010 100 10000 1 160 18:58 08.06.2020
1767 Clouds 24 1010 100 10000 1 160 18:58 08.06.2020
1768 Clouds 24 1010 100 10000 1.5 200 18:39 08.06.2020
1769 Clouds 24 1010 100 10000 1.5 200 18:18 08.06.2020
1770 Clouds 24 1010 100 10000 1.5 200 17:55 08.06.2020
1771 Clouds 24 1010 100 10000 1.5 200 17:36 08.06.2020
1772 Clouds 25 1011 100 10000 1.5 200 17:18 08.06.2020
1773 Clouds 25 1011 100 10000 1.5 200 16:42 08.06.2020
1774 Clouds 25 1011 100 10000 1.5 200 16:23 08.06.2020
1775 Clouds 25 1011 100 10000 2.1 200 15:45 08.06.2020
1776 Clouds 25 1011 100 10000 2.1 200 15:22 08.06.2020
1777 Clouds 26 1011 94 10000 1.5 200 14:59 08.06.2020
1778 Clouds 26 1011 94 10000 1.5 200 14:40 08.06.2020
1779 Clouds 26 1011 94 10000 1.2 126 14:20 08.06.2020
1780 Clouds 26 1011 94 10000 1.43 126 14:20 08.06.2020
1781 Clouds 26 1011 94 10000 1.43 126 13:44 08.06.2020
1782 Clouds 26 1011 94 10000 1.2 124 13:25 08.06.2020
1783 Clouds 26 1011 94 10000 1.2 124 12:44 08.06.2020
1784 Clouds 26 1011 94 10000 1.2 124 12:44 08.06.2020
1785 Clouds 26 1011 94 10000 1.2 124 12:44 08.06.2020
1786 Clouds 27 1011 88 10000 1 140 12:22 08.06.2020
1787 Clouds 27 1011 88 10000 1 140 11:59 08.06.2020
1788 Clouds 27 1011 88 10000 1 140 11:41 08.06.2020
1789 Clouds 27 1011 88 10000 1 140 11:22 08.06.2020
1790 Clouds 29 1010 79 10000 0.93 138 10:58 08.06.2020
1791 Clouds 29 1010 79 10000 0.93 138 10:39 08.06.2020
1792 Clouds 29 1009 74 10000 0.61 159 10:20 08.06.2020
1793 Clouds 29 1009 74 10000 0.61 159 09:58 08.06.2020
1794 Clouds 29 1009 74 10000 0.61 159 09:39 08.06.2020
1795 Clouds 29 1009 74 10000 0.54 301 09:21 08.06.2020
1796 Clouds 30 1008 70 10000 1.5 360 08:46 08.06.2020
1797 Clouds 30 1008 70 10000 1.5 360 08:22 08.06.2020
1798 Clouds 31 1008 70 10000 2.6 340 07:46 08.06.2020
1799 Clouds 31 1008 66 10000 2.1 20 07:23 08.06.2020
1800 Clouds 31 1008 66 10000 2.1 20 06:50 08.06.2020
1801 Clouds 31 1008 66 10000 2.1 20 06:28 08.06.2020
1802 Clouds 31 1008 66 10000 2.1 20 05:47 08.06.2020
1803 Clouds 31 1009 66 10000 2.1 20 04:29 08.06.2020
1804 Clouds 30 1010 70 10000 2.1 50 02:32 08.06.2020
1805 Clouds 30 1011 70 10000 1 110 01:46 08.06.2020
1806 Clouds 30 1011 70 10000 1 110 01:26 08.06.2020
1807 Clouds 28 1011 78 10000 1 200 00:30 08.06.2020
1808 Clouds 26 1010 88 10000 1 160 23:42 07.06.2020
1809 Clouds 23 1009 100 10000 1.5 140 23:20 07.06.2020
1810 Clouds 23 1009 100 10000 1.5 140 22:59 07.06.2020
1811 Clouds 23 1009 100 10000 1.5 140 22:39 07.06.2020
1812 Clouds 23 1009 100 10000 1 160 22:19 07.06.2020
1813 Clouds 23 1009 100 10000 1 160 21:58 07.06.2020
1814 Clouds 23 1009 100 10000 1 160 21:38 07.06.2020
1815 Clouds 24 1008 94 10000 0.57 193 21:19 07.06.2020
1816 Clouds 24 1008 94 10000 0.95 166 20:54 07.06.2020
1817 Clouds 24 1008 94 10000 1.05 171 20:36 07.06.2020
1818 Clouds 24 1009 94 10000 1.5 110 20:18 07.06.2020
1819 Clouds 24 1009 94 10000 1.5 110 19:54 07.06.2020
1820 Clouds 24 1009 94 10000 1.5 110 19:36 07.06.2020
1821 Clouds 25 1008 81 0 0.66 172 19:18 07.06.2020
1822 Clouds 24 1009 94 10000 0.66 172 18:40 07.06.2020
1823 Clouds 24 1009 94 10000 1.08 149 18:21 07.06.2020
1824 Clouds 24 1009 94 10000 1.08 149 17:58 07.06.2020
1825 Clouds 24 1009 94 10000 1.08 149 17:40 07.06.2020
1826 Clouds 24 1009 94 10000 0.49 148 17:21 07.06.2020
1827 Clouds 24 1009 100 10000 1 180 16:43 07.06.2020
1828 Clouds 24 1009 100 10000 1 180 16:22 07.06.2020
1829 Clouds 25 1010 94 10000 1 160 15:44 07.06.2020
1830 Clouds 25 1010 94 10000 1 160 15:44 07.06.2020
1831 Clouds 25 1010 94 10000 1 160 15:22 07.06.2020
1832 Rain 25 1010 94 10000 2.6 200 14:41 07.06.2020
1833 Rain 25 1010 94 10000 2.6 200 14:23 07.06.2020
1834 Rain 25 1010 94 10000 2.6 200 14:23 07.06.2020
1835 Rain 25 1010 94 10000 2.6 200 14:23 07.06.2020
1836 Rain 25 1010 94 10000 2.6 200 14:23 07.06.2020
1837 Clouds 25 1010 94 10000 1.5 140 13:55 07.06.2020
1838 Clouds 25 1010 94 10000 1.5 140 13:24 07.06.2020
1839 Clouds 25 1010 94 10000 0.63 141 12:59 07.06.2020
1840 Clouds 25 1010 94 10000 0.63 141 12:40 07.06.2020
1841 Rain 25 1009 94 10000 1.5 90 12:22 07.06.2020
1842 Rain 25 1009 94 10000 1.5 90 12:22 07.06.2020
1843 Rain 25 1009 94 10000 1.5 90 11:55 07.06.2020
1844 Rain 25 1009 94 10000 1.5 90 11:37 07.06.2020
1845 Rain 25 1009 94 10000 3.1 110 11:19 07.06.2020
1846 Rain 25 1009 94 10000 3.1 110 11:19 07.06.2020
1847 Rain 25 1009 94 10000 3.1 110 10:45 07.06.2020
1848 Rain 25 1009 94 10000 3.1 110 10:22 07.06.2020
1849 Rain 26 1009 88 10000 3.1 140 09:59 07.06.2020
1850 Rain 26 1009 88 10000 3.1 140 09:40 07.06.2020
1851 Rain 26 1009 88 10000 3.1 140 09:21 07.06.2020
1852 Rain 28 1007 94 10000 5.1 160 08:58 07.06.2020
1853 Rain 28 1007 94 10000 5.1 160 08:40 07.06.2020
1854 Rain 28 1007 94 10000 5.1 160 08:21 07.06.2020
1855 Rain 29 1007 79 10000 2.1 140 07:39 07.06.2020
1856 Clouds 30 1007 79 10000 2.1 70 06:55 07.06.2020
1857 Rain 31 1007 89 10000 2.6 50 05:54 07.06.2020
1858 Rain 31 1008 74 10000 3.1 50 04:22 07.06.2020
1859 Clouds 31 1008 74 10000 3.1 20 03:48 07.06.2020
1860 Clouds 30 1009 74 10000 1 50 02:18 07.06.2020
1861 Clouds 30 1009 74 10000 1 50 01:26 07.06.2020
1862 Clouds 28 1009 83 10000 1 140 00:48 07.06.2020
1863 Clouds 25 1009 94 10000 1 180 00:20 07.06.2020
1864 Clouds 25 1009 94 10000 1 180 23:59 06.06.2020
1865 Clouds 25 1009 94 10000 1 180 23:38 06.06.2020
1866 Clouds 25 1009 94 10000 1 180 23:19 06.06.2020
1867 Clouds 24 1008 94 10000 1 200 22:56 06.06.2020
1868 Clouds 24 1008 94 10000 1 200 22:38 06.06.2020
1869 Clouds 23 1007 100 10000 1.36 83 22:19 06.06.2020
1870 Clouds 23 1007 100 10000 1.36 83 21:47 06.06.2020
1871 Clouds 23 1007 100 10000 1.48 59 21:22 06.06.2020
1872 Clouds 23 1007 100 10000 1.48 59 20:58 06.06.2020
1873 Clouds 23 1007 100 10000 1.48 59 20:40 06.06.2020
1874 Clouds 23 1007 100 10000 1.06 82 20:19 06.06.2020
1875 Clouds 23 1008 100 10000 1 200 19:57 06.06.2020
1876 Clouds 23 1008 100 10000 1 200 19:38 06.06.2020
1877 Clouds 24 1008 94 10000 1 140 19:20 06.06.2020
1878 Clouds 24 1008 94 10000 1 140 18:43 06.06.2020
1879 Clouds 24 1008 100 10000 1 160 18:24 06.06.2020
1880 Clouds 24 1008 100 10000 1 160 17:58 06.06.2020
1881 Clouds 24 1008 100 10000 1 160 17:40 06.06.2020
1882 Clouds 24 1008 100 10000 0.92 177 17:19 06.06.2020
1883 Clouds 24 1008 100 10000 0.92 177 16:44 06.06.2020
1884 Clouds 24 1008 100 10000 1.42 180 16:22 06.06.2020
1885 Clouds 24 1008 100 10000 1.42 180 15:58 06.06.2020
1886 Clouds 24 1008 100 10000 1.42 180 15:40 06.06.2020
1887 Clouds 24 1008 100 10000 1.68 189 15:20 06.06.2020
1888 Rain 25 1009 94 10000 1.5 140 14:44 06.06.2020
1889 Rain 25 1009 94 10000 1.5 140 14:25 06.06.2020
1890 Clouds 25 1009 100 10000 0.89 193 13:59 06.06.2020
1891 Clouds 25 1009 100 10000 0.89 193 13:40 06.06.2020
1892 Clouds 25 1009 100 10000 1 200 13:18 06.06.2020
1893 Clouds 25 1009 100 10000 1 200 13:18 06.06.2020
1894 Clouds 25 1009 100 10000 1 200 12:43 06.06.2020
1895 Clouds 25 1008 100 10000 0.73 207 12:23 06.06.2020
1896 Clouds 25 1008 100 10000 0.73 207 11:58 06.06.2020
1897 Clouds 25 1008 100 10000 0.73 207 11:58 06.06.2020
1898 Clouds 25 1008 100 10000 0.73 207 11:38 06.06.2020
1899 Clouds 25 1008 100 10000 0.64 212 11:20 06.06.2020
1900 Clouds 27 1009 78 0 0.64 212 10:58 06.06.2020
1901 Clouds 27 1009 78 0 0.64 212 10:39 06.06.2020
1902 Rain 26 1008 100 0 1 230 10:21 06.06.2020
1903 Rain 26 1008 100 0 1 230 09:46 06.06.2020
1904 Rain 26 1008 100 0 1 230 09:46 06.06.2020
1905 Rain 26 1008 100 0 1 230 09:28 06.06.2020
1906 Rain 26 1007 100 10000 2.6 270 08:58 06.06.2020
1907 Rain 26 1007 100 10000 2.6 270 08:40 06.06.2020
1908 Clouds 28 1007 88 10000 3.1 290 08:19 06.06.2020
1909 Clouds 28 1007 88 10000 3.1 290 07:45 06.06.2020
1910 Clouds 28 1007 88 10000 3.1 290 07:45 06.06.2020
1911 Clouds 28 1007 88 10000 3.1 290 07:22 06.06.2020
1912 Clouds 29 1007 79 10000 4.1 290 06:46 06.06.2020
1913 Clouds 29 1007 79 10000 4.1 290 06:27 06.06.2020
1914 Rain 31 1007 74 10000 4.1 340 05:53 06.06.2020
1915 Rain 31 1007 74 10000 4.1 340 05:27 06.06.2020
1916 Rain 31 1007 74 10000 2.6 20 04:42 06.06.2020
1917 Rain 29 1009 79 10000 1.5 50 02:45 06.06.2020
1918 Clouds 28 1009 83 10000 1.5 160 01:45 06.06.2020
1919 Clouds 26 1009 94 10000 1.5 200 01:18 06.06.2020
1920 Clouds 26 1009 94 10000 1.5 200 00:43 06.06.2020
1921 Clouds 25 1008 94 10000 1.5 110 00:25 06.06.2020
1922 Clouds 25 1008 94 10000 1.5 110 23:40 05.06.2020
1923 Clouds 25 1008 94 10000 1 200 23:21 05.06.2020
1924 Clouds 25 1008 94 10000 1 200 22:58 05.06.2020
1925 Clouds 25 1008 94 10000 1 200 22:40 05.06.2020
1926 Clouds 25 1008 94 10000 1 200 22:22 05.06.2020
1927 Rain 26 1009 78 0 1.58 171 21:55 05.06.2020
1928 Clouds 24 1007 94 10000 1 230 21:37 05.06.2020
1929 Clouds 24 1007 94 10000 1 230 21:18 05.06.2020
1930 Clouds 24 1007 94 10000 1 230 20:45 05.06.2020
1931 Clouds 24 1007 100 10000 1 180 20:22 05.06.2020
1932 Clouds 24 1007 100 10000 1 180 19:57 05.06.2020
1933 Clouds 24 1007 100 10000 1 180 19:57 05.06.2020
1934 Clouds 24 1007 100 10000 1 180 19:39 05.06.2020
1935 Clouds 24 1008 100 10000 1.5 160 19:20 05.06.2020
1936 Clouds 24 1008 100 10000 1.5 160 18:40 05.06.2020
1937 Clouds 24 1008 94 10000 2.1 160 18:21 05.06.2020
1938 Clouds 24 1008 94 10000 2.1 160 17:59 05.06.2020
1939 Clouds 24 1008 94 10000 2.1 160 17:40 05.06.2020
1940 Clouds 24 1008 94 10000 2.1 160 17:20 05.06.2020
1941 Clouds 24 1009 100 10000 1 140 16:43 05.06.2020
1942 Clouds 24 1009 100 10000 1 140 16:24 05.06.2020
1943 Clouds 25 1010 94 10000 1.51 148 15:58 05.06.2020
1944 Clouds 25 1010 94 10000 1.51 148 15:38 05.06.2020
1945 Clouds 25 1010 94 10000 1.46 146 15:20 05.06.2020
1946 Clouds 25 1010 94 10000 1.5 140 14:56 05.06.2020
1947 Clouds 25 1010 94 10000 1.5 140 14:38 05.06.2020
1948 Clouds 25 1010 100 10000 1 110 14:19 05.06.2020
1949 Clouds 25 1010 100 10000 1 110 13:43 05.06.2020
1950 Clouds 25 1010 100 10000 1 110 13:24 05.06.2020
1951 Clouds 26 1010 94 10000 1.39 161 12:55 05.06.2020
1952 Clouds 26 1010 94 10000 1.39 161 12:37 05.06.2020
1953 Clouds 27 1009 94 10000 1 200 12:18 05.06.2020
1954 Clouds 27 1009 94 10000 1 200 11:42 05.06.2020
1955 Clouds 27 1009 94 10000 1 200 11:22 05.06.2020
1956 Clouds 27 1009 88 10000 0.83 158 10:55 05.06.2020
1957 Clouds 27 1009 88 10000 0.83 158 10:36 05.06.2020
1958 Clouds 29 1008 79 10000 1.5 180 10:18 05.06.2020
1959 Clouds 29 1008 79 10000 1.5 180 09:55 05.06.2020
1960 Clouds 29 1008 79 10000 1.5 180 09:36 05.06.2020
1961 Rain 27 1009 78 0 0.38 53 09:18 05.06.2020
1962 Rain 27 1009 78 0 0.49 87 08:41 05.06.2020
1963 Clouds 30 1007 74 10000 1 340 08:20 05.06.2020
1964 Clouds 30 1007 74 10000 1 340 07:58 05.06.2020
1965 Clouds 30 1007 74 10000 1 340 07:39 05.06.2020
1966 Clouds 30 1007 74 10000 1 340 07:19 05.06.2020
1967 Rain 30 1008 74 10000 3.1 20 05:50 05.06.2020
1968 Clouds 31 1009 70 10000 3.6 360 05:19 05.06.2020
1969 Clouds 31 1010 70 10000 3.1 20 03:53 05.06.2020
1970 Clouds 31 1011 74 10000 3.1 90 02:45 05.06.2020
1971 Clouds 31 1011 74 10000 3.1 90 02:21 05.06.2020
1972 Clouds 31 1011 74 10000 3.1 90 02:21 05.06.2020
1973 Clouds 30 1011 70 10000 1.5 360 01:52 05.06.2020
1974 Clouds 30 1011 70 10000 1.5 360 01:20 05.06.2020
1975 Clouds 29 1011 74 10000 0.78 94 00:41 05.06.2020
1976 Clouds 25 1011 88 10000 2.1 180 00:20 05.06.2020
1977 Clouds 25 1011 88 10000 2.1 180 23:46 04.06.2020
1978 Clouds 25 1011 88 10000 2.1 180 23:25 04.06.2020
1979 Clouds 23 1011 100 10000 1.5 200 22:45 04.06.2020
1980 Clouds 23 1011 100 10000 1.5 200 22:23 04.06.2020
1981 Rain 26 1011 78 0 1.19 191 21:59 04.06.2020
1982 Rain 26 1011 78 0 1.19 191 21:40 04.06.2020
1983 Clouds 26 1010 79 0 1.22 169 21:22 04.06.2020
1984 Clouds 26 1010 79 0 1.22 169 21:22 04.06.2020
1985 Clouds 26 1010 79 0 1.22 169 20:58 04.06.2020
1986 Clouds 26 1010 79 0 1.22 169 20:39 04.06.2020
1987 Clouds 23 1009 100 10000 2.1 200 20:20 04.06.2020
1988 Clouds 23 1009 100 10000 2.1 200 19:57 04.06.2020
1989 Clouds 23 1009 100 10000 2.1 200 19:38 04.06.2020
1990 Clouds 23 1009 100 10000 2.1 200 19:19 04.06.2020
1991 Clouds 23 1010 100 10000 2.1 140 18:40 04.06.2020
1992 Clouds 23 1011 100 10000 1.5 160 18:21 04.06.2020
1993 Clouds 23 1011 100 10000 1.5 160 17:59 04.06.2020
1994 Clouds 23 1011 100 10000 1.5 160 17:41 04.06.2020
1995 Clouds 24 1011 94 10000 1.07 174 17:20 04.06.2020
1996 Clouds 24 1011 94 10000 1.07 174 16:41 04.06.2020
1997 Clouds 24 1011 100 10000 0.55 162 16:21 04.06.2020
1998 Clouds 24 1011 100 10000 0.55 162 15:47 04.06.2020
1999 Clouds 24 1011 100 10000 0.84 176 15:27 04.06.2020
2000 Clouds 25 1011 94 10000 2.1 360 14:58 04.06.2020
2001 Clouds 25 1011 94 10000 2.1 360 14:38 04.06.2020
2002 Clouds 25 1011 94 10000 1 160 14:19 04.06.2020
2003 Clouds 25 1011 94 10000 1 160 13:42 04.06.2020
2004 Rain 26 1012 80 0 2.13 186 13:21 04.06.2020
2005 Rain 26 1012 80 0 2.13 186 12:59 04.06.2020
2006 Rain 26 1012 80 0 2.13 186 12:41 04.06.2020
2007 Drizzle 25 1011 94 10000 2.1 140 12:23 04.06.2020
2008 Drizzle 25 1011 94 10000 2.1 140 11:56 04.06.2020
2009 Drizzle 25 1011 94 10000 2.1 140 11:38 04.06.2020
2010 Drizzle 25 1012 94 10000 3.1 118 11:19 04.06.2020
2011 Drizzle 25 1012 94 10000 3.1 118 10:43 04.06.2020
2012 Drizzle 25 1012 94 10000 3.1 118 10:23 04.06.2020
2013 Clouds 26 1011 94 10000 2.1 140 09:58 04.06.2020
2014 Clouds 26 1011 94 10000 2.1 140 09:40 04.06.2020
2015 Clouds 26 1011 94 10000 2.1 140 09:22 04.06.2020
2016 Clouds 30 1010 79 10000 3.1 320 08:44 04.06.2020
2017 Clouds 30 1010 79 10000 3.1 320 08:25 04.06.2020
2018 Clouds 30 1009 79 10000 3.6 360 07:47 04.06.2020
2019 Clouds 30 1009 79 10000 3.6 360 07:26 04.06.2020
2020 Clouds 30 1009 79 10000 3.6 360 06:43 04.06.2020
2021 Clouds 30 1009 79 10000 3.6 360 06:24 04.06.2020
2022 Clouds 31 1009 74 10000 2.6 360 05:34 04.06.2020
2023 Clouds 31 1010 74 10000 3.6 20 04:31 04.06.2020
2024 Clouds 31 1011 74 10000 2.6 50 03:23 04.06.2020
2025 Clouds 31 1012 74 10000 2.6 20 01:48 04.06.2020
2026 Clouds 29 1012 83 10000 0.54 356 01:19 04.06.2020
2027 Clouds 29 1012 83 10000 0.54 356 00:36 04.06.2020
2028 Clouds 26 1011 94 10000 1 200 23:41 03.06.2020
2029 Clouds 24 1010 100 10000 0.75 15 23:20 03.06.2020
2030 Clouds 24 1010 100 10000 0.75 15 22:57 03.06.2020
2031 Clouds 24 1010 100 10000 0.75 15 22:38 03.06.2020
2032 Rain 26 1011 77 0 0.81 66 22:18 03.06.2020
2033 Rain 26 1011 77 0 0.81 66 21:56 03.06.2020
2034 Rain 26 1011 77 0 0.81 66 21:56 03.06.2020
2035 Clouds 25 1009 100 10000 2.1 180 21:37 03.06.2020
2036 Clouds 25 1009 100 10000 2.1 180 21:19 03.06.2020
2037 Clouds 25 1009 100 10000 2.1 180 20:43 03.06.2020
2038 Clouds 25 1009 100 10000 1.68 140 20:21 03.06.2020
2039 Clouds 25 1009 100 10000 1.68 140 19:58 03.06.2020
2040 Clouds 25 1009 100 10000 1.68 140 19:39 03.06.2020
2041 Clouds 25 1009 100 10000 1.76 139 19:21 03.06.2020
2042 Clouds 25 1009 100 10000 1.76 139 18:59 03.06.2020
2043 Clouds 25 1009 100 10000 1.76 139 18:40 03.06.2020
2044 Clouds 25 1010 100 10000 1.83 149 18:19 03.06.2020
2045 Clouds 25 1010 100 10000 1.83 149 17:45 03.06.2020
2046 Clouds 25 1010 100 10000 1.97 144 17:23 03.06.2020
2047 Clouds 25 1010 100 10000 1.5 160 16:59 03.06.2020
2048 Clouds 25 1010 100 10000 1.5 160 16:41 03.06.2020
2049 Drizzle 25 1011 100 10000 2.1 140 16:19 03.06.2020
2050 Drizzle 25 1011 100 10000 2.1 140 15:55 03.06.2020
2051 Drizzle 25 1011 100 10000 2.1 140 15:36 03.06.2020
2052 Drizzle 25 1011 100 10000 2.1 140 15:36 03.06.2020
2053 Thunderstorm 25 1011 100 10000 1 160 15:18 03.06.2020
2054 Thunderstorm 25 1011 100 10000 1 160 14:42 03.06.2020
2055 Thunderstorm 25 1011 100 10000 1 160 14:22 03.06.2020
2056 Thunderstorm 25 1012 100 10000 2.1 200 13:40 03.06.2020
2057 Thunderstorm 25 1011 100 10000 1.5 320 13:21 03.06.2020
2058 Thunderstorm 25 1011 100 10000 1.5 320 12:56 03.06.2020
2059 Thunderstorm 28 1011 88 10000 1.5 20 12:38 03.06.2020
2060 Thunderstorm 28 1011 88 10000 1.5 20 12:18 03.06.2020
2061 Thunderstorm 28 1010 88 10000 1 90 11:43 03.06.2020
2062 Thunderstorm 28 1010 88 10000 1 90 11:24 03.06.2020
2063 Rain 29 1009 83 10000 1 50 10:43 03.06.2020
2064 Rain 29 1009 83 10000 1 50 10:24 03.06.2020
2065 Clouds 30 1008 79 10000 2.6 50 09:55 03.06.2020
2066 Clouds 30 1008 79 10000 2.6 50 09:36 03.06.2020
2067 Clouds 31 1008 84 10000 2.6 50 09:18 03.06.2020
2068 Clouds 31 1008 84 10000 2.6 50 08:45 03.06.2020
2069 Clouds 31 1008 84 10000 2.6 50 08:21 03.06.2020
2070 Clouds 32 1007 70 10000 4.1 50 07:45 03.06.2020
2071 Clouds 32 1007 70 10000 4.1 50 07:24 03.06.2020
2072 Clouds 32 1008 70 10000 5.1 50 06:54 03.06.2020
2073 Clouds 32 1008 70 10000 5.1 50 06:33 03.06.2020
2074 Clouds 32 1008 70 10000 6.2 50 05:49 03.06.2020
2075 Clouds 32 1008 70 10000 6.2 50 05:21 03.06.2020
2076 Clouds 31 1010 70 10000 4.1 50 03:52 03.06.2020
2077 Clouds 31 1011 70 10000 4.1 110 03:23 03.06.2020
2078 Clouds 31 1011 70 10000 3.1 110 02:24 03.06.2020
2079 Clouds 30 1012 74 10000 2.1 140 00:49 03.06.2020
2080 Clouds 30 1012 74 10000 2.1 140 00:26 03.06.2020
2081 Clouds 26 1011 88 10000 1 180 23:52 02.06.2020
2082 Clouds 26 1011 88 10000 1 180 23:28 02.06.2020
2083 Clouds 24 1011 94 10000 1.5 160 22:58 02.06.2020
2084 Clouds 24 1011 94 10000 1.5 160 22:39 02.06.2020
2085 Clouds 24 1011 94 10000 1.5 160 22:39 02.06.2020
2086 Clouds 23 1010 100 10000 1.5 160 22:19 02.06.2020
2087 Clouds 23 1010 100 10000 1.5 160 21:56 02.06.2020
2088 Clouds 23 1010 100 10000 1.5 160 21:38 02.06.2020
2089 Clouds 23 1010 100 10000 1.5 160 21:19 02.06.2020
2090 Clouds 24 1010 94 10000 2.1 160 20:58 02.06.2020
2091 Clouds 24 1010 94 10000 2.1 160 20:58 02.06.2020
2092 Clouds 24 1010 94 10000 2.1 160 20:39 02.06.2020
2093 Clouds 24 1010 94 10000 1 200 20:20 02.06.2020
2094 Clouds 24 1010 94 10000 1 200 19:43 02.06.2020
2095 Clouds 24 1010 100 10000 1 160 19:25 02.06.2020
2096 Clouds 24 1010 100 10000 1 160 19:25 02.06.2020
2097 Clouds 24 1010 100 10000 1 160 18:57 02.06.2020
2098 Clouds 24 1010 100 10000 1 160 18:57 02.06.2020
2099 Clouds 24 1010 100 10000 1 160 18:39 02.06.2020
2100 Clouds 24 1010 100 10000 1 160 18:20 02.06.2020
2101 Clouds 24 1010 100 10000 1 160 17:55 02.06.2020
2102 Clouds 24 1010 100 10000 1 160 17:37 02.06.2020
2103 Clouds 24 1011 100 10000 1.5 180 17:18 02.06.2020
2104 Clouds 24 1011 100 10000 1.5 180 16:40 02.06.2020
2105 Clouds 24 1011 100 10000 1.5 180 16:21 02.06.2020
2106 Clouds 24 1011 100 10000 1.5 180 16:21 02.06.2020
2107 Clouds 25 1012 94 10000 1 140 15:57 02.06.2020
2108 Clouds 25 1012 94 10000 1 140 15:37 02.06.2020
2109 Clouds 25 1012 94 10000 1 140 15:19 02.06.2020
2110 Clouds 25 1012 100 10000 1.5 160 14:45 02.06.2020
2111 Clouds 25 1012 100 10000 1.5 160 14:26 02.06.2020
2112 Clouds 26 1012 94 10000 1.5 160 13:54 02.06.2020
2113 Clouds 26 1012 94 10000 1.5 160 13:36 02.06.2020
2114 Clouds 26 1012 94 10000 1.5 140 13:18 02.06.2020
2115 Clouds 26 1012 94 10000 1.5 140 12:40 02.06.2020
2116 Rain 27 1011 88 10000 1.5 160 12:21 02.06.2020
2117 Rain 27 1011 88 10000 1.5 160 11:59 02.06.2020
2118 Rain 27 1011 88 10000 1.5 160 11:39 02.06.2020
2119 Rain 27 1011 88 10000 1.5 160 11:20 02.06.2020
2120 Rain 28 1010 83 10000 4.1 160 10:47 02.06.2020
2121 Rain 28 1010 83 10000 4.1 160 10:28 02.06.2020
2122 Rain 30 1010 74 10000 4.1 50 09:58 02.06.2020
2123 Rain 30 1010 74 10000 4.1 50 09:38 02.06.2020
2124 Rain 30 1010 74 10000 4.1 50 09:20 02.06.2020
2125 Rain 30 1010 74 10000 4.1 50 09:20 02.06.2020
2126 Rain 31 1009 79 10000 4.1 50 08:48 02.06.2020
2127 Rain 31 1009 79 10000 4.1 50 08:21 02.06.2020
2128 Rain 31 1009 70 10000 4.1 50 07:52 02.06.2020
2129 Clouds 31 1009 70 10000 4.1 50 07:25 02.06.2020
2130 Rain 31 1009 70 10000 4.1 50 06:45 02.06.2020
2131 Clouds 31 1010 89 10000 4.1 50 05:57 02.06.2020
2132 Clouds 31 1010 89 10000 4.1 50 05:19 02.06.2020
2133 Clouds 32 1011 70 10000 4.1 50 03:22 02.06.2020
2134 Clouds 32 1012 79 10000 3.6 50 02:25 02.06.2020
2135 Clouds 30 1013 74 10000 2.6 140 01:21 02.06.2020
2136 Clouds 30 1013 74 10000 2.6 140 00:25 02.06.2020
2137 Clouds 25 1012 88 10000 1 180 23:55 01.06.2020
2138 Clouds 25 1012 88 10000 1 180 23:36 01.06.2020
2139 Clouds 24 1011 94 10000 1.5 180 23:18 01.06.2020
2140 Clouds 24 1011 94 10000 1.5 180 22:41 01.06.2020
2141 Clouds 24 1011 94 10000 1 180 22:21 01.06.2020
2142 Clouds 24 1011 94 10000 1 180 21:57 01.06.2020
2143 Clouds 24 1011 94 10000 1 180 21:37 01.06.2020
2144 Clouds 24 1011 94 10000 1 180 21:18 01.06.2020
2145 Clouds 24 1011 94 10000 1 180 20:55 01.06.2020
2146 Clouds 24 1011 94 10000 1 140 20:36 01.06.2020
2147 Clouds 24 1011 94 10000 1 140 20:36 01.06.2020
2148 Clouds 24 1011 94 10000 1 140 20:18 01.06.2020
2149 Clouds 24 1011 94 10000 1 140 19:43 01.06.2020
2150 Rain 26 1010 79 0 2.36 128 19:21 01.06.2020
2151 Rain 26 1010 79 0 2.36 128 18:59 01.06.2020
2152 Rain 26 1010 79 0 2.36 128 18:39 01.06.2020
2153 Clouds 25 1011 94 10000 1 180 18:19 01.06.2020
2154 Clouds 25 1011 94 10000 1 180 17:55 01.06.2020
2155 Clouds 25 1011 94 10000 1 180 17:36 01.06.2020
2156 Clouds 25 1012 94 10000 1 180 17:18 01.06.2020
2157 Clouds 25 1012 94 10000 1 180 16:39 01.06.2020
2158 Clouds 25 1012 94 10000 1 180 16:20 01.06.2020
2159 Clouds 25 1012 94 10000 1 180 15:55 01.06.2020
2160 Clouds 25 1012 94 10000 1 180 15:37 01.06.2020
2161 Clouds 25 1012 94 10000 1 160 15:18 01.06.2020
2162 Clouds 25 1012 94 10000 1 160 14:55 01.06.2020
2163 Clouds 25 1012 94 10000 1 160 14:36 01.06.2020
2164 Clouds 25 1012 94 10000 1.03 145 14:18 01.06.2020
2165 Clouds 25 1012 94 10000 1.46 150 13:41 01.06.2020
2166 Clouds 25 1012 94 10000 1.38 149 13:21 01.06.2020
2167 Clouds 25 1012 100 10000 1 160 12:58 01.06.2020
2168 Clouds 25 1012 100 10000 1 160 12:40 01.06.2020
2169 Clouds 26 1012 94 10000 1.5 110 12:21 01.06.2020
2170 Clouds 26 1012 94 10000 1.5 110 11:56 01.06.2020
2171 Clouds 26 1012 94 10000 1.5 110 11:36 01.06.2020
2172 Clouds 27 1011 88 10000 2.1 140 11:18 01.06.2020
2173 Clouds 27 1011 88 10000 2.1 140 10:39 01.06.2020
2174 Clouds 27 1011 88 10000 2.1 140 10:20 01.06.2020
2175 Clouds 29 1011 79 10000 3.6 90 09:57 01.06.2020
2176 Clouds 29 1011 79 10000 3.6 90 09:39 01.06.2020
2177 Clouds 29 1011 79 10000 3.6 90 09:20 01.06.2020
2178 Rain 30 1010 79 10000 3.1 50 08:51 01.06.2020
2179 Rain 30 1010 79 10000 3.1 50 08:28 01.06.2020
2180 Clouds 31 1009 70 10000 4.6 20 07:46 01.06.2020
2181 Clouds 31 1009 70 10000 4.6 20 07:28 01.06.2020
2182 Rain 31 1009 70 10000 3.1 360 06:59 01.06.2020
2183 Rain 31 1009 70 10000 3.1 360 06:33 01.06.2020
2184 Rain 32 1010 62 10000 4.1 360 05:53 01.06.2020
2185 Clouds 31 1011 66 10000 4.1 360 04:31 01.06.2020
2186 Clouds 31 1012 66 10000 35 20 03:48 01.06.2020
2187 Clouds 31 1012 66 10000 35 20 03:24 01.06.2020
2188 Clouds 31 1013 70 10000 1.5 110 02:19 01.06.2020
2189 Clouds 31 1013 70 10000 1.5 110 01:34 01.06.2020
2190 Clouds 29 1013 79 10000 1.5 180 00:58 01.06.2020
2191 Clouds 29 1013 79 10000 1.5 180 00:39 01.06.2020
2192 Clouds 26 1013 88 10000 1 180 00:21 01.06.2020
2193 Clouds 26 1013 88 10000 1 180 23:56 31.05.2020
2194 Clouds 26 1013 88 10000 1 180 23:37 31.05.2020
2195 Clouds 26 1013 88 10000 1 180 23:19 31.05.2020
2196 Clouds 23 1012 100 10000 1 160 22:43 31.05.2020
2197 Clouds 23 1012 100 10000 1 160 22:43 31.05.2020
2198 Clouds 23 1012 100 10000 1 160 22:43 31.05.2020
2199 Clouds 23 1012 100 10000 1 160 22:25 31.05.2020
2200 Clouds 23 1011 100 10000 1 140 21:58 31.05.2020
2201 Clouds 23 1011 100 10000 1 140 21:39 31.05.2020
2202 Clouds 23 1011 100 10000 1 140 21:21 31.05.2020
2203 Clouds 23 1011 100 10000 1 140 21:21 31.05.2020
2204 Clouds 24 1011 94 10000 1.5 140 20:48 31.05.2020
2205 Clouds 24 1011 94 10000 1.5 140 20:25 31.05.2020
2206 Clouds 24 1010 94 10000 1 270 19:58 31.05.2020
2207 Clouds 24 1010 94 10000 1 270 19:39 31.05.2020
2208 Clouds 24 1010 94 10000 1 270 19:21 31.05.2020
2209 Clouds 24 1011 100 10000 1 230 18:58 31.05.2020
2210 Clouds 24 1011 100 10000 1 230 18:40 31.05.2020
2211 Clouds 24 1011 100 10000 1 230 18:21 31.05.2020
2212 Clouds 24 1011 94 10000 1 230 17:43 31.05.2020
2213 Clouds 24 1011 94 10000 1 230 17:24 31.05.2020
2214 Clouds 24 1012 100 10000 1 200 16:42 31.05.2020
2215 Clouds 24 1012 100 10000 1 200 16:22 31.05.2020
2216 Clouds 24 1013 100 10000 1.5 160 15:57 31.05.2020
2217 Clouds 24 1013 100 10000 1.5 160 15:57 31.05.2020
2218 Clouds 24 1013 100 10000 1.5 160 15:37 31.05.2020
2219 Clouds 24 1013 100 10000 1.5 160 15:19 31.05.2020
2220 Clouds 24 1013 100 10000 1 110 14:44 31.05.2020
2221 Clouds 24 1013 100 10000 1 110 14:19 31.05.2020
2222 Clouds 24 1013 100 10000 1.5 160 13:56 31.05.2020
2223 Clouds 24 1013 100 10000 1.5 160 13:37 31.05.2020
2224 Clouds 24 1013 100 10000 1.5 180 13:19 31.05.2020
2225 Clouds 24 1013 100 10000 1.5 180 12:46 31.05.2020
2226 Clouds 24 1013 100 10000 1.5 180 12:24 31.05.2020
2227 Clouds 25 1012 94 10000 1.1 146 11:59 31.05.2020
2228 Clouds 25 1012 94 10000 1.1 146 11:39 31.05.2020
2229 Clouds 25 1012 94 10000 0.84 143 11:21 31.05.2020
2230 Clouds 25 1012 100 10000 1.5 160 10:45 31.05.2020
2231 Clouds 25 1012 100 10000 1.5 160 10:27 31.05.2020
2232 Drizzle 26 1012 94 10000 2.1 110 09:59 31.05.2020
2233 Drizzle 26 1012 94 10000 2.1 110 09:41 31.05.2020
2234 Drizzle 26 1012 94 10000 2.1 110 09:21 31.05.2020
2235 Drizzle 27 1011 88 10000 3.6 160 08:43 31.05.2020
2236 Drizzle 27 1011 88 10000 3.6 160 08:24 31.05.2020
2237 Clouds 29 1011 83 10000 2.6 110 07:52 31.05.2020
2238 Thunderstorm 29 1011 79 10000 2.1 20 07:22 31.05.2020
2239 Thunderstorm 39 1011 45 0 3.1 50 06:57 31.05.2020
2240 Thunderstorm 30 1011 74 0 3.1 50 06:36 31.05.2020
2241 Clouds 31 1010 74 10000 4.6 20 05:55 31.05.2020
2242 Clouds 31 1010 74 10000 4.6 20 05:37 31.05.2020
2243 Clouds 32 1012 66 10000 3.6 20 04:18 31.05.2020
2244 Clouds 32 1012 66 10000 3.6 20 03:44 31.05.2020
2245 Clouds 32 1013 70 10000 3.1 50 02:49 31.05.2020
2246 Clouds 31 1013 70 10000 1.5 110 01:46 31.05.2020
2247 Clouds 28 1014 78 10000 2.1 200 00:42 31.05.2020
2248 Rain 29 1013 69 0 1.59 112 00:24 31.05.2020
2249 Rain 29 1013 69 0 1.59 112 23:42 30.05.2020
2250 Clouds 24 1012 94 10000 1.87 139 23:24 30.05.2020
2251 Clouds 24 1012 94 10000 1.87 139 22:56 30.05.2020
2252 Clouds 24 1012 94 10000 1.87 139 22:38 30.05.2020
2253 Clouds 24 1012 94 10000 2.08 138 22:20 30.05.2020
2254 Clouds 24 1012 94 10000 1.5 180 21:43 30.05.2020
2255 Clouds 24 1012 94 10000 1.5 180 21:22 30.05.2020
2256 Clouds 24 1012 94 10000 1.5 180 21:22 30.05.2020
2257 Clouds 23 1012 100 10000 1.5 180 20:58 30.05.2020
2258 Clouds 23 1012 100 10000 1.5 180 20:39 30.05.2020
2259 Clouds 23 1012 100 10000 1.5 180 20:21 30.05.2020
2260 Clouds 23 1011 100 10000 1.16 152 19:56 30.05.2020
2261 Clouds 23 1011 100 10000 1.16 152 19:38 30.05.2020
2262 Clouds 24 1011 94 10000 2.1 140 19:18 30.05.2020
2263 Clouds 24 1011 94 10000 2.1 140 18:43 30.05.2020
2264 Clouds 24 1011 94 10000 2.1 140 18:19 30.05.2020
2265 Clouds 24 1012 94 10000 1.5 180 17:42 30.05.2020
2266 Clouds 24 1012 94 10000 1.5 180 17:24 30.05.2020
2267 Clouds 24 1013 94 10000 1 160 16:58 30.05.2020
2268 Clouds 24 1013 94 10000 1 160 16:39 30.05.2020
2269 Clouds 24 1013 94 10000 1 160 16:20 30.05.2020
2270 Clouds 24 1013 100 10000 1.5 140 15:42 30.05.2020
2271 Clouds 24 1013 100 10000 1.5 140 15:24 30.05.2020
2272 Clouds 24 1013 100 10000 1.5 140 15:24 30.05.2020
2273 Clouds 25 1012 94 10000 1 140 14:43 30.05.2020
2274 Clouds 25 1012 94 10000 1 140 14:24 30.05.2020
2275 Clouds 25 1013 94 10000 1 140 13:44 30.05.2020
2276 Clouds 25 1013 94 10000 1 140 13:24 30.05.2020
2277 Clouds 25 1012 94 10000 1 160 12:42 30.05.2020
2278 Clouds 25 1012 94 10000 1 160 12:21 30.05.2020
2279 Clouds 26 1012 88 10000 1 140 11:58 30.05.2020
2280 Clouds 26 1012 88 10000 1 140 11:39 30.05.2020
2281 Clouds 26 1012 88 10000 1 140 11:21 30.05.2020
2282 Clouds 25 1012 94 10000 2.1 180 10:41 30.05.2020
2283 Clouds 25 1012 94 10000 2.1 180 10:21 30.05.2020
2284 Drizzle 26 1011 88 10000 1 180 09:49 30.05.2020
2285 Drizzle 26 1011 88 10000 1 180 09:31 30.05.2020
2286 Clouds 28 1011 88 10000 3.1 160 08:51 30.05.2020
2287 Clouds 28 1011 88 10000 3.1 160 08:32 30.05.2020
2288 Clouds 29 1011 83 10000 1 160 07:45 30.05.2020
2289 Clouds 29 1011 83 10000 1 160 07:24 30.05.2020
2290 Clouds 31 1010 74 10000 3.1 70 06:51 30.05.2020
2291 Clouds 31 1010 74 10000 3.1 70 06:23 30.05.2020
2292 Clouds 31 1011 74 10000 3.1 50 05:49 30.05.2020
2293 Clouds 31 1012 74 10000 3.1 360 03:39 30.05.2020
2294 Clouds 31 1013 74 10000 3.1 50 02:30 30.05.2020
2295 Clouds 31 1013 70 10000 2.1 90 01:48 30.05.2020
2296 Clouds 30 1014 70 10000 2.01 78 00:38 30.05.2020
2297 Clouds 26 1013 88 10000 2.6 180 00:19 30.05.2020
2298 Clouds 26 1013 88 10000 2.6 180 23:57 29.05.2020
2299 Clouds 26 1013 88 10000 2.6 180 23:37 29.05.2020
2300 Clouds 23 1013 100 10000 2.1 140 23:18 29.05.2020
2301 Clouds 23 1013 100 10000 2.1 140 22:40 29.05.2020
2302 Clouds 23 1013 100 10000 2.1 140 22:19 29.05.2020
2303 Clouds 23 1013 100 10000 1 160 21:58 29.05.2020
2304 Clouds 23 1013 100 10000 1 160 21:37 29.05.2020
2305 Clouds 24 1012 94 10000 1.5 160 21:18 29.05.2020
2306 Clouds 24 1012 94 10000 1.5 160 20:44 29.05.2020
2307 Clouds 24 1012 94 10000 1.5 160 20:20 29.05.2020
2308 Clouds 26 1012 78 0 1.26 144 19:59 29.05.2020
2309 Clouds 23 1011 100 10000 1 160 19:38 29.05.2020
2310 Clouds 23 1011 100 10000 1 160 19:19 29.05.2020
2311 Clouds 23 1011 100 10000 1 160 18:46 29.05.2020
2312 Clouds 23 1011 100 10000 1 160 18:19 29.05.2020
2313 Clouds 23 1011 100 10000 1 160 18:19 29.05.2020
2314 Clouds 24 1011 94 10000 1.86 150 17:56 29.05.2020
2315 Clouds 24 1011 94 10000 1.86 150 17:38 29.05.2020
2316 Clouds 24 1011 94 10000 2 148 17:19 29.05.2020
2317 Clouds 24 1011 94 10000 2 148 17:19 29.05.2020
2318 Clouds 24 1012 100 10000 1 200 16:42 29.05.2020
2319 Clouds 24 1012 100 10000 1 200 16:23 29.05.2020
2320 Clouds 25 1013 94 10000 1.77 137 15:56 29.05.2020
2321 Clouds 25 1013 94 10000 1.77 137 15:37 29.05.2020
2322 Clouds 25 1013 100 10000 1.5 140 15:18 29.05.2020
2323 Clouds 25 1013 100 10000 1.5 140 14:40 29.05.2020
2324 Clouds 25 1013 100 10000 1.5 140 14:21 29.05.2020
2325 Clouds 25 1013 100 10000 2.1 140 13:43 29.05.2020
2326 Clouds 25 1013 100 10000 2.1 140 13:24 29.05.2020
2327 Clouds 25 1013 94 10000 1 200 12:58 29.05.2020
2328 Clouds 25 1013 94 10000 1 200 12:40 29.05.2020
2329 Clouds 25 1013 94 10000 1 200 12:21 29.05.2020
2330 Clouds 25 1012 94 10000 1 250 11:45 29.05.2020
2331 Clouds 25 1012 94 10000 1 250 11:26 29.05.2020
2332 Clouds 25 1012 94 10000 1 200 10:57 29.05.2020
2333 Clouds 25 1012 94 10000 1 200 10:36 29.05.2020
2334 Clouds 26 1011 88 10000 1 200 10:18 29.05.2020
2335 Clouds 26 1011 88 10000 1 200 09:42 29.05.2020
2336 Clouds 26 1011 88 10000 1 200 09:19 29.05.2020
2337 Clouds 27 1011 88 10000 1.5 200 08:48 29.05.2020
2338 Clouds 27 1011 88 10000 1.5 200 08:26 29.05.2020
2339 Clouds 27 1010 88 10000 1 160 07:58 29.05.2020
2340 Clouds 27 1010 88 10000 1 160 07:37 29.05.2020
2341 Clouds 27 1010 83 10000 1 160 07:18 29.05.2020
2342 Clouds 27 1010 83 10000 1 160 06:46 29.05.2020
2343 Clouds 27 1010 83 10000 1 160 06:26 29.05.2020
2344 Clouds 27 1011 94 10000 3.1 180 05:45 29.05.2020
2345 Clouds 30 1013 74 10000 1.5 90 02:35 29.05.2020
2346 Clouds 30 1013 74 10000 1.5 90 01:28 29.05.2020
2347 Clouds 29 1013 79 10000 1 20 00:54 29.05.2020
2348 Clouds 29 1013 79 10000 1 20 00:33 29.05.2020
2349 Clouds 28 1013 83 10000 1 20 23:58 28.05.2020
2350 Clouds 26 1013 88 10000 2.08 114 23:39 28.05.2020
2351 Clouds 23 1012 100 10000 2.1 140 23:18 28.05.2020
2352 Clouds 23 1012 100 10000 2.1 140 22:42 28.05.2020
2353 Clouds 23 1012 100 10000 2.1 140 22:24 28.05.2020
2354 Clouds 23 1011 100 10000 1.5 140 21:56 28.05.2020
2355 Clouds 23 1011 100 10000 1.5 140 21:56 28.05.2020
2356 Clouds 23 1011 100 10000 1.5 140 21:38 28.05.2020
2357 Clouds 23 1011 100 10000 1.5 140 21:19 28.05.2020
2358 Clouds 23 1011 100 10000 1.5 140 21:19 28.05.2020
2359 Clouds 23 1011 100 10000 1 200 20:56 28.05.2020
2360 Clouds 23 1011 100 10000 1 200 20:37 28.05.2020
2361 Clouds 24 1011 94 10000 1 200 20:18 28.05.2020
2362 Clouds 24 1011 94 10000 1 200 19:43 28.05.2020
2363 Clouds 24 1011 94 10000 1 200 19:21 28.05.2020
2364 Clouds 24 1011 100 10000 1.5 140 18:57 28.05.2020
2365 Clouds 24 1011 100 10000 1.5 140 18:39 28.05.2020
2366 Clouds 24 1011 100 10000 2.6 230 18:21 28.05.2020
2367 Clouds 24 1011 100 10000 2.6 230 17:41 28.05.2020
2368 Clouds 24 1011 100 10000 2.6 230 17:22 28.05.2020
2369 Rain 24 1014 100 0 2.35 123 16:56 28.05.2020
2370 Rain 24 1014 100 0 2.35 123 16:36 28.05.2020
2371 Clouds 26 1014 94 10000 6.2 20 16:18 28.05.2020
2372 Clouds 26 1014 94 10000 6.2 20 15:41 28.05.2020
2373 Clouds 26 1013 94 10000 1.5 110 15:23 28.05.2020
2374 Clouds 26 1013 94 10000 1.5 110 14:43 28.05.2020
2375 Clouds 26 1013 94 10000 1.5 110 14:24 28.05.2020
2376 Clouds 26 1013 80 0 2.82 121 13:49 28.05.2020
2377 Clouds 26 1013 80 0 2.82 121 13:49 28.05.2020
2378 Clouds 27 1013 88 10000 1.5 110 13:30 28.05.2020
2379 Clouds 27 1013 88 10000 1.5 110 12:59 28.05.2020
2380 Clouds 27 1013 88 10000 1.5 110 12:38 28.05.2020
2381 Clouds 28 1013 83 10000 1.5 50 12:18 28.05.2020
2382 Clouds 28 1013 83 10000 1.5 50 11:41 28.05.2020
2383 Clouds 28 1013 83 10000 1.5 50 11:23 28.05.2020
2384 Clouds 29 1011 79 10000 3.1 90 10:56 28.05.2020
2385 Clouds 29 1011 79 10000 3.1 90 10:37 28.05.2020
2386 Clouds 31 1011 70 10000 4.1 50 10:18 28.05.2020
2387 Clouds 31 1011 70 10000 4.1 50 09:39 28.05.2020
2388 Clouds 31 1011 70 10000 4.1 50 09:19 28.05.2020
2389 Clouds 32 1010 70 10000 2.6 50 08:45 28.05.2020
2390 Clouds 32 1010 70 10000 2.6 50 08:26 28.05.2020
2391 Clouds 32 1010 70 10000 4.1 50 07:45 28.05.2020
2392 Clouds 32 1010 70 10000 4.1 50 07:25 28.05.2020
2393 Clouds 33 1010 66 10000 5.1 50 06:55 28.05.2020
2394 Clouds 33 1010 66 10000 5.1 50 06:36 28.05.2020
2395 Clouds 33 1010 75 10000 5.1 70 05:40 28.05.2020
2396 Clouds 33 1011 66 10000 4.6 50 04:46 28.05.2020
2397 Clouds 33 1011 66 10000 4.6 50 04:25 28.05.2020
2398 Clouds 32 1012 70 10000 5.1 90 03:45 28.05.2020
2399 Clouds 32 1013 70 10000 4.1 90 02:45 28.05.2020
2400 Clouds 31 1013 74 10000 4.1 110 01:49 28.05.2020
2401 Clouds 30 1014 79 10000 4.1 110 00:54 28.05.2020
2402 Clouds 30 1014 79 10000 4.1 110 00:22 28.05.2020
2403 Clouds 27 1013 83 10000 2.1 160 23:56 27.05.2020
2404 Clouds 27 1013 83 10000 2.1 160 23:38 27.05.2020
2405 Clouds 27 1013 83 10000 2.1 160 23:19 27.05.2020
2406 Clouds 25 1012 94 10000 1.5 140 22:43 27.05.2020
2407 Clouds 25 1012 94 10000 1.5 140 22:24 27.05.2020
2408 Clouds 24 1011 94 10000 1 160 21:57 27.05.2020
2409 Clouds 24 1011 94 10000 1 160 21:39 27.05.2020
2410 Clouds 24 1011 94 10000 1 160 21:20 27.05.2020
2411 Clouds 24 1011 94 10000 1 140 20:58 27.05.2020
2412 Clouds 24 1011 94 10000 1 140 20:39 27.05.2020
2413 Clouds 24 1011 94 10000 1 140 20:20 27.05.2020
2414 Clouds 24 1011 100 10000 1.5 160 19:46 27.05.2020
2415 Clouds 24 1011 100 10000 1.5 160 19:21 27.05.2020
2416 Clouds 24 1011 100 10000 1.5 140 18:54 27.05.2020
2417 Clouds 24 1011 100 10000 1.5 140 18:36 27.05.2020
2418 Clouds 25 1012 94 10000 2.1 140 18:18 27.05.2020
2419 Clouds 25 1012 94 10000 2.1 140 17:42 27.05.2020
2420 Clouds 25 1012 94 10000 2.1 140 17:23 27.05.2020
2421 Clouds 26 1012 94 10000 1 180 16:56 27.05.2020
2422 Clouds 26 1012 94 10000 1 180 16:38 27.05.2020
2423 Clouds 26 1012 94 10000 1 180 16:19 27.05.2020
2424 Clouds 26 1013 94 10000 2.6 140 15:48 27.05.2020
2425 Clouds 26 1013 94 10000 2.6 140 15:22 27.05.2020
2426 Clouds 25 1013 94 10000 1.5 140 14:47 27.05.2020
2427 Clouds 25 1013 94 10000 1.5 140 14:23 27.05.2020
2428 Clouds 26 1013 94 10000 1.5 140 13:59 27.05.2020
2429 Clouds 26 1013 94 10000 1.5 140 13:41 27.05.2020
2430 Clouds 26 1013 94 10000 1.5 140 13:22 27.05.2020
2431 Clouds 26 1013 94 10000 1 160 12:42 27.05.2020
2432 Clouds 26 1013 94 10000 1 160 12:23 27.05.2020
2433 Clear 27 1013 81 0 3.14 122 11:56 27.05.2020
2434 Clouds 26 1012 100 10000 1.5 140 11:37 27.05.2020
2435 Clouds 26 1012 100 10000 1.5 140 11:18 27.05.2020
2436 Clouds 26 1012 100 10000 1.5 140 10:43 27.05.2020
2437 Clouds 26 1012 100 10000 1.5 140 10:24 27.05.2020
2438 Rain 28 1011 83 10000 4.1 90 09:57 27.05.2020
2439 Rain 28 1011 83 10000 4.1 90 09:57 27.05.2020
2440 Rain 28 1011 83 10000 4.1 90 09:39 27.05.2020
2441 Rain 28 1011 83 10000 4.1 90 09:20 27.05.2020
2442 Rain 28 1011 88 10000 2.6 140 08:42 27.05.2020
2443 Rain 28 1011 88 10000 2.6 140 08:24 27.05.2020
2444 Rain 29 1011 83 10000 3.1 110 07:53 27.05.2020
2445 Rain 29 1011 83 10000 3.1 110 07:34 27.05.2020
2446 Rain 32 1011 70 10000 5.1 70 06:55 27.05.2020
2447 Rain 32 1011 70 10000 5.1 70 06:30 27.05.2020
2448 Rain 31 1011 70 10000 4.1 90 05:50 27.05.2020
2449 Rain 31 1011 70 10000 4.1 90 05:25 27.05.2020
2450 Clouds 34 1012 63 10000 2.6 50 03:21 27.05.2020
2451 Clouds 30 1013 70 10000 2.1 200 02:27 27.05.2020
2452 Rain 28 1014 83 10000 2.6 110 01:31 27.05.2020
2453 Rain 28 1014 83 10000 2.6 90 00:47 27.05.2020
2454 Rain 28 1014 83 10000 2.6 90 00:21 27.05.2020
2455 Clouds 25 1013 94 10000 1 160 23:58 26.05.2020
2456 Clouds 25 1013 94 10000 1 160 23:39 26.05.2020
2457 Clouds 25 1013 94 10000 1 160 23:20 26.05.2020
2458 Clouds 24 1013 94 10000 1 160 22:42 26.05.2020
2459 Clouds 24 1013 94 10000 1 160 22:23 26.05.2020
2460 Clouds 23 1012 100 10000 1 180 21:59 26.05.2020
2461 Clouds 23 1012 100 10000 1 180 21:41 26.05.2020
2462 Clouds 23 1012 100 10000 1 180 21:22 26.05.2020
2463 Clouds 23 1012 100 10000 1 180 21:22 26.05.2020
2464 Clouds 23 1012 100 10000 1.46 177 20:59 26.05.2020
2465 Clouds 23 1012 100 10000 1.46 177 20:41 26.05.2020
2466 Clouds 23 1012 100 10000 1.52 167 20:20 26.05.2020
2467 Clouds 23 1011 100 10000 1 200 19:41 26.05.2020
2468 Clouds 23 1011 100 10000 1 200 19:21 26.05.2020
2469 Clouds 23 1012 100 10000 1 180 18:58 26.05.2020
2470 Clouds 23 1012 100 10000 1 180 18:39 26.05.2020
2471 Clouds 24 1012 94 10000 2.39 139 18:20 26.05.2020
2472 Clouds 24 1012 94 10000 2.39 139 17:40 26.05.2020
2473 Clouds 24 1012 94 10000 2.76 120 17:21 26.05.2020
2474 Clouds 24 1012 100 10000 1.5 160 16:48 26.05.2020
2475 Clouds 24 1012 100 10000 1.5 160 16:23 26.05.2020
2476 Clouds 25 1012 94 10000 2.1 110 15:58 26.05.2020
2477 Clouds 25 1012 94 10000 2.1 110 15:39 26.05.2020
2478 Clouds 25 1012 94 10000 2.1 110 15:19 26.05.2020
2479 Clouds 25 1012 94 10000 2.1 110 15:19 26.05.2020
2480 Clouds 25 1013 94 10000 1.5 140 14:45 26.05.2020
2481 Clouds 25 1013 94 10000 1.5 140 14:27 26.05.2020
2482 Clouds 25 1013 100 10000 1.5 160 13:58 26.05.2020
2483 Clouds 25 1013 100 10000 1.5 160 13:58 26.05.2020
2484 Clouds 25 1013 100 10000 1.5 160 13:40 26.05.2020
2485 Clouds 25 1013 100 10000 1.5 160 13:21 26.05.2020
2486 Clouds 26 1013 94 10000 3.03 121 12:44 26.05.2020
2487 Clouds 26 1013 94 10000 3.08 114 12:22 26.05.2020
2488 Clouds 27 1013 83 10000 1 160 11:59 26.05.2020
2489 Clouds 27 1013 83 10000 1 160 11:40 26.05.2020
2490 Clouds 28 1012 78 10000 1.5 110 11:19 26.05.2020
2491 Clouds 28 1012 78 10000 1.5 110 10:44 26.05.2020
2492 Clouds 29 1011 74 10000 3.1 110 10:19 26.05.2020
2493 Clouds 29 1011 74 10000 3.1 110 09:41 26.05.2020
2494 Clouds 29 1011 74 10000 3.1 110 09:20 26.05.2020
2495 Clouds 32 1011 75 10000 4.1 70 08:44 26.05.2020
2496 Clouds 32 1011 75 10000 4.1 70 08:23 26.05.2020
2497 Clouds 33 1010 63 10000 4.6 50 08:00 26.05.2020
2498 Clouds 33 1010 63 10000 4.6 50 07:40 26.05.2020
2499 Clouds 33 1010 63 10000 4.6 50 07:40 26.05.2020
2500 Clouds 33 1010 63 10000 4.6 50 07:22 26.05.2020
2501 Clouds 33 1010 63 10000 7.2 50 06:47 26.05.2020
2502 Clouds 33 1010 63 10000 7.2 50 06:23 26.05.2020
2503 Clouds 33 1011 66 10000 4.1 90 05:35 26.05.2020
2504 Clouds 33 1012 66 10000 5.1 90 04:56 26.05.2020
2505 Clouds 33 1012 66 10000 5.1 90 04:37 26.05.2020
2506 Clouds 33 1012 66 10000 5.7 70 04:18 26.05.2020
2507 Clouds 32 1013 66 10000 5.7 110 02:51 26.05.2020
2508 Clouds 32 1013 66 10000 6.2 90 01:49 26.05.2020
2509 Clouds 32 1013 66 10000 6.2 90 01:29 26.05.2020
2510 Clouds 30 1014 74 10000 2.1 110 00:39 26.05.2020
2511 Clouds 30 1014 74 10000 2.1 110 00:19 26.05.2020
2512 Clouds 26 1014 88 10000 1.5 160 23:56 25.05.2020
2513 Clouds 26 1014 88 10000 1.5 160 23:38 25.05.2020
2514 Clouds 24 1013 100 10000 1.5 110 23:19 25.05.2020
2515 Clouds 24 1013 100 10000 1.5 110 22:55 25.05.2020
2516 Clouds 24 1013 100 10000 1.5 110 22:36 25.05.2020
2517 Clouds 24 1012 100 10000 1 110 22:18 25.05.2020
2518 Clouds 24 1012 100 10000 1 110 21:56 25.05.2020
2519 Clouds 24 1012 100 10000 1 110 21:36 25.05.2020
2520 Clouds 24 1012 100 10000 1 110 21:36 25.05.2020
2521 Clouds 24 1012 94 10000 1.5 140 21:18 25.05.2020
2522 Clouds 24 1012 94 10000 1.5 140 20:42 25.05.2020
2523 Clouds 24 1012 94 10000 1.5 140 20:42 25.05.2020
2524 Clouds 25 1012 94 10000 1.5 180 20:22 25.05.2020
2525 Clouds 25 1012 94 10000 1.5 180 19:59 25.05.2020
2526 Clouds 25 1012 94 10000 1.5 180 19:41 25.05.2020
2527 Clouds 25 1012 94 10000 3.1 160 19:19 25.05.2020
2528 Clouds 25 1012 94 10000 3.1 160 18:57 25.05.2020
2529 Clouds 25 1012 94 10000 3.1 160 18:36 25.05.2020
2530 Clouds 25 1013 94 10000 1 90 18:18 25.05.2020
2531 Clouds 25 1013 94 10000 1 90 17:42 25.05.2020
2532 Clouds 25 1013 94 10000 1 90 17:23 25.05.2020
2533 Clouds 25 1013 100 10000 1.5 140 16:57 25.05.2020
2534 Clouds 25 1013 100 10000 1.5 140 16:39 25.05.2020
2535 Clouds 25 1013 100 10000 1.5 140 16:19 25.05.2020
2536 Clouds 26 1013 94 10000 2.1 250 15:44 25.05.2020
2537 Clouds 26 1014 94 10000 2.1 160 15:19 25.05.2020
2538 Clouds 26 1014 94 10000 2.1 160 14:58 25.05.2020
2539 Clouds 26 1014 94 10000 2.1 160 14:38 25.05.2020
2540 Clouds 26 1014 94 10000 1 230 14:19 25.05.2020
2541 Clouds 26 1014 94 10000 1 230 13:39 25.05.2020
2542 Clouds 26 1014 94 10000 1 230 13:21 25.05.2020
2543 Clouds 26 1013 94 10000 1 180 12:57 25.05.2020
2544 Clouds 26 1013 94 10000 1 180 12:38 25.05.2020
2545 Clouds 27 1013 83 10000 1 160 12:20 25.05.2020
2546 Clouds 27 1013 83 10000 1 160 11:39 25.05.2020
2547 Clouds 27 1013 83 10000 1 160 11:20 25.05.2020
2548 Clouds 26 1012 94 10000 1 180 10:56 25.05.2020
2549 Clouds 26 1012 94 10000 1 180 10:56 25.05.2020
2550 Clouds 26 1012 94 10000 1 180 10:37 25.05.2020
2551 Clouds 28 1012 83 10000 2.59 112 10:18 25.05.2020
2552 Clouds 28 1012 83 10000 2.59 112 09:42 25.05.2020
2553 Clouds 28 1012 83 10000 2.05 102 09:20 25.05.2020
2554 Clouds 31 1011 66 10000 3.1 250 08:59 25.05.2020
2555 Clouds 31 1011 66 10000 3.1 250 08:38 25.05.2020
2556 Clouds 31 1011 66 10000 3.1 250 08:20 25.05.2020
2557 Clouds 29 1011 79 10000 2.1 200 07:47 25.05.2020
2558 Clouds 29 1011 79 10000 2.1 200 07:24 25.05.2020
2559 Clouds 29 1011 79 10000 3.6 180 06:55 25.05.2020
2560 Clouds 29 1011 79 10000 3.6 180 06:34 25.05.2020
2561 Clouds 32 1012 70 10000 3.6 50 04:19 25.05.2020
2562 Clouds 32 1012 70 10000 3.6 50 03:23 25.05.2020
2563 Clouds 32 1013 66 10000 2.6 50 02:45 25.05.2020
2564 Clouds 31 1013 70 10000 1.5 360 01:58 25.05.2020
2565 Clouds 31 1013 70 10000 1.5 360 01:30 25.05.2020
2566 Clouds 29 1013 79 10000 1.5 200 00:43 25.05.2020
2567 Clouds 29 1013 79 10000 1.5 200 00:23 25.05.2020
2568 Clouds 25 1012 94 10000 1.5 180 23:57 24.05.2020
2569 Clouds 25 1012 94 10000 1.5 180 23:37 24.05.2020
2570 Clouds 25 1012 94 10000 2.1 200 23:18 24.05.2020
2571 Clouds 25 1012 94 10000 2.1 200 22:41 24.05.2020
2572 Clouds 25 1012 94 10000 2.1 200 22:19 24.05.2020
2573 Clouds 24 1012 100 10000 1.73 140 21:56 24.05.2020
2574 Clouds 24 1012 100 10000 1.73 140 21:38 24.05.2020
2575 Clouds 24 1012 100 10000 0.95 149 21:20 24.05.2020
2576 Clouds 25 1011 94 10000 0.95 149 20:44 24.05.2020
2577 Clouds 25 1011 94 10000 0.87 153 20:23 24.05.2020
2578 Clouds 25 1011 94 10000 1 200 19:59 24.05.2020
2579 Clouds 25 1011 94 10000 1 200 19:41 24.05.2020
2580 Clouds 25 1011 94 10000 1 200 19:20 24.05.2020
2581 Clouds 25 1011 100 10000 1.5 140 19:20 24.05.2020
2582 Clouds 25 1011 100 10000 1.5 140 18:59 24.05.2020
2583 Clouds 25 1011 100 10000 1.5 140 18:40 24.05.2020
2584 Clouds 25 1011 100 10000 1.5 140 18:22 24.05.2020
2585 Clouds 25 1012 94 10000 1.07 170 17:55 24.05.2020
2586 Clouds 25 1012 94 10000 1.07 170 17:36 24.05.2020
2587 Clouds 25 1012 94 10000 1.07 170 17:36 24.05.2020
2588 Clouds 26 1012 94 10000 1 180 17:18 24.05.2020
2589 Clouds 26 1012 94 10000 1 180 16:39 24.05.2020
2590 Clouds 26 1012 94 10000 1 180 16:21 24.05.2020
2591 Clouds 25 1012 100 10000 2.1 140 15:57 24.05.2020
2592 Clouds 25 1012 100 10000 2.1 140 15:39 24.05.2020
2593 Rain 26 1012 94 10000 1 110 15:19 24.05.2020
2594 Rain 26 1012 94 10000 1 110 14:55 24.05.2020
2595 Rain 26 1012 94 10000 1 110 14:37 24.05.2020
2596 Rain 27 1011 88 10000 2.1 250 14:18 24.05.2020
2597 Rain 27 1011 88 10000 2.1 250 13:43 24.05.2020
2598 Rain 27 1011 88 10000 2.1 250 13:23 24.05.2020
2599 Rain 27 1011 94 10000 2.1 250 12:59 24.05.2020
2600 Rain 27 1011 94 10000 2.1 250 12:59 24.05.2020
2601 Rain 27 1011 94 10000 2.1 250 12:41 24.05.2020
2602 Rain 27 1011 94 10000 2.1 250 12:22 24.05.2020
2603 Rain 27 1012 94 10000 2.1 200 11:59 24.05.2020
2604 Rain 27 1012 94 10000 2.1 200 11:41 24.05.2020
2605 Rain 27 1012 94 10000 2.1 200 11:23 24.05.2020
2606 Clouds 28 1011 88 10000 1 110 10:59 24.05.2020
2607 Clouds 28 1011 88 10000 1 110 10:39 24.05.2020
2608 Clouds 28 1011 88 10000 1 110 10:21 24.05.2020
2609 Clouds 27 1011 80 0 0.29 181 09:41 24.05.2020
2610 Rain 30 1010 70 10000 3.1 70 09:19 24.05.2020
2611 Rain 30 1010 70 10000 3.1 70 08:57 24.05.2020
2612 Rain 30 1010 70 10000 3.1 70 08:39 24.05.2020
2613 Clouds 31 1010 70 10000 2.1 50 08:21 24.05.2020
2614 Clouds 31 1010 70 10000 2.1 50 07:51 24.05.2020
2615 Clouds 31 1010 70 10000 2.1 50 07:26 24.05.2020
2616 Clouds 31 1009 70 10000 2.1 50 06:57 24.05.2020
2617 Clouds 31 1009 70 10000 2.1 50 06:36 24.05.2020
2618 Clouds 31 1010 62 10000 1 360 05:20 24.05.2020
2619 Clouds 31 1010 70 10000 2.1 50 03:42 24.05.2020
2620 Clouds 30 1011 70 10000 2.1 20 02:46 24.05.2020
2621 Clouds 30 1011 74 10000 1.43 36 01:50 24.05.2020
2622 Clouds 29 1011 79 10000 1 110 00:41 24.05.2020
2623 Clouds 29 1011 79 10000 1 110 00:22 24.05.2020
2624 Clouds 29 1011 79 10000 1 110 00:22 24.05.2020
2625 Clouds 27 1011 83 10000 1 180 23:46 23.05.2020
2626 Clouds 27 1011 83 10000 1 180 23:25 23.05.2020
2627 Clouds 23 1010 100 10000 1 140 22:59 23.05.2020
2628 Clouds 23 1010 100 10000 1 140 22:39 23.05.2020
2629 Clouds 23 1010 100 10000 1 140 22:20 23.05.2020
2630 Clouds 23 1009 100 10000 1 200 21:58 23.05.2020
2631 Clouds 23 1009 100 10000 1 200 21:40 23.05.2020
2632 Clouds 23 1009 100 10000 1 200 21:20 23.05.2020
2633 Clouds 24 1009 94 10000 1.5 200 20:59 23.05.2020
2634 Clouds 24 1009 94 10000 1.5 200 20:38 23.05.2020
2635 Clouds 24 1009 94 10000 1.5 200 20:19 23.05.2020
2636 Clouds 24 1009 94 10000 1.5 200 19:54 23.05.2020
2637 Clouds 24 1009 94 10000 1.5 200 19:36 23.05.2020
2638 Clouds 24 1009 94 10000 1.5 200 19:36 23.05.2020
2639 Clouds 24 1009 94 10000 1 200 19:18 23.05.2020
2640 Clouds 24 1009 94 10000 1 200 18:40 23.05.2020
2641 Clouds 24 1010 94 10000 1.5 200 18:22 23.05.2020
2642 Clouds 24 1010 94 10000 1.5 200 17:56 23.05.2020
2643 Clouds 24 1010 94 10000 1.5 200 17:56 23.05.2020
2644 Clouds 24 1010 94 10000 1.5 200 17:38 23.05.2020
2645 Clouds 24 1011 94 10000 2.1 180 17:19 23.05.2020
2646 Clouds 24 1011 94 10000 2.1 180 16:56 23.05.2020
2647 Clouds 24 1011 94 10000 2.1 180 16:38 23.05.2020
2648 Clouds 24 1011 94 10000 2.1 180 16:19 23.05.2020
2649 Drizzle 25 1011 100 10000 3.6 160 15:42 23.05.2020
2650 Drizzle 25 1011 100 10000 3.6 160 15:24 23.05.2020
2651 Drizzle 25 1011 100 10000 3.6 160 15:24 23.05.2020
2652 Rain 25 1012 100 10000 1 110 14:58 23.05.2020
2653 Rain 25 1012 100 10000 1 110 14:39 23.05.2020
2654 Rain 25 1012 100 10000 1 110 14:21 23.05.2020
2655 Rain 26 1012 100 10000 1 20 13:40 23.05.2020
2656 Rain 26 1011 100 10000 2.6 90 13:19 23.05.2020
2657 Rain 26 1011 100 10000 2.6 90 12:56 23.05.2020
2658 Rain 26 1011 100 10000 2.6 90 12:37 23.05.2020
2659 Drizzle 26 1010 100 10000 1.5 180 12:18 23.05.2020
2660 Drizzle 26 1010 100 10000 1.5 180 11:43 23.05.2020
2661 Drizzle 26 1010 100 10000 1.5 180 11:21 23.05.2020
2662 Drizzle 26 1009 100 10000 2.1 50 10:57 23.05.2020
2663 Drizzle 26 1009 100 10000 2.1 50 10:39 23.05.2020
2664 Drizzle 26 1009 100 10000 2.1 50 10:19 23.05.2020
2665 Clouds 27 1008 94 10000 2.1 230 09:56 23.05.2020
2666 Clouds 27 1008 94 10000 2.1 230 09:38 23.05.2020
2667 Clouds 27 1008 94 10000 2.1 230 09:19 23.05.2020
2668 Clouds 27 1008 94 10000 1 90 08:42 23.05.2020
2669 Clouds 27 1008 94 10000 1 90 08:19 23.05.2020
2670 Clouds 28 1008 88 10000 4.1 90 07:46 23.05.2020
2671 Clouds 28 1008 88 10000 4.1 90 07:27 23.05.2020
2672 Clouds 28 1008 88 10000 1 70 06:45 23.05.2020
2673 Clouds 28 1008 83 10000 2.1 90 06:19 23.05.2020
2674 Drizzle 28 1009 88 10000 3.1 70 04:40 23.05.2020
2675 Clouds 27 1009 94 10000 1 200 03:27 23.05.2020
2676 Drizzle 26 1010 94 10000 2.1 160 02:42 23.05.2020
2677 Drizzle 26 1010 94 10000 3.1 140 01:50 23.05.2020
2678 Rain 30 1011 69 0 3.83 93 01:19 23.05.2020
2679 Clouds 28 1010 88 10000 2.1 90 00:43 23.05.2020
2680 Clouds 28 1010 88 10000 2.1 90 00:21 23.05.2020
2681 Clouds 27 1009 88 10000 1 200 23:45 22.05.2020
2682 Clouds 27 1009 88 10000 1 200 23:22 22.05.2020
2683 Clouds 26 1009 94 10000 1 140 22:59 22.05.2020
2684 Clouds 26 1009 94 10000 1 140 22:40 22.05.2020
2685 Clouds 26 1009 94 10000 1 140 22:21 22.05.2020
2686 Clouds 26 1008 94 10000 1 200 21:47 22.05.2020
2687 Clouds 26 1008 94 10000 1 200 21:23 22.05.2020
2688 Clouds 26 1008 94 10000 1 200 21:23 22.05.2020
2689 Clouds 26 1007 94 10000 1 110 20:59 22.05.2020
2690 Clouds 26 1007 94 10000 1 110 20:59 22.05.2020
2691 Clouds 26 1007 94 10000 1 110 20:40 22.05.2020
2692 Clouds 26 1007 94 10000 1 110 20:20 22.05.2020
2693 Clouds 26 1007 94 10000 1 140 19:44 22.05.2020
2694 Clouds 26 1007 94 10000 1 140 19:25 22.05.2020
2695 Clouds 26 1007 94 10000 1 180 18:54 22.05.2020
2696 Clouds 26 1007 94 10000 1 180 18:36 22.05.2020
2697 Clouds 27 1007 88 10000 2.1 110 18:18 22.05.2020
2698 Clouds 27 1007 88 10000 2.1 110 17:40 22.05.2020
2699 Clouds 27 1007 88 10000 2.1 110 17:20 22.05.2020
2700 Clouds 26 1008 94 10000 2.1 110 16:56 22.05.2020
2701 Clouds 26 1008 94 10000 2.1 110 16:37 22.05.2020
2702 Clouds 26 1008 94 10000 1 160 16:19 22.05.2020
2703 Clouds 26 1008 94 10000 1 160 15:42 22.05.2020
2704 Clouds 26 1008 94 10000 1 160 15:22 22.05.2020
2705 Clouds 27 1009 88 10000 1.5 90 14:45 22.05.2020
2706 Clouds 27 1009 88 10000 1.5 90 14:26 22.05.2020
2707 Clouds 27 1009 88 10000 1.5 90 13:56 22.05.2020
2708 Clouds 27 1009 88 10000 1.5 90 13:37 22.05.2020
2709 Rain 28 1009 83 10000 2.6 110 13:19 22.05.2020
2710 Rain 28 1009 83 10000 2.6 110 12:40 22.05.2020
2711 Rain 28 1009 83 10000 2.6 110 12:21 22.05.2020
2712 Rain 29 1008 79 10000 2.6 90 11:44 22.05.2020
2713 Rain 29 1008 79 10000 2.6 90 11:22 22.05.2020
2714 Clouds 29 1007 79 10000 3.1 110 10:57 22.05.2020
2715 Clouds 29 1007 79 10000 3.1 110 10:38 22.05.2020
2716 Clouds 30 1006 74 10000 2.6 70 10:19 22.05.2020
2717 Clouds 30 1006 74 10000 2.6 70 09:47 22.05.2020
2718 Clouds 30 1006 74 10000 2.6 70 09:21 22.05.2020
2719 Clouds 32 1005 66 10000 5.1 110 08:57 22.05.2020
2720 Clouds 32 1005 66 10000 5.1 110 08:39 22.05.2020
2721 Clouds 33 1005 59 10000 6.2 90 08:18 22.05.2020
2722 Clouds 33 1005 59 10000 6.2 90 07:48 22.05.2020
2723 Clouds 33 1005 59 10000 6.2 90 07:22 22.05.2020
2724 Clouds 33 1006 66 10000 6.2 70 06:46 22.05.2020
2725 Clouds 33 1006 66 10000 6.2 70 06:28 22.05.2020
2726 Clouds 33 1006 63 10000 4.6 50 05:35 22.05.2020
2727 Clouds 34 1007 63 10000 6.7 50 04:48 22.05.2020
2728 Clouds 34 1008 63 10000 5.1 70 03:50 22.05.2020
2729 Clouds 34 1008 63 10000 5.1 70 03:29 22.05.2020
2730 Clouds 32 1010 62 10000 4.1 140 01:58 22.05.2020
2731 Clouds 32 1010 62 10000 4.1 140 01:32 22.05.2020
2732 Clouds 30 1010 66 10000 2.75 121 00:52 22.05.2020
2733 Clouds 30 1010 66 10000 2.75 121 00:30 22.05.2020
2734 Clouds 25 1009 88 10000 1 180 23:56 21.05.2020
2735 Clouds 25 1009 88 10000 1 180 23:37 21.05.2020
2736 Clouds 25 1009 88 10000 1 180 23:37 21.05.2020
2737 Clouds 23 1009 100 10000 3.32 114 23:19 21.05.2020
2738 Clouds 23 1009 100 10000 3.32 114 22:57 21.05.2020
2739 Clouds 23 1009 100 10000 3.32 114 22:37 21.05.2020
2740 Clouds 23 1008 100 10000 1.5 160 22:18 21.05.2020
2741 Clouds 23 1008 100 10000 1.5 160 21:46 21.05.2020
2742 Clouds 23 1008 100 10000 1.5 160 21:26 21.05.2020
2743 Clouds 24 1007 94 10000 2.1 160 20:55 21.05.2020
2744 Clouds 24 1007 94 10000 2.1 160 20:37 21.05.2020
2745 Clouds 24 1007 94 10000 2.1 180 20:19 21.05.2020
2746 Clouds 24 1007 94 10000 2.1 180 19:39 21.05.2020
2747 Clouds 24 1008 100 10000 3.22 123 19:19 21.05.2020
2748 Clouds 24 1008 100 10000 3.22 123 18:40 21.05.2020
2749 Clouds 24 1008 100 10000 3.4 122 18:20 21.05.2020
2750 Clouds 25 1008 88 10000 3.4 122 17:58 21.05.2020
2751 Clouds 25 1008 88 10000 3.4 122 17:58 21.05.2020
2752 Clouds 25 1008 88 10000 3.4 122 17:40 21.05.2020
2753 Clouds 25 1008 88 10000 3.35 117 17:22 21.05.2020
2754 Clouds 26 1009 88 10000 1 180 16:47 21.05.2020
2755 Clouds 26 1009 88 10000 1 180 16:25 21.05.2020
2756 Clouds 27 1009 83 10000 2.1 160 15:55 21.05.2020
2757 Clouds 27 1009 83 10000 2.1 160 15:37 21.05.2020
2758 Clouds 28 1010 74 10000 5.1 110 15:18 21.05.2020
2759 Clouds 28 1010 74 10000 5.1 110 14:39 21.05.2020
2760 Clear 26 1010 83 0 3.49 113 14:18 21.05.2020
2761 Clear 26 1010 83 0 3.49 113 13:41 21.05.2020
2762 Clear 27 1011 83 0 3.78 111 13:22 21.05.2020
2763 Clear 27 1011 83 0 3.78 111 12:58 21.05.2020
2764 Clouds 28 1009 74 10000 5.7 110 12:37 21.05.2020
2765 Clouds 28 1009 74 10000 5.7 110 12:19 21.05.2020
2766 Clouds 28 1009 74 10000 5.7 110 11:42 21.05.2020
2767 Clouds 28 1009 74 10000 5.7 110 11:23 21.05.2020
2768 Clouds 28 1008 78 10000 5.1 90 10:58 21.05.2020
2769 Clouds 28 1008 78 10000 5.1 90 10:39 21.05.2020
2770 Clouds 29 1007 74 10000 3.6 110 10:19 21.05.2020
2771 Clouds 29 1007 74 10000 3.6 110 09:55 21.05.2020
2772 Clouds 29 1007 74 10000 3.6 110 09:36 21.05.2020
2773 Clouds 30 1007 66 10000 5.7 90 09:18 21.05.2020
2774 Clouds 30 1007 66 10000 5.7 90 08:45 21.05.2020
2775 Clouds 30 1007 66 10000 5.7 90 08:26 21.05.2020
2776 Rain 30 1006 70 10000 7.2 90 07:46 21.05.2020
2777 Rain 30 1006 70 10000 7.2 90 07:27 21.05.2020
2778 Rain 33 1006 63 10000 7.7 70 06:52 21.05.2020
2779 Clouds 33 1006 63 10000 9.3 70 05:54 21.05.2020
2780 Clouds 33 1007 66 10000 6.7 70 04:58 21.05.2020
2781 Clouds 33 1008 63 10000 2.6 50 03:22 21.05.2020
2782 Clouds 33 1008 63 10000 2.6 50 03:22 21.05.2020
2783 Clouds 33 1008 63 10000 2.6 50 03:22 21.05.2020
2784 Clouds 33 1008 63 10000 2.6 50 03:22 21.05.2020
2785 Clouds 31 1008 70 10000 6.2 70 02:42 21.05.2020
2786 Clouds 31 1008 70 10000 6.2 70 02:21 21.05.2020
2787 Clouds 31 1009 70 10000 4.1 110 01:43 21.05.2020
2788 Clouds 31 1009 70 10000 4.1 110 01:19 21.05.2020
2789 Clouds 29 1008 79 10000 1 110 00:45 21.05.2020
2790 Rain 27 1009 83 10000 2.1 90 00:22 21.05.2020
2791 Rain 27 1009 83 10000 2.1 90 23:41 20.05.2020
2792 Rain 27 1009 83 10000 2.1 90 23:20 20.05.2020
2793 Clouds 25 1008 100 10000 1.5 70 22:57 20.05.2020
2794 Clouds 25 1008 100 10000 1.5 70 22:38 20.05.2020
2795 Clouds 25 1008 100 10000 1.5 70 22:20 20.05.2020
2796 Clouds 25 1008 100 10000 1.5 160 21:40 20.05.2020
2797 Clouds 25 1008 100 10000 1.5 160 21:21 20.05.2020
2798 Clouds 25 1007 100 10000 3.1 110 20:44 20.05.2020
2799 Clouds 25 1007 100 10000 3.1 110 20:24 20.05.2020
2800 Clouds 25 1007 100 10000 3.1 110 20:24 20.05.2020
2801 Clouds 25 1007 100 10000 1 160 19:56 20.05.2020
2802 Clouds 25 1007 100 10000 1 160 19:37 20.05.2020
2803 Clouds 26 1007 94 10000 1 160 19:19 20.05.2020
2804 Clouds 26 1007 94 10000 1 160 18:43 20.05.2020
2805 Clouds 26 1007 94 10000 1 160 18:23 20.05.2020
2806 Clouds 26 1007 94 10000 2.1 160 17:43 20.05.2020
2807 Clouds 26 1007 94 10000 2.1 160 17:22 20.05.2020
2808 Clouds 26 1008 94 10000 1 110 16:57 20.05.2020
2809 Clouds 26 1008 94 10000 1 110 16:39 20.05.2020
2810 Clouds 26 1008 94 10000 1.5 90 16:20 20.05.2020
2811 Clouds 26 1008 94 10000 1.5 90 15:44 20.05.2020
2812 Clouds 26 1008 94 10000 1.5 90 15:25 20.05.2020
2813 Clouds 26 1009 88 10000 1 180 14:45 20.05.2020
2814 Clouds 26 1009 88 10000 1 180 14:24 20.05.2020
2815 Clouds 26 1009 88 10000 1 160 13:56 20.05.2020
2816 Clouds 26 1009 88 10000 1 160 13:37 20.05.2020
2817 Clouds 27 1009 83 10000 2.1 200 13:18 20.05.2020
2818 Clouds 27 1009 83 10000 2.1 200 12:42 20.05.2020
2819 Clouds 27 1009 83 10000 2.1 200 12:21 20.05.2020
2820 Clouds 28 1008 78 10000 4.1 110 11:38 20.05.2020
2821 Clouds 28 1008 78 10000 4.1 110 11:38 20.05.2020
2822 Clouds 28 1008 78 10000 4.1 110 11:38 20.05.2020
2823 Clouds 28 1008 78 10000 4.1 110 11:19 20.05.2020
2824 Clouds 28 1007 78 10000 5.1 90 10:44 20.05.2020
2825 Clouds 30 1007 74 10000 5.1 110 10:22 20.05.2020
2826 Clouds 30 1007 74 10000 5.1 110 09:57 20.05.2020
2827 Clouds 30 1007 74 10000 5.1 110 09:38 20.05.2020
2828 Clouds 30 1007 74 10000 5.1 110 09:19 20.05.2020
2829 Clouds 32 1006 66 10000 6.2 90 08:41 20.05.2020
2830 Clouds 32 1006 66 10000 6.2 90 08:19 20.05.2020
2831 Clouds 32 1005 70 10000 7.2 70 07:49 20.05.2020
2832 Clouds 32 1005 70 10000 7.2 70 07:23 20.05.2020
2833 Clouds 33 1005 66 10000 8.2 70 06:48 20.05.2020
2834 Clouds 34 1006 56 10000 7.2 90 05:52 20.05.2020
2835 Clouds 34 1007 63 10000 4.1 50 04:37 20.05.2020
2836 Clouds 34 1008 59 10000 6.2 90 03:54 20.05.2020
2837 Clouds 33 1009 59 10000 4.1 110 02:34 20.05.2020
2838 Clouds 32 1009 66 10000 4.6 90 01:32 20.05.2020
2839 Clouds 29 1010 79 10000 1 110 00:46 20.05.2020
2840 Clouds 29 1010 79 10000 1 110 00:24 20.05.2020
2841 Clouds 25 1009 88 10000 3.03 108 23:45 19.05.2020
2842 Clouds 25 1009 88 10000 2.74 123 23:21 19.05.2020
2843 Clouds 23 1009 100 10000 1 110 22:56 19.05.2020
2844 Clouds 23 1009 100 10000 1 110 22:38 19.05.2020
2845 Clouds 23 1008 100 10000 2.1 180 22:20 19.05.2020
2846 Clouds 23 1008 100 10000 2.1 180 21:58 19.05.2020
2847 Clouds 23 1008 100 10000 2.1 180 21:38 19.05.2020
2848 Clouds 23 1008 100 10000 2.1 180 21:20 19.05.2020
2849 Clouds 23 1008 94 10000 1.5 140 20:57 19.05.2020
2850 Clouds 23 1008 94 10000 1.5 140 20:39 19.05.2020
2851 Clouds 23 1008 94 10000 1.5 140 20:21 19.05.2020
2852 Clouds 23 1008 94 10000 1.5 140 20:21 19.05.2020
2853 Clouds 23 1008 100 10000 2.98 122 19:55 19.05.2020
2854 Clouds 23 1008 100 10000 1.5 140 19:37 19.05.2020
2855 Clouds 23 1008 100 10000 1.5 140 19:18 19.05.2020
2856 Clouds 23 1008 100 10000 1.5 140 18:40 19.05.2020
2857 Clouds 23 1008 100 10000 1.5 140 18:20 19.05.2020
2858 Clouds 23 1008 100 10000 1.5 140 18:20 19.05.2020
2859 Clouds 24 1009 94 10000 1 200 17:43 19.05.2020
2860 Clouds 24 1009 94 10000 1 200 17:21 19.05.2020
2861 Clouds 24 1009 100 10000 1 140 16:59 19.05.2020
2862 Clouds 24 1009 100 10000 1 140 16:59 19.05.2020
2863 Clouds 24 1009 100 10000 1 140 16:38 19.05.2020
2864 Clouds 24 1009 100 10000 1 140 16:19 19.05.2020
2865 Clouds 24 1010 100 10000 1.5 180 15:47 19.05.2020
2866 Clouds 24 1010 100 10000 1.5 180 15:22 19.05.2020
2867 Clouds 24 1010 100 10000 1.5 160 14:57 19.05.2020
2868 Clouds 24 1010 100 10000 1.5 160 14:39 19.05.2020
2869 Clouds 24 1010 100 10000 1.5 160 14:20 19.05.2020
2870 Clouds 25 1010 100 10000 3.44 115 13:57 19.05.2020
2871 Clouds 25 1010 100 10000 3.44 115 13:39 19.05.2020
2872 Clouds 25 1010 100 10000 3.37 114 13:20 19.05.2020
2873 Clouds 25 1010 100 10000 1 160 12:56 19.05.2020
2874 Clouds 26 1009 94 10000 1 160 12:37 19.05.2020
2875 Clouds 26 1009 94 10000 1 160 12:19 19.05.2020
2876 Clouds 26 1009 94 10000 1 160 11:43 19.05.2020
2877 Clouds 26 1009 94 10000 1 160 11:43 19.05.2020
2878 Clouds 26 1009 94 10000 1 160 11:23 19.05.2020
2879 Clouds 28 1009 83 10000 2.6 110 10:59 19.05.2020
2880 Clouds 28 1009 83 10000 2.6 110 10:40 19.05.2020
2881 Clouds 28 1009 83 10000 2.6 110 10:21 19.05.2020
2882 Clouds 29 1008 74 10000 4.1 90 09:47 19.05.2020
2883 Clouds 29 1008 74 10000 4.1 90 09:25 19.05.2020
2884 Clouds 32 1007 59 10000 4.1 90 08:48 19.05.2020
2885 Clouds 32 1007 59 10000 4.1 90 08:48 19.05.2020
2886 Clouds 32 1007 59 10000 4.1 90 08:26 19.05.2020
2887 Clouds 33 1007 63 10000 6.2 70 07:57 19.05.2020
2888 Clouds 33 1007 63 10000 6.2 70 07:37 19.05.2020
2889 Clouds 33 1007 59 10000 5.1 70 07:19 19.05.2020
2890 Clouds 33 1007 59 10000 5.1 70 06:40 19.05.2020
2891 Clouds 34 1007 52 10000 5.1 90 06:18 19.05.2020
2892 Clouds 34 1008 52 10000 5.1 90 05:39 19.05.2020
2893 Clouds 33 1008 59 10000 6.2 110 04:50 19.05.2020
2894 Clouds 32 1010 66 10000 4.1 110 02:59 19.05.2020
2895 Clouds 30 1011 74 10000 4.1 110 00:59 19.05.2020
2896 Clouds 29 1011 74 10000 2.1 140 00:36 19.05.2020
2897 Clouds 27 1011 83 10000 1.5 140 00:18 19.05.2020
2898 Clouds 27 1011 83 10000 1.5 140 23:40 18.05.2020
2899 Clouds 27 1011 83 10000 1.5 140 23:20 18.05.2020
2900 Clouds 25 1011 88 10000 1.5 140 22:56 18.05.2020
2901 Clouds 25 1011 88 10000 1.5 140 22:38 18.05.2020
2902 Clouds 25 1011 88 10000 1.5 140 22:19 18.05.2020
2903 Clouds 24 1009 94 10000 1.5 160 21:42 18.05.2020
2904 Clouds 24 1009 94 10000 1.5 160 21:21 18.05.2020
2905 Clouds 24 1009 94 10000 1 200 20:57 18.05.2020
2906 Clouds 24 1009 94 10000 1 200 20:37 18.05.2020
2907 Clouds 24 1009 94 10000 1.5 180 20:19 18.05.2020
2908 Clouds 24 1009 94 10000 1.5 180 19:41 18.05.2020
2909 Clouds 26 1010 77 0 3.05 125 19:20 18.05.2020
2910 Clouds 26 1010 77 0 3.05 125 18:55 18.05.2020
2911 Clouds 24 1009 100 10000 2.1 160 18:37 18.05.2020
2912 Clouds 24 1009 100 10000 2.1 160 18:19 18.05.2020
2913 Clouds 24 1009 100 10000 2.1 160 17:38 18.05.2020
2914 Clouds 24 1010 100 10000 1.5 140 17:18 18.05.2020
2915 Clouds 24 1010 100 10000 1.5 140 16:55 18.05.2020
2916 Clouds 24 1010 100 10000 1.5 140 16:36 18.05.2020
2917 Clouds 25 1011 94 10000 1.5 180 16:18 18.05.2020
2918 Clouds 25 1011 94 10000 1.5 180 15:42 18.05.2020
2919 Clouds 25 1011 94 10000 1.5 180 15:24 18.05.2020
2920 Clouds 25 1011 94 10000 1.5 140 14:59 18.05.2020
2921 Clouds 25 1011 94 10000 1.5 140 14:39 18.05.2020
2922 Clouds 25 1011 94 10000 1.5 140 14:21 18.05.2020
2923 Clouds 26 1011 94 10000 1 140 13:42 18.05.2020
2924 Clouds 26 1011 94 10000 1 140 13:22 18.05.2020
2925 Clouds 26 1011 100 10000 2.1 140 12:58 18.05.2020
2926 Clouds 26 1011 100 10000 2.1 140 12:40 18.05.2020
2927 Clouds 26 1011 100 10000 2.1 140 12:20 18.05.2020
2928 Clouds 27 1010 83 10000 1.5 140 11:59 18.05.2020
2929 Clouds 27 1010 83 10000 1.5 140 11:41 18.05.2020
2930 Clouds 27 1010 83 10000 1.5 140 11:22 18.05.2020
2931 Clouds 28 1009 88 10000 2.1 110 10:46 18.05.2020
2932 Clouds 28 1009 88 10000 2.1 110 10:24 18.05.2020
2933 Clouds 30 1009 79 10000 2.1 90 09:46 18.05.2020
2934 Clouds 30 1009 79 10000 2.1 90 09:27 18.05.2020
2935 Clouds 31 1008 74 10000 2.6 70 08:57 18.05.2020
2936 Clouds 31 1008 74 10000 2.6 70 08:57 18.05.2020
2937 Clouds 31 1008 74 10000 2.6 70 08:39 18.05.2020
2938 Clouds 31 1008 74 10000 2.6 70 08:20 18.05.2020
2939 Clouds 32 1007 70 10000 3.6 110 07:42 18.05.2020
2940 Clouds 31 1007 70 10000 3.1 110 07:21 18.05.2020
2941 Clouds 31 1007 70 10000 3.1 110 06:47 18.05.2020
2942 Thunderstorm 30 1008 74 10000 4.1 160 06:22 18.05.2020
2943 Thunderstorm 30 1008 74 10000 4.1 160 05:42 18.05.2020
2944 Clouds 32 1010 62 10000 4.1 90 03:38 18.05.2020
2945 Clouds 31 1010 65 0 4.03 84 02:35 18.05.2020
2946 Clouds 31 1011 74 10000 6.2 140 01:45 18.05.2020
2947 Clouds 29 1011 83 10000 3.1 140 00:38 18.05.2020
2948 Clouds 29 1011 83 10000 3.1 140 00:38 18.05.2020
2949 Clouds 26 1010 88 10000 2.1 110 00:18 18.05.2020
2950 Clouds 26 1010 88 10000 2.1 110 23:42 17.05.2020
2951 Clouds 26 1010 88 10000 2.1 110 23:20 17.05.2020
2952 Clouds 25 1010 94 10000 2.1 110 22:59 17.05.2020
2953 Clouds 25 1010 94 10000 2.1 110 22:39 17.05.2020
2954 Clouds 25 1010 94 10000 2.1 110 22:21 17.05.2020
2955 Clouds 25 1009 94 10000 1 160 21:57 17.05.2020
2956 Clouds 25 1009 94 10000 1 160 21:39 17.05.2020
2957 Clouds 25 1009 94 10000 1 200 21:19 17.05.2020
2958 Clouds 25 1009 94 10000 1 200 20:42 17.05.2020
2959 Clouds 25 1009 94 10000 1 200 20:22 17.05.2020
2960 Clouds 24 1009 100 10000 1.5 160 19:58 17.05.2020
2961 Clouds 24 1009 100 10000 1.5 160 19:40 17.05.2020
2962 Clouds 24 1009 100 10000 2.1 140 19:21 17.05.2020
2963 Clouds 24 1009 100 10000 2.1 140 18:54 17.05.2020
2964 Clouds 24 1009 100 10000 2.1 140 18:36 17.05.2020
2965 Clouds 24 1009 100 10000 1.5 160 18:18 17.05.2020
2966 Clouds 24 1009 100 10000 1.5 160 17:40 17.05.2020
2967 Clouds 24 1009 100 10000 1.5 160 17:21 17.05.2020
2968 Clouds 25 1010 100 10000 1 180 16:40 17.05.2020
2969 Clouds 25 1010 100 10000 1 180 16:21 17.05.2020
2970 Clouds 25 1010 100 10000 1.5 180 15:59 17.05.2020
2971 Clouds 25 1010 100 10000 1.5 180 15:39 17.05.2020
2972 Clouds 25 1010 100 10000 1.5 180 15:21 17.05.2020
2973 Clouds 25 1010 100 10000 1.5 180 14:54 17.05.2020
2974 Clouds 25 1010 100 10000 1.5 180 14:54 17.05.2020
2975 Clouds 25 1010 100 10000 1.5 180 14:36 17.05.2020
2976 Clouds 25 1010 100 10000 1.5 140 14:18 17.05.2020
2977 Clouds 25 1010 100 10000 1.5 140 13:40 17.05.2020
2978 Clouds 26 1010 100 10000 1 250 13:19 17.05.2020
2979 Clouds 32 1009 75 10000 6.7 50 04:47 17.05.2020
2980 Clouds 30 1011 74 10000 2.6 50 02:46 17.05.2020
2981 Clouds 30 1011 74 10000 2.6 50 02:20 17.05.2020
2982 Clouds 30 1011 79 10000 2.6 70 01:47 17.05.2020
2983 Clouds 30 1011 74 10000 1.5 50 00:40 17.05.2020
2984 Clouds 30 1011 74 10000 1.5 50 00:20 17.05.2020
2985 Clouds 26 1010 88 10000 1 180 23:40 16.05.2020
2986 Clouds 26 1010 88 10000 1 180 23:20 16.05.2020
2987 Clouds 25 1010 100 10000 2.15 110 22:58 16.05.2020
2988 Clouds 25 1010 100 10000 2.15 110 22:40 16.05.2020
2989 Clouds 25 1010 100 10000 2.26 119 22:20 16.05.2020
2990 Clear 26 1010 81 0 2.26 119 21:46 16.05.2020
2991 Drizzle 25 1009 94 10000 1 200 21:28 16.05.2020
2992 Drizzle 25 1009 94 10000 1 200 20:59 16.05.2020
2993 Drizzle 25 1009 94 10000 1 200 20:41 16.05.2020
2994 Drizzle 25 1009 94 10000 1 200 20:22 16.05.2020
2995 Clouds 25 1009 100 10000 1 140 19:58 16.05.2020
2996 Clouds 25 1009 100 10000 1 140 19:40 16.05.2020
2997 Clouds 25 1009 100 10000 1 140 19:22 16.05.2020
2998 Clouds 26 1009 80 0 2.01 140 18:42 16.05.2020
2999 Drizzle 26 1009 94 10000 1 200 18:24 16.05.2020
3000 Drizzle 26 1009 94 10000 1 200 17:56 16.05.2020
3001 Drizzle 26 1009 94 10000 1 200 17:38 16.05.2020
3002 Drizzle 26 1009 100 10000 1.5 160 17:19 16.05.2020
3003 Drizzle 26 1009 100 10000 1.5 160 16:40 16.05.2020
3004 Drizzle 26 1009 100 10000 1.5 160 16:22 16.05.2020
3005 Rain 26 1010 100 10000 1.5 160 15:57 16.05.2020
3006 Rain 26 1010 100 10000 1.5 160 15:38 16.05.2020
3007 Rain 27 1010 82 0 2.53 122 15:19 16.05.2020
3008 Rain 27 1010 82 0 2.53 122 14:43 16.05.2020
3009 Rain 27 1011 81 0 2.37 121 14:20 16.05.2020
3010 Rain 27 1011 81 0 2.37 121 13:57 16.05.2020
3011 Clouds 27 1011 88 10000 1 140 13:38 16.05.2020
3012 Clouds 27 1011 88 10000 1 140 13:38 16.05.2020
3013 Clouds 27 1011 88 10000 1 140 13:38 16.05.2020
3014 Clouds 27 1011 88 10000 1 140 13:20 16.05.2020
3015 Clouds 27 1011 88 10000 1 140 12:44 16.05.2020
3016 Clouds 27 1011 88 10000 1 140 12:20 16.05.2020
3017 Clouds 29 1010 74 10000 3.1 110 11:56 16.05.2020
3018 Clouds 29 1010 74 10000 3.1 110 11:38 16.05.2020
3019 Clouds 29 1009 79 10000 3.1 90 11:19 16.05.2020
3020 Clouds 29 1009 79 10000 3.1 90 10:55 16.05.2020
3021 Clouds 29 1009 79 10000 3.1 90 10:36 16.05.2020
3022 Clouds 29 1009 79 10000 3.1 90 10:36 16.05.2020
3023 Clouds 32 1008 66 10000 5.1 90 10:18 16.05.2020
3024 Clouds 32 1008 66 10000 5.1 90 09:40 16.05.2020
3025 Clouds 32 1007 62 10000 4.1 70 09:18 16.05.2020
3026 Clouds 32 1007 62 10000 4.1 70 08:42 16.05.2020
3027 Clouds 32 1007 62 10000 4.1 70 08:21 16.05.2020
3028 Clouds 32 1007 70 10000 5.1 70 07:45 16.05.2020
3029 Clouds 32 1007 70 10000 5.1 70 07:25 16.05.2020
3030 Clouds 33 1006 66 10000 4.6 50 06:57 16.05.2020
3031 Clouds 33 1006 66 10000 4.6 50 06:36 16.05.2020
3032 Clouds 33 1007 63 10000 5.7 50 06:18 16.05.2020
3033 Clouds 33 1007 63 10000 5.7 50 05:31 16.05.2020
3034 Clouds 33 1009 66 10000 4.6 110 03:35 16.05.2020
3035 Clear 30 1010 66 0 2.01 68 02:59 16.05.2020
3036 Clear 30 1011 64 0 2.19 77 02:20 16.05.2020
3037 Clear 30 1011 64 0 2.19 77 01:44 16.05.2020
3038 Clouds 26 1011 94 10000 1.5 200 01:18 16.05.2020
3039 Clouds 26 1011 94 10000 1.5 200 00:42 16.05.2020
3040 Clouds 26 1011 94 10000 1.5 200 00:21 16.05.2020
3041 Clouds 25 1011 94 10000 1.5 230 23:40 15.05.2020
3042 Clouds 25 1011 94 10000 1.5 230 23:20 15.05.2020
3043 Clouds 25 1011 94 10000 1.5 230 23:20 15.05.2020
3044 Clouds 25 1010 100 10000 1.89 124 22:56 15.05.2020
3045 Clouds 25 1010 100 10000 1.89 124 22:38 15.05.2020
3046 Clouds 23 1009 100 10000 1 160 22:18 15.05.2020
3047 Clouds 23 1009 100 10000 1 160 21:39 15.05.2020
3048 Clouds 23 1009 100 10000 1 160 21:21 15.05.2020
3049 Clouds 23 1009 100 10000 2.39 114 20:58 15.05.2020
3050 Clouds 23 1009 100 10000 2.39 114 20:40 15.05.2020
3051 Clouds 23 1009 100 10000 2.04 109 20:22 15.05.2020
3052 Clouds 23 1009 100 10000 2.04 109 20:22 15.05.2020
3053 Clouds 24 1009 100 10000 1.5 200 19:55 15.05.2020
3054 Clouds 24 1009 100 10000 1.5 200 19:36 15.05.2020
3055 Clouds 24 1009 100 10000 1.5 230 19:18 15.05.2020
3056 Clouds 24 1009 100 10000 1.5 230 18:41 15.05.2020
3057 Clouds 24 1009 100 10000 1.5 230 18:23 15.05.2020
3058 Rain 24 1009 94 10000 2.6 230 17:39 15.05.2020
3059 Clouds 24 1010 100 10000 2.61 114 17:19 15.05.2020
3060 Clouds 24 1010 100 10000 2.61 114 16:57 15.05.2020
3061 Clouds 24 1010 100 10000 2.61 114 16:38 15.05.2020
3062 Clouds 24 1010 100 10000 1.5 140 16:19 15.05.2020
3063 Clouds 24 1010 100 10000 1.5 140 15:41 15.05.2020
3064 Clouds 25 1011 94 10000 1 140 15:22 15.05.2020
3065 Clouds 25 1011 94 10000 1 140 14:58 15.05.2020
3066 Clouds 25 1011 94 10000 1 140 14:40 15.05.2020
3067 Clouds 25 1011 94 10000 1 140 14:22 15.05.2020
3068 Clouds 25 1011 100 10000 1 140 13:43 15.05.2020
3069 Clouds 25 1011 100 10000 1 140 13:22 15.05.2020
3070 Drizzle 25 1011 100 10000 3.44 121 12:59 15.05.2020
3071 Drizzle 25 1011 100 10000 3.44 121 12:39 15.05.2020
3072 Drizzle 25 1011 100 10000 3.44 121 12:39 15.05.2020
3073 Drizzle 25 1011 100 10000 2.1 230 12:18 15.05.2020
3074 Drizzle 25 1011 100 10000 2.1 230 11:56 15.05.2020
3075 Drizzle 25 1011 100 10000 2.1 230 11:37 15.05.2020
3076 Clouds 25 1011 94 10000 1 270 11:19 15.05.2020
3077 Clouds 25 1011 94 10000 1 270 10:56 15.05.2020
3078 Clouds 25 1011 94 10000 1 270 10:38 15.05.2020
3079 Drizzle 26 1010 88 10000 1 290 10:19 15.05.2020
3080 Drizzle 26 1010 88 10000 1 290 09:40 15.05.2020
3081 Drizzle 26 1010 88 10000 1 290 09:20 15.05.2020
3082 Clouds 27 1009 83 10000 1 110 08:59 15.05.2020
3083 Clouds 27 1009 83 10000 1 110 08:38 15.05.2020
3084 Clouds 27 1009 83 10000 1 110 08:38 15.05.2020
3085 Clouds 27 1009 83 10000 1 110 08:38 15.05.2020
3086 Clouds 28 1008 83 10000 4.1 110 08:19 15.05.2020
3087 Clouds 28 1008 83 10000 4.1 110 07:46 15.05.2020
3088 Clouds 28 1008 83 10000 4.1 110 07:46 15.05.2020
3089 Clouds 28 1008 83 10000 4.1 110 07:27 15.05.2020
3090 Drizzle 30 1008 79 10000 3.1 50 06:57 15.05.2020
3091 Clouds 32 1008 70 10000 2.6 20 05:55 15.05.2020
3092 Clouds 32 1009 75 10000 3.6 20 04:33 15.05.2020
3093 Rain 30 1009 71 0 1.17 38 03:49 15.05.2020
3094 Clouds 32 1010 62 10000 2.6 110 02:40 15.05.2020
3095 Clouds 31 1011 66 10000 3.1 70 01:31 15.05.2020
3096 Clouds 30 1011 79 10000 2.6 110 00:57 15.05.2020
3097 Clouds 30 1011 79 10000 2.6 110 00:38 15.05.2020
3098 Clouds 28 1011 88 10000 1 160 00:20 15.05.2020
3099 Clouds 28 1011 88 10000 1 160 23:40 14.05.2020
3100 Clouds 28 1011 88 10000 1 160 23:40 14.05.2020
3101 Clouds 26 1010 100 10000 2.1 180 23:18 14.05.2020
3102 Clouds 26 1010 100 10000 2.1 180 22:41 14.05.2020
3103 Clouds 26 1010 100 10000 2.1 180 22:20 14.05.2020
3104 Drizzle 26 1009 94 10000 1.78 119 21:58 14.05.2020
3105 Drizzle 26 1009 94 10000 1.78 119 21:39 14.05.2020
3106 Rain 26 1009 94 10000 2.1 340 21:19 14.05.2020
3107 Rain 26 1009 94 10000 2.1 340 20:55 14.05.2020
3108 Rain 26 1009 94 10000 2.1 340 20:55 14.05.2020
3109 Rain 26 1009 94 10000 2.1 340 20:37 14.05.2020
3110 Rain 26 1009 94 10000 2.1 340 20:37 14.05.2020
3111 Clouds 25 1008 100 10000 1 140 20:18 14.05.2020
3112 Clouds 25 1008 100 10000 1 140 19:41 14.05.2020
3113 Clouds 25 1008 100 10000 1 140 19:22 14.05.2020
3114 Clouds 25 1008 100 10000 1.74 152 18:59 14.05.2020
3115 Clouds 25 1008 100 10000 1.74 152 18:38 14.05.2020
3116 Clouds 25 1008 100 10000 1.74 152 18:38 14.05.2020
3117 Clouds 25 1008 100 10000 1.82 158 18:20 14.05.2020
3118 Rain 26 1009 94 10000 1.82 158 17:59 14.05.2020
3119 Rain 26 1009 94 10000 1.82 158 17:38 14.05.2020
3120 Rain 26 1009 94 10000 1.73 157 17:19 14.05.2020
3121 Clouds 26 1010 94 10000 1.5 140 16:59 14.05.2020
3122 Clouds 26 1010 94 10000 1.5 140 16:38 14.05.2020
3123 Clouds 26 1010 100 10000 1 140 16:19 14.05.2020
3124 Clouds 26 1010 100 10000 1 140 15:56 14.05.2020
3125 Clouds 26 1010 100 10000 1 140 15:38 14.05.2020
3126 Clouds 27 1011 88 10000 1.71 163 15:18 14.05.2020
3127 Clouds 27 1011 88 10000 1.71 163 14:55 14.05.2020
3128 Clouds 27 1011 88 10000 1.71 163 14:36 14.05.2020
3129 Clouds 26 1011 94 10000 1 140 14:18 14.05.2020
3130 Clouds 26 1011 94 10000 1 140 13:42 14.05.2020
3131 Clouds 26 1011 94 10000 1 140 13:20 14.05.2020
3132 Clouds 26 1011 94 10000 2.1 160 12:59 14.05.2020
3133 Clouds 26 1011 94 10000 2.1 160 12:39 14.05.2020
3134 Clouds 26 1011 94 10000 2.1 160 12:39 14.05.2020
3135 Clouds 26 1011 94 10000 2.1 160 12:20 14.05.2020
3136 Clouds 27 1010 88 10000 1 110 11:58 14.05.2020
3137 Clouds 27 1010 88 10000 1 110 11:39 14.05.2020
3138 Clouds 27 1010 88 10000 1 110 11:20 14.05.2020
3139 Clouds 27 1009 88 10000 1 200 10:55 14.05.2020
3140 Clouds 27 1009 88 10000 1 200 10:36 14.05.2020
3141 Clouds 27 1009 79 0 1.02 130 10:18 14.05.2020
3142 Clouds 27 1009 79 0 1.02 130 09:39 14.05.2020
3143 Clouds 30 1008 74 10000 5.1 90 09:19 14.05.2020
3144 Clouds 30 1008 74 10000 5.1 90 08:41 14.05.2020
3145 Clouds 30 1008 74 10000 5.1 90 08:20 14.05.2020
3146 Clouds 30 1008 79 10000 3.1 70 07:46 14.05.2020
3147 Clouds 30 1008 79 10000 3.1 70 07:25 14.05.2020
3148 Clouds 32 1007 70 10000 5.1 110 06:54 14.05.2020
3149 Clouds 32 1007 70 10000 5.1 110 06:31 14.05.2020
3150 Clouds 32 1008 66 10000 5.1 110 05:55 14.05.2020
3151 Clouds 32 1008 66 10000 5.1 110 05:29 14.05.2020
3152 Clouds 30 1009 79 0 2.1 90 04:25 14.05.2020
3153 Clouds 30 1011 79 0 4.6 90 03:23 14.05.2020
3154 Clouds 30 1011 74 0 4.1 90 02:41 14.05.2020
3155 Clouds 29 1012 83 0 3.1 110 01:56 14.05.2020
3156 Clouds 26 1011 94 0 2.6 160 01:19 14.05.2020
3157 Clouds 26 1011 94 0 2.6 160 00:43 14.05.2020
3158 Clouds 26 1011 94 0 2.6 160 00:21 14.05.2020
3159 Clouds 25 1011 94 0 1 110 23:40 13.05.2020
3160 Clouds 25 1011 94 0 1 110 23:21 13.05.2020
3161 Clouds 24 1010 100 10000 1 180 22:42 13.05.2020
3162 Clouds 24 1010 100 10000 1 180 22:23 13.05.2020
3163 Clouds 24 1010 100 10000 1 180 22:23 13.05.2020
3164 Clouds 24 1010 100 10000 1.5 180 21:59 13.05.2020
3165 Clouds 24 1010 100 10000 1.5 180 21:59 13.05.2020
3166 Clouds 24 1010 100 10000 1.5 180 21:59 13.05.2020
3167 Clouds 24 1010 100 10000 1.5 180 21:40 13.05.2020
3168 Clouds 24 1010 100 10000 1.5 180 21:20 13.05.2020
3169 Clouds 24 1009 100 10000 1 180 20:58 13.05.2020
3170 Clouds 24 1009 100 10000 1 180 20:39 13.05.2020
3171 Clouds 24 1009 100 10000 1 180 20:21 13.05.2020
3172 Clouds 24 1009 100 10000 1 180 19:43 13.05.2020
3173 Clouds 24 1009 100 10000 1 180 19:24 13.05.2020
3174 Clouds 24 1009 100 10000 1 160 18:45 13.05.2020
3175 Clouds 24 1009 100 10000 1 160 18:22 13.05.2020
3176 -273 0 0 0 0 0 17:59 13.05.2020
3177 Clouds 25 1009 94 10000 2.1 160 17:38 13.05.2020
3178 Clouds 25 1009 100 10000 1 110 17:18 13.05.2020
3179 Clouds 25 1009 100 10000 1 110 16:41 13.05.2020
3180 Clouds 25 1010 100 10000 2.78 129 16:20 13.05.2020
3181 Clouds 25 1010 100 10000 2.78 129 15:57 13.05.2020
3182 Clouds 25 1010 100 10000 2.78 129 15:39 13.05.2020
3183 Clouds 25 1010 100 10000 1.5 110 15:18 13.05.2020
3184 Clouds 25 1010 100 10000 1.5 110 14:55 13.05.2020
3185 Clouds 25 1010 100 10000 1.5 110 14:55 13.05.2020
3186 Clouds 25 1010 100 10000 1.5 110 14:36 13.05.2020
3187 Clouds 26 1010 100 10000 1 230 14:18 13.05.2020
3188 Clouds 26 1010 100 10000 1 230 13:42 13.05.2020
3189 Clouds 26 1010 100 10000 1 230 13:22 13.05.2020
3190 Clouds 26 1010 100 10000 1.5 200 12:59 13.05.2020
3191 Clouds 26 1010 100 10000 1.5 200 12:41 13.05.2020
3192 Clouds 26 1010 100 10000 1.5 200 12:20 13.05.2020
3193 Clouds 26 1010 94 10000 1.5 70 11:56 13.05.2020
3194 Clouds 26 1010 94 10000 1.5 70 11:37 13.05.2020
3195 Clouds 26 1009 94 10000 1.5 180 11:19 13.05.2020
3196 Clouds 26 1009 94 10000 1.5 180 10:57 13.05.2020
3197 Clouds 26 1009 94 10000 1.5 180 10:38 13.05.2020
3198 Clouds 26 1009 94 10000 1.5 180 10:38 13.05.2020
3199 Drizzle 36 1009 53 10000 2.1 250 10:19 13.05.2020
3200 Clouds 27 1009 79 0 1.74 122 09:46 13.05.2020
3201 Rain 31 1008 66 10000 1 270 09:24 13.05.2020
3202 Rain 31 1008 66 10000 1 270 08:58 13.05.2020
3203 Rain 31 1008 66 10000 1 270 08:37 13.05.2020
3204 Clouds 31 1008 62 10000 2.1 20 08:19 13.05.2020
3205 Clouds 31 1008 62 10000 2.1 20 07:48 13.05.2020
3206 Clouds 31 1008 62 10000 2.1 20 07:30 13.05.2020
3207 Clouds 32 1008 66 10000 3.1 70 06:51 13.05.2020
3208 Clouds 32 1008 66 10000 3.1 70 06:31 13.05.2020
3209 Clouds 32 1008 62 10000 2.6 20 05:33 13.05.2020
3210 Clouds 31 1009 70 10000 3.1 20 03:28 13.05.2020
3211 Clouds 31 1010 66 10000 2.1 340 02:34 13.05.2020
3212 Clouds 30 1011 74 10000 1.5 360 01:38 13.05.2020
3213 Clouds 29 1011 74 10000 1.25 89 00:53 13.05.2020
3214 Clouds 29 1011 74 10000 1.27 137 00:22 13.05.2020
3215 Clouds 29 1012 69 0 1.27 137 23:40 12.05.2020
3216 Clouds 24 1010 94 10000 1.5 160 23:21 12.05.2020
3217 Clouds 24 1010 94 10000 1.5 160 22:58 12.05.2020
3218 Clouds 24 1010 94 10000 1.5 160 22:40 12.05.2020
3219 Clouds 24 1009 94 10000 1.81 143 22:21 12.05.2020
3220 Clouds 24 1009 94 10000 1.81 143 21:56 12.05.2020
3221 Clouds 24 1009 94 10000 1.81 143 21:37 12.05.2020
3222 Clouds 24 1009 94 10000 1.57 169 21:19 12.05.2020
3223 Clouds 24 1009 94 10000 1.57 169 20:57 12.05.2020
3224 Clouds 24 1009 94 10000 1.57 169 20:38 12.05.2020
3225 Clouds 24 1009 94 10000 1.59 164 20:20 12.05.2020
3226 Clouds 24 1009 94 10000 1.59 164 19:56 12.05.2020
3227 Clouds 24 1009 94 10000 1.59 164 19:37 12.05.2020
3228 Clouds 24 1009 94 10000 1.55 152 19:19 12.05.2020
3229 Clouds 24 1009 94 10000 1.55 152 18:42 12.05.2020
3230 Clouds 24 1009 94 10000 1.82 145 18:23 12.05.2020
3231 Clouds 24 1010 94 10000 1.5 180 17:57 12.05.2020
3232 Clouds 24 1010 94 10000 1.5 180 17:38 12.05.2020
3233 Clouds 24 1010 94 10000 1.5 180 17:20 12.05.2020
3234 Clouds 24 1011 94 10000 1 110 16:42 12.05.2020
3235 Clouds 24 1011 94 10000 1 110 16:22 12.05.2020
3236 Clouds 25 1011 94 10000 1 110 15:55 12.05.2020
3237 Clouds 25 1011 94 10000 1 110 15:36 12.05.2020
3238 Clouds 25 1011 94 10000 1 110 15:36 12.05.2020
3239 Clouds 25 1011 94 10000 2.18 151 15:18 12.05.2020
3240 Clouds 25 1011 94 10000 2.18 151 14:55 12.05.2020
3241 Clouds 25 1011 94 10000 2.18 151 14:36 12.05.2020
3242 Clouds 26 1011 94 10000 2.1 110 14:18 12.05.2020
3243 Clouds 26 1011 94 10000 2.1 110 13:54 12.05.2020
3244 Clouds 26 1011 94 10000 2.1 110 13:54 12.05.2020
3245 Clouds 26 1011 94 10000 2.1 110 13:36 12.05.2020
3246 Clouds 26 1010 94 10000 1 110 13:18 12.05.2020
3247 Clouds 26 1010 94 10000 1 110 12:54 12.05.2020
3248 Clouds 26 1010 94 10000 1 110 12:36 12.05.2020
3249 Clouds 26 1010 94 10000 1 110 12:36 12.05.2020
3250 Clouds 26 1010 94 10000 1 110 12:36 12.05.2020
3251 Clouds 27 1010 88 10000 2.1 140 12:18 12.05.2020
3252 Clouds 27 1010 88 10000 2.1 140 11:55 12.05.2020
3253 Clouds 27 1010 88 10000 2.1 140 11:36 12.05.2020
3254 Clouds 28 1009 83 10000 1.73 156 11:18 12.05.2020
3255 Clouds 28 1009 83 10000 1.73 156 10:54 12.05.2020
3256 Clouds 28 1009 83 10000 1.73 156 10:36 12.05.2020
3257 Clouds 29 1008 79 10000 2.6 250 10:18 12.05.2020
3258 Clouds 29 1008 79 10000 2.6 250 09:40 12.05.2020
3259 Clouds 29 1008 79 10000 2.6 250 09:21 12.05.2020
3260 Clouds 30 1008 70 10000 2.1 290 08:59 12.05.2020
3261 Clouds 30 1008 70 10000 2.1 290 08:38 12.05.2020
3262 Rain 31 1008 66 10000 3.1 320 08:19 12.05.2020
3263 Rain 31 1008 66 10000 3.1 320 08:19 12.05.2020
3264 Rain 31 1008 66 10000 3.1 320 07:42 12.05.2020
3265 Rain 31 1008 66 10000 3.1 320 07:23 12.05.2020
3266 Rain 32 1007 66 10000 3.1 320 06:49 12.05.2020
3267 Rain 32 1007 66 10000 3.1 320 06:27 12.05.2020
3268 Clouds 32 1008 62 10000 3.6 360 05:51 12.05.2020
3269 Clouds 32 1008 62 10000 3.6 360 05:30 12.05.2020
3270 Clouds 32 1009 70 10000 4.6 20 03:27 12.05.2020
3271 Clouds 31 1010 66 10000 2.6 270 02:44 12.05.2020
3272 Clouds 31 1010 66 10000 2.6 270 02:24 12.05.2020
3273 Clouds 30 1010 74 10000 3.1 290 01:27 12.05.2020
3274 Clouds 30 1010 74 10000 2.1 250 00:28 12.05.2020
3275 Clouds 27 1010 78 10000 2.1 180 23:58 11.05.2020
3276 Clouds 27 1010 78 10000 2.1 180 23:40 11.05.2020
3277 Clouds 27 1010 78 10000 2.1 180 23:20 11.05.2020
3278 Clouds 24 1009 94 10000 2.1 140 22:58 11.05.2020
3279 Clouds 24 1009 94 10000 2.1 140 22:58 11.05.2020
3280 Clouds 24 1009 94 10000 2.1 140 22:40 11.05.2020
3281 Clouds 24 1009 94 10000 2.1 140 22:20 11.05.2020
3282 Clouds 24 1008 94 10000 1.65 154 21:57 11.05.2020
3283 Clouds 24 1008 94 10000 1.65 154 21:39 11.05.2020
3284 Clouds 24 1008 94 10000 1.62 157 21:19 11.05.2020
3285 Clouds 24 1008 94 10000 1.62 157 20:57 11.05.2020
3286 Clouds 24 1008 94 10000 1.62 157 20:38 11.05.2020
3287 Clouds 24 1008 100 10000 1 180 20:19 11.05.2020
3288 Clouds 24 1008 100 10000 1 180 19:54 11.05.2020
3289 Clouds 24 1008 100 10000 1 180 19:36 11.05.2020
3290 Clouds 25 1008 94 10000 1.5 140 19:18 11.05.2020
3291 Clouds 25 1008 94 10000 1.5 140 18:54 11.05.2020
3292 Clouds 25 1008 94 10000 1.5 140 18:54 11.05.2020
3293 Clouds 25 1008 94 10000 1.5 140 18:36 11.05.2020
3294 Clouds 27 1009 88 10000 1 140 18:18 11.05.2020
3295 Clouds 27 1009 88 10000 1 140 17:40 11.05.2020
3296 Clouds 27 1009 88 10000 1 140 17:22 11.05.2020
3297 Clouds 26 1009 88 10000 2.1 140 16:58 11.05.2020
3298 Clouds 26 1009 88 10000 2.1 140 16:38 11.05.2020
3299 Clouds 27 1010 88 10000 1.5 180 16:20 11.05.2020
3300 Clouds 27 1010 88 10000 1.5 180 15:54 11.05.2020
3301 Clouds 27 1010 88 10000 1.5 180 15:36 11.05.2020
3302 Rain 27 1010 83 0 2.1 180 15:18 11.05.2020
3303 Rain 27 1010 83 0 2.1 180 14:41 11.05.2020
3304 Rain 27 1010 83 0 2.1 180 14:22 11.05.2020
3305 Clouds 27 1010 88 10000 1.5 160 13:55 11.05.2020
3306 Clouds 27 1010 88 10000 1.5 160 13:55 11.05.2020
3307 Clouds 27 1010 88 10000 1.5 160 13:37 11.05.2020
3308 Rain 28 1010 88 10000 2.35 151 13:18 11.05.2020
3309 Rain 28 1010 88 10000 2.35 151 12:55 11.05.2020
3310 Rain 28 1010 88 10000 2.35 151 12:37 11.05.2020
3311 Rain 28 1009 88 10000 1.5 160 12:19 11.05.2020
3312 Rain 28 1009 88 10000 1.5 160 11:41 11.05.2020
3313 Rain 28 1009 88 10000 1.5 160 11:22 11.05.2020
3314 Rain 29 1008 83 10000 1.5 270 10:58 11.05.2020
3315 Rain 29 1008 83 10000 1.5 270 10:40 11.05.2020
3316 Rain 29 1008 83 10000 1.5 270 10:21 11.05.2020
3317 Rain 30 1008 79 10000 2.6 70 09:58 11.05.2020
3318 Rain 30 1008 79 10000 2.6 70 09:39 11.05.2020
3319 Rain 31 1007 70 10000 4.1 50 09:19 11.05.2020
3320 Rain 31 1007 70 10000 4.1 50 08:55 11.05.2020
3321 Rain 31 1007 70 10000 4.1 50 08:37 11.05.2020
3322 Clouds 32 1006 70 10000 2.6 50 08:18 11.05.2020
3323 Clouds 32 1006 70 10000 2.6 50 07:42 11.05.2020
3324 Clouds 32 1006 70 10000 2.6 50 07:23 11.05.2020
3325 Clouds 32 1006 70 10000 2.1 20 06:40 11.05.2020
3326 Clouds 32 1007 70 10000 3.1 360 05:55 11.05.2020
3327 Clouds 32 1007 70 10000 3.1 360 05:23 11.05.2020
3328 Clouds 33 1009 63 10000 2.6 50 04:19 11.05.2020
3329 Clouds 32 1009 62 10000 3.1 20 02:37 11.05.2020
3330 Clouds 32 1009 66 10000 2.1 70 02:19 11.05.2020
3331 Clouds 32 1009 66 10000 2.1 70 01:23 11.05.2020
3332 Clouds 31 1010 70 10000 1.5 70 00:42 11.05.2020
3333 Clouds 27 1009 83 10000 3.1 200 00:19 11.05.2020
3334 Clouds 27 1009 83 10000 3.1 200 23:42 10.05.2020
3335 Clouds 27 1009 83 10000 3.1 200 23:20 10.05.2020
3336 Clouds 24 1009 100 10000 3.1 180 22:55 10.05.2020
3337 Clouds 24 1009 100 10000 3.1 180 22:55 10.05.2020
3338 Clouds 24 1009 100 10000 3.1 180 22:37 10.05.2020
3339 Clouds 24 1009 94 10000 2.1 180 22:18 10.05.2020
3340 Clouds 24 1009 94 10000 2.1 180 21:43 10.05.2020
3341 Clouds 24 1008 94 10000 1.95 149 21:19 10.05.2020
3342 Clouds 24 1008 94 10000 1.95 149 20:43 10.05.2020
3343 Clouds 24 1008 94 10000 2.05 149 20:25 10.05.2020
3344 Clouds 24 1008 94 10000 2.05 149 20:25 10.05.2020
3345 Clouds 25 1008 94 10000 1.5 160 19:59 10.05.2020
3346 Clouds 25 1008 94 10000 1.5 160 19:39 10.05.2020
3347 Clouds 25 1008 94 10000 1.5 160 19:21 10.05.2020
3348 Clouds 25 1008 94 10000 1.5 160 19:21 10.05.2020
3349 Clouds 25 1008 94 10000 2.01 151 18:56 10.05.2020
3350 Clouds 25 1008 94 10000 2.01 151 18:36 10.05.2020
3351 Clouds 26 1008 94 10000 1.5 110 18:18 10.05.2020
3352 Clouds 26 1008 94 10000 1.5 110 17:58 10.05.2020
3353 Clouds 26 1008 94 10000 1.5 110 17:39 10.05.2020
3354 Clouds 26 1009 88 10000 2.37 138 17:20 10.05.2020
3355 Clouds 26 1009 88 10000 2.37 138 16:44 10.05.2020
3356 Clouds 26 1009 88 10000 2.53 128 16:21 10.05.2020
3357 Clouds 26 1010 88 10000 1.5 160 15:58 10.05.2020
3358 Clouds 26 1010 88 10000 1.5 160 15:40 10.05.2020
3359 Clouds 26 1010 88 10000 1.5 160 15:22 10.05.2020
3360 Clouds 25 1010 88 10000 1 110 14:56 10.05.2020
3361 Clouds 25 1010 88 10000 1 110 14:37 10.05.2020
3362 Clouds 25 1010 94 10000 1 160 14:19 10.05.2020
3363 Clouds 25 1010 94 10000 1 160 13:57 10.05.2020
3364 Clouds 25 1010 94 10000 1 160 13:37 10.05.2020
3365 Clouds 26 1010 83 10000 1.5 140 13:18 10.05.2020
3366 Clouds 26 1010 83 10000 1.5 140 12:42 10.05.2020
3367 Clouds 26 1010 83 10000 1.5 140 12:42 10.05.2020
3368 Clouds 26 1010 83 10000 1.5 140 12:23 10.05.2020
3369 Clouds 27 1010 78 10000 1.5 140 11:59 10.05.2020
3370 Clouds 27 1010 78 10000 1.5 140 11:40 10.05.2020
3371 Clouds 27 1010 78 10000 1.5 140 11:21 10.05.2020
3372 Clouds 28 1009 78 10000 2.1 110 10:55 10.05.2020
3373 Clouds 28 1009 78 10000 2.1 110 10:55 10.05.2020
3374 Clouds 28 1009 78 10000 2.1 110 10:37 10.05.2020
3375 Clouds 30 1008 70 10000 4.1 70 10:19 10.05.2020
3376 Clouds 30 1008 70 10000 4.1 70 09:42 10.05.2020
3377 Clouds 32 1007 62 10000 6.2 70 09:23 10.05.2020
3378 Clouds 32 1007 62 10000 6.2 70 08:55 10.05.2020
3379 Clouds 32 1007 62 10000 6.2 70 08:37 10.05.2020
3380 Clouds 32 1007 66 10000 4.6 50 08:19 10.05.2020
3381 Clouds 32 1007 66 10000 4.6 50 07:38 10.05.2020
3382 Clouds 32 1008 70 10000 5.7 50 07:19 10.05.2020
3383 Clouds 32 1008 70 10000 5.7 50 06:50 10.05.2020
3384 Clouds 32 1008 70 10000 5.7 50 06:23 10.05.2020
3385 Clouds 32 1008 70 10000 6.7 50 05:44 10.05.2020
3386 Clouds 33 1009 66 10000 4.1 70 04:42 10.05.2020
3387 Clouds 33 1009 66 10000 4.1 70 04:23 10.05.2020
3388 Clouds 32 1010 66 10000 7.2 70 03:43 10.05.2020
3389 Clouds 32 1011 62 10000 6.2 50 02:55 10.05.2020
3390 Clouds 32 1011 62 10000 6.2 50 02:24 10.05.2020
3391 Clouds 31 1011 70 10000 3.6 90 01:44 10.05.2020
3392 Clouds 31 1011 70 10000 3.6 90 01:44 10.05.2020
3393 Clouds 31 1011 70 10000 3.6 90 01:25 10.05.2020
3394 Clouds 30 1012 79 10000 2.6 110 00:59 10.05.2020
3395 Clouds 30 1012 79 10000 2.6 110 00:39 10.05.2020
3396 Clouds 27 1011 88 10000 1 110 00:19 10.05.2020
3397 Clouds 27 1011 88 10000 1 110 23:39 09.05.2020
3398 Clouds 27 1011 88 10000 1 110 23:21 09.05.2020
3399 Clouds 26 1011 94 10000 1 180 22:55 09.05.2020
3400 Clouds 26 1011 94 10000 1 180 22:37 09.05.2020
3401 Clouds 25 1010 100 10000 1 90 22:19 09.05.2020
3402 Clouds 25 1010 100 10000 1 90 21:55 09.05.2020
3403 Clouds 25 1010 100 10000 1 90 21:36 09.05.2020
3404 Clouds 25 1010 100 10000 1 90 21:36 09.05.2020
3405 Clouds 25 1010 100 10000 1 90 21:36 09.05.2020
3406 Clouds 25 1010 100 10000 1.5 200 21:18 09.05.2020
3407 Clouds 25 1010 100 10000 1.5 200 20:54 09.05.2020
3408 Clouds 25 1010 100 10000 1.5 200 20:36 09.05.2020
3409 Clouds 24 1009 100 10000 1 160 20:18 09.05.2020
3410 Clouds 24 1009 100 10000 1 160 19:39 09.05.2020
3411 Clouds 24 1009 100 10000 1 160 19:20 09.05.2020
3412 Clouds 25 1010 100 10000 1 90 18:54 09.05.2020
3413 Clouds 25 1010 100 10000 1 90 18:54 09.05.2020
3414 Clouds 25 1010 100 10000 1 90 18:36 09.05.2020
3415 Clouds 25 1010 100 10000 2.21 129 18:18 09.05.2020
3416 Clouds 25 1010 100 10000 2.21 129 17:40 09.05.2020
3417 Clouds 25 1010 100 10000 2.11 131 17:21 09.05.2020
3418 Clouds 25 1010 100 10000 2.11 131 16:41 09.05.2020
3419 Clouds 25 1010 100 10000 2.2 133 16:20 09.05.2020
3420 Clouds 25 1010 100 10000 2.2 133 16:20 09.05.2020
3421 Clouds 26 1011 94 10000 1.5 160 15:46 09.05.2020
3422 Clouds 26 1011 94 10000 1.5 160 15:27 09.05.2020
3423 Clouds 26 1011 94 10000 1 110 14:59 09.05.2020
3424 Clouds 26 1011 94 10000 1 110 14:40 09.05.2020
3425 Clouds 27 1011 94 10000 1 180 14:19 09.05.2020
3426 Clouds 27 1011 94 10000 1 180 13:58 09.05.2020
3427 Clouds 27 1011 94 10000 1 180 13:40 09.05.2020
3428 Clouds 27 1012 83 0 2.67 122 13:19 09.05.2020
3429 Clouds 27 1012 83 0 2.67 122 12:42 09.05.2020
3430 Clouds 27 1010 88 10000 1 160 12:22 09.05.2020
3431 Clouds 27 1010 88 10000 1 160 11:56 09.05.2020
3432 Clouds 27 1010 88 10000 1 160 11:37 09.05.2020
3433 Clouds 28 1010 83 10000 1.5 140 11:18 09.05.2020
3434 Clouds 28 1010 83 10000 1.5 140 10:43 09.05.2020
3435 Clouds 28 1010 83 10000 1.5 140 10:23 09.05.2020
3436 Clouds 29 1009 74 10000 2.6 90 09:56 09.05.2020
3437 Clouds 29 1009 74 10000 2.6 90 09:37 09.05.2020
3438 Clouds 31 1008 70 10000 4.1 70 09:18 09.05.2020
3439 Clouds 31 1008 70 10000 4.1 70 08:51 09.05.2020
3440 Clouds 31 1008 70 10000 4.1 70 08:31 09.05.2020
3441 Clouds 32 1008 70 10000 5.1 70 07:49 09.05.2020
3442 Clouds 32 1008 70 10000 5.1 70 07:31 09.05.2020
3443 Clouds 32 1008 70 10000 5.1 70 06:47 09.05.2020
3444 Clouds 32 1008 70 10000 5.1 70 06:23 09.05.2020
3445 Clouds 32 1009 70 10000 5.1 70 05:45 09.05.2020
3446 Clouds 32 1011 66 10000 4.1 70 03:44 09.05.2020
3447 Clouds 32 1011 66 10000 4.1 70 03:22 09.05.2020
3448 Clouds 31 1012 66 10000 3.1 90 02:30 09.05.2020
3449 Clouds 30 1012 74 10000 2.52 84 01:52 09.05.2020
3450 Clouds 30 1012 74 10000 2.28 90 01:23 09.05.2020
3451 Clouds 29 1012 74 10000 2.28 90 00:47 09.05.2020
3452 Clouds 29 1012 74 10000 2 102 00:29 09.05.2020
3453 Clouds 26 1012 88 10000 2 102 23:49 08.05.2020
3454 Clouds 26 1012 88 10000 2 102 23:29 08.05.2020
3455 Clouds 24 1011 94 10000 1.73 121 22:57 08.05.2020
3456 Clouds 24 1011 94 10000 1.73 121 22:39 08.05.2020
3457 Clouds 23 1010 100 10000 1.5 180 22:19 08.05.2020
3458 Clouds 23 1010 100 10000 1.5 180 21:58 08.05.2020
3459 Clouds 23 1010 100 10000 1.5 180 21:39 08.05.2020
3460 Clouds 23 1009 100 10000 1.5 140 21:18 08.05.2020
3461 Clouds 23 1009 100 10000 1.5 140 20:56 08.05.2020
3462 Clouds 23 1009 100 10000 1.5 140 20:38 08.05.2020
3463 Clouds 24 1010 100 10000 1.5 180 20:20 08.05.2020
3464 Clouds 24 1010 100 10000 1.5 180 19:43 08.05.2020
3465 Clouds 24 1010 100 10000 1.5 180 19:22 08.05.2020
3466 Clouds 24 1010 100 10000 1.5 180 18:50 08.05.2020
3467 Clouds 24 1010 100 10000 1.5 180 18:31 08.05.2020
3468 Clouds 24 1010 100 10000 1.17 158 17:43 08.05.2020
3469 Clouds 24 1010 100 10000 1.37 157 17:21 08.05.2020
3470 Clouds 24 1011 100 10000 1.5 160 16:58 08.05.2020
3471 Clouds 24 1011 100 10000 1.5 160 16:39 08.05.2020
3472 Clouds 24 1011 100 10000 1.5 160 16:21 08.05.2020
3473 Clouds 25 1011 94 10000 1.5 180 15:54 08.05.2020
3474 Clouds 25 1011 94 10000 1.5 180 15:36 08.05.2020
3475 Clouds 25 1012 100 10000 1.5 200 15:18 08.05.2020
3476 Clouds 25 1012 100 10000 1.5 200 14:40 08.05.2020
3477 Clouds 25 1011 100 10000 1.68 147 14:20 08.05.2020
3478 Clouds 25 1011 100 10000 1.51 147 13:57 08.05.2020
3479 Clouds 25 1011 100 10000 1.51 147 13:39 08.05.2020
3480 Clouds 26 1011 94 10000 1 140 13:19 08.05.2020
3481 Clouds 26 1011 94 10000 1 140 12:45 08.05.2020
3482 Clouds 26 1011 94 10000 1 140 12:23 08.05.2020
3483 Clouds 26 1010 88 10000 1.45 134 11:55 08.05.2020
3484 Clouds 26 1010 88 10000 1.45 134 11:36 08.05.2020
3485 Clouds 26 1010 88 10000 1.45 134 11:36 08.05.2020
3486 Clouds 28 1009 83 10000 1 140 11:18 08.05.2020
3487 Clouds 28 1009 83 10000 1 140 10:43 08.05.2020
3488 Rain 30 1009 70 10000 1.5 50 10:21 08.05.2020
3489 Rain 30 1009 70 10000 1.5 50 10:21 08.05.2020
3490 Rain 30 1009 70 10000 1.5 50 09:59 08.05.2020
3491 Rain 30 1009 70 10000 1.5 50 09:40 08.05.2020
3492 Rain 31 1008 70 10000 3.1 70 09:18 08.05.2020
3493 Rain 31 1008 70 10000 3.1 70 08:45 08.05.2020
3494 Rain 31 1008 70 10000 3.1 70 08:23 08.05.2020
3495 Clouds 31 1008 66 10000 4.1 50 07:44 08.05.2020
3496 Clouds 31 1008 66 10000 4.1 50 07:25 08.05.2020
3497 Clouds 31 1008 70 10000 4.1 50 06:51 08.05.2020
3498 Clouds 31 1009 70 10000 4.6 50 06:24 08.05.2020
3499 Clouds 31 1009 70 10000 4.6 50 05:52 08.05.2020
3500 Clouds 31 1009 74 0 4.6 50 04:41 08.05.2020
3501 Rain 31 1011 70 0 3.1 90 02:35 08.05.2020
3502 Rain 30 1011 79 0 2.6 140 01:56 08.05.2020
3503 Rain 30 1011 79 0 2.6 140 01:28 08.05.2020
3504 Clouds 28 1011 83 0 2.1 140 00:55 08.05.2020
3505 Clouds 28 1011 83 0 2.1 140 00:32 08.05.2020
3506 Rain 26 1011 94 0 1 180 23:59 07.05.2020
3507 Rain 26 1011 94 0 1 180 23:40 07.05.2020
3508 Rain 26 1011 94 0 1 180 23:22 07.05.2020
3509 Clouds 25 1010 88 0 1 140 22:57 07.05.2020
3510 Clouds 25 1010 88 0 1 140 22:38 07.05.2020
3511 Clouds 25 1010 88 0 1 140 22:38 07.05.2020
3512 Clouds 24 1009 94 0 1.75 124 22:19 07.05.2020
3513 Clouds 24 1009 94 0 1.75 124 21:55 07.05.2020
3514 Clouds 24 1009 94 0 1.75 124 21:55 07.05.2020
3515 Clouds 24 1009 94 0 1.49 135 21:36 07.05.2020
3516 Clouds 24 1009 94 0 1.54 133 21:18 07.05.2020
3517 Clouds 24 1009 94 0 1.52 132 20:42 07.05.2020
3518 Clouds 24 1009 94 0 1.52 136 20:23 07.05.2020
3519 Clouds 24 1009 100 10000 1 110 19:56 07.05.2020
3520 Clouds 24 1009 100 10000 1 110 19:38 07.05.2020
3521 Clouds 24 1009 100 10000 1 110 19:38 07.05.2020
3522 Clouds 25 1009 88 10000 1 180 19:19 07.05.2020
3523 Clouds 25 1009 88 10000 1 180 18:44 07.05.2020
3524 Clouds 25 1009 88 10000 1 180 18:26 07.05.2020
3525 Clouds 25 1010 88 10000 1 110 17:44 07.05.2020
3526 Clouds 25 1010 88 10000 1 110 17:21 07.05.2020
3527 Clouds 26 1010 94 10000 1 110 16:59 07.05.2020
3528 Clouds 26 1010 94 10000 1 110 16:40 07.05.2020
3529 Clouds 26 1011 94 10000 1.35 143 16:18 07.05.2020
3530 Clouds 26 1011 94 10000 1.35 143 16:18 07.05.2020
3531 Clouds 26 1011 94 10000 1.35 143 15:55 07.05.2020
3532 Clouds 26 1011 94 10000 1.35 143 15:37 07.05.2020
3533 Rain 26 1011 94 10000 1 160 15:18 07.05.2020
3534 Rain 26 1011 94 10000 1 160 14:43 07.05.2020
3535 Rain 26 1011 94 10000 1 160 14:20 07.05.2020
3536 Rain 26 1011 100 10000 1.5 160 13:44 07.05.2020
3537 Rain 26 1011 100 10000 1.5 160 13:25 07.05.2020
3538 Clouds 27 1010 94 10000 1 140 12:45 07.05.2020
3539 Clouds 27 1010 94 10000 1 140 12:45 07.05.2020
3540 Clouds 27 1010 94 10000 1 140 12:20 07.05.2020
3541 Rain 28 1010 88 10000 1.5 140 11:59 07.05.2020
3542 Rain 28 1010 88 10000 1.5 140 11:59 07.05.2020
3543 Rain 28 1010 88 10000 1.5 140 11:59 07.05.2020
3544 Rain 28 1010 88 10000 1.5 140 11:39 07.05.2020
3545 Rain 28 1010 88 10000 1.5 140 11:20 07.05.2020
3546 Clouds 28 1009 88 10000 1 180 10:42 07.05.2020
3547 Clouds 28 1009 88 10000 1 180 10:23 07.05.2020
3548 Rain 29 1008 79 10000 1 50 09:41 07.05.2020
3549 Rain 29 1008 79 10000 1 50 09:41 07.05.2020
3550 Rain 29 1008 79 10000 1 50 09:20 07.05.2020
3551 Rain 30 1008 74 10000 2.6 360 08:57 07.05.2020
3552 Rain 30 1008 74 10000 2.6 360 08:38 07.05.2020
3553 Rain 30 1008 74 10000 2.6 360 08:20 07.05.2020
3554 Rain 31 1007 74 10000 3.6 20 07:45 07.05.2020
3555 Rain 31 1007 74 10000 3.6 20 07:26 07.05.2020
3556 Rain 28 1008 74 0 1.78 43 06:48 07.05.2020
3557 Clouds 31 1008 70 10000 3.1 50 06:24 07.05.2020
3558 Clouds 31 1008 70 10000 3.1 50 05:30 07.05.2020
3559 Clouds 32 1010 70 10000 2.6 20 03:55 07.05.2020
3560 Clouds 32 1010 70 10000 2.6 20 03:25 07.05.2020
3561 Clouds 31 1010 70 10000 3.6 50 02:42 07.05.2020
3562 Clouds 32 1011 66 10000 1.5 50 01:44 07.05.2020
3563 Clouds 32 1011 66 10000 1.5 50 01:23 07.05.2020
3564 Clouds 30 1011 74 10000 1 140 00:45 07.05.2020
3565 Clouds 30 1011 74 10000 1 140 00:27 07.05.2020
3566 Clouds 26 1010 83 10000 2.1 180 23:47 06.05.2020
3567 Clouds 26 1010 83 10000 2.1 180 23:25 06.05.2020
3568 Clouds 23 1009 100 10000 1.34 166 22:58 06.05.2020
3569 Clouds 23 1009 100 10000 1.34 166 22:58 06.05.2020
3570 Clouds 23 1009 100 10000 1.34 166 22:39 06.05.2020
3571 Clouds 23 1009 100 10000 1.5 200 22:19 06.05.2020
3572 Clouds 23 1009 100 10000 1.5 200 21:56 06.05.2020
3573 Clouds 23 1009 100 10000 1.5 200 21:38 06.05.2020
3574 Clouds 24 1009 94 10000 2.1 200 21:19 06.05.2020
3575 Clouds 24 1009 94 10000 2.1 200 20:42 06.05.2020
3576 Clouds 24 1009 94 10000 2.1 200 20:24 06.05.2020
3577 Clouds 24 1009 94 10000 2.1 200 19:58 06.05.2020
3578 Clouds 24 1009 94 10000 2.1 200 19:58 06.05.2020
3579 Clouds 24 1009 94 10000 2.1 200 19:39 06.05.2020
3580 Clouds 24 1009 94 10000 2.1 200 19:20 06.05.2020
3581 Clouds 24 1009 94 10000 2.1 200 18:59 06.05.2020
3582 Clouds 24 1009 94 10000 2.1 200 18:39 06.05.2020
3583 Clouds 24 1009 94 10000 2.1 200 18:21 06.05.2020
3584 Clouds 24 1009 94 10000 1 200 17:58 06.05.2020
3585 Clouds 24 1009 94 10000 1 200 17:39 06.05.2020
3586 Clouds 24 1009 94 10000 1 200 17:21 06.05.2020
3587 Clouds 24 1010 100 10000 1 180 16:58 06.05.2020
3588 Clouds 24 1010 100 10000 1 180 16:40 06.05.2020
3589 Clouds 24 1010 100 10000 1 180 16:21 06.05.2020
3590 Clouds 25 1010 94 10000 1 200 15:58 06.05.2020
3591 Clouds 25 1010 94 10000 1 200 15:40 06.05.2020
3592 Clouds 25 1010 94 10000 1 200 15:20 06.05.2020
3593 Clouds 25 1010 94 10000 1.5 200 14:42 06.05.2020
3594 Clouds 25 1010 94 10000 1.5 200 14:42 06.05.2020
3595 Clouds 25 1010 94 10000 1.27 209 14:19 06.05.2020
3596 Clouds 25 1010 94 10000 1.15 199 13:59 06.05.2020
3597 Clouds 25 1010 94 10000 1.15 199 13:39 06.05.2020
3598 Clouds 25 1010 94 10000 0.98 206 13:21 06.05.2020
3599 Clouds 26 1010 94 10000 1.5 200 12:44 06.05.2020
3600 Clouds 26 1010 94 10000 1.5 200 12:26 06.05.2020
3601 Clouds 26 1009 94 10000 1.5 160 11:59 06.05.2020
3602 Clouds 26 1009 94 10000 1.5 160 11:39 06.05.2020
3603 Clouds 26 1009 94 10000 1.5 160 11:21 06.05.2020
3604 Clouds 28 1009 83 10000 0.93 244 10:56 06.05.2020
3605 Clouds 28 1009 83 10000 0.93 244 10:37 06.05.2020
3606 Clouds 29 1008 79 10000 1.5 320 10:18 06.05.2020
3607 Clouds 29 1008 79 10000 1.5 320 09:39 06.05.2020
3608 Clouds 29 1008 79 10000 1.5 320 09:21 06.05.2020
3609 Clouds 31 1007 66 10000 2.6 340 08:45 06.05.2020
3610 Clouds 31 1007 66 10000 2.6 340 08:22 06.05.2020
3611 Clouds 31 1007 66 10000 2.6 340 07:58 06.05.2020
3612 Clouds 31 1007 66 10000 2.6 340 07:39 06.05.2020
3613 Clouds 32 1007 62 10000 4.1 340 07:19 06.05.2020
3614 Clouds 32 1007 62 10000 4.1 340 06:49 06.05.2020
3615 Clouds 32 1007 62 10000 4.1 340 06:21 06.05.2020
3616 Clouds 32 1007 62 10000 3.1 340 05:50 06.05.2020
3617 Clouds 32 1007 62 10000 3.1 340 05:32 06.05.2020
3618 Clouds 32 1009 66 10000 2.6 20 03:54 06.05.2020
3619 Clouds 32 1009 66 10000 2.6 20 03:31 06.05.2020
3620 Clouds 32 1010 66 10000 2.6 360 02:55 06.05.2020
3621 Clouds 32 1010 66 10000 2.6 360 02:27 06.05.2020
3622 Clouds 31 1010 70 10000 2.1 360 01:43 06.05.2020
3623 Clouds 31 1010 70 10000 2.1 360 01:25 06.05.2020
3624 Clouds 30 1010 74 10000 0.5 4 00:44 06.05.2020
3625 Clouds 26 1010 83 10000 0.07 148 00:19 06.05.2020
3626 Clouds 26 1010 83 10000 0.07 148 23:42 05.05.2020
3627 Clouds 26 1010 83 10000 0.58 148 23:20 05.05.2020
3628 Clouds 24 1010 94 10000 1.5 140 22:55 05.05.2020
3629 Clouds 24 1010 94 10000 1.5 140 22:37 05.05.2020
3630 Clouds 23 1009 100 10000 1.5 180 22:18 05.05.2020
3631 Clouds 23 1009 100 10000 1.5 180 21:41 05.05.2020
3632 Clouds 24 1008 94 10000 1.5 180 21:21 05.05.2020
3633 Clouds 24 1008 94 10000 1.5 180 20:59 05.05.2020
3634 Clouds 24 1008 94 10000 1.5 180 20:40 05.05.2020
3635 Clouds 24 1008 94 10000 1.5 180 20:20 05.05.2020
3636 Clouds 24 1008 94 10000 1 200 19:59 05.05.2020
3637 Clouds 24 1008 94 10000 1 200 19:38 05.05.2020
3638 Clouds 24 1008 94 10000 1 200 19:20 05.05.2020
3639 Clouds 24 1009 94 10000 3.1 200 18:56 05.05.2020
3640 Clouds 24 1009 94 10000 3.1 200 18:38 05.05.2020
3641 Clouds 24 1010 94 10000 4.1 180 18:19 05.05.2020
3642 Clouds 24 1010 94 10000 4.1 180 17:44 05.05.2020
3643 Clouds 24 1010 94 10000 4.1 180 17:25 05.05.2020
3644 Clouds 25 1010 94 10000 2.1 200 16:59 05.05.2020
3645 Clouds 25 1010 94 10000 2.1 200 16:37 05.05.2020
3646 Clouds 24 1011 100 10000 1.5 180 16:18 05.05.2020
3647 Clouds 24 1011 100 10000 1.5 180 15:56 05.05.2020
3648 Clouds 24 1011 100 10000 1.5 180 15:38 05.05.2020
3649 Clouds 25 1011 88 10000 0.54 313 15:19 05.05.2020
3650 Clouds 25 1011 88 10000 0.54 313 14:54 05.05.2020
3651 Clouds 25 1011 88 10000 0.54 313 14:36 05.05.2020
3652 Clouds 25 1011 94 10000 1 160 14:18 05.05.2020
3653 Clouds 25 1011 94 10000 1 160 13:54 05.05.2020
3654 Clouds 25 1011 94 10000 1 160 13:36 05.05.2020
3655 Clouds 26 1010 88 10000 0.82 14 13:18 05.05.2020
3656 Clouds 26 1010 88 10000 0.82 14 12:40 05.05.2020
3657 Clouds 26 1010 88 10000 0.82 43 12:20 05.05.2020
3658 Clouds 27 1010 83 10000 0.82 43 11:59 05.05.2020
3659 Clouds 27 1010 83 10000 0.82 43 11:40 05.05.2020
3660 Clouds 28 1009 78 10000 2.1 320 11:19 05.05.2020
3661 Clouds 28 1009 78 10000 2.1 320 10:54 05.05.2020
3662 Clouds 28 1009 78 10000 2.1 320 10:36 05.05.2020
3663 Clouds 29 1008 74 10000 2.1 290 10:18 05.05.2020
3664 Clouds 29 1008 74 10000 2.1 290 09:43 05.05.2020
3665 Clouds 29 1008 74 10000 2.1 290 09:43 05.05.2020
3666 Clouds 29 1008 74 10000 2.1 290 09:25 05.05.2020
3667 Clouds 32 1007 62 10000 2.1 290 08:42 05.05.2020
3668 Clouds 32 1007 62 10000 2.1 290 08:21 05.05.2020
3669 Clouds 32 1007 62 10000 3.6 320 07:58 05.05.2020
3670 Clouds 32 1007 62 10000 3.6 320 07:39 05.05.2020
3671 Clouds 32 1007 62 10000 3.1 360 07:19 05.05.2020
3672 Clouds 32 1007 62 10000 3.1 360 06:50 05.05.2020
3673 Clouds 32 1007 62 10000 3.1 360 06:24 05.05.2020
3674 Clouds 32 1008 62 10000 3.6 360 05:43 05.05.2020
3675 Clouds 32 1010 62 10000 2.6 20 03:39 05.05.2020
3676 Clouds 32 1011 66 10000 1.5 90 02:18 05.05.2020
3677 Clouds 29 1011 74 10000 1 160 00:54 05.05.2020
3678 Clouds 29 1011 74 10000 1 160 00:22 05.05.2020
3679 Clouds 26 1011 83 10000 1.5 180 23:46 04.05.2020
3680 Clouds 26 1011 83 10000 1.5 180 23:23 04.05.2020
3681 Clouds 24 1010 94 10000 1.23 118 22:56 04.05.2020
3682 Clouds 24 1010 94 10000 1.23 118 22:38 04.05.2020
3683 Clouds 23 1010 100 10000 1 160 22:19 04.05.2020
3684 Clouds 23 1010 100 10000 1 160 21:53 04.05.2020
3685 Clouds 23 1010 100 10000 1 160 21:33 04.05.2020
3686 Clouds 23 1010 100 10000 1 160 21:33 04.05.2020
3687 Clouds 24 1009 94 10000 1.5 180 20:56 04.05.2020
3688 Clouds 24 1009 94 10000 1.5 180 20:37 04.05.2020
3689 Clouds 24 1009 94 10000 1.5 180 20:37 04.05.2020
3690 Clouds 24 1009 94 10000 1.5 180 20:37 04.05.2020
3691 Clouds 24 1009 94 10000 1.5 180 20:37 04.05.2020
3692 Thunderstorm 24 1009 94 10000 1 180 20:18 04.05.2020
3693 Clouds 24 1009 94 10000 1.5 180 19:41 04.05.2020
3694 Clouds 24 1009 94 10000 1.5 180 19:21 04.05.2020
3695 Clouds 24 1010 94 10000 1.5 180 18:56 04.05.2020
3696 Clouds 24 1010 94 10000 1.5 180 18:37 04.05.2020
3697 Clouds 24 1010 94 10000 1 180 18:18 04.05.2020
3698 Clouds 24 1010 94 10000 1 180 17:55 04.05.2020
3699 Clouds 24 1010 94 10000 1 180 17:37 04.05.2020
3700 Clouds 24 1010 94 10000 1 180 17:18 04.05.2020
3701 Clouds 24 1010 94 10000 1 180 16:42 04.05.2020
3702 Clouds 24 1010 94 10000 1 180 16:21 04.05.2020
3703 Clouds 24 1011 100 10000 1 160 15:46 04.05.2020
3704 Clouds 24 1011 100 10000 1 160 15:46 04.05.2020
3705 Clouds 24 1011 100 10000 1 160 15:25 04.05.2020
3706 Clouds 25 1011 94 10000 0.28 150 14:56 04.05.2020
3707 Clouds 25 1011 94 10000 0.28 150 14:38 04.05.2020
3708 Clouds 25 1011 94 10000 0.28 150 14:38 04.05.2020
3709 Clouds 25 1011 94 10000 0.28 150 14:38 04.05.2020
3710 Clouds 25 1011 94 10000 0.28 150 14:38 04.05.2020
3711 Clouds 25 1011 94 10000 0.28 150 14:38 04.05.2020
3712 Clouds 25 1011 94 10000 0.82 169 13:42 04.05.2020
3713 Clouds 26 1010 94 10000 1 160 12:46 04.05.2020
3714 Clouds 26 1010 94 10000 1 160 12:46 04.05.2020
3715 Clouds 26 1010 94 10000 1 160 12:46 04.05.2020
3716 Clouds 26 1010 94 10000 1 160 12:46 04.05.2020
3717 Clouds 27 1010 88 10000 1 180 12:01 04.05.2020
3718 Clouds 28 1008 83 10000 0.57 19 09:32 04.05.2020
3719 Clouds 29 1008 79 10000 1 230 08:50 04.05.2020
3720 Clouds 29 1008 79 10000 1 230 08:50 04.05.2020
3721 Clouds 29 1008 79 10000 1 230 08:50 04.05.2020
3722 Clouds 29 1008 79 10000 1 230 08:50 04.05.2020
3723 Clouds 29 1008 79 10000 1 290 07:44 04.05.2020
3724 Clouds 29 1008 79 10000 1 290 07:44 04.05.2020
3725 Clouds 30 1008 74 10000 1 360 06:45 04.05.2020
3726 Clouds 30 1008 74 10000 1 360 06:45 04.05.2020
3727 Clouds 30 1008 74 10000 1 360 06:44 04.05.2020
3728 Clouds 30 1008 70 10000 2.1 110 04:55 04.05.2020
3729 Clouds 29 1010 74 10000 2.1 200 03:18 04.05.2020
3730 Clouds 29 1010 74 10000 2.1 200 03:18 04.05.2020
3731 Clouds 29 1010 74 10000 2.1 200 03:18 04.05.2020
3732 Clouds 29 1010 74 10000 2.1 200 02:30 04.05.2020
3733 Clouds 25 1012 100 10000 2.1 180 00:36 04.05.2020
3734 Rain 25 1013 100 10000 2.35 102 23:45 03.05.2020
3735 Rain 25 1013 100 10000 1.92 118 23:24 03.05.2020
3736 Rain 25 1012 100 10000 3.6 200 22:56 03.05.2020
3737 Rain 25 1012 100 10000 3.6 200 22:38 03.05.2020
3738 Clouds 25 1011 100 10000 2.6 250 22:18 03.05.2020
3739 Rain 25 1011 100 0 2.1 360 21:41 03.05.2020
3740 Clouds 25 1011 100 0 3.6 360 21:20 03.05.2020
3741 Clouds 26 1010 94 0 2.1 70 20:47 03.05.2020
3742 Clouds 26 1010 94 0 2.1 70 20:23 03.05.2020
3743 Clouds 26 1010 94 10000 3.1 360 19:55 03.05.2020
3744 Clouds 26 1010 94 10000 3.1 360 19:55 03.05.2020
3745 Clouds 26 1010 94 10000 3.1 360 19:55 03.05.2020
3746 Clouds 26 1010 94 10000 3.1 360 19:36 03.05.2020
3747 Clouds 26 1010 94 10000 3.1 360 19:36 03.05.2020
3748 Rain 25 1009 100 10000 2.09 133 19:18 03.05.2020
3749 Rain 25 1009 100 10000 2.09 133 18:39 03.05.2020
3750 Rain 25 1009 100 10000 2.09 133 18:39 03.05.2020
3751 Rain 25 1009 100 10000 2.09 133 18:39 03.05.2020
3752 Rain 25 1010 100 10000 2.15 137 18:19 03.05.2020
3753 Rain 25 1010 100 10000 2.15 137 17:42 03.05.2020
3754 Rain 25 1010 100 10000 2.19 143 17:22 03.05.2020
3755 Rain 25 1010 100 10000 2.19 143 17:22 03.05.2020
3756 Rain 25 1010 100 10000 2.19 143 17:22 03.05.2020
3757 Clouds 25 1011 100 10000 2.19 143 16:54 03.05.2020
3758 Clouds 25 1011 100 10000 2.19 143 16:36 03.05.2020
3759 Clouds 26 1011 94 10000 1.5 180 16:18 03.05.2020
3760 Clouds 26 1011 94 10000 1.5 180 15:55 03.05.2020
3761 Clouds 26 1011 94 10000 1.5 180 15:36 03.05.2020
3762 Clouds 26 1011 94 10000 1.5 180 15:36 03.05.2020
3763 Clouds 26 1011 94 10000 1.5 180 15:36 03.05.2020
3764 Clouds 26 1011 94 10000 1.5 180 15:18 03.05.2020
3765 Clouds 26 1011 94 10000 1.5 180 14:41 03.05.2020
3766 Clouds 26 1011 94 10000 2.16 126 14:22 03.05.2020
3767 Clouds 26 1011 94 10000 1.5 180 14:22 03.05.2020
3768 Clouds 26 1011 94 10000 2.16 126 13:56 03.05.2020
3769 Clouds 26 1011 94 10000 2.16 126 13:56 03.05.2020
3770 Clouds 26 1011 94 10000 2.16 126 13:32 03.05.2020
3771 Clouds 26 1011 94 10000 2.16 126 13:32 03.05.2020
3772 Clouds 26 1011 94 10000 2.16 126 13:32 03.05.2020
3773 Clouds 26 1011 94 10000 2.16 126 13:32 03.05.2020
3774 Clouds 26 1011 100 10000 1.98 129 12:47 03.05.2020
3775 Clouds 26 1010 94 10000 1.5 230 12:19 03.05.2020
3776 Clouds 26 1010 94 10000 1.5 230 11:57 03.05.2020
3777 Clouds 26 1010 94 10000 1.5 230 11:57 03.05.2020
3778 Clouds 26 1010 94 10000 1.5 230 11:57 03.05.2020
3779 Clouds 26 1010 94 10000 1.5 230 11:39 03.05.2020
3780 Clouds 26 1010 94 10000 1.5 230 11:39 03.05.2020
3781 Drizzle 26 1010 94 10000 1.5 140 11:19 03.05.2020
3782 Drizzle 26 1010 94 10000 1.5 140 11:19 03.05.2020
3783 Drizzle 26 1010 94 10000 1.5 140 10:49 03.05.2020
3784 Drizzle 26 1010 94 10000 1.5 140 10:49 03.05.2020
3785 Drizzle 26 1010 94 10000 1.5 140 10:49 03.05.2020
3786 Rain 27 1009 88 10000 2.1 140 10:01 03.05.2020
3787 Rain 27 1009 88 10000 2.1 140 10:01 03.05.2020
3788 Rain 27 1009 88 10000 2.1 140 10:01 03.05.2020
3789 Rain 27 1009 88 10000 2.1 140 10:01 03.05.2020
3790 Rain 27 1009 88 10000 2.1 140 10:01 03.05.2020
3791 Rain 27 1009 88 10000 2.1 140 09:38 03.05.2020
3792 Rain 28 1008 83 10000 3.1 160 08:57 03.05.2020
3793 Rain 28 1008 83 10000 3.1 160 08:27 03.05.2020
3794 Clouds 31 1007 74 10000 2.1 360 07:40 03.05.2020
3795 Clouds 32 1007 75 10000 2.6 360 06:29 03.05.2020
3796 Clouds 32 1007 75 10000 2.6 360 06:29 03.05.2020
3797 Clouds 32 1007 75 10000 2.6 360 06:29 03.05.2020
3798 Clouds 32 1007 75 10000 2.6 360 06:29 03.05.2020
3799 Clouds 32 1007 75 10000 2.6 360 06:29 03.05.2020
3800 Clouds 32 1007 70 10000 3.6 360 05:49 03.05.2020
3801 Clouds 32 1007 70 10000 3.6 360 05:49 03.05.2020
3802 Clouds 32 1007 70 10000 3.6 360 05:28 03.05.2020
3803 Clouds 32 1007 70 10000 3.6 360 05:28 03.05.2020
3804 Clouds 32 1007 70 10000 3.6 360 05:28 03.05.2020
3805 Clouds 32 1008 70 10000 4.1 70 04:27 03.05.2020
3806 Clouds 32 1009 70 10000 4.1 50 03:25 03.05.2020
3807 Clouds 32 1009 70 10000 4.1 50 03:25 03.05.2020
3808 Clouds 32 1010 66 10000 3.1 50 02:25 03.05.2020
3809 Clouds 32 1010 70 10000 4.1 90 01:46 03.05.2020
3810 Clouds 32 1010 70 10000 4.1 90 01:27 03.05.2020
3811 Clouds 32 1010 70 10000 4.1 90 01:27 03.05.2020
3812 Clouds 31 1010 74 10000 2.1 110 00:55 03.05.2020
3813 Clouds 31 1010 74 10000 2.1 110 00:37 03.05.2020
3814 Clouds 31 1010 74 10000 2.1 110 00:37 03.05.2020
3815 Clouds 27 1010 88 10000 1 200 00:18 03.05.2020
3816 Clouds 27 1010 88 10000 1 200 23:43 02.05.2020
3817 Clouds 27 1010 88 10000 1 200 23:24 02.05.2020
3818 Clouds 25 1010 94 10000 1 180 22:43 02.05.2020
3819 Clouds 25 1010 94 10000 1 180 22:43 02.05.2020
3820 Clouds 25 1010 94 10000 1 180 22:24 02.05.2020
3821 Clouds 24 1009 100 10000 1 180 21:56 02.05.2020
3822 Clouds 24 1009 100 10000 1 180 21:38 02.05.2020
3823 Clouds 24 1008 100 10000 1 160 21:18 02.05.2020
3824 Clouds 24 1008 100 10000 1 160 21:18 02.05.2020
3825 Clouds 24 1008 100 10000 1 160 20:57 02.05.2020
3826 Clouds 24 1008 100 10000 1 160 20:37 02.05.2020
3827 Clouds 24 1008 100 10000 2.67 122 20:19 02.05.2020
3828 Clouds 24 1008 100 10000 2.67 122 19:56 02.05.2020
3829 Clouds 24 1008 100 10000 2.67 122 19:37 02.05.2020
3830 Clouds 25 1008 94 10000 2.76 125 19:18 02.05.2020
3831 Clouds 25 1008 94 10000 2.76 125 18:40 02.05.2020
3832 Clouds 25 1008 94 10000 2.78 121 18:22 02.05.2020
3833 Clouds 25 1008 94 10000 1 160 17:57 02.05.2020
3834 Clouds 25 1008 94 10000 1 160 17:39 02.05.2020
3835 Clouds 25 1008 94 10000 1 160 17:20 02.05.2020
3836 Clouds 24 1009 100 10000 1.5 200 16:57 02.05.2020
3837 Clouds 24 1009 100 10000 1.5 200 16:38 02.05.2020
3838 Clouds 25 1009 100 10000 1.5 160 16:20 02.05.2020
3839 Clouds 25 1009 100 10000 1.5 160 15:42 02.05.2020
3840 Clouds 25 1010 100 10000 1.5 180 15:20 02.05.2020
3841 Clouds 25 1010 100 10000 1.5 180 14:45 02.05.2020
3842 Clouds 25 1010 100 10000 1.5 180 14:27 02.05.2020
3843 Clouds 26 1010 94 10000 3.01 122 13:59 02.05.2020
3844 Clouds 26 1010 94 10000 3.01 122 13:40 02.05.2020
3845 Clouds 26 1010 100 10000 1 160 13:19 02.05.2020
3846 Clouds 26 1010 100 10000 1 160 12:42 02.05.2020
3847 Clouds 27 1009 94 10000 1 200 12:23 02.05.2020
3848 Clouds 27 1009 94 10000 1 200 11:58 02.05.2020
3849 Clouds 27 1009 94 10000 1 200 11:39 02.05.2020
3850 Clouds 27 1009 94 10000 1 200 11:21 02.05.2020
3851 Clouds 28 1008 88 10000 1 180 10:54 02.05.2020
3852 Clouds 28 1008 88 10000 1 180 10:36 02.05.2020
3853 Clouds 29 1007 83 10000 1 200 10:18 02.05.2020
3854 Clouds 29 1007 83 10000 1 200 10:18 02.05.2020
3855 Clouds 29 1007 83 10000 1 200 09:54 02.05.2020
3856 Clouds 29 1007 83 10000 1 200 09:36 02.05.2020
3857 Clouds 29 1006 79 10000 2.6 160 09:18 02.05.2020
3858 Clouds 29 1006 79 10000 2.6 160 08:41 02.05.2020
3859 Clouds 29 1006 79 10000 2.6 160 08:22 02.05.2020
3860 Rain 32 1006 70 10000 5.1 70 07:46 02.05.2020
3861 Rain 32 1006 70 10000 5.1 70 07:27 02.05.2020
3862 Rain 32 1006 70 10000 8.2 50 06:47 02.05.2020
3863 Rain 33 1006 70 10000 6.7 50 05:28 02.05.2020
3864 Rain 32 1007 75 10000 6.7 70 04:37 02.05.2020
3865 Clouds 32 1008 75 10000 6.2 50 03:59 02.05.2020
3866 Clouds 32 1009 66 10000 8.2 90 02:43 02.05.2020
3867 Clouds 32 1010 70 10000 5.1 90 01:59 02.05.2020
3868 Clouds 32 1010 70 10000 5.1 90 01:28 02.05.2020
3869 Clouds 31 1010 74 10000 4.1 90 00:44 02.05.2020
3870 Clouds 31 1010 74 10000 4.1 90 00:24 02.05.2020
3871 Clouds 28 1009 78 10000 1.5 180 23:56 01.05.2020
3872 Clouds 28 1009 78 10000 1.5 180 23:37 01.05.2020
3873 Clouds 25 1008 94 10000 2.1 200 23:18 01.05.2020
3874 Clouds 25 1008 94 10000 2.1 200 22:39 01.05.2020
3875 Clouds 25 1008 94 10000 2.1 200 22:20 01.05.2020
3876 Clouds 24 1008 94 10000 1.5 180 21:58 01.05.2020
3877 Clouds 24 1008 94 10000 1.5 180 21:39 01.05.2020
3878 Clouds 24 1008 94 10000 1.5 180 21:20 01.05.2020
3879 Clouds 24 1007 94 10000 1 160 20:57 01.05.2020
3880 Clouds 24 1007 94 10000 1 160 20:39 01.05.2020
3881 Clouds 26 1007 79 0 2.74 131 20:19 01.05.2020
3882 Clouds 26 1007 79 0 2.74 131 19:55 01.05.2020
3883 Clouds 26 1007 79 0 2.74 131 19:37 01.05.2020
3884 Rain 26 1007 78 0 2.64 128 19:19 01.05.2020
3885 Rain 26 1007 78 0 2.64 128 18:55 01.05.2020
3886 Clouds 24 1007 100 10000 1 200 18:36 01.05.2020
3887 Clouds 24 1007 100 10000 1 200 18:18 01.05.2020
3888 Rain 26 1007 78 0 2.5 124 17:40 01.05.2020
3889 Clouds 26 1007 78 0 2.49 123 17:21 01.05.2020
3890 Clouds 26 1007 78 0 2.49 123 16:57 01.05.2020
3891 Clouds 25 1009 100 10000 2.1 180 16:39 01.05.2020
3892 Clouds 25 1009 100 10000 2.1 180 16:20 01.05.2020
3893 Clouds 25 1009 100 10000 2.1 180 15:57 01.05.2020
3894 Clouds 25 1009 100 10000 2.1 180 15:38 01.05.2020
3895 Clouds 25 1009 94 10000 1.5 200 15:19 01.05.2020
3896 Clouds 25 1009 94 10000 1.5 200 14:43 01.05.2020
3897 Clouds 25 1009 94 10000 1.5 200 14:24 01.05.2020
3898 Clouds 26 1009 94 10000 2.78 119 13:54 01.05.2020
3899 Clouds 26 1009 94 10000 2.78 119 13:36 01.05.2020
3900 Clouds 26 1008 94 10000 2.73 117 13:18 01.05.2020
3901 Clouds 26 1008 94 10000 2.73 117 12:40 01.05.2020
3902 Clouds 26 1008 94 10000 2.1 140 12:21 01.05.2020
3903 Clouds 26 1008 94 10000 2.1 140 11:59 01.05.2020
3904 Clouds 26 1008 94 10000 2.1 140 11:41 01.05.2020
3905 Clouds 28 1007 83 10000 2.6 160 11:19 01.05.2020
3906 Clouds 28 1007 83 10000 2.6 160 10:54 01.05.2020
3907 Clouds 28 1007 83 10000 2.6 160 10:36 01.05.2020
3908 Clouds 30 1006 70 10000 3.1 110 10:18 01.05.2020
3909 Clouds 30 1006 70 10000 3.1 110 10:18 01.05.2020
3910 Clouds 30 1006 70 10000 3.1 110 09:41 01.05.2020
3911 Clouds 32 1006 66 10000 5.1 70 09:19 01.05.2020
3912 Clouds 32 1006 66 10000 5.1 70 08:46 01.05.2020
3913 Clouds 32 1006 66 10000 5.1 70 08:28 01.05.2020
3914 Clouds 32 1006 70 10000 4.1 50 07:56 01.05.2020
3915 Rain 32 1006 70 10000 4.6 70 07:37 01.05.2020
3916 Rain 32 1005 70 10000 4.6 70 06:59 01.05.2020
3917 Rain 32 1006 66 10000 4.6 50 05:48 01.05.2020
3918 Clouds 33 1007 66 10000 5.1 70 05:20 01.05.2020
3919 Clouds 32 1008 75 10000 5.1 20 03:42 01.05.2020
3920 Clouds 32 1009 66 10000 4.1 90 02:50 01.05.2020
3921 Clouds 32 1009 66 10000 4.1 90 02:32 01.05.2020
3922 Clouds 32 1010 70 10000 3.6 90 01:42 01.05.2020
3923 Clouds 32 1010 70 10000 3.6 90 01:24 01.05.2020
3924 Clouds 30 1010 79 10000 4.6 90 00:39 01.05.2020
3925 Clouds 30 1010 79 10000 4.6 90 00:20 01.05.2020
3926 Clouds 27 1010 88 10000 2.1 140 23:57 30.04.2020
3927 Clouds 27 1010 88 10000 2.1 140 23:38 30.04.2020
3928 Clouds 24 1009 100 10000 1.5 180 23:19 30.04.2020
3929 Clouds 24 1009 100 10000 1.5 180 22:42 30.04.2020
3930 Clouds 24 1009 100 10000 1.5 180 22:21 30.04.2020
3931 Clouds 24 1008 94 0 2.11 134 21:58 30.04.2020
3932 Clouds 24 1008 94 0 2.11 134 21:40 30.04.2020
3933 Clouds 24 1008 94 0 1.91 136 21:21 30.04.2020
3934 Clouds 24 1008 94 10000 1.5 160 20:56 30.04.2020
3935 Clouds 24 1008 94 10000 1.5 160 20:38 30.04.2020
3936 Clouds 24 1007 100 10000 1.79 144 20:18 30.04.2020
3937 Clouds 24 1007 100 10000 1.79 144 20:18 30.04.2020
3938 Clouds 24 1007 100 10000 1.79 144 19:44 30.04.2020
3939 Clouds 24 1007 100 10000 1.65 143 19:25 30.04.2020
3940 Clouds 24 1007 100 10000 1.65 143 18:56 30.04.2020
3941 Clouds 24 1007 100 10000 1.65 143 18:38 30.04.2020
3942 Clouds 24 1007 100 10000 1.66 139 18:20 30.04.2020
3943 Clouds 25 1008 94 10000 1.5 160 17:57 30.04.2020
3944 Clouds 25 1008 94 10000 1.5 160 17:39 30.04.2020
3945 Clouds 25 1008 100 10000 1 230 17:20 30.04.2020
3946 Clouds 25 1008 100 10000 1 230 16:54 30.04.2020
3947 Clouds 25 1008 100 10000 1 230 16:36 30.04.2020
3948 Clouds 25 1009 100 10000 1.5 180 16:18 30.04.2020
3949 Clouds 25 1009 100 10000 1.5 180 15:44 30.04.2020
3950 Clouds 25 1009 100 10000 1.5 180 15:21 30.04.2020
3951 Clouds 26 1010 94 10000 1.5 140 14:42 30.04.2020
3952 Clouds 26 1010 94 10000 1.5 140 14:22 30.04.2020
3953 Clouds 26 1009 100 10000 2.63 124 13:59 30.04.2020
3954 Clouds 26 1009 100 10000 2.63 124 13:40 30.04.2020
3955 Clouds 26 1009 100 10000 2.8 119 13:22 30.04.2020
3956 Clouds 27 1009 94 10000 2.8 119 12:58 30.04.2020
3957 Clouds 27 1009 94 10000 2.8 119 12:40 30.04.2020
3958 Clouds 27 1009 78 10000 1 140 12:18 30.04.2020
3959 Clouds 27 1009 78 10000 1 140 11:38 30.04.2020
3960 Clouds 28 1009 80 0 2.11 113 11:19 30.04.2020
3961 Clouds 28 1009 80 0 2.11 113 11:19 30.04.2020
3962 Clouds 28 1009 80 0 2.11 113 10:57 30.04.2020
3963 Clouds 28 1009 80 0 2.11 113 10:57 30.04.2020
3964 Clouds 30 1007 74 10000 3.1 110 10:38 30.04.2020
3965 Clouds 30 1007 74 10000 3.1 110 10:18 30.04.2020
3966 Clouds 30 1007 74 10000 3.1 110 09:44 30.04.2020
3967 Clouds 30 1007 74 10000 3.1 110 09:24 30.04.2020
3968 Clouds 32 1007 59 10000 5.7 70 08:58 30.04.2020
3969 Clouds 32 1007 59 10000 5.7 70 08:58 30.04.2020
3970 Clouds 32 1007 59 10000 5.7 70 08:39 30.04.2020
3971 Clouds 32 1007 59 10000 5.7 70 08:20 30.04.2020
3972 Clouds 32 1006 70 10000 5.1 50 07:43 30.04.2020
3973 Clouds 32 1006 70 10000 5.1 50 07:24 30.04.2020
3974 Clouds 32 1006 66 10000 5.1 50 06:48 30.04.2020
3975 Clouds 33 1007 66 10000 4.6 70 05:49 30.04.2020
3976 Clouds 33 1007 66 10000 4.6 70 05:28 30.04.2020
3977 Clouds 32 1008 70 10000 5.1 70 04:32 30.04.2020
3978 Clouds 32 1009 70 10000 4.1 70 03:52 30.04.2020
3979 Clouds 32 1010 70 10000 3.1 50 02:29 30.04.2020
3980 Clouds 32 1010 66 10000 3.1 70 01:58 30.04.2020
3981 Clouds 32 1010 66 10000 3.1 70 01:20 30.04.2020
3982 Clouds 31 1010 66 10000 1.36 92 00:40 30.04.2020
3983 Clouds 27 1010 83 10000 1 180 00:18 30.04.2020
3984 Clouds 27 1010 83 10000 1 180 00:18 30.04.2020
3985 Clouds 27 1010 83 10000 1 180 23:54 29.04.2020
3986 Clouds 27 1010 83 10000 1 180 23:36 29.04.2020
3987 Clouds 24 1009 94 10000 2.1 160 23:18 29.04.2020
3988 Clouds 24 1009 94 10000 2.1 160 22:39 29.04.2020
3989 Clouds 24 1009 94 10000 2.1 160 22:20 29.04.2020
3990 Clouds 24 1009 94 10000 1 180 21:39 29.04.2020
3991 Clouds 24 1009 94 10000 1 160 21:21 29.04.2020
3992 Clouds 24 1009 94 10000 1 160 20:59 29.04.2020
3993 Clouds 24 1009 94 10000 1 160 20:59 29.04.2020
3994 Clouds 26 1009 78 0 1.48 166 20:40 29.04.2020
3995 Clouds 24 1008 94 10000 1 180 20:19 29.04.2020
3996 Clouds 24 1008 94 10000 1 180 19:57 29.04.2020
3997 Clouds 24 1008 94 10000 1 180 19:39 29.04.2020
3998 Clouds 26 1008 79 0 1.71 156 19:18 29.04.2020
3999 Clouds 26 1008 79 0 1.71 156 18:42 29.04.2020
4000 Clouds 25 1008 94 10000 1 160 18:21 29.04.2020
4001 Clouds 25 1008 94 10000 1 160 17:56 29.04.2020
4002 Clouds 25 1008 94 10000 1 160 17:37 29.04.2020
4003 Clouds 25 1009 94 10000 1 180 17:19 29.04.2020
4004 Clouds 25 1009 94 10000 1 180 16:38 29.04.2020
4005 Clouds 25 1010 94 10000 1 200 16:19 29.04.2020
4006 Clouds 25 1010 94 10000 1 200 15:57 29.04.2020
4007 Clouds 25 1010 94 10000 1 200 15:39 29.04.2020
4008 Clear 26 1009 81 0 1.72 153 15:20 29.04.2020
4009 Clear 26 1009 81 0 1.72 153 14:46 29.04.2020
4010 Rain 27 1010 81 0 2.16 135 14:27 29.04.2020
4011 Clouds 26 1009 94 10000 2.16 135 13:59 29.04.2020
4012 Clouds 26 1009 94 10000 2.16 135 13:59 29.04.2020
4013 Clouds 26 1009 94 10000 2.16 135 13:59 29.04.2020
4014 Clouds 26 1009 94 10000 2.16 135 13:40 29.04.2020
4015 Clouds 26 1009 94 10000 1 140 13:20 29.04.2020
4016 Clouds 26 1009 94 10000 1 140 12:57 29.04.2020
4017 Clouds 26 1009 94 10000 1 140 12:38 29.04.2020
4018 Clouds 28 1008 83 10000 1 160 12:18 29.04.2020
4019 Clouds 28 1008 83 10000 1 160 11:39 29.04.2020
4020 Clouds 28 1008 83 10000 1 160 11:39 29.04.2020
4021 Clouds 28 1008 88 10000 1.5 180 11:20 29.04.2020
4022 Clouds 28 1008 88 10000 1.5 180 10:55 29.04.2020
4023 Clouds 28 1008 88 10000 1.5 180 10:37 29.04.2020
4024 Clouds 30 1007 74 10000 2.6 70 10:18 29.04.2020
4025 Clouds 30 1007 74 10000 2.6 70 09:41 29.04.2020
4026 Clouds 30 1007 74 10000 2.6 70 09:22 29.04.2020
4027 Clouds 32 1006 66 10000 3.1 70 08:45 29.04.2020
4028 Clouds 32 1006 66 10000 3.1 70 08:27 29.04.2020
4029 Rain 32 1006 70 10000 4.1 70 07:57 29.04.2020
4030 Rain 32 1006 70 10000 4.1 70 07:38 29.04.2020
4031 Rain 32 1006 70 10000 4.1 50 07:18 29.04.2020
4032 Rain 32 1006 70 10000 4.1 50 06:48 29.04.2020
4033 Rain 32 1006 70 10000 4.1 50 06:29 29.04.2020
4034 Rain 32 1006 70 10000 4.1 50 06:29 29.04.2020
4035 Clouds 33 1007 63 10000 5.1 50 05:21 29.04.2020
4036 Clouds 33 1007 63 10000 5.1 50 05:21 29.04.2020
4037 Clouds 33 1008 70 10000 5.1 50 04:21 29.04.2020
4038 Clouds 32 1009 75 10000 4.1 70 03:55 29.04.2020
4039 Clouds 32 1009 70 10000 5.1 70 02:32 29.04.2020
4040 Clouds 32 1010 70 10000 4.1 90 01:44 29.04.2020
4041 Clouds 30 1010 74 10000 2.6 110 01:20 29.04.2020
4042 Clouds 30 1010 74 10000 2.6 110 00:39 29.04.2020
4043 Clouds 27 1009 83 10000 2.36 107 00:18 29.04.2020
4044 Clouds 27 1009 83 10000 2.36 107 23:47 28.04.2020
4045 Clouds 27 1009 83 10000 2.14 123 23:22 28.04.2020
4046 Clouds 24 1009 94 10000 1.5 180 22:40 28.04.2020
4047 Clouds 24 1009 94 10000 1.5 180 22:22 28.04.2020
4048 Clouds 24 1009 94 10000 1.5 180 22:22 28.04.2020
4049 Clouds 24 1009 94 10000 1.5 180 22:22 28.04.2020
4050 Clouds 23 1008 100 10000 1.5 160 21:59 28.04.2020
4051 Clouds 23 1008 100 10000 1.5 160 21:59 28.04.2020
4052 Clouds 23 1008 100 10000 1.5 160 21:41 28.04.2020
4053 Clouds 23 1008 100 10000 1.5 160 21:41 28.04.2020
4054 Clouds 23 1008 100 10000 1.5 160 21:41 28.04.2020
4055 Clouds 23 1008 100 10000 1.5 160 21:23 28.04.2020
4056 Clouds 23 1008 100 10000 1.5 180 20:59 28.04.2020
4057 Clouds 23 1008 100 10000 1.5 180 20:40 28.04.2020
4058 Clouds 23 1008 100 10000 1.5 180 20:20 28.04.2020
4059 Clouds 26 1008 80 0 2.06 129 19:57 28.04.2020
4060 Clouds 23 1008 100 10000 2.1 180 19:39 28.04.2020
4061 Clouds 23 1008 100 10000 2.1 180 19:20 28.04.2020
4062 Clouds 23 1008 100 10000 2.1 180 18:57 28.04.2020
4063 Clouds 23 1008 100 10000 2.1 180 18:37 28.04.2020
4064 Clouds 24 1008 94 10000 2.1 140 18:18 28.04.2020
4065 Clouds 24 1008 94 10000 2.1 140 17:37 28.04.2020
4066 Clouds 24 1009 100 10000 2.59 126 17:19 28.04.2020
4067 Clouds 24 1009 100 10000 2.59 126 16:57 28.04.2020
4068 Clouds 24 1009 100 10000 2.59 126 16:39 28.04.2020
4069 Clouds 24 1009 100 10000 2.74 122 16:21 28.04.2020
4070 Clouds 25 1009 94 10000 1 110 15:55 28.04.2020
4071 Clouds 25 1009 94 10000 1 110 15:37 28.04.2020
4072 Clouds 25 1009 94 10000 1.5 140 15:19 28.04.2020
4073 Clouds 25 1009 94 10000 1.5 140 14:43 28.04.2020
4074 Clouds 25 1009 94 10000 1.5 140 14:43 28.04.2020
4075 Clouds 25 1009 94 10000 1.5 140 14:22 28.04.2020
4076 Clouds 25 1009 94 10000 2.51 128 13:59 28.04.2020
4077 Clouds 25 1009 94 10000 2.51 128 13:40 28.04.2020
4078 Clouds 25 1009 94 10000 2.34 128 13:22 28.04.2020
4079 Clouds 26 1009 94 10000 1 200 12:58 28.04.2020
4080 Clouds 26 1009 94 10000 1 200 12:58 28.04.2020
4081 Clouds 26 1009 94 10000 1 200 12:38 28.04.2020
4082 Clouds 26 1009 94 10000 1 200 12:20 28.04.2020
4083 Clouds 26 1009 94 10000 1 180 11:42 28.04.2020
4084 Clouds 26 1009 94 10000 1 180 11:21 28.04.2020
4085 Clouds 27 1008 83 10000 1 160 10:56 28.04.2020
4086 Clouds 27 1008 83 10000 1 160 10:37 28.04.2020
4087 Clouds 28 1007 78 10000 2.1 140 10:18 28.04.2020
4088 Clouds 28 1007 78 10000 2.1 140 09:42 28.04.2020
4089 Clouds 28 1007 78 10000 2.1 140 09:42 28.04.2020
4090 Clouds 28 1007 78 10000 2.1 140 09:24 28.04.2020
4091 Clouds 30 1007 70 10000 2.1 140 08:50 28.04.2020
4092 Clouds 30 1007 70 10000 2.1 140 08:30 28.04.2020
4093 Clouds 30 1007 70 10000 2.1 140 08:30 28.04.2020
4094 Clouds 32 1006 66 10000 4.1 140 07:59 28.04.2020
4095 Clouds 32 1006 66 10000 4.1 140 07:40 28.04.2020
4096 Rain 32 1006 66 10000 3.1 360 07:18 28.04.2020
4097 Rain 32 1006 66 10000 3.1 360 06:31 28.04.2020
4098 Rain 32 1007 66 10000 3.1 20 05:47 28.04.2020
4099 Rain 32 1007 66 10000 3.1 20 05:29 28.04.2020
4100 Clouds 32 1008 70 10000 4.1 20 04:33 28.04.2020
4101 Clouds 31 1009 70 10000 2.1 50 02:37 28.04.2020
4102 Clouds 30 1009 74 10000 1.5 90 01:25 28.04.2020
4103 Clouds 30 1009 74 10000 1.5 90 01:25 28.04.2020
4104 Clouds 30 1009 74 10000 1.5 110 00:59 28.04.2020
4105 Clouds 30 1009 74 10000 1.5 110 00:27 28.04.2020
4106 Clouds 26 1009 88 10000 1.5 180 23:48 27.04.2020
4107 Clouds 26 1009 88 10000 1.5 180 23:25 27.04.2020
4108 Clouds 23 1009 100 10000 1.5 180 22:57 27.04.2020
4109 Clouds 23 1009 100 10000 1.5 180 22:38 27.04.2020
4110 Clouds 23 1009 100 10000 1.5 180 22:20 27.04.2020
4111 Clouds 23 1008 100 10000 1.5 160 21:56 27.04.2020
4112 Clouds 23 1008 100 10000 1.5 160 21:38 27.04.2020
4113 Clouds 23 1008 100 10000 1.5 180 21:18 27.04.2020
4114 Clouds 23 1008 100 10000 1.5 180 21:18 27.04.2020
4115 Clouds 23 1008 100 10000 1.5 180 20:54 27.04.2020
4116 Clouds 23 1008 100 10000 1.5 180 20:36 27.04.2020
4117 Clouds 23 1008 100 10000 1.5 180 20:18 27.04.2020
4118 Clouds 23 1008 100 10000 1.5 180 19:40 27.04.2020
4119 Clouds 23 1008 100 10000 1.5 180 19:21 27.04.2020
4120 Clouds 24 1008 94 10000 1.5 160 18:58 27.04.2020
4121 Clouds 24 1008 94 10000 1.5 160 18:40 27.04.2020
4122 Clouds 24 1009 100 10000 2.6 200 18:19 27.04.2020
4123 Clouds 24 1009 100 10000 2.6 200 17:54 27.04.2020
4124 Clouds 24 1009 100 10000 2.6 200 17:36 27.04.2020
4125 Clouds 24 1009 100 10000 1.5 180 17:18 27.04.2020
4126 Clouds 24 1009 100 10000 1.5 180 16:40 27.04.2020
4127 Clouds 24 1009 100 10000 1.5 180 16:21 27.04.2020
4128 Clouds 24 1009 100 10000 1.5 180 16:21 27.04.2020
4129 Clouds 24 1009 100 10000 1.5 160 15:56 27.04.2020
4130 Clouds 24 1009 100 10000 1.5 160 15:38 27.04.2020
4131 Clouds 24 1009 100 10000 1.5 160 15:38 27.04.2020
4132 Clouds 25 1010 94 10000 1.5 180 15:18 27.04.2020
4133 Clouds 25 1010 94 10000 1.5 180 14:44 27.04.2020
4134 Clouds 25 1010 94 10000 1.5 180 14:23 27.04.2020
4135 Clouds 25 1010 94 10000 1.5 180 14:00 27.04.2020
4136 Clouds 25 1010 94 10000 1.5 180 13:41 27.04.2020
4137 Clouds 25 1010 94 10000 1.5 180 13:20 27.04.2020
4138 Clouds 25 1009 94 10000 1.5 180 12:56 27.04.2020
4139 Clouds 25 1009 94 10000 1.5 180 12:38 27.04.2020
4140 Rain 27 1009 80 0 1.28 155 12:19 27.04.2020
4141 Rain 27 1009 80 0 1.28 155 11:41 27.04.2020
4142 Clouds 28 1008 83 10000 1.28 155 11:19 27.04.2020
4143 Clouds 28 1008 83 10000 1.28 155 10:57 27.04.2020
4144 Clouds 28 1008 83 10000 1.28 155 10:38 27.04.2020
4145 Clouds 29 1007 74 10000 1 20 10:19 27.04.2020
4146 Clouds 29 1007 74 10000 1 20 09:43 27.04.2020
4147 Clouds 29 1007 74 10000 1 20 09:43 27.04.2020
4148 Clouds 31 1006 62 10000 2.1 20 09:19 27.04.2020
4149 Clouds 31 1006 62 10000 2.1 20 08:56 27.04.2020
4150 Clouds 31 1006 62 10000 2.1 20 08:36 27.04.2020
4151 Clouds 31 1006 66 10000 2.1 50 08:18 27.04.2020
4152 Clouds 31 1006 66 10000 2.1 50 07:44 27.04.2020
4153 Clouds 32 1006 62 10000 3.1 340 07:19 27.04.2020
4154 Clouds 32 1006 66 10000 1.5 320 06:40 27.04.2020
4155 Clouds 32 1006 66 10000 1.5 320 06:21 27.04.2020
4156 Rain 31 1007 66 10000 2.6 340 05:48 27.04.2020
4157 Clouds 33 1007 59 10000 2.6 360 04:41 27.04.2020
4158 Rain 32 1008 66 10000 2.6 20 03:49 27.04.2020
4159 Clouds 32 1009 62 10000 2.6 360 02:41 27.04.2020
4160 Clouds 32 1010 62 10000 2.1 50 01:23 27.04.2020
4161 Clouds 30 1009 74 10000 1.5 160 00:46 27.04.2020
4162 Clouds 26 1009 78 10000 1 200 00:19 27.04.2020
4163 Clouds 26 1009 78 10000 1 200 23:55 26.04.2020
4164 Clouds 26 1009 78 10000 1 200 23:37 26.04.2020
4165 Clouds 26 1009 88 10000 2.1 200 23:18 26.04.2020
4166 Clouds 26 1009 88 10000 2.1 200 22:55 26.04.2020
4167 Clouds 26 1009 88 10000 2.1 200 22:55 26.04.2020
4168 Clouds 23 1008 100 10000 1 200 22:37 26.04.2020
4169 Clouds 23 1008 100 10000 1 200 22:18 26.04.2020
4170 Clouds 23 1008 100 10000 1 200 21:55 26.04.2020
4171 Clouds 23 1008 100 10000 1 200 21:37 26.04.2020
4172 Clouds 24 1008 94 10000 1 180 21:18 26.04.2020
4173 Clouds 24 1008 94 10000 1 180 21:18 26.04.2020
4174 Clouds 24 1008 94 10000 1 180 20:39 26.04.2020
4175 Clouds 24 1007 94 10000 1 160 20:20 26.04.2020
4176 Clouds 24 1007 94 10000 1 160 19:58 26.04.2020
4177 Clouds 24 1007 94 10000 1 160 19:58 26.04.2020
4178 Clouds 24 1007 94 10000 1 160 19:38 26.04.2020
4179 Clouds 24 1008 100 10000 1 180 19:19 26.04.2020
4180 Clouds 24 1008 100 10000 1 180 18:44 26.04.2020
4181 Clouds 24 1008 100 10000 1 180 18:25 26.04.2020
4182 Clouds 24 1008 100 10000 1 180 17:56 26.04.2020
4183 Clouds 24 1008 100 10000 1 180 17:56 26.04.2020
4184 Clouds 24 1008 100 10000 1 180 17:38 26.04.2020
4185 Clouds 25 1008 94 10000 1 180 17:18 26.04.2020
4186 Clouds 26 1007 79 0 1.19 157 16:40 26.04.2020
4187 Clouds 26 1007 79 0 1.19 157 16:21 26.04.2020
4188 Clouds 26 1007 79 0 1.19 157 15:58 26.04.2020
4189 Clouds 25 1009 100 10000 1 180 15:38 26.04.2020
4190 Clouds 25 1009 100 10000 1 180 15:20 26.04.2020
4191 Clouds 25 1009 100 10000 1 180 14:55 26.04.2020
4192 Clouds 25 1009 100 10000 1 180 14:36 26.04.2020
4193 Clouds 26 1009 94 10000 1 110 14:18 26.04.2020
4194 Clouds 26 1009 94 10000 1 110 13:43 26.04.2020
4195 Clouds 26 1009 94 10000 1 110 13:23 26.04.2020
4196 Clouds 26 1009 94 10000 1 160 12:58 26.04.2020
4197 Clouds 26 1009 94 10000 1 160 12:40 26.04.2020
4198 Clouds 26 1009 94 10000 1 160 12:21 26.04.2020
4199 Rain 27 1008 88 10000 1.5 160 11:57 26.04.2020
4200 Rain 27 1008 88 10000 1.5 160 11:39 26.04.2020
4201 Rain 27 1008 88 10000 1.5 160 11:21 26.04.2020
4202 Rain 29 1007 79 10000 0.85 120 10:55 26.04.2020
4203 Rain 29 1007 79 10000 0.85 120 10:37 26.04.2020
4204 Rain 30 1007 74 10000 1.5 20 10:18 26.04.2020
4205 Rain 30 1007 74 10000 1.5 20 09:39 26.04.2020
4206 Rain 30 1007 74 10000 1.5 20 09:21 26.04.2020
4207 Rain 30 1006 74 10000 3.6 70 08:43 26.04.2020
4208 Rain 30 1006 74 10000 3.6 70 08:23 26.04.2020
4209 Rain 31 1006 70 10000 3.6 50 07:50 26.04.2020
4210 Rain 32 1007 70 10000 2.6 50 07:25 26.04.2020
4211 Rain 32 1007 70 10000 2.6 50 06:56 26.04.2020
4212 Rain 32 1007 70 10000 2.6 50 06:33 26.04.2020
4213 Rain 32 1008 70 10000 3.1 50 05:54 26.04.2020
4214 Rain 32 1008 70 10000 3.1 50 05:35 26.04.2020
4215 Rain 32 1008 70 10000 4.1 20 04:42 26.04.2020
4216 Clouds 32 1009 70 10000 3.6 50 03:49 26.04.2020
4217 Clouds 31 1010 66 10000 3.1 50 02:40 26.04.2020
4218 Clouds 31 1010 70 10000 3.1 90 02:20 26.04.2020
4219 Clouds 31 1010 70 10000 3.1 90 01:38 26.04.2020
4220 Clouds 29 1010 79 10000 2.6 140 01:19 26.04.2020
4221 Clouds 29 1010 79 10000 2.6 140 00:38 26.04.2020
4222 Clouds 26 1009 88 10000 1 180 00:18 26.04.2020
4223 Clouds 26 1009 88 10000 1 180 23:38 25.04.2020
4224 Clouds 24 1009 94 0 1 180 23:20 25.04.2020
4225 Clouds 24 1009 94 0 1 180 22:43 25.04.2020
4226 Clouds 24 1009 94 0 1 180 22:21 25.04.2020
4227 Clouds 24 1008 94 0 2.1 160 21:59 25.04.2020
4228 Clouds 24 1008 94 0 2.1 160 21:39 25.04.2020
4229 Clouds 24 1008 94 0 2.1 160 21:20 25.04.2020
4230 Clouds 24 1010 94 0 1 160 20:55 25.04.2020
4231 Clouds 24 1010 94 0 1 160 20:37 25.04.2020
4232 Clouds 24 1009 94 10000 1 180 20:19 25.04.2020
4233 Clouds 24 1009 94 10000 1 180 19:41 25.04.2020
4234 Clouds 24 1009 94 10000 1 180 19:22 25.04.2020
4235 Clouds 24 1009 94 10000 1 180 18:57 25.04.2020
4236 Clouds 24 1009 94 10000 1 180 18:38 25.04.2020
4237 Clouds 24 1009 94 10000 1 180 18:19 25.04.2020
4238 Clouds 24 1009 94 10000 1 180 17:55 25.04.2020
4239 Clouds 24 1009 94 10000 1 180 17:37 25.04.2020
4240 Clouds 25 1010 94 10000 1 180 17:18 25.04.2020
4241 Clouds 25 1010 94 10000 1 180 16:48 25.04.2020
4242 Clouds 25 1010 94 10000 1 180 16:28 25.04.2020
4243 Clouds 25 1010 94 10000 1 200 15:58 25.04.2020
4244 Clouds 25 1010 94 10000 1 200 15:39 25.04.2020
4245 Clouds 25 1010 94 10000 1.25 158 15:19 25.04.2020
4246 Clouds 25 1010 94 10000 1.25 158 14:57 25.04.2020
4247 Clouds 25 1010 94 10000 1.33 164 14:38 25.04.2020
4248 Clouds 26 1010 94 10000 1.33 164 14:18 25.04.2020
4249 Clouds 26 1010 94 10000 1.33 164 13:42 25.04.2020
4250 Clouds 26 1010 94 10000 2.1 140 13:19 25.04.2020
4251 Clouds 26 1010 94 10000 2.1 140 12:57 25.04.2020
4252 Clouds 26 1010 94 10000 2.1 140 12:38 25.04.2020
4253 Clouds 27 1009 88 10000 1 200 12:20 25.04.2020
4254 Clouds 27 1009 88 10000 1 200 11:54 25.04.2020
4255 Clouds 27 1009 88 10000 1 200 11:54 25.04.2020
4256 Clouds 27 1009 88 10000 1 200 11:36 25.04.2020
4257 Clouds 28 1009 83 10000 1 270 11:18 25.04.2020
4258 Clouds 28 1009 83 10000 1 270 10:41 25.04.2020
4259 Clouds 28 1009 83 10000 1 270 10:22 25.04.2020
4260 Clouds 30 1008 74 10000 1 20 09:46 25.04.2020
4261 Clouds 30 1008 74 10000 1 20 09:27 25.04.2020
4262 Clouds 31 1007 66 10000 2.6 360 08:57 25.04.2020
4263 Clouds 31 1007 66 10000 2.6 360 08:38 25.04.2020
4264 Clouds 31 1007 70 10000 2.1 50 08:20 25.04.2020
4265 Clouds 31 1007 70 10000 2.1 50 07:45 25.04.2020
4266 Clouds 31 1007 70 10000 2.1 50 07:23 25.04.2020
4267 Clouds 31 1007 70 10000 2.6 360 06:44 25.04.2020
4268 Clouds 31 1008 70 10000 3.1 360 05:48 25.04.2020
4269 Clouds 31 1008 70 10000 3.1 360 05:30 25.04.2020
4270 Clouds 31 1008 70 10000 3.1 20 04:29 25.04.2020
4271 Clouds 31 1010 70 10000 2.6 20 02:44 25.04.2020
4272 Clouds 29 1010 79 10000 2.1 160 02:19 25.04.2020
4273 Clouds 29 1010 79 10000 2.1 160 01:50 25.04.2020
4274 Clouds 29 1010 79 10000 2.1 160 01:26 25.04.2020
4275 Clouds 26 1010 94 10000 2.75 46 00:49 25.04.2020
4276 Clouds 26 1010 94 10000 2.17 62 00:28 25.04.2020
4277 Clouds 24 1010 94 10000 1 180 23:42 24.04.2020
4278 Clouds 24 1010 94 10000 1 180 23:21 24.04.2020
4279 Clouds 23 1010 100 10000 1 160 22:43 24.04.2020
4280 Clouds 23 1010 100 10000 1 160 22:21 24.04.2020
4281 Clouds 23 1009 100 10000 1 160 21:59 24.04.2020
4282 Clouds 23 1009 100 10000 1 160 21:41 24.04.2020
4283 Clouds 23 1009 100 10000 1 160 21:23 24.04.2020
4284 Clouds 23 1009 100 10000 1.5 180 21:00 24.04.2020
4285 Clouds 23 1009 100 10000 1.5 180 20:41 24.04.2020
4286 Rain 25 1009 80 0 1.22 139 20:19 24.04.2020
4287 Rain 25 1009 80 0 1.22 139 19:57 24.04.2020
4288 Clouds 23 1009 100 10000 1.5 160 19:38 24.04.2020
4289 Clouds 23 1009 100 10000 1.5 160 19:20 24.04.2020
4290 Clouds 23 1009 100 10000 1.5 160 18:40 24.04.2020
4291 Clouds 23 1009 100 10000 1.49 110 18:22 24.04.2020
4292 Clouds 23 1009 100 10000 1.5 160 18:22 24.04.2020
4293 Clouds 23 1009 100 10000 1.49 110 17:43 24.04.2020
4294 Clouds 23 1009 100 10000 1.49 110 17:24 24.04.2020
4295 Clouds 23 1010 100 10000 1.49 110 16:59 24.04.2020
4296 Clouds 23 1010 100 10000 1.49 110 16:41 24.04.2020
4297 Clouds 23 1010 100 10000 1.49 110 16:22 24.04.2020
4298 Clouds 24 1010 94 10000 1 180 15:59 24.04.2020
4299 Clouds 24 1010 94 10000 1 180 15:38 24.04.2020
4300 Rain 24 1011 100 10000 1 160 15:18 24.04.2020
4301 Rain 24 1011 100 10000 1 160 15:18 24.04.2020
4302 Rain 24 1011 100 10000 1 160 14:40 24.04.2020
4303 Rain 24 1011 100 10000 1 160 14:20 24.04.2020
4304 Rain 24 1011 100 10000 2.1 140 13:56 24.04.2020
4305 Rain 24 1011 100 10000 2.1 140 13:38 24.04.2020
4306 Clouds 24 1011 100 10000 1.55 137 13:18 24.04.2020
4307 Clouds 24 1011 100 10000 1.55 137 12:41 24.04.2020
4308 Clouds 24 1011 100 10000 1.3 122 12:22 24.04.2020
4309 Rain 24 1011 100 0 3.1 180 11:58 24.04.2020
4310 Rain 24 1011 100 0 3.1 180 11:37 24.04.2020
4311 Drizzle 25 1010 94 10000 4.1 200 11:19 24.04.2020
4312 Drizzle 25 1010 94 10000 4.1 200 10:54 24.04.2020
4313 Drizzle 25 1010 94 10000 4.1 200 10:36 24.04.2020
4314 Clouds 26 1010 82 0 1.3 122 10:18 24.04.2020
4315 Clouds 26 1010 82 0 1.3 122 09:44 24.04.2020
4316 Rain 28 1009 72 0 1.34 54 09:24 24.04.2020
4317 Clouds 30 1008 74 10000 2.1 360 08:55 24.04.2020
4318 Clouds 30 1008 74 10000 2.1 360 08:37 24.04.2020
4319 Clouds 30 1008 74 10000 2.6 20 08:18 24.04.2020
4320 Clouds 30 1008 74 10000 2.6 20 07:43 24.04.2020
4321 Clouds 31 1008 70 10000 3.1 340 07:24 24.04.2020
4322 Clouds 31 1008 70 10000 3.1 340 06:49 24.04.2020
4323 Clouds 31 1008 70 10000 3.1 340 06:30 24.04.2020
4324 Clouds 31 1008 74 10000 1.5 360 05:42 24.04.2020
4325 Clouds 30 1010 79 10000 2.1 20 03:57 24.04.2020
4326 Clouds 30 1010 79 10000 2.1 20 02:56 24.04.2020
4327 Clouds 30 1010 79 10000 2.1 20 02:37 24.04.2020
4328 Clouds 29 1010 79 10000 2.1 90 01:47 24.04.2020
4329 Clouds 27 1010 88 10000 1 160 00:56 24.04.2020
4330 Clouds 25 1010 88 10000 1.5 180 00:20 24.04.2020
4331 Clouds 25 1010 88 10000 1.5 180 23:48 23.04.2020
4332 Clouds 25 1010 88 10000 1.5 180 23:28 23.04.2020
4333 Clouds 23 1009 100 10000 1.36 145 22:59 23.04.2020
4334 Clouds 23 1009 100 10000 1.36 145 22:41 23.04.2020
4335 Clouds 23 1009 100 10000 1.36 145 22:21 23.04.2020
4336 Clouds 24 1009 94 10000 1 180 21:58 23.04.2020
4337 Clouds 24 1009 94 10000 1 180 21:40 23.04.2020
4338 Clouds 24 1009 94 10000 1 180 21:21 23.04.2020
4339 Clouds 24 1008 94 10000 1.75 127 20:58 23.04.2020
4340 Clouds 24 1008 94 10000 1.75 127 20:40 23.04.2020
4341 Drizzle 24 1009 100 10000 1.75 127 20:20 23.04.2020
4342 Drizzle 24 1009 100 10000 1.75 127 19:56 23.04.2020
4343 Drizzle 24 1009 100 10000 1.75 127 19:38 23.04.2020
4344 Drizzle 24 1009 100 10000 1.5 160 19:20 23.04.2020
4345 Drizzle 24 1009 100 10000 1.5 160 18:43 23.04.2020
4346 Drizzle 24 1009 100 10000 1.5 160 18:23 23.04.2020
4347 Drizzle 24 1010 100 10000 1.5 160 17:58 23.04.2020
4348 Drizzle 24 1010 100 10000 1.5 160 17:58 23.04.2020
4349 Drizzle 24 1010 100 10000 1.5 160 17:39 23.04.2020
4350 Drizzle 24 1010 100 10000 1.5 160 17:21 23.04.2020
4351 Clouds 24 1010 100 10000 1.5 140 16:56 23.04.2020
4352 Clouds 24 1010 100 10000 1.5 140 16:38 23.04.2020
4353 Clouds 24 1011 100 10000 1.57 172 16:18 23.04.2020
4354 Clouds 24 1011 100 10000 1.57 172 15:42 23.04.2020
4355 Clouds 24 1011 100 10000 1.12 179 15:22 23.04.2020
4356 Drizzle 24 1011 100 10000 1.5 180 14:56 23.04.2020
4357 Drizzle 24 1011 100 10000 1.5 180 14:37 23.04.2020
4358 Rain 24 1011 100 10000 1.5 160 14:18 23.04.2020
4359 Rain 24 1011 100 10000 1.5 160 13:40 23.04.2020
4360 Rain 24 1011 100 10000 1.5 160 13:22 23.04.2020
4361 Rain 25 1011 94 10000 1.5 140 12:59 23.04.2020
4362 Rain 25 1011 94 10000 1.5 140 12:40 23.04.2020
4363 Rain 25 1011 94 10000 1.5 140 12:21 23.04.2020
4364 Rain 25 1011 94 10000 2.6 180 11:47 23.04.2020
4365 Rain 25 1011 94 10000 2.6 180 11:28 23.04.2020
4366 Rain 25 1011 100 0 1.5 110 10:59 23.04.2020
4367 Clouds 25 1010 100 0 2.6 50 10:40 23.04.2020
4368 Rain 25 1009 100 0 4.6 20 10:20 23.04.2020
4369 Clouds 26 1009 94 10000 2.6 270 09:40 23.04.2020
4370 Rain 28 1008 88 10000 3.1 290 09:19 23.04.2020
4371 Rain 28 1008 88 10000 3.1 290 08:51 23.04.2020
4372 Rain 28 1008 88 10000 3.1 290 08:32 23.04.2020
4373 Rain 29 1008 83 10000 2.6 290 07:58 23.04.2020
4374 Rain 29 1008 83 10000 2.6 290 07:39 23.04.2020
4375 Clouds 29 1008 83 10000 3.6 290 07:21 23.04.2020
4376 Clouds 29 1008 83 10000 3.6 290 06:45 23.04.2020
4377 Rain 29 1008 83 10000 4.1 320 05:54 23.04.2020
4378 Rain 29 1009 83 10000 3.1 320 05:21 23.04.2020
4379 Rain 29 1010 83 10000 2.1 340 03:48 23.04.2020
4380 Rain 30 1011 74 10000 2.6 340 02:23 23.04.2020
4381 Rain 30 1011 79 10000 1.5 50 01:38 23.04.2020
4382 Rain 29 1011 83 10000 2.27 77 00:55 23.04.2020
4383 Rain 29 1011 83 10000 1.36 124 00:27 23.04.2020
4384 Rain 27 1010 88 10000 1.36 124 23:57 22.04.2020
4385 Rain 27 1010 88 10000 1.36 124 23:57 22.04.2020
4386 Rain 27 1010 88 10000 1.36 124 23:38 22.04.2020
4387 Clouds 24 1009 100 10000 1.36 124 23:19 22.04.2020
4388 Clouds 24 1009 100 10000 1.36 124 22:39 22.04.2020
4389 Clouds 24 1009 100 10000 1.36 124 22:20 22.04.2020
4390 Clouds 24 1009 100 10000 1.36 124 21:58 22.04.2020
4391 Clouds 24 1009 100 10000 1.36 124 21:58 22.04.2020
4392 Clouds 24 1009 100 10000 1.36 124 21:40 22.04.2020
4393 Clouds 24 1009 100 10000 1.45 148 21:21 22.04.2020
4394 Clouds 24 1008 100 10000 1.45 148 20:55 22.04.2020
4395 Clouds 24 1008 100 10000 1.45 148 20:37 22.04.2020
4396 Clouds 24 1008 100 10000 1.45 148 20:18 22.04.2020
4397 Clouds 24 1008 100 10000 1.45 148 19:55 22.04.2020
4398 Clouds 24 1008 100 10000 1.45 148 19:36 22.04.2020
4399 Clouds 24 1008 100 10000 1.5 180 19:18 22.04.2020
4400 Clouds 24 1008 100 10000 1.5 180 18:55 22.04.2020
4401 Clouds 24 1008 100 10000 1.5 180 18:37 22.04.2020
4402 Clouds 24 1008 100 10000 1.5 320 18:18 22.04.2020
4403 Clouds 24 1008 100 10000 1.5 320 17:42 22.04.2020
4404 Clouds 24 1009 100 10000 1.5 180 17:23 22.04.2020
4405 Clouds 24 1009 100 10000 1.5 180 16:47 22.04.2020
4406 Clouds 24 1009 100 10000 1.5 180 16:28 22.04.2020
4407 Clouds 24 1010 100 10000 1.5 230 15:58 22.04.2020
4408 Clouds 24 1010 100 10000 1.5 230 15:38 22.04.2020
4409 Clouds 25 1010 94 10000 2.6 230 15:19 22.04.2020
4410 Clouds 25 1010 94 10000 2.6 230 14:55 22.04.2020
4411 Clouds 25 1010 94 10000 2.6 230 14:36 22.04.2020
4412 Clouds 25 1010 94 10000 2.6 230 14:36 22.04.2020
4413 Clouds 25 1010 100 0 2.6 200 14:18 22.04.2020
4414 Clouds 25 1010 100 0 2.6 200 13:43 22.04.2020
4415 Clouds 26 1010 94 10000 1.5 200 13:20 22.04.2020
4416 Clouds 26 1010 94 10000 1.5 200 12:43 22.04.2020
4417 Clouds 26 1009 88 10000 1 110 12:23 22.04.2020
4418 Clouds 26 1009 88 10000 1 110 11:58 22.04.2020
4419 Clouds 26 1009 88 10000 1 110 11:38 22.04.2020
4420 Clouds 27 1008 94 10000 1 160 11:19 22.04.2020
4421 Clouds 27 1008 94 10000 1 160 10:42 22.04.2020
4422 Clouds 27 1008 94 10000 1 160 10:24 22.04.2020
4423 Clouds 28 1008 88 10000 1 180 09:43 22.04.2020
4424 Clouds 28 1008 88 10000 1 180 09:24 22.04.2020
4425 Clouds 29 1007 70 10000 0.2 131 08:59 22.04.2020
4426 Clouds 29 1007 70 10000 0.2 131 08:59 22.04.2020
4427 Clouds 29 1007 70 10000 0.2 131 08:41 22.04.2020
4428 Clouds 29 1007 70 10000 0.2 131 08:41 22.04.2020
4429 Clouds 30 1006 74 10000 2.1 340 08:22 22.04.2020
4430 Clouds 30 1006 74 10000 2.1 340 07:54 22.04.2020
4431 Clouds 30 1006 74 10000 2.1 340 07:33 22.04.2020
4432 Clouds 31 1007 70 10000 2.1 360 06:54 22.04.2020
4433 Clouds 31 1007 70 10000 2.1 360 06:34 22.04.2020
4434 Clouds 31 1008 66 10000 3.1 340 05:39 22.04.2020
4435 Clouds 31 1008 74 10000 4.1 360 04:34 22.04.2020
4436 Clouds 30 1010 70 10000 3.1 360 02:59 22.04.2020
4437 Clouds 31 1011 74 10000 1.27 41 01:55 22.04.2020
4438 Clouds 30 1011 79 10000 1 110 01:28 22.04.2020
4439 Clouds 30 1011 79 10000 1 110 00:59 22.04.2020
4440 Clouds 30 1011 79 10000 1 110 00:59 22.04.2020
4441 Clouds 30 1011 79 10000 1 110 00:41 22.04.2020
4442 Clouds 26 1010 88 10000 2.1 180 00:20 22.04.2020
4443 Clouds 26 1010 88 10000 2.1 180 23:44 21.04.2020
4444 Clouds 25 1009 88 10000 0.65 129 23:20 21.04.2020
4445 Clouds 25 1009 88 10000 0.65 129 22:41 21.04.2020
4446 Clouds 25 1009 88 10000 0.65 129 22:22 21.04.2020
4447 Clouds 24 1008 94 10000 0.65 129 21:59 21.04.2020
4448 Clouds 24 1008 94 10000 1.04 95 21:41 21.04.2020
4449 Clouds 24 1008 94 10000 1.25 169 21:23 21.04.2020
4450 Clouds 24 1008 94 10000 1.53 162 20:57 21.04.2020
4451 Clouds 24 1008 94 10000 1.25 169 20:39 21.04.2020
4452 Clouds 24 1008 94 10000 1.53 162 20:21 21.04.2020
4453 Clouds 24 1008 94 10000 1 160 19:41 21.04.2020
4454 Clouds 24 1008 94 10000 1 160 19:20 21.04.2020
4455 Clouds 24 1008 94 10000 1 160 18:58 21.04.2020
4456 Clouds 24 1008 94 10000 1 160 18:39 21.04.2020
4457 Clouds 24 1009 94 10000 1 180 18:19 21.04.2020
4458 Clouds 24 1009 94 10000 1 180 17:57 21.04.2020
4459 Clouds 24 1009 94 10000 1 180 17:38 21.04.2020
4460 Clouds 24 1010 100 10000 1 180 17:19 21.04.2020
4461 Clouds 24 1010 100 10000 1 180 16:39 21.04.2020
4462 Clouds 25 1011 94 10000 1 180 16:19 21.04.2020
4463 Clouds 25 1011 94 10000 1 180 15:58 21.04.2020
4464 Clouds 25 1011 94 10000 1 180 15:40 21.04.2020
4465 Clouds 25 1011 94 10000 1 180 15:22 21.04.2020
4466 Clouds 25 1011 94 10000 2.1 110 14:58 21.04.2020
4467 Clouds 25 1011 94 10000 2.1 110 14:39 21.04.2020
4468 Clouds 25 1011 94 10000 2.1 110 14:21 21.04.2020
4469 Clouds 25 1011 94 10000 1 200 13:42 21.04.2020
4470 Clouds 25 1011 94 10000 1 200 13:42 21.04.2020
4471 Clouds 25 1011 94 10000 1 200 13:23 21.04.2020
4472 Clouds 25 1011 94 10000 1 180 12:57 21.04.2020
4473 Clouds 25 1011 94 10000 1 180 12:37 21.04.2020
4474 Clouds 25 1009 94 10000 1 160 12:18 21.04.2020
4475 Clouds 25 1009 94 10000 1 160 11:55 21.04.2020
4476 Clouds 25 1009 94 10000 1 160 11:55 21.04.2020
4477 Clouds 25 1009 94 10000 1 160 11:36 21.04.2020
4478 Drizzle 25 1009 100 10000 1 160 11:18 21.04.2020
4479 Drizzle 25 1009 100 10000 1 160 10:56 21.04.2020
4480 Drizzle 25 1009 100 10000 1 160 10:38 21.04.2020
4481 Clouds 26 1008 94 10000 1 200 10:19 21.04.2020
4482 Clouds 26 1008 94 10000 1 200 09:37 21.04.2020
4483 Thunderstorm 27 1008 88 10000 3.6 200 09:19 21.04.2020
4484 Thunderstorm 27 1008 88 10000 3.6 200 08:56 21.04.2020
4485 Thunderstorm 27 1008 88 10000 3.6 200 08:38 21.04.2020
4486 Thunderstorm 29 1008 79 10000 5.1 200 08:18 21.04.2020
4487 Clouds 30 1007 74 10000 2.1 360 07:43 21.04.2020
4488 Clouds 30 1007 74 10000 2.1 360 07:21 21.04.2020
4489 Clouds 31 1007 74 10000 2.6 360 06:44 21.04.2020
4490 Clouds 32 1007 66 10000 3.6 20 06:19 21.04.2020
4491 Clouds 32 1007 66 10000 3.6 20 05:48 21.04.2020
4492 Clouds 30 1010 74 10000 3.1 70 03:48 21.04.2020
4493 Clouds 30 1010 74 10000 3.1 70 03:27 21.04.2020
4494 Clouds 31 1012 70 10000 2.1 140 01:40 21.04.2020
4495 Clouds 31 1012 70 10000 2.1 140 00:52 21.04.2020
4496 Clouds 28 1012 83 10000 1 230 00:31 21.04.2020
4497 Clouds 26 1011 88 10000 2.1 180 23:44 20.04.2020
4498 Clouds 26 1011 88 10000 2.1 180 23:23 20.04.2020
4499 Clouds 24 1011 100 10000 1.5 180 22:57 20.04.2020
4500 Clouds 24 1011 100 10000 1.5 180 22:57 20.04.2020
4501 Clouds 24 1011 100 10000 1.5 180 22:37 20.04.2020
4502 Rain 28 1011 77 0 1.77 136 22:19 20.04.2020
4503 Rain 28 1011 77 0 1.77 136 21:55 20.04.2020
4504 Clouds 24 1009 94 10000 1.77 136 21:37 20.04.2020
4505 Clouds 24 1009 94 10000 1.47 157 21:18 20.04.2020
4506 Clouds 24 1009 94 10000 1.47 157 20:55 20.04.2020
4507 Clouds 24 1009 94 10000 1.47 157 20:37 20.04.2020
4508 Rain 26 1010 79 0 1.47 157 20:18 20.04.2020
4509 Rain 26 1010 79 0 1.47 157 19:41 20.04.2020
4510 Clouds 24 1009 100 10000 1.5 200 19:23 20.04.2020
4511 Clouds 24 1009 100 10000 1.5 200 18:59 20.04.2020
4512 Clouds 24 1009 100 10000 1.5 200 18:41 20.04.2020
4513 Clouds 24 1010 100 10000 1.44 150 18:21 20.04.2020
4514 Clouds 24 1010 100 10000 1.44 150 17:55 20.04.2020
4515 Clouds 24 1010 100 10000 1.44 150 17:36 20.04.2020
4516 Clouds 24 1011 100 10000 1.44 150 17:18 20.04.2020
4517 Clouds 24 1011 100 10000 1.44 150 16:43 20.04.2020
4518 Clouds 24 1011 100 10000 1.44 150 16:21 20.04.2020
4519 Clouds 25 1011 94 10000 1.44 150 15:57 20.04.2020
4520 Clouds 25 1011 94 10000 1.44 150 15:38 20.04.2020
4521 Clouds 25 1011 94 10000 1.95 142 15:20 20.04.2020
4522 Clouds 25 1012 94 10000 1.5 140 14:42 20.04.2020
4523 Clouds 25 1012 100 10000 1 140 14:20 20.04.2020
4524 Clouds 25 1012 100 10000 1 140 13:58 20.04.2020
4525 Clouds 25 1012 100 10000 1 140 13:39 20.04.2020
4526 Clouds 25 1012 100 10000 1 140 13:20 20.04.2020
4527 Clouds 25 1012 100 10000 1 180 12:44 20.04.2020
4528 Clouds 25 1012 100 10000 1 180 12:24 20.04.2020
4529 Clouds 26 1011 88 10000 1 250 11:58 20.04.2020
4530 Clouds 26 1011 88 10000 1 250 11:38 20.04.2020
4531 Clouds 26 1010 88 10000 1 180 11:18 20.04.2020
4532 Clouds 26 1010 88 10000 1 180 10:55 20.04.2020
4533 Clouds 26 1010 88 10000 1 180 10:55 20.04.2020
4534 Clouds 26 1010 88 10000 1 180 10:36 20.04.2020
4535 Clouds 26 1009 88 10000 1 250 10:18 20.04.2020
4536 Clouds 26 1009 88 10000 1 250 09:44 20.04.2020
4537 Clouds 26 1009 88 10000 1 250 09:25 20.04.2020
4538 Clouds 26 1009 88 10000 3.1 90 08:58 20.04.2020
4539 Clouds 26 1009 88 10000 3.1 90 08:39 20.04.2020
4540 Clouds 29 1009 79 10000 2.1 200 08:18 20.04.2020
4541 Thunderstorm 29 1009 79 10000 2.6 200 07:42 20.04.2020
4542 Thunderstorm 29 1009 79 10000 2.6 200 07:24 20.04.2020
4543 Thunderstorm 32 1008 70 10000 3.1 360 06:38 20.04.2020
4544 Clouds 32 1009 70 10000 3.1 20 05:59 20.04.2020
4545 Clouds 32 1009 62 10000 3.1 340 04:51 20.04.2020
4546 Clouds 31 1012 66 10000 12.3 20 02:52 20.04.2020
4547 Clouds 31 1012 66 10000 12.3 20 02:33 20.04.2020
4548 Clouds 30 1012 70 10000 2.1 360 01:30 20.04.2020
4549 Clouds 29 1011 74 10000 2.25 353 00:45 20.04.2020
4550 Clouds 29 1011 74 10000 0.46 246 00:22 20.04.2020
4551 Clouds 27 1011 83 10000 1 230 23:40 19.04.2020
4552 Clouds 27 1011 83 10000 1 230 23:21 19.04.2020
4553 Clouds 24 1011 94 10000 1.5 200 22:56 19.04.2020
4554 Clouds 24 1011 94 10000 1.5 200 22:37 19.04.2020
4555 Clouds 24 1010 94 10000 1.5 180 22:19 19.04.2020
4556 Clouds 24 1010 94 10000 1.5 180 21:42 19.04.2020
4557 Clouds 24 1010 94 10000 1.5 180 21:23 19.04.2020
4558 Clouds 24 1010 94 10000 1.5 160 20:58 19.04.2020
4559 Clouds 24 1010 94 10000 1.5 160 20:39 19.04.2020
4560 Clouds 24 1010 94 10000 1.5 160 20:20 19.04.2020
4561 Clouds 25 1009 100 10000 1.15 156 19:56 19.04.2020
4562 Clouds 25 1009 100 10000 1.15 156 19:38 19.04.2020
4563 Clouds 25 1009 100 10000 1.15 156 19:19 19.04.2020
4564 Clouds 25 1009 100 10000 1.15 156 18:55 19.04.2020
4565 Clouds 25 1009 100 10000 1.15 156 18:36 19.04.2020
4566 Clouds 25 1010 100 10000 0.61 122 18:18 19.04.2020
4567 Clouds 25 1010 100 10000 0.61 122 17:54 19.04.2020
4568 Clouds 25 1010 100 10000 0.61 122 17:36 19.04.2020
4569 Clouds 25 1010 100 10000 0.61 122 17:36 19.04.2020
4570 Clouds 25 1011 100 10000 1.5 200 17:18 19.04.2020
4571 Clouds 25 1011 100 10000 1.5 200 16:39 19.04.2020
4572 Clouds 25 1011 100 10000 1.5 200 16:21 19.04.2020
4573 Clouds 25 1011 100 10000 1.5 230 15:57 19.04.2020
4574 Clouds 25 1011 100 10000 1.5 230 15:39 19.04.2020
4575 Clouds 26 1011 94 10000 1.5 230 15:18 19.04.2020
4576 Clouds 26 1011 94 10000 1.5 230 14:39 19.04.2020
4577 Clouds 26 1011 94 10000 1.5 230 14:20 19.04.2020
4578 Clouds 26 1011 94 10000 0.97 103 13:56 19.04.2020
4579 Clouds 26 1011 94 10000 0.97 103 13:36 19.04.2020
4580 Rain 27 1011 94 10000 1.5 160 13:18 19.04.2020
4581 Rain 27 1011 94 10000 1.5 160 12:43 19.04.2020
4582 Rain 27 1011 94 10000 1.5 160 12:24 19.04.2020
4583 Rain 28 1011 88 10000 3.1 90 11:39 19.04.2020
4584 Clouds 28 1011 88 10000 1.09 106 11:20 19.04.2020
4585 Clouds 28 1011 88 10000 1.09 106 10:59 19.04.2020
4586 Clouds 28 1011 88 10000 1.09 106 10:41 19.04.2020
4587 Clouds 28 1011 88 10000 1.09 106 10:41 19.04.2020
4588 Rain 29 1010 79 10000 1 50 10:20 19.04.2020
4589 Rain 29 1010 79 10000 1 50 09:51 19.04.2020
4590 Rain 29 1010 79 10000 1 50 09:32 19.04.2020
4591 Rain 30 1009 70 10000 1.5 320 08:59 19.04.2020
4592 Rain 30 1009 70 10000 1.5 320 08:38 19.04.2020
4593 Clouds 30 1008 74 10000 3.1 340 08:18 19.04.2020
4594 Clouds 30 1008 74 10000 3.1 340 07:44 19.04.2020
4595 Clouds 30 1008 74 10000 3.1 340 07:25 19.04.2020
4596 Clouds 30 1008 74 10000 3.1 340 07:25 19.04.2020
4597 Clouds 31 1008 70 10000 4.1 320 06:32 19.04.2020
4598 Clouds 31 1008 70 10000 3.1 340 05:58 19.04.2020
4599 Clouds 31 1009 70 10000 2.1 360 04:54 19.04.2020
4600 Rain 31 1012 66 10000 1 50 03:19 19.04.2020
4601 Rain 31 1012 66 10000 1 50 02:22 19.04.2020
4602 Clouds 30 1013 74 10000 1.5 90 01:39 19.04.2020
4603 Clouds 28 1012 78 10000 1 140 00:50 19.04.2020
4604 Clouds 28 1012 78 10000 1 140 00:26 19.04.2020
4605 Clouds 24 1011 94 10000 1 140 23:59 18.04.2020
4606 Clouds 24 1011 94 10000 1 140 23:39 18.04.2020
4607 Clouds 24 1011 94 10000 1 140 23:39 18.04.2020
4608 Clouds 23 1011 100 10000 1.5 140 23:19 18.04.2020
4609 Clouds 23 1011 100 10000 1.5 140 22:42 18.04.2020
4610 Clouds 23 1010 100 10000 1 180 22:22 18.04.2020
4611 Clouds 23 1010 100 10000 1 180 21:57 18.04.2020
4612 Clouds 23 1010 100 10000 1 180 21:38 18.04.2020
4613 Clouds 23 1009 100 10000 1.5 160 21:20 18.04.2020
4614 Clouds 23 1009 100 10000 1.5 160 20:42 18.04.2020
4615 Clouds 23 1009 100 10000 1 160 20:22 18.04.2020
4616 Clouds 23 1009 100 10000 1 160 19:59 18.04.2020
4617 Rain 25 1010 78 0 1.81 131 19:38 18.04.2020
4618 Rain 25 1010 78 0 1.81 131 19:20 18.04.2020
4619 Clouds 24 1009 100 10000 1.81 131 18:38 18.04.2020
4620 Clouds 24 1009 100 10000 1.81 131 18:38 18.04.2020
4621 Clouds 24 1009 100 10000 1.2 104 18:20 18.04.2020
4622 Clouds 24 1009 100 10000 1.2 104 17:45 18.04.2020
4623 Clouds 24 1009 100 10000 1.2 104 17:22 18.04.2020
4624 Clouds 25 1009 79 0 1.2 104 16:58 18.04.2020
4625 Clouds 25 1009 79 0 1.2 104 16:39 18.04.2020
4626 Clouds 25 1009 79 0 1.2 104 16:21 18.04.2020
4627 Clouds 25 1009 79 0 1.2 104 15:40 18.04.2020
4628 Rain 25 1012 78 0 2.04 144 15:22 18.04.2020
4629 Clouds 25 1011 100 10000 2.04 144 14:48 18.04.2020
4630 Clouds 25 1011 100 10000 2.04 144 14:29 18.04.2020
4631 Clouds 25 1011 100 10000 1.7 145 13:59 18.04.2020
4632 Clouds 25 1011 100 10000 1.7 145 13:41 18.04.2020
4633 Clouds 25 1011 100 10000 1.7 145 13:20 18.04.2020
4634 Clouds 25 1011 100 10000 1.7 145 12:42 18.04.2020
4635 Clouds 25 1011 100 10000 1.7 145 12:42 18.04.2020
4636 Clouds 25 1011 100 10000 2.69 161 12:24 18.04.2020
4637 Clouds 25 1010 100 10000 1.5 180 11:57 18.04.2020
4638 Clouds 25 1010 100 10000 1.5 180 11:38 18.04.2020
4639 Clouds 25 1010 100 10000 1.5 160 11:19 18.04.2020
4640 Clouds 25 1010 100 10000 1.5 160 10:42 18.04.2020
4641 Clouds 25 1010 100 10000 1.5 160 10:21 18.04.2020
4642 Clouds 26 1009 94 10000 2.69 161 09:58 18.04.2020
4643 Clouds 26 1009 94 10000 2.55 158 09:39 18.04.2020
4644 Clouds 26 1009 94 10000 1.6 182 09:20 18.04.2020
4645 Clouds 27 1009 83 10000 1.6 182 08:42 18.04.2020
4646 Clouds 27 1009 94 10000 2.6 110 08:21 18.04.2020
4647 Clouds 27 1009 94 10000 2.6 110 07:42 18.04.2020
4648 Clouds 27 1009 94 10000 2.6 110 07:20 18.04.2020
4649 Clouds 27 1009 88 10000 1.5 140 06:39 18.04.2020
4650 Drizzle 26 1010 88 10000 1.5 320 05:48 18.04.2020
4651 Rain 26 1011 94 10000 2.6 290 04:54 18.04.2020
4652 Rain 26 1011 94 10000 2.6 290 04:29 18.04.2020
4653 Rain 25 1013 100 0 2.1 270 02:58 18.04.2020
4654 Rain 25 1013 100 0 2.1 270 02:40 18.04.2020
4655 Clouds 25 1013 100 0 1.5 340 02:19 18.04.2020
4656 Rain 26 1013 100 0 1.5 20 01:36 18.04.2020
4657 Rain 25 1012 100 10000 1.5 180 00:51 18.04.2020
4658 Rain 25 1012 100 10000 1.5 180 00:24 18.04.2020
4659 Clouds 25 1012 100 10000 1 160 23:57 17.04.2020
4660 Clouds 25 1012 100 10000 1 160 23:38 17.04.2020
4661 Drizzle 25 1011 94 10000 1 110 23:19 17.04.2020
4662 Drizzle 25 1011 94 10000 1 110 22:56 17.04.2020
4663 Drizzle 25 1011 94 10000 1 110 22:37 17.04.2020
4664 Drizzle 25 1010 94 10000 0.78 217 22:19 17.04.2020
4665 Drizzle 25 1010 94 10000 0.78 217 21:43 17.04.2020
4666 Drizzle 25 1010 94 10000 0.97 196 21:21 17.04.2020
4667 Clouds 25 1010 94 10000 2.1 200 20:57 17.04.2020
4668 Clouds 25 1010 94 10000 2.1 200 20:38 17.04.2020
4669 Rain 26 1010 75 0 0.97 196 20:19 17.04.2020
4670 Rain 26 1010 75 0 0.97 196 19:57 17.04.2020
4671 Drizzle 25 1010 94 10000 1 200 19:39 17.04.2020
4672 Drizzle 25 1010 94 10000 1 200 19:39 17.04.2020
4673 Drizzle 25 1010 94 10000 1 200 19:21 17.04.2020
4674 Drizzle 25 1010 94 10000 1 200 18:44 17.04.2020
4675 Drizzle 25 1010 94 10000 1 200 18:23 17.04.2020
4676 Clouds 25 1010 94 10000 1 200 18:23 17.04.2020
4677 Clouds 25 1010 94 10000 1 200 17:55 17.04.2020
4678 Clouds 25 1010 94 10000 1 200 17:36 17.04.2020
4679 Rain 26 1010 75 0 1.06 198 17:18 17.04.2020
4680 Rain 26 1010 75 0 1.06 198 16:41 17.04.2020
4681 Rain 26 1010 75 0 1.06 198 16:41 17.04.2020
4682 Clouds 25 1011 94 10000 1.06 198 16:22 17.04.2020
4683 Clouds 25 1011 94 10000 1.06 198 15:41 17.04.2020
4684 Clouds 25 1011 94 10000 0.56 242 15:23 17.04.2020
4685 Clouds 25 1013 94 10000 1 180 14:56 17.04.2020
4686 Clouds 25 1013 94 10000 1 180 14:37 17.04.2020
4687 Clouds 25 1013 94 10000 1 200 14:19 17.04.2020
4688 Clouds 25 1013 94 10000 1 200 13:40 17.04.2020
4689 Clouds 25 1013 94 10000 1 200 13:21 17.04.2020
4690 Clouds 26 1012 88 10000 2.1 160 12:58 17.04.2020
4691 Clouds 26 1012 88 10000 2.1 160 12:40 17.04.2020
4692 Clouds 26 1012 88 10000 2.1 160 12:21 17.04.2020
4693 Rain 26 1011 78 0 0.86 281 11:40 17.04.2020
4694 Clouds 26 1011 88 10000 1 180 11:19 17.04.2020
4695 Clouds 26 1011 88 10000 1 180 10:44 17.04.2020
4696 Clouds 26 1011 88 10000 1 180 10:23 17.04.2020
4697 Clouds 27 1010 88 10000 3.1 160 09:57 17.04.2020
4698 Clouds 27 1010 88 10000 3.1 160 09:39 17.04.2020
4699 Clouds 29 1009 79 10000 3.1 180 09:19 17.04.2020
4700 Clouds 29 1009 79 10000 3.1 180 08:48 17.04.2020
4701 Clouds 29 1009 79 10000 3.1 180 08:27 17.04.2020
4702 Clouds 30 1009 74 10000 3.1 20 07:58 17.04.2020
4703 Clouds 30 1009 74 10000 3.1 20 07:39 17.04.2020
4704 Clouds 31 1008 70 10000 4.1 50 07:19 17.04.2020
4705 Clouds 31 1008 70 10000 4.1 50 06:44 17.04.2020
4706 Clouds 32 1009 66 10000 4.1 70 05:58 17.04.2020
4707 Clouds 31 1011 74 10000 3.1 20 03:27 17.04.2020
4708 Clouds 31 1012 70 10000 3.1 340 02:52 17.04.2020
4709 Clouds 29 1013 83 10000 2.1 340 01:41 17.04.2020
4710 Clouds 28 1013 83 10000 1 90 01:19 17.04.2020
4711 Clouds 26 1012 88 10000 1.5 140 00:21 17.04.2020
4712 Clouds 26 1012 88 10000 1.5 140 23:55 16.04.2020
4713 Clouds 26 1012 88 10000 1.5 140 23:36 16.04.2020
4714 Drizzle 25 1012 94 10000 1.5 180 23:18 16.04.2020
4715 Drizzle 25 1012 94 10000 1.5 180 22:39 16.04.2020
4716 Drizzle 25 1012 94 10000 1.5 180 22:21 16.04.2020
4717 Clouds 24 1011 100 10000 1.5 160 21:57 16.04.2020
4718 Clouds 24 1011 100 10000 1.5 160 21:39 16.04.2020
4719 Clouds 24 1010 100 10000 1.76 48 21:19 16.04.2020
4720 Clouds 24 1010 100 10000 1.76 48 20:42 16.04.2020
4721 Clouds 25 1010 94 10000 3.1 160 20:22 16.04.2020
4722 Clouds 25 1010 94 10000 3.1 160 19:58 16.04.2020
4723 Clouds 25 1010 94 10000 3.1 160 19:39 16.04.2020
4724 Clouds 25 1011 100 10000 2.6 180 19:19 16.04.2020
4725 Clouds 25 1011 100 10000 2.6 180 18:46 16.04.2020
4726 Clouds 25 1011 100 10000 4.1 20 18:27 16.04.2020
4727 Clouds 25 1011 100 10000 4.1 20 18:00 16.04.2020
4728 Clouds 25 1011 100 10000 4.1 20 17:41 16.04.2020
4729 Clouds 25 1011 100 10000 4.1 20 17:21 16.04.2020
4730 Clouds 25 1011 100 10000 1.78 96 16:45 16.04.2020
4731 Clouds 25 1011 100 10000 1.78 96 16:27 16.04.2020
4732 Clouds 26 1012 94 10000 1 160 15:59 16.04.2020
4733 Clouds 26 1012 94 10000 1 160 15:39 16.04.2020
4734 Rain 26 1012 94 10000 2.1 140 15:19 16.04.2020
4735 Rain 26 1012 94 10000 2.1 140 14:55 16.04.2020
4736 Rain 26 1012 94 10000 2.1 140 14:37 16.04.2020
4737 Clouds 26 1012 100 10000 2.1 110 14:18 16.04.2020
4738 Clouds 26 1012 100 10000 2.1 110 13:41 16.04.2020
4739 Drizzle 27 1012 94 10000 3.1 90 13:23 16.04.2020
4740 Drizzle 27 1012 94 10000 3.1 90 12:58 16.04.2020
4741 Drizzle 27 1012 94 10000 3.1 90 12:39 16.04.2020
4742 Clouds 27 1011 88 10000 3.1 70 12:20 16.04.2020
4743 Clouds 27 1011 88 10000 3.1 70 12:20 16.04.2020
4744 Clouds 27 1011 88 10000 3.1 70 11:59 16.04.2020
4745 Clouds 27 1011 88 10000 3.1 70 11:59 16.04.2020
4746 Clouds 27 1011 88 10000 3.1 70 11:40 16.04.2020
4747 Clouds 27 1011 88 10000 3.1 70 11:21 16.04.2020
4748 Clouds 28 1010 83 10000 2.1 110 10:55 16.04.2020
4749 Clouds 28 1010 83 10000 2.1 110 10:37 16.04.2020
4750 Clouds 29 1010 79 10000 2.6 70 10:18 16.04.2020
4751 Clouds 29 1010 79 10000 2.6 70 09:39 16.04.2020
4752 Clouds 29 1010 79 10000 2.6 70 09:20 16.04.2020
4753 Clouds 29 1010 79 10000 2.6 70 09:20 16.04.2020
4754 Clouds 30 1009 74 10000 2.1 50 08:56 16.04.2020
4755 Clouds 30 1009 74 10000 2.1 50 08:37 16.04.2020
4756 Clouds 30 1008 74 10000 3.1 50 08:19 16.04.2020
4757 Clouds 30 1008 74 10000 3.1 50 07:43 16.04.2020
4758 Clouds 30 1008 70 10000 3.1 50 07:21 16.04.2020
4759 Clouds 30 1008 70 10000 3.1 50 06:41 16.04.2020
4760 Clouds 31 1009 62 10000 3.1 50 06:23 16.04.2020
4761 Clouds 32 1009 70 10000 4.1 50 04:53 16.04.2020
4762 Clouds 32 1010 70 10000 4.1 70 03:28 16.04.2020
4763 Clouds 32 1011 70 10000 3.1 110 02:59 16.04.2020
4764 Clouds 32 1011 70 10000 3.1 110 02:38 16.04.2020
4765 Clouds 29 1012 79 10000 3.1 110 01:29 16.04.2020
4766 Clouds 28 1012 83 10000 2.6 160 00:54 16.04.2020
4767 Clouds 26 1012 94 10000 1.5 130 00:21 16.04.2020
4768 Clouds 26 1012 94 10000 1.5 130 23:55 15.04.2020
4769 Clouds 26 1012 94 10000 1.5 130 23:36 15.04.2020
4770 Clouds 25 1011 94 10000 1.5 130 23:18 15.04.2020
4771 Clouds 24 1011 100 10000 1 140 22:38 15.04.2020
4772 Clouds 24 1010 100 10000 1 140 22:20 15.04.2020
4773 Clouds 24 1010 100 10000 1 140 21:55 15.04.2020
4774 Clouds 24 1010 100 10000 1 140 21:37 15.04.2020
4775 Clouds 24 1010 100 10000 1.5 140 21:18 15.04.2020
4776 Clouds 24 1010 100 10000 1.5 140 20:54 15.04.2020
4777 Clouds 24 1010 100 10000 1.5 140 20:36 15.04.2020
4778 Clouds 24 1009 100 10000 1.5 160 20:18 15.04.2020
4779 Clouds 24 1009 100 10000 1.5 160 19:40 15.04.2020
4780 Clouds 24 1009 100 10000 1.5 160 19:20 15.04.2020
4781 Clouds 24 1009 100 10000 1.5 140 18:41 15.04.2020
4782 Clouds 24 1010 100 10000 1.5 160 18:22 15.04.2020
4783 Clouds 24 1010 100 10000 1.5 160 17:58 15.04.2020
4784 Clouds 24 1010 100 10000 1.5 160 17:58 15.04.2020
4785 Clouds 24 1010 100 10000 1.5 160 17:39 15.04.2020
4786 Clouds 25 1010 100 10000 1.5 160 17:20 15.04.2020
4787 Clouds 25 1010 100 10000 1.5 160 16:56 15.04.2020
4788 Clouds 25 1010 100 10000 1.5 160 16:37 15.04.2020
4789 Clouds 25 1011 100 10000 0.84 161 16:19 15.04.2020
4790 Clouds 25 1011 100 10000 0.84 161 15:56 15.04.2020
4791 Clouds 25 1011 100 10000 0.84 161 15:37 15.04.2020
4792 Clouds 25 1012 100 10000 0.73 190 15:19 15.04.2020
4793 Clouds 25 1012 100 10000 0.73 190 14:55 15.04.2020
4794 Clouds 25 1012 100 10000 1.68 126 14:37 15.04.2020
4795 Drizzle 26 1012 94 10000 1.5 90 14:18 15.04.2020
4796 Drizzle 26 1012 94 10000 1.5 90 13:41 15.04.2020
4797 Clouds 26 1012 94 10000 1.5 140 13:21 15.04.2020
4798 Clouds 26 1012 94 10000 1.5 140 12:59 15.04.2020
4799 Clouds 26 1012 94 10000 1.5 140 12:41 15.04.2020
4800 Clouds 26 1011 94 10000 2.1 50 12:23 15.04.2020
4801 Clouds 26 1011 94 10000 2.1 50 11:58 15.04.2020
4802 Clouds 26 1011 94 10000 2.1 50 11:38 15.04.2020
4803 Rain 26 1011 100 10000 1.54 117 11:20 15.04.2020
4804 Rain 26 1011 100 10000 1.54 117 11:20 15.04.2020
4805 Rain 26 1011 100 10000 1.54 117 10:38 15.04.2020
4806 Rain 26 1010 100 10000 2.1 250 10:20 15.04.2020
4807 Rain 26 1010 100 10000 2.1 250 09:57 15.04.2020
4808 Rain 26 1010 100 10000 2.1 250 09:38 15.04.2020
4809 Rain 26 1010 100 10000 2.1 250 09:20 15.04.2020
4810 Rain 25 1009 100 10000 2.1 140 08:55 15.04.2020
4811 Rain 25 1009 100 10000 2.1 140 08:36 15.04.2020
4812 Clouds 26 1009 100 10000 3.1 90 08:18 15.04.2020
4813 Clouds 26 1009 100 10000 3.1 90 07:46 15.04.2020
4814 Clouds 26 1009 100 10000 3.1 90 07:27 15.04.2020
4815 Thunderstorm 25 1009 100 0 2.1 360 06:29 15.04.2020
4816 Rain 31 1009 74 10000 4.1 360 05:49 15.04.2020
4817 Clouds 31 1009 70 10000 3.1 50 04:48 15.04.2020
4818 Clouds 31 1009 70 10000 3.1 50 04:22 15.04.2020
4819 Clouds 32 1010 66 10000 3.1 20 03:22 15.04.2020
4820 Clouds 31 1011 66 10000 2.6 50 02:49 15.04.2020
4821 Clouds 31 1012 66 10000 1.5 180 01:52 15.04.2020
4822 Clouds 28 1012 83 10000 1.5 180 01:25 15.04.2020
4823 Clouds 28 1012 83 10000 1.5 180 00:49 15.04.2020
4824 Clouds 28 1012 83 10000 1.5 180 00:27 15.04.2020
4825 Clouds 25 1012 88 10000 1 230 23:56 14.04.2020
4826 Clouds 25 1012 88 10000 1 230 23:38 14.04.2020
4827 Clouds 23 1012 100 10000 1 180 23:20 14.04.2020
4828 Clouds 23 1012 100 10000 1 180 22:56 14.04.2020
4829 Clouds 23 1012 100 10000 1 180 22:38 14.04.2020
4830 Clouds 23 1011 94 10000 2.1 160 22:20 14.04.2020
4831 Clouds 23 1011 94 10000 2.1 160 22:20 14.04.2020
4832 Clouds 23 1011 94 10000 2.1 160 21:56 14.04.2020
4833 Clouds 23 1011 94 10000 2.1 160 21:38 14.04.2020
4834 Clouds 23 1010 94 10000 2.1 230 21:19 14.04.2020
4835 Clouds 23 1010 94 10000 2.1 230 20:55 14.04.2020
4836 Clouds 23 1010 94 10000 2.1 230 20:36 14.04.2020
4837 Clouds 23 1010 94 10000 2.1 230 20:36 14.04.2020
4838 Clouds 23 1010 100 10000 2.1 200 20:18 14.04.2020
4839 Clouds 23 1010 100 10000 2.1 200 19:41 14.04.2020
4840 Clouds 23 1010 100 10000 2.1 200 19:41 14.04.2020
4841 Clouds 26 1010 79 0 1.61 117 19:22 14.04.2020
4842 Clouds 26 1010 79 0 1.62 141 18:57 14.04.2020
4843 Clouds 23 1010 100 10000 1 140 18:39 14.04.2020
4844 Clouds 23 1010 100 10000 1 140 18:21 14.04.2020
4845 Clouds 23 1010 100 10000 1 140 17:58 14.04.2020
4846 Clouds 23 1010 100 10000 1 140 17:38 14.04.2020
4847 Clouds 23 1010 100 10000 1 140 17:19 14.04.2020
4848 Clouds 23 1010 100 10000 1 140 17:19 14.04.2020
4849 Clouds 23 1010 100 10000 1 140 17:19 14.04.2020
4850 Clouds 24 1010 94 10000 1 200 16:55 14.04.2020
4851 Clouds 24 1010 94 10000 1 200 16:36 14.04.2020
4852 Clouds 24 1011 94 10000 1 140 16:18 14.04.2020
4853 Clouds 24 1011 94 10000 1 140 16:18 14.04.2020
4854 Clouds 24 1011 94 10000 1 140 15:41 14.04.2020
4855 Clouds 24 1011 94 10000 1 140 15:23 14.04.2020
4856 Clouds 24 1011 94 10000 1 200 14:59 14.04.2020
4857 Clouds 24 1011 94 10000 1 200 14:40 14.04.2020
4858 Clouds 25 1011 88 10000 1 200 14:22 14.04.2020
4859 Clouds 25 1011 88 10000 1 200 13:57 14.04.2020
4860 Clouds 25 1011 88 10000 1 200 13:39 14.04.2020
4861 Clouds 25 1012 100 10000 1 200 13:20 14.04.2020
4862 Clouds 25 1012 100 10000 1 200 12:42 14.04.2020
4863 Clouds 25 1012 94 10000 2.1 200 12:21 14.04.2020
4864 Clouds 25 1012 94 10000 2.1 200 11:55 14.04.2020
4865 Clouds 25 1012 94 10000 2.1 200 11:37 14.04.2020
4866 Clouds 26 1011 88 10000 1.9 185 11:18 14.04.2020
4867 Clouds 26 1011 88 10000 1.9 185 10:44 14.04.2020
4868 Clouds 26 1011 88 10000 1.9 185 10:24 14.04.2020
4869 Clouds 28 1010 74 10000 1.9 185 09:55 14.04.2020
4870 Clouds 28 1010 74 10000 1.9 185 09:37 14.04.2020
4871 Rain 28 1010 74 10000 1.5 180 09:18 14.04.2020
4872 Rain 28 1010 74 10000 1.5 180 08:41 14.04.2020
4873 Rain 28 1010 74 10000 1.5 180 08:22 14.04.2020
4874 Clouds 29 1011 74 10000 6.2 200 07:54 14.04.2020
4875 Clouds 29 1011 74 10000 6.2 200 07:30 14.04.2020
4876 Clouds 29 1011 74 10000 6.2 200 07:30 14.04.2020
4877 Thunderstorm 32 1010 70 10000 7.2 50 06:50 14.04.2020
4878 Thunderstorm 32 1010 70 10000 5.7 50 06:24 14.04.2020
4879 Clouds 32 1012 70 10000 4.1 20 03:52 14.04.2020
4880 Clouds 32 1013 66 10000 3.6 50 02:56 14.04.2020
4881 Clouds 32 1013 66 10000 2.15 58 01:46 14.04.2020
4882 Clouds 32 1013 66 10000 2.15 58 01:24 14.04.2020
4883 Clouds 30 1013 74 10000 2.15 58 00:39 14.04.2020
4884 Clouds 27 1013 88 10000 1 180 00:19 14.04.2020
4885 Clouds 27 1013 88 10000 1 180 23:44 13.04.2020
4886 Clouds 27 1013 88 10000 1 180 23:25 13.04.2020
4887 Clouds 24 1012 94 10000 1.2 132 22:58 13.04.2020
4888 Clouds 24 1012 94 10000 1.2 132 22:40 13.04.2020
4889 Clouds 24 1012 94 10000 1.2 132 22:22 13.04.2020
4890 Clouds 24 1012 94 10000 1.2 132 21:55 13.04.2020
4891 Clouds 24 1012 94 10000 1.2 132 21:37 13.04.2020
4892 Clouds 24 1011 94 10000 1 160 21:18 13.04.2020
4893 Clouds 24 1011 94 10000 1 160 20:41 13.04.2020
4894 Clouds 25 1011 94 10000 1 180 20:20 13.04.2020
4895 Clouds 25 1011 94 10000 1 180 19:59 13.04.2020
4896 Clouds 25 1011 94 10000 1 180 19:38 13.04.2020
4897 Clouds 24 1011 100 10000 1 200 19:19 13.04.2020
4898 Clouds 24 1011 100 10000 1 200 18:58 13.04.2020
4899 Clouds 24 1011 100 10000 1 200 18:38 13.04.2020
4900 Clouds 25 1012 94 10000 1 140 18:20 13.04.2020
4901 Clouds 25 1012 94 10000 1 140 17:58 13.04.2020
4902 Clouds 25 1012 94 10000 1 140 17:37 13.04.2020
4903 Rain 26 1010 76 0 1.84 146 17:19 13.04.2020
4904 Rain 26 1010 76 0 1.84 146 16:58 13.04.2020
4905 Rain 26 1010 76 0 1.84 146 16:38 13.04.2020
4906 Clouds 25 1013 100 10000 1 230 16:19 13.04.2020
4907 Clouds 25 1013 100 10000 1 230 15:56 13.04.2020
4908 Clouds 25 1013 100 10000 1 230 15:37 13.04.2020
4909 Clouds 26 1013 94 10000 1 160 15:18 13.04.2020
4910 Clouds 26 1013 94 10000 1 160 14:41 13.04.2020
4911 Clouds 26 1013 94 10000 1 160 14:22 13.04.2020
4912 Clouds 27 1013 77 0 1.58 148 13:56 13.04.2020
4913 Rain 27 1013 77 0 1.61 151 13:38 13.04.2020
4914 Rain 27 1013 77 0 1.61 151 13:20 13.04.2020
4915 Rain 27 1013 77 0 1.61 151 12:58 13.04.2020
4916 Rain 27 1013 77 0 1.61 151 12:40 13.04.2020
4917 Clouds 27 1012 94 10000 1.2 80 12:20 13.04.2020
4918 Clouds 27 1012 94 10000 1.2 80 11:58 13.04.2020
4919 Clouds 27 1012 94 10000 1.2 80 11:39 13.04.2020
4920 Clouds 30 1011 74 0 1.2 80 11:18 13.04.2020
4921 Clouds 30 1011 74 0 1.2 80 10:55 13.04.2020
4922 Clouds 30 1011 74 0 1.2 80 10:36 13.04.2020
4923 Rain 27 1011 79 0 1.2 80 10:18 13.04.2020
4924 Rain 27 1011 79 0 1.2 80 09:44 13.04.2020
4925 Clouds 31 1009 70 10000 1 320 09:25 13.04.2020
4926 Clouds 31 1009 74 10000 2.1 340 08:45 13.04.2020
4927 Clouds 31 1009 74 10000 2.1 340 08:27 13.04.2020
4928 Clouds 31 1009 74 10000 2.1 340 08:27 13.04.2020
4929 Clouds 31 1009 74 10000 2.1 340 07:57 13.04.2020
4930 Clouds 30 1009 79 10000 3.1 360 07:38 13.04.2020
4931 Rain 30 1010 68 0 1.82 23 07:18 13.04.2020
4932 Clouds 31 1009 70 10000 3.1 340 06:44 13.04.2020
4933 Clouds 32 1009 62 10000 3.1 340 05:52 13.04.2020
4934 Clouds 32 1010 66 10000 3.1 360 05:19 13.04.2020
4935 Clouds 32 1010 66 10000 3.1 360 04:31 13.04.2020
4936 Clouds 32 1010 66 10000 3.1 360 04:31 13.04.2020
4937 Clouds 32 1011 66 10000 3.1 50 03:55 13.04.2020
4938 Clouds 32 1011 66 10000 3.1 50 03:34 13.04.2020
4939 Clouds 32 1012 62 10000 3.1 70 02:41 13.04.2020
4940 Clouds 31 1012 70 10000 3.1 50 01:46 13.04.2020
4941 Clouds 31 1012 70 10000 3.1 50 01:27 13.04.2020
4942 Clouds 30 1012 74 10000 3.1 110 00:48 13.04.2020
4943 Clouds 26 1012 88 10000 1.5 110 00:24 13.04.2020
4944 Clouds 26 1012 88 10000 1.5 110 23:56 12.04.2020
4945 Clouds 26 1012 88 10000 1.5 110 23:37 12.04.2020
4946 Clouds 24 1011 100 10000 1 160 23:18 12.04.2020
4947 Clouds 24 1011 100 10000 1 160 22:41 12.04.2020
4948 Clouds 23 1010 100 10000 1.28 89 22:19 12.04.2020
4949 Clouds 23 1010 100 10000 1.28 89 21:59 12.04.2020
4950 Clouds 23 1010 100 10000 1.28 89 21:37 12.04.2020
4951 Clouds 23 1010 100 10000 1.08 126 21:18 12.04.2020
4952 Clouds 23 1010 100 10000 1.08 126 20:42 12.04.2020
4953 Clouds 23 1010 100 10000 1.08 126 20:23 12.04.2020
4954 Clouds 24 1010 100 10000 1.08 126 19:58 12.04.2020
4955 Clouds 24 1010 100 10000 1.08 126 19:39 12.04.2020
4956 Clouds 24 1010 100 10000 1.08 126 19:19 12.04.2020
4957 Clouds 24 1010 100 10000 1.08 126 18:41 12.04.2020
4958 Clouds 24 1011 100 10000 1.5 160 18:23 12.04.2020
4959 Clouds 24 1011 100 10000 1.5 160 18:00 12.04.2020
4960 Clouds 24 1011 100 10000 1.5 160 17:41 12.04.2020
4961 Clouds 24 1011 100 10000 1.5 160 17:23 12.04.2020
4962 Clouds 25 1011 94 10000 1 160 16:58 12.04.2020
4963 Clouds 25 1011 94 10000 1 160 16:39 12.04.2020
4964 Clouds 25 1012 100 10000 1 140 16:20 12.04.2020
4965 Clouds 25 1012 100 10000 1 140 15:49 12.04.2020
4966 Clouds 25 1012 100 10000 1 140 15:30 12.04.2020
4967 Clouds 26 1012 94 10000 1 180 14:55 12.04.2020
4968 Clouds 26 1012 94 10000 1 180 14:36 12.04.2020
4969 Clouds 26 1012 94 10000 1 180 14:18 12.04.2020
4970 Clouds 26 1012 94 10000 1 180 13:42 12.04.2020
4971 Clouds 26 1012 94 10000 1 180 13:23 12.04.2020
4972 Clouds 27 1012 94 10000 1 160 12:55 12.04.2020
4973 Clouds 27 1012 94 10000 1 160 12:37 12.04.2020
4974 Clouds 27 1011 94 10000 0.81 80 12:18 12.04.2020
4975 Clouds 27 1011 94 10000 0.81 80 11:42 12.04.2020
4976 Clouds 27 1011 94 10000 0.81 80 11:22 12.04.2020
4977 Clouds 27 1010 83 10000 0.81 80 10:58 12.04.2020
4978 Clouds 27 1010 83 10000 0.81 80 10:40 12.04.2020
4979 Clouds 27 1010 83 10000 0.81 80 10:21 12.04.2020
4980 Clouds 29 1009 74 10000 0.81 80 09:59 12.04.2020
4981 Clouds 29 1009 74 10000 0.81 80 09:39 12.04.2020
4982 Clouds 29 1009 74 10000 1.61 33 09:21 12.04.2020
4983 Clouds 30 1009 70 10000 1 20 08:51 12.04.2020
4984 Clouds 30 1009 70 10000 1 20 08:33 12.04.2020
4985 Clouds 29 1008 79 10000 2.1 20 07:57 12.04.2020
4986 Clouds 29 1008 79 10000 2.1 20 07:39 12.04.2020
4987 Clouds 30 1009 74 10000 2.1 50 07:18 12.04.2020
4988 Clouds 30 1009 74 10000 2.1 50 06:32 12.04.2020
4989 Clouds 29 1009 79 10000 1 140 05:49 12.04.2020
4990 Clouds 29 1009 79 10000 1 140 05:27 12.04.2020
4991 Clouds 31 1010 70 10000 3.1 360 03:34 12.04.2020
4992 Clouds 31 1011 70 10000 1.5 70 02:54 12.04.2020
4993 Clouds 31 1011 70 10000 1.5 70 02:33 12.04.2020
4994 Clouds 30 1011 74 10000 4.1 110 01:34 12.04.2020
4995 Clouds 29 1011 79 10000 2.1 90 00:57 12.04.2020
4996 Clouds 29 1011 79 10000 2.1 90 00:38 12.04.2020
4997 Clouds 29 1011 79 10000 2.1 90 00:38 12.04.2020
4998 Clouds 27 1011 83 10000 1.5 180 00:19 12.04.2020
4999 Clouds 27 1011 83 10000 1.5 180 23:44 11.04.2020
5000 Clouds 27 1011 83 10000 1.5 180 23:23 11.04.2020
5001 Clouds 24 1010 100 10000 2.05 98 22:40 11.04.2020
5002 Clouds 24 1010 100 10000 2.05 98 22:22 11.04.2020
5003 Clouds 24 1010 100 10000 2.05 98 21:56 11.04.2020
5004 Clouds 24 1010 100 10000 1.7 80 21:37 11.04.2020
5005 Clouds 24 1010 100 10000 1.7 80 21:37 11.04.2020
5006 Clouds 25 1009 94 10000 1.72 119 21:18 11.04.2020
5007 Clouds 25 1009 94 10000 1.72 119 20:56 11.04.2020
5008 Clouds 25 1009 94 10000 1.72 119 20:38 11.04.2020
5009 Clouds 25 1009 94 10000 1.72 119 20:38 11.04.2020
5010 Clouds 24 1009 100 10000 2.6 180 20:19 11.04.2020
5011 Clouds 24 1009 100 10000 2.6 180 19:57 11.04.2020
5012 Clouds 24 1009 100 10000 2.6 180 19:38 11.04.2020
5013 Clouds 24 1009 100 10000 2.6 180 19:38 11.04.2020
5014 Rain 24 1009 100 10000 1.72 119 19:18 11.04.2020
5015 Rain 24 1009 100 10000 1.72 119 19:18 11.04.2020
5016 Rain 24 1009 100 10000 1.72 119 18:55 11.04.2020
5017 Rain 24 1009 100 10000 1.72 119 18:37 11.04.2020
5018 Rain 24 1009 100 10000 1.72 119 18:37 11.04.2020
5019 Rain 25 1009 94 10000 2.6 160 18:18 11.04.2020
5020 Rain 25 1009 94 10000 2.6 160 17:58 11.04.2020
5021 Rain 25 1009 94 10000 2.6 160 17:38 11.04.2020
5022 Clouds 25 1011 100 10000 1.5 140 17:19 11.04.2020
5023 Clouds 25 1011 100 10000 1.5 140 17:19 11.04.2020
5024 Clouds 25 1011 100 10000 1.5 140 16:42 11.04.2020
5025 Clouds 25 1011 100 10000 1.5 140 16:21 11.04.2020
5026 Clouds 25 1012 100 10000 1 200 15:42 11.04.2020
5027 Clouds 25 1012 100 10000 1 200 15:21 11.04.2020
5028 Clouds 26 1012 94 10000 1.45 150 14:59 11.04.2020
5029 Clouds 26 1012 94 10000 1.45 150 14:40 11.04.2020
5030 Clouds 26 1012 94 10000 1.58 141 14:22 11.04.2020
5031 Clouds 26 1012 94 10000 1.5 270 13:46 11.04.2020
5032 Clouds 26 1012 94 10000 1.5 270 13:26 11.04.2020
5033 Clouds 26 1012 94 10000 1.5 270 12:59 11.04.2020
5034 Clouds 26 1012 94 10000 1.5 270 12:38 11.04.2020
5035 Clouds 27 1011 88 10000 1.04 131 12:18 11.04.2020
5036 Clouds 27 1011 88 10000 1.04 131 11:43 11.04.2020
5037 Clouds 27 1011 88 10000 1.04 131 11:22 11.04.2020
5038 Rain 27 1010 88 10000 2.1 230 10:57 11.04.2020
5039 Rain 27 1010 88 10000 2.1 230 10:39 11.04.2020
5040 Rain 27 1010 88 10000 2.1 230 10:21 11.04.2020
5041 Rain 27 1009 88 10000 2.6 180 09:57 11.04.2020
5042 Rain 27 1009 88 10000 2.6 180 09:38 11.04.2020
5043 Rain 29 1009 79 10000 3.1 140 09:19 11.04.2020
5044 Rain 29 1009 79 10000 3.1 140 08:43 11.04.2020
5045 Rain 29 1009 79 10000 3.1 140 08:23 11.04.2020
5046 Clouds 31 1008 70 10000 6.2 70 07:49 11.04.2020
5047 Clouds 31 1008 70 10000 6.2 70 07:28 11.04.2020
5048 Thunderstorm 31 1008 74 10000 4.6 50 06:44 11.04.2020
5049 Thunderstorm 31 1008 74 10000 3.6 70 05:59 11.04.2020
5050 Clouds 31 1009 74 10000 3.1 20 04:33 11.04.2020
5051 Clouds 31 1010 74 10000 3.6 50 03:30 11.04.2020
5052 Clouds 32 1012 66 10000 2.1 50 01:48 11.04.2020
5053 Clouds 31 1012 70 10000 2.1 110 01:19 11.04.2020
5054 Clouds 31 1012 70 10000 2.1 110 00:42 11.04.2020
5055 Clouds 28 1011 78 10000 1 200 00:18 11.04.2020
5056 Clouds 28 1011 78 10000 1 200 23:54 10.04.2020
5057 Clouds 28 1011 78 10000 1 200 23:36 10.04.2020
5058 Clouds 28 1011 78 10000 1 200 23:36 10.04.2020
5059 Clouds 25 1011 94 10000 1 160 23:18 10.04.2020
5060 Clouds 25 1011 94 10000 1 160 22:42 10.04.2020
5061 Clouds 24 1010 100 10000 1 160 22:20 10.04.2020
5062 Clouds 24 1010 100 10000 1 160 21:42 10.04.2020
5063 Clouds 24 1010 100 10000 1 160 21:22 10.04.2020
5064 Clouds 25 1010 94 10000 1 140 20:59 10.04.2020
5065 Clouds 25 1010 94 10000 1 140 20:41 10.04.2020
5066 Clouds 25 1010 94 10000 1 140 20:21 10.04.2020
5067 Clouds 25 1010 94 10000 1 160 19:56 10.04.2020
5068 Clouds 25 1010 94 10000 1 160 19:56 10.04.2020
5069 Clouds 25 1010 94 10000 1 160 19:38 10.04.2020
5070 Clouds 25 1010 94 10000 1 160 19:38 10.04.2020
5071 Clouds 25 1010 94 10000 1.5 180 19:19 10.04.2020
5072 Clouds 25 1010 94 10000 1.5 180 18:56 10.04.2020
5073 Clouds 25 1010 94 10000 1.5 180 18:38 10.04.2020
5074 Clouds 25 1011 94 10000 1.5 180 18:20 10.04.2020
5075 Clouds 25 1011 94 10000 1.5 180 17:57 10.04.2020
5076 Clouds 25 1011 94 10000 1.5 180 17:39 10.04.2020
5077 Clouds 25 1011 100 10000 1 200 17:19 10.04.2020
5078 Clouds 25 1011 100 10000 1 200 16:46 10.04.2020
5079 Clouds 25 1011 100 10000 1 200 16:24 10.04.2020
5080 Clouds 25 1011 100 10000 1 200 16:24 10.04.2020
5081 Clouds 25 1012 100 10000 2.1 180 15:59 10.04.2020
5082 Clouds 25 1012 100 10000 2.1 180 15:39 10.04.2020
5083 Clouds 26 1012 94 10000 1 160 15:21 10.04.2020
5084 Clouds 26 1012 94 10000 1 160 14:59 10.04.2020
5085 Clouds 26 1012 94 10000 1 160 14:41 10.04.2020
5086 Clouds 26 1012 94 10000 1 160 14:23 10.04.2020
5087 Clouds 26 1012 94 10000 1 140 13:56 10.04.2020
5088 Clouds 26 1012 94 10000 1 140 13:38 10.04.2020
5089 Clouds 26 1012 94 10000 2.1 140 13:19 10.04.2020
5090 Clouds 26 1012 94 10000 2.1 140 12:42 10.04.2020
5091 Clouds 27 1011 88 10000 2.6 110 12:21 10.04.2020
5092 Clouds 27 1011 88 10000 2.6 110 11:44 10.04.2020
5093 Clouds 27 1011 88 10000 2.6 110 11:25 10.04.2020
5094 Clouds 28 1010 88 10000 5.1 70 10:59 10.04.2020
5095 Clouds 28 1010 88 10000 5.1 70 10:41 10.04.2020
5096 Clouds 30 1010 70 10000 4.1 90 10:22 10.04.2020
5097 Clouds 30 1010 70 10000 4.1 90 09:43 10.04.2020
5098 Clouds 30 1010 70 10000 4.1 90 09:24 10.04.2020
5099 Clouds 32 1009 59 10000 4.6 70 08:50 10.04.2020
5100 Clouds 32 1009 59 10000 4.6 70 08:27 10.04.2020
5101 Rain 31 1009 74 10000 5.1 70 07:58 10.04.2020
5102 Rain 31 1009 74 10000 5.1 70 07:40 10.04.2020
5103 Rain 31 1009 70 10000 4.1 50 07:21 10.04.2020
5104 Rain 31 1009 70 10000 4.1 50 06:39 10.04.2020
5105 Rain 32 1010 59 10000 4.1 50 06:21 10.04.2020
5106 Rain 32 1010 59 10000 4.1 50 05:33 10.04.2020
5107 Clouds 32 1010 70 10000 5.1 50 04:56 10.04.2020
5108 Clouds 31 1011 70 10000 4.1 70 03:36 10.04.2020
5109 Clouds 31 1012 62 10000 3.6 50 02:52 10.04.2020
5110 Clouds 31 1012 62 10000 3.6 50 02:34 10.04.2020
5111 Clouds 31 1012 66 0 2.1 110 01:50 10.04.2020
5112 Clouds 31 1012 66 0 2.1 110 01:28 10.04.2020
5113 Clouds 30 1012 70 0 1.62 52 00:47 10.04.2020
5114 Clouds 29 1012 74 0 1.26 130 00:21 10.04.2020
5115 Clouds 26 1011 78 0 1 200 23:44 09.04.2020
5116 Clouds 26 1011 78 0 1 200 23:24 09.04.2020
5117 Clouds 24 1011 94 10000 1.26 130 22:57 09.04.2020
5118 Clouds 24 1011 94 10000 1.26 130 22:39 09.04.2020
5119 Clouds 24 1011 94 10000 1.26 130 22:39 09.04.2020
5120 Rain 24 1010 94 10000 1 160 22:21 09.04.2020
5121 Rain 24 1010 94 10000 1 160 21:40 09.04.2020
5122 Rain 24 1010 94 10000 1 160 21:21 09.04.2020
5123 Rain 24 1010 94 10000 1 200 20:54 09.04.2020
5124 Rain 24 1010 94 10000 1 200 20:36 09.04.2020
5125 Clouds 24 1009 94 10000 1 160 20:18 09.04.2020
5126 Clouds 24 1009 94 10000 1 160 19:39 09.04.2020
5127 Clouds 24 1010 94 10000 1 180 19:21 09.04.2020
5128 Clouds 24 1010 94 10000 1 180 19:21 09.04.2020
5129 Clouds 24 1010 94 10000 1 180 18:42 09.04.2020
5130 Clouds 24 1010 94 10000 1 140 18:21 09.04.2020
5131 Clouds 24 1010 94 10000 1 140 17:58 09.04.2020
5132 Clouds 24 1010 94 10000 1 140 17:39 09.04.2020
5133 Clouds 25 1011 94 10000 1 140 17:19 09.04.2020
5134 Clouds 25 1011 94 10000 1 140 17:19 09.04.2020
5135 Clouds 25 1011 94 10000 1 140 16:40 09.04.2020
5136 Clouds 26 1012 88 10000 2.1 140 16:20 09.04.2020
5137 Clouds 26 1012 88 10000 2.1 140 15:56 09.04.2020
5138 Clouds 26 1012 88 10000 2.1 140 15:37 09.04.2020
5139 Clouds 26 1012 88 10000 2.1 290 15:19 09.04.2020
5140 Clouds 26 1012 88 10000 2.1 290 14:42 09.04.2020
5141 Rain 27 1012 80 0 1.12 148 14:21 09.04.2020
5142 Rain 27 1012 80 0 1.12 148 13:58 09.04.2020
5143 Rain 27 1012 80 0 1.12 148 13:40 09.04.2020
5144 Clouds 25 1010 94 10000 2.1 160 13:21 09.04.2020
5145 Clouds 25 1010 94 10000 2.1 160 12:43 09.04.2020
5146 Rain 26 1010 88 10000 2.6 160 12:24 09.04.2020
5147 Rain 26 1010 88 10000 2.6 160 11:59 09.04.2020
5148 Rain 26 1010 88 10000 2.6 160 11:41 09.04.2020
5149 Rain 27 1010 88 10000 3.6 160 11:20 09.04.2020
5150 Rain 27 1010 88 10000 3.6 160 11:20 09.04.2020
5151 Rain 27 1010 88 10000 3.6 160 10:58 09.04.2020
5152 Rain 27 1010 88 10000 3.6 160 10:39 09.04.2020
5153 Rain 29 1009 79 10000 1.5 90 10:20 09.04.2020
5154 Rain 29 1009 79 10000 1.5 90 09:56 09.04.2020
5155 Rain 29 1009 79 10000 1.5 90 09:38 09.04.2020
5156 Rain 30 1009 66 10000 1.5 50 09:19 09.04.2020
5157 Rain 30 1009 66 10000 1.5 50 08:43 09.04.2020
5158 Rain 30 1009 66 10000 1.5 50 08:23 09.04.2020
5159 Clouds 30 1008 70 10000 3.1 50 07:55 09.04.2020
5160 Rain 31 1008 70 10000 3.6 360 07:25 09.04.2020
5161 Rain 31 1008 70 10000 3.6 360 06:52 09.04.2020
5162 Clouds 32 1009 55 10000 2.6 50 05:59 09.04.2020
5163 Clouds 32 1009 55 10000 2.6 50 05:38 09.04.2020
5164 Clouds 31 1011 66 10000 3.1 20 03:36 09.04.2020
5165 Clouds 30 1012 74 10000 3.1 340 02:21 09.04.2020
5166 Clouds 30 1012 74 10000 3.1 340 01:40 09.04.2020
5167 Clouds 30 1011 74 10000 1 340 01:20 09.04.2020
5168 Clouds 30 1011 74 10000 1 340 00:39 09.04.2020
5169 Clouds 27 1011 78 10000 1.18 128 00:19 09.04.2020
5170 Clouds 27 1011 78 10000 1.18 128 00:19 09.04.2020
5171 Clouds 27 1011 78 10000 1.18 128 23:55 08.04.2020
5172 Clouds 27 1011 78 10000 1.18 128 23:37 08.04.2020
5173 Clouds 27 1011 78 10000 1.18 128 23:19 08.04.2020
5174 Clouds 24 1010 94 10000 1.5 140 22:42 08.04.2020
5175 Clouds 24 1010 94 10000 1.5 140 22:23 08.04.2020
5176 Clouds 24 1009 94 10000 1 180 21:56 08.04.2020
5177 Clouds 24 1009 94 10000 1 180 21:37 08.04.2020
5178 Clouds 24 1009 94 10000 1.38 156 21:19 08.04.2020
5179 Clouds 24 1009 94 10000 1.38 156 20:54 08.04.2020
5180 Clouds 24 1009 94 10000 1.38 156 20:54 08.04.2020
5181 Clouds 24 1009 94 10000 1.38 156 20:54 08.04.2020
5182 Clouds 24 1009 94 10000 1.38 156 20:36 08.04.2020
5183 Clouds 24 1009 94 10000 1.38 156 20:18 08.04.2020
5184 Clouds 25 1009 94 10000 1 110 19:41 08.04.2020
5185 Clouds 25 1009 94 10000 1.5 200 19:21 08.04.2020
5186 Clouds 25 1009 94 10000 1.5 200 19:21 08.04.2020
5187 Clouds 25 1009 94 10000 1.5 200 18:55 08.04.2020
5188 Clouds 25 1009 94 10000 1.5 200 18:37 08.04.2020
5189 Clouds 25 1009 94 10000 1.5 200 18:19 08.04.2020
5190 Clouds 25 1009 94 10000 1.5 200 18:19 08.04.2020
5191 Clouds 25 1009 94 10000 1.5 200 17:42 08.04.2020
5192 Clouds 25 1009 94 10000 1.5 200 17:20 08.04.2020
5193 Clouds 25 1010 94 10000 1 200 16:57 08.04.2020
5194 Clouds 25 1010 94 10000 1 200 16:39 08.04.2020
5195 Clouds 25 1010 94 10000 1 200 16:19 08.04.2020
5196 Clouds 26 1010 94 10000 1 200 15:39 08.04.2020
5197 Clouds 26 1010 94 10000 1 200 15:21 08.04.2020
5198 Clouds 26 1010 94 10000 1 200 15:21 08.04.2020
5199 Clouds 26 1010 94 10000 1.5 200 14:57 08.04.2020
5200 Clouds 26 1010 94 10000 1.5 200 14:39 08.04.2020
5201 Clouds 26 1010 94 10000 1 200 14:21 08.04.2020
5202 Clouds 26 1010 94 10000 1 200 13:44 08.04.2020
5203 Clouds 26 1010 94 10000 1.5 160 13:21 08.04.2020
5204 Clouds 26 1010 94 10000 1.5 160 12:57 08.04.2020
5205 Clouds 26 1010 94 10000 1.5 160 12:39 08.04.2020
5206 Clouds 26 1009 88 10000 1 140 12:18 08.04.2020
5207 Clouds 26 1009 88 10000 1 140 12:18 08.04.2020
5208 Clouds 26 1009 88 10000 1 140 12:18 08.04.2020
5209 Clouds 26 1009 88 10000 1 140 12:18 08.04.2020
5210 Clouds 26 1009 88 10000 1 140 11:41 08.04.2020
5211 Clouds 26 1009 88 10000 1 140 11:41 08.04.2020
5212 Clouds 26 1009 88 10000 1 140 11:22 08.04.2020
5213 Clouds 28 1008 78 10000 1.33 159 10:58 08.04.2020
5214 Clouds 28 1008 78 10000 1.33 159 10:39 08.04.2020
5215 Rain 27 1010 80 0 1.33 159 10:20 08.04.2020
5216 Rain 27 1010 80 0 1.33 159 09:56 08.04.2020
5217 Rain 27 1010 77 0 1.18 146 09:38 08.04.2020
5218 Clouds 30 1007 66 10000 2.1 360 09:18 08.04.2020
5219 Clouds 30 1007 66 10000 2.1 360 08:42 08.04.2020
5220 Clouds 30 1007 66 10000 2.1 360 08:23 08.04.2020
5221 Clouds 31 1006 66 10000 2.1 340 07:57 08.04.2020
5222 Clouds 31 1006 66 10000 2.1 340 07:39 08.04.2020
5223 Clouds 32 1006 59 10000 2.6 360 07:19 08.04.2020
5224 Clouds 32 1007 59 10000 3.1 20 06:21 08.04.2020
5225 Clouds 31 1007 66 10000 3.1 360 04:20 08.04.2020
5226 Clouds 31 1009 62 10000 2.1 360 02:49 08.04.2020
5227 Clouds 31 1009 62 10000 2.1 360 02:20 08.04.2020
5228 Clouds 30 1009 70 10000 1 160 01:51 08.04.2020
5229 Clouds 30 1009 70 10000 1 160 01:27 08.04.2020
5230 Clouds 28 1009 74 10000 1.5 180 00:41 08.04.2020
5231 Clouds 25 1008 83 10000 1.5 180 00:22 08.04.2020
5232 Clouds 25 1008 83 10000 1.5 180 23:40 07.04.2020
5233 Clouds 25 1008 83 10000 1.5 180 23:40 07.04.2020
5234 Clouds 25 1008 83 10000 1.5 180 23:21 07.04.2020
5235 Clouds 23 1008 94 10000 1.5 160 22:57 07.04.2020
5236 Clouds 23 1008 94 10000 1.5 160 22:39 07.04.2020
5237 Clouds 22 1007 100 10000 1.5 180 22:19 07.04.2020
5238 Clouds 22 1007 100 10000 1.5 180 21:56 07.04.2020
5239 Clouds 22 1007 100 10000 1.5 180 21:56 07.04.2020
5240 Clouds 22 1007 100 10000 1.5 180 21:38 07.04.2020
5241 Clouds 22 1007 100 10000 1.5 180 21:19 07.04.2020
5242 Clouds 23 1006 88 10000 2.1 180 20:55 07.04.2020
5243 Clouds 23 1006 88 10000 2.1 180 20:37 07.04.2020
5244 Clouds 23 1006 88 10000 2.1 180 20:19 07.04.2020
5245 Clouds 23 1006 94 10000 1.58 199 19:56 07.04.2020
5246 Clouds 23 1006 94 10000 1.58 199 19:36 07.04.2020
5247 Clouds 23 1006 94 10000 1.58 199 19:18 07.04.2020
5248 Clouds 23 1007 94 10000 1 160 18:41 07.04.2020
5249 Clouds 23 1007 94 10000 1 160 18:21 07.04.2020
5250 Clouds 24 1007 94 10000 1.5 140 17:57 07.04.2020
5251 Clouds 24 1007 94 10000 1.5 140 17:38 07.04.2020
5252 Clouds 24 1008 94 10000 2.1 110 17:20 07.04.2020
5253 Clouds 24 1008 94 10000 2.1 110 16:45 07.04.2020
5254 Clouds 24 1008 94 10000 2.1 110 16:26 07.04.2020
5255 Clouds 25 1007 74 0 1.88 191 15:46 07.04.2020
5256 Clouds 25 1007 74 0 1.88 191 15:46 07.04.2020
5257 Clouds 25 1008 88 10000 1 200 15:27 07.04.2020
5258 Clouds 25 1008 88 10000 1 200 14:56 07.04.2020
5259 Clouds 25 1008 88 10000 1 200 14:38 07.04.2020
5260 Clouds 26 1008 88 10000 1.5 250 14:19 07.04.2020
5261 Clouds 26 1008 88 10000 1.5 250 13:43 07.04.2020
5262 Clouds 26 1008 94 10000 1.5 230 13:20 07.04.2020
5263 Clouds 26 1008 94 10000 1.5 230 12:58 07.04.2020
5264 Clouds 26 1008 94 10000 1.5 230 12:39 07.04.2020
5265 Clouds 27 1007 88 10000 1.5 200 12:21 07.04.2020
5266 Clouds 27 1007 88 10000 1.5 200 11:57 07.04.2020
5267 Clouds 27 1007 88 10000 1.5 200 11:39 07.04.2020
5268 Clouds 28 1006 88 10000 2.1 160 11:19 07.04.2020
5269 Clouds 28 1006 88 10000 2.1 160 10:39 07.04.2020
5270 Clouds 30 1005 84 10000 2.1 90 10:20 07.04.2020
5271 Clouds 30 1005 84 10000 2.1 90 09:56 07.04.2020
5272 Clouds 30 1005 84 10000 2.1 90 09:37 07.04.2020
5273 Clouds 32 1005 62 10000 2.6 90 09:18 07.04.2020
5274 Clouds 32 1005 62 10000 2.6 90 08:39 07.04.2020
5275 Clouds 32 1004 66 10000 3.1 360 08:20 07.04.2020
5276 Clouds 32 1004 66 10000 3.1 360 07:44 07.04.2020
5277 Clouds 32 1004 66 10000 3.1 360 07:44 07.04.2020
5278 Clouds 32 1004 66 10000 3.1 360 07:26 07.04.2020
5279 Clouds 32 1004 70 10000 3.1 50 06:52 07.04.2020
5280 Clouds 32 1004 70 10000 3.1 50 06:25 07.04.2020
5281 Clouds 32 1005 70 10000 3.6 340 05:50 07.04.2020
5282 Clouds 32 1005 70 10000 3.6 340 05:24 07.04.2020
5283 Clouds 31 1006 70 10000 2.1 20 03:34 07.04.2020
5284 Clouds 31 1007 70 10000 3.1 360 02:59 07.04.2020
5285 Clouds 31 1007 70 10000 3.1 360 02:35 07.04.2020
5286 Clouds 31 1008 70 10000 2.1 20 01:34 07.04.2020
5287 Clouds 31 1008 70 10000 0.8 309 00:52 07.04.2020
5288 Clouds 27 1007 83 10000 2.02 207 00:25 07.04.2020
5289 Clouds 27 1007 83 10000 2.02 207 23:40 06.04.2020
5290 Clouds 24 1007 100 10000 1 180 23:21 06.04.2020
5291 Clouds 24 1007 100 10000 1 180 22:42 06.04.2020
5292 Clouds 24 1007 100 10000 1 180 22:23 06.04.2020
5293 Clouds 27 1008 77 0 2.02 207 21:59 06.04.2020
5294 Clouds 27 1008 77 0 2.02 207 21:59 06.04.2020
5295 Clouds 27 1008 77 0 2.02 207 21:41 06.04.2020
5296 Clouds 24 1005 94 10000 1 110 21:20 06.04.2020
5297 Clouds 24 1005 94 10000 1 110 20:56 06.04.2020
5298 Clouds 24 1005 94 10000 1 110 20:38 06.04.2020
5299 Clouds 24 1005 100 10000 1.5 160 20:20 06.04.2020
5300 Clouds 24 1005 100 10000 1.5 160 19:56 06.04.2020
5301 Clouds 24 1005 100 10000 1.5 160 19:38 06.04.2020
5302 Clouds 24 1005 100 10000 1 200 19:19 06.04.2020
5303 Clouds 24 1005 100 10000 1 200 19:19 06.04.2020
5304 Clouds 24 1005 100 10000 1 200 18:42 06.04.2020
5305 Clouds 25 1005 94 10000 2.9 207 18:23 06.04.2020
5306 Clouds 25 1005 94 10000 2.9 207 17:55 06.04.2020
5307 Clouds 25 1005 94 10000 2.9 207 17:37 06.04.2020
5308 Clouds 25 1006 94 10000 2.9 207 17:18 06.04.2020
5309 Clouds 25 1006 94 10000 2.9 207 16:47 06.04.2020
5310 Clouds 25 1006 94 10000 2.9 207 16:29 06.04.2020
5311 Clouds 27 1007 83 10000 4.1 290 14:46 06.04.2020
5312 Clouds 27 1007 83 10000 4.1 290 14:46 06.04.2020
5313 Clouds 27 1007 83 10000 4.1 290 14:46 06.04.2020
5314 Clouds 27 1007 83 10000 4.1 290 14:46 06.04.2020
5315 Clouds 27 1007 83 10000 4.1 290 14:46 06.04.2020
5316 Clouds 26 1008 94 10000 5.1 250 13:44 06.04.2020
5317 Clouds 26 1008 94 10000 5.1 250 13:21 06.04.2020
5318 Clouds 27 1008 88 10000 3.1 270 12:41 06.04.2020
5319 Clouds 27 1008 88 10000 3.1 270 12:18 06.04.2020
5320 Clouds 27 1007 88 10000 2.1 290 12:18 06.04.2020
5321 Clouds 27 1007 88 10000 2.1 290 11:40 06.04.2020
5322 Clouds 27 1007 88 10000 2.1 290 11:40 06.04.2020
5323 Clouds 27 1007 88 10000 2.1 290 11:40 06.04.2020
5324 Clouds 27 1007 88 10000 2.1 290 11:40 06.04.2020
5325 Clouds 27 1007 88 10000 2.1 290 11:40 06.04.2020
5326 Clouds 27 1006 88 10000 2.87 236 10:53 06.04.2020
5327 Clouds 27 1006 88 10000 2.87 236 10:53 06.04.2020
5328 Clouds 27 1006 88 10000 2.87 236 10:53 06.04.2020
5329 Clouds 27 1006 88 10000 2.87 236 10:23 06.04.2020
5330 Clouds 27 1006 88 10000 2.87 236 10:23 06.04.2020
5331 Clouds 28 1005 88 10000 2.1 160 10:01 06.04.2020
5332 Clouds 28 1005 88 10000 2.1 160 09:59 06.04.2020
5333 Clouds 28 1005 88 10000 2.1 160 09:59 06.04.2020
5334 Clouds 28 1005 88 10000 2.1 160 09:59 06.04.2020
5335 Clouds 28 1005 88 10000 2.1 160 09:59 06.04.2020
5336 Clouds 28 1005 88 10000 2.1 160 09:26 06.04.2020
5337 Clouds 30 1005 79 10000 2.1 180 08:55 06.04.2020
5338 Clouds 30 1005 79 10000 2.1 180 08:55 06.04.2020
5339 Clouds 30 1005 79 10000 2.1 180 08:36 06.04.2020
5340 Clouds 30 1005 79 10000 2.1 180 08:36 06.04.2020
5341 Clouds 30 1005 79 10000 2.1 180 08:36 06.04.2020
5342 Clouds 29 1004 83 10000 1.5 160 07:55 06.04.2020
5343 Clouds 29 1004 83 10000 1.5 160 07:18 06.04.2020
5344 Rain 29 1005 83 10000 4.1 290 06:25 06.04.2020
5345 Rain 29 1007 83 10000 6.7 320 05:00 06.04.2020
5346 Rain 29 1007 83 10000 6.7 320 04:59 06.04.2020
5347 Rain 29 1007 83 10000 6.7 320 04:59 06.04.2020
5348 Rain 30 1007 84 10000 8.2 320 03:28 06.04.2020
5349 Rain 29 1007 78 0 4.53 265 02:48 06.04.2020
5350 Clouds 30 1008 74 10000 1.5 320 01:52 06.04.2020
5351 Clouds 29 1008 79 10000 1.5 320 00:49 06.04.2020
5352 Clouds 29 1008 79 10000 1.5 320 00:26 06.04.2020
5353 Clouds 25 1007 94 10000 1 140 23:47 05.04.2020
5354 Clouds 25 1007 94 10000 1 140 23:29 05.04.2020
5355 Clouds 25 1007 94 10000 1 140 23:29 05.04.2020
5356 Clouds 25 1007 94 10000 1 140 23:29 05.04.2020
5357 Clouds 25 1006 94 10000 1 140 22:56 05.04.2020
5358 Clouds 25 1006 94 10000 1 140 22:38 05.04.2020
5359 Clouds 25 1006 94 10000 1 140 22:19 05.04.2020
5360 Clouds 25 1006 94 10000 3.73 263 21:55 05.04.2020
5361 Clouds 25 1006 94 10000 3.73 263 21:55 05.04.2020
5362 Clouds 25 1006 94 10000 3.73 263 21:37 05.04.2020
5363 Clouds 25 1006 94 10000 4 260 21:18 05.04.2020
5364 Clouds 25 1005 94 10000 3.66 254 20:20 05.04.2020
5365 Clouds 25 1005 94 10000 3.66 254 20:20 05.04.2020
5366 Clouds 25 1005 94 10000 3.66 254 20:20 05.04.2020
5367 Clouds 25 1005 94 10000 3.66 254 20:20 05.04.2020
5368 Rain 26 1007 82 0 3.66 254 19:39 05.04.2020
5369 Rain 26 1007 82 0 3.66 254 19:21 05.04.2020
5370 Rain 26 1007 82 0 3.66 254 18:44 05.04.2020
5371 Rain 26 1007 82 0 3.66 254 18:44 05.04.2020
5372 Rain 26 1007 82 0 3.66 254 18:44 05.04.2020
5373 Drizzle 25 1007 94 10000 1 340 17:57 05.04.2020
5374 Drizzle 25 1007 94 10000 1 340 17:39 05.04.2020
5375 Drizzle 25 1007 94 10000 1 340 17:39 05.04.2020
5376 Drizzle 25 1007 94 10000 1 340 17:39 05.04.2020
5377 Drizzle 25 1007 94 10000 1 340 17:20 05.04.2020
5378 Drizzle 25 1007 94 10000 1 340 17:20 05.04.2020
5379 Drizzle 25 1007 94 10000 1 340 17:20 05.04.2020
5380 Drizzle 25 1007 94 10000 1 340 17:20 05.04.2020
5381 Drizzle 25 1007 94 10000 1 340 17:20 05.04.2020
5382 Clouds 25 1007 94 10000 1 200 16:21 05.04.2020
5383 Drizzle 25 1008 94 10000 2.1 160 15:53 05.04.2020
5384 Drizzle 25 1008 94 10000 2.1 160 15:33 05.04.2020
5385 Rain 25 1008 94 10000 1 200 14:50 05.04.2020
5386 Rain 25 1008 94 10000 1 200 14:26 05.04.2020
5387 Rain 25 1008 94 10000 1 200 14:26 05.04.2020
5388 Clouds 25 1008 94 10000 3.1 230 13:44 05.04.2020
5389 Clouds 25 1008 94 10000 3.1 230 13:44 05.04.2020
5390 Drizzle 25 1008 94 10000 3.1 290 12:54 05.04.2020
5391 Drizzle 25 1008 94 10000 3.1 290 12:54 05.04.2020
5392 Drizzle 25 1008 94 10000 3.1 290 12:54 05.04.2020
5393 Drizzle 25 1008 94 10000 3.1 290 12:54 05.04.2020
5394 Drizzle 25 1008 94 10000 3.1 290 12:54 05.04.2020
5395 Clouds 26 1007 94 10000 4.1 290 11:43 05.04.2020
5396 Clouds 26 1007 94 10000 4.1 290 11:21 05.04.2020
5397 Clouds 26 1007 94 10000 4.1 290 11:21 05.04.2020
5398 Drizzle 26 1006 94 10000 4.1 270 10:59 05.04.2020
5399 Drizzle 26 1006 94 10000 4.1 270 10:40 05.04.2020
5400 Drizzle 26 1006 94 10000 4.1 270 10:40 05.04.2020
5401 Drizzle 26 1006 94 10000 4.1 270 10:40 05.04.2020
5402 Drizzle 26 1006 94 10000 4.1 270 10:40 05.04.2020
5403 Drizzle 26 1006 94 10000 4.1 270 10:40 05.04.2020
5404 Drizzle 26 1006 94 10000 4.1 270 10:18 05.04.2020
5405 Drizzle 27 1005 88 10000 2.6 250 09:43 05.04.2020
5406 Drizzle 27 1005 88 10000 2.6 250 09:24 05.04.2020
5407 Drizzle 27 1005 88 10000 2.6 250 09:24 05.04.2020
5408 Drizzle 27 1005 88 10000 2.6 250 09:24 05.04.2020
5409 Drizzle 27 1005 88 10000 2.6 250 09:24 05.04.2020
5410 Drizzle 27 1005 88 10000 2.6 250 09:24 05.04.2020
5411 Clouds 32 1003 70 10000 5.1 290 07:41 05.04.2020
5412 Clouds 33 1005 63 10000 8.2 290 04:36 05.04.2020
5413 Clouds 31 1006 66 10000 5.1 290 03:32 05.04.2020
5414 Clouds 32 1007 62 10000 6.2 290 02:52 05.04.2020
5415 Clouds 31 1007 70 10000 7.2 290 01:48 05.04.2020
5416 Clouds 31 1007 70 10000 7.2 290 01:28 05.04.2020
5417 Clouds 31 1007 70 10000 7.2 290 01:28 05.04.2020
5418 Clouds 30 1007 74 10000 4.1 270 00:44 05.04.2020
5419 Clouds 30 1007 74 10000 4.1 270 00:21 05.04.2020
5420 Rain 28 1007 78 10000 2.6 270 23:55 04.04.2020
5421 Rain 28 1007 78 10000 2.6 270 23:37 04.04.2020
5422 Rain 28 1007 78 10000 2.6 270 23:18 04.04.2020
5423 Clouds 26 1006 78 10000 2.6 270 22:40 04.04.2020
5424 Clouds 26 1006 78 10000 2.6 270 22:21 04.04.2020
5425 Clouds 25 1005 83 10000 3.1 290 21:58 04.04.2020
5426 Clouds 25 1005 83 10000 3.1 290 21:39 04.04.2020
5427 Clouds 25 1005 83 10000 3.1 290 21:19 04.04.2020
5428 Clouds 24 1005 88 10000 2.1 270 20:58 04.04.2020
5429 Clouds 24 1005 88 10000 2.1 270 20:39 04.04.2020
5430 Clouds 24 1005 88 10000 2.1 270 20:20 04.04.2020
5431 Rain 26 1006 79 0 4.43 263 19:56 04.04.2020
5432 Rain 26 1006 81 0 4.13 273 19:36 04.04.2020
5433 Clouds 23 1005 94 10000 3.6 230 19:18 04.04.2020
5434 Clouds 23 1005 94 10000 3.6 230 18:55 04.04.2020
5435 Clouds 23 1005 94 10000 3.6 230 18:37 04.04.2020
5436 Clouds 23 1005 94 10000 3.6 230 18:18 04.04.2020
5437 Clouds 23 1006 94 10000 2.6 250 17:40 04.04.2020
5438 Clouds 23 1006 94 10000 2.6 250 17:20 04.04.2020
5439 Clouds 24 1007 94 10000 2.6 250 16:46 04.04.2020
5440 Clouds 24 1007 94 10000 2.6 250 16:28 04.04.2020
5441 Clouds 24 1007 94 10000 2.1 270 15:59 04.04.2020
5442 Clouds 24 1007 94 10000 2.1 270 15:39 04.04.2020
5443 Clouds 24 1007 94 10000 2.1 270 15:20 04.04.2020
5444 Clouds 24 1007 94 10000 2.1 270 15:20 04.04.2020
5445 Clouds 25 1008 83 10000 2.6 270 14:56 04.04.2020
5446 Clouds 25 1008 83 10000 2.6 270 14:37 04.04.2020
5447 Clouds 25 1008 83 10000 2.6 270 14:18 04.04.2020
5448 Clouds 24 1007 94 10000 2.1 250 13:42 04.04.2020
5449 Clouds 24 1007 94 10000 2.1 250 13:22 04.04.2020
5450 Clouds 24 1007 94 10000 2.1 250 13:22 04.04.2020
5451 Clouds 25 1007 88 10000 3.1 230 12:58 04.04.2020
5452 Clouds 25 1007 88 10000 3.1 230 12:40 04.04.2020
5453 Clouds 27 1005 74 10000 5.1 270 12:21 04.04.2020
5454 Clouds 27 1005 74 10000 5.1 270 11:42 04.04.2020
5455 Clouds 27 1005 74 10000 5.1 270 11:23 04.04.2020
5456 Clouds 27 1005 78 10000 4.1 290 10:59 04.04.2020
5457 Clouds 27 1005 78 10000 4.1 290 10:41 04.04.2020
5458 Clouds 27 1005 78 10000 4.1 290 10:23 04.04.2020
5459 Clouds 28 1004 74 10000 4.1 290 09:57 04.04.2020
5460 Clouds 28 1004 74 10000 4.1 290 09:39 04.04.2020
5461 Clouds 28 1004 74 10000 4.1 290 09:21 04.04.2020
5462 Clouds 30 1004 58 10000 4.1 270 08:45 04.04.2020
5463 Clouds 30 1004 58 10000 4.1 270 08:25 04.04.2020
5464 Clouds 30 1003 70 10000 4.1 250 07:59 04.04.2020
5465 Clouds 30 1003 70 10000 4.1 250 07:40 04.04.2020
5466 Clouds 30 1003 70 10000 4.1 250 07:21 04.04.2020
5467 Clouds 31 1003 62 10000 7.2 290 06:40 04.04.2020
5468 Clouds 33 1003 52 10000 7.2 270 05:52 04.04.2020
5469 Clouds 33 1003 52 10000 7.2 270 05:52 04.04.2020
5470 Clouds 33 1003 52 10000 7.2 270 05:33 04.04.2020
5471 Clouds 31 1004 70 10000 5.1 270 04:34 04.04.2020
5472 Clouds 31 1005 70 10000 6.2 290 03:57 04.04.2020
5473 Clouds 31 1005 70 10000 6.2 290 03:37 04.04.2020
5474 Clouds 31 1006 66 10000 4.1 290 02:48 04.04.2020
5475 Clouds 31 1006 66 10000 4.1 290 02:29 04.04.2020
5476 Clouds 30 1006 70 10000 2.6 290 01:46 04.04.2020
5477 Clouds 30 1006 70 10000 5.1 270 01:20 04.04.2020
5478 Clouds 28 1006 74 10000 2.6 270 00:43 04.04.2020
5479 Clouds 28 1006 74 10000 2.6 270 00:23 04.04.2020
5480 Clouds 28 1005 74 10000 2.6 270 23:38 03.04.2020
5481 Clouds 28 1005 74 10000 2.6 270 23:19 03.04.2020
5482 Clouds 26 1005 83 10000 1.5 240 22:41 03.04.2020
5483 Clouds 26 1005 83 10000 1.5 240 22:19 03.04.2020
5484 Rain 27 1006 76 0 4.09 246 21:57 03.04.2020
5485 Rain 27 1006 76 0 4.09 246 21:38 03.04.2020
5486 Clouds 26 1003 83 10000 2.6 320 21:20 03.04.2020
5487 Clouds 26 1003 83 10000 2.6 320 20:55 03.04.2020
5488 Clouds 26 1003 83 10000 2.6 320 20:36 03.04.2020
5489 Clouds 26 1003 83 10000 2.6 320 20:18 03.04.2020
5490 Clouds 26 1003 83 10000 3.1 270 19:55 03.04.2020
5491 Clouds 26 1003 83 10000 3.1 270 19:36 03.04.2020
5492 Clouds 26 1003 83 10000 3.1 270 19:18 03.04.2020
5493 Clouds 26 1003 88 10000 3.1 290 18:56 03.04.2020
5494 Clouds 26 1003 88 10000 3.1 290 18:38 03.04.2020
5495 Clouds 26 1003 88 10000 3.1 290 18:20 03.04.2020
5496 Clouds 27 1004 83 10000 4.6 290 17:40 03.04.2020
5497 Clouds 27 1004 83 10000 4.6 290 17:19 03.04.2020
5498 Clouds 26 1004 88 10000 4.6 290 16:55 03.04.2020
5499 Clouds 26 1004 88 10000 4.6 290 16:36 03.04.2020
5500 Clouds 26 1004 88 10000 4.6 290 16:18 03.04.2020
5501 Clouds 27 1005 83 10000 5.7 270 15:41 03.04.2020
5502 Clouds 27 1005 83 10000 5.7 270 15:22 03.04.2020
5503 Rain 27 1007 81 0 3.8 242 14:58 03.04.2020
5504 Rain 27 1007 81 0 3.8 242 14:40 03.04.2020
5505 Clouds 27 1005 88 10000 3.6 320 14:21 03.04.2020
5506 Clouds 27 1005 88 10000 3.6 320 13:46 03.04.2020
5507 Clouds 27 1005 88 10000 3.6 320 13:46 03.04.2020
5508 Clouds 27 1005 88 10000 3.6 320 13:26 03.04.2020
5509 Clouds 27 1005 88 10000 3.6 320 12:56 03.04.2020
5510 Clouds 27 1005 88 10000 4.1 290 12:38 03.04.2020
5511 Clouds 27 1005 88 10000 4.1 290 12:18 03.04.2020
5512 Rain 28 1005 78 10000 5.1 270 11:55 03.04.2020
5513 Rain 28 1005 78 10000 5.1 270 11:37 03.04.2020
5514 Rain 28 1005 78 10000 5.1 270 11:18 03.04.2020
5515 Clouds 28 1004 78 10000 4.6 290 10:56 03.04.2020
5516 Clouds 28 1004 78 10000 4.6 290 10:37 03.04.2020
5517 Clouds 28 1004 78 10000 4.6 290 10:37 03.04.2020
5518 Clouds 28 1004 78 10000 4.6 290 10:18 03.04.2020
5519 Rain 28 1003 83 10000 3.6 290 09:54 03.04.2020
5520 Rain 28 1003 83 10000 3.6 290 09:36 03.04.2020
5521 Rain 28 1003 83 10000 3.6 290 09:18 03.04.2020
5522 Clouds 28 1002 88 10000 3.1 270 08:41 03.04.2020
5523 Clouds 28 1002 88 10000 3.1 270 08:22 03.04.2020
5524 Rain 30 1002 74 10000 5.1 270 07:50 03.04.2020
5525 Rain 30 1002 74 10000 5.1 270 07:32 03.04.2020
5526 Clouds 30 1001 74 10000 5.7 270 06:50 03.04.2020
5527 Clouds 30 1001 74 10000 5.7 270 06:25 03.04.2020
5528 Rain 30 1002 74 10000 4.6 270 05:40 03.04.2020
5529 Rain 28 1003 83 10000 3.1 290 03:45 03.04.2020
5530 Rain 28 1003 83 10000 3.1 290 03:23 03.04.2020
5531 Clouds 26 1004 83 10000 7.2 270 02:28 03.04.2020
5532 Rain 25 1005 83 10000 5.1 290 01:23 03.04.2020
5533 Rain 25 1004 94 10000 9.3 250 00:40 03.04.2020
5534 Rain 25 1004 94 10000 9.3 250 00:20 03.04.2020
5535 Rain 25 1002 94 10000 3.6 290 23:42 02.04.2020
5536 Rain 25 1002 94 10000 3.6 290 23:23 02.04.2020
5537 Clouds 24 1001 100 10000 6.2 290 22:58 02.04.2020
5538 Clouds 24 1001 100 10000 6.2 290 22:39 02.04.2020
5539 Clouds 24 1001 100 10000 6.2 290 22:20 02.04.2020
5540 Rain 27 1004 81 0 5.54 253 21:39 02.04.2020
5541 Rain 26 1004 82 0 4.6 258 21:20 02.04.2020
5542 Rain 26 1002 86 0 6.88 291 20:58 02.04.2020
5543 Rain 26 1002 86 0 6.88 291 20:40 02.04.2020
5544 Rain 26 1002 86 0 6.88 291 20:40 02.04.2020
5545 Rain 26 1002 86 0 6.88 291 20:21 02.04.2020
5546 Rain 26 1002 86 0 6.88 291 19:44 02.04.2020
5547 Rain 26 1002 86 0 6.88 291 19:21 02.04.2020
5548 Rain 26 1002 86 0 6.88 291 18:58 02.04.2020
5549 Rain 26 1002 86 0 6.88 291 18:39 02.04.2020
5550 Rain 26 1002 86 0 6.88 291 18:39 02.04.2020
5551 Clouds 26 1001 100 10000 6.2 360 18:20 02.04.2020
5552 Clouds 26 1001 100 10000 6.2 360 17:56 02.04.2020
5553 Clouds 26 1001 100 10000 6.2 360 17:38 02.04.2020
5554 Clouds 26 1001 100 10000 6.2 360 17:19 02.04.2020
5555 Rain 26 1001 89 0 7.23 341 16:55 02.04.2020
5556 Rain 26 1001 89 0 7.23 341 16:37 02.04.2020
5557 Drizzle 27 1004 88 10000 3.1 360 16:18 02.04.2020
5558 Drizzle 27 1004 88 10000 3.1 360 15:44 02.04.2020
5559 Drizzle 27 1004 88 10000 3.1 360 15:44 02.04.2020
5560 Drizzle 27 1004 88 10000 3.1 360 15:44 02.04.2020
5561 Drizzle 27 1004 88 10000 3.1 360 15:21 02.04.2020
5562 Drizzle 28 1005 88 10000 4.1 340 14:58 02.04.2020
5563 Drizzle 28 1005 88 10000 4.1 340 14:39 02.04.2020
5564 Clouds 27 1005 94 10000 3.1 20 14:19 02.04.2020
5565 Clouds 27 1005 94 10000 3.1 20 13:56 02.04.2020
5566 Clouds 27 1005 94 10000 3.1 20 13:38 02.04.2020
5567 Clouds 27 1005 94 10000 3.1 20 13:19 02.04.2020
5568 Drizzle 26 1005 100 10000 4.1 50 12:47 02.04.2020
5569 Drizzle 26 1005 100 10000 4.1 50 12:21 02.04.2020
5570 Rain 26 1005 94 10000 3.1 70 11:58 02.04.2020
5571 Rain 26 1005 94 10000 3.1 70 11:39 02.04.2020
5572 Rain 26 1005 94 10000 3.1 70 11:21 02.04.2020
5573 Rain 25 1005 100 10000 2.1 140 10:57 02.04.2020
5574 Rain 25 1005 100 10000 2.1 140 10:39 02.04.2020
5575 Rain 25 1005 100 10000 2.1 140 10:21 02.04.2020
5576 Rain 25 1004 100 0 2.1 20 09:59 02.04.2020
5577 Rain 25 1004 100 0 2.1 20 09:41 02.04.2020
5578 Rain 25 1004 100 0 2.1 20 09:22 02.04.2020
5579 Rain 25 1004 100 0 3.1 70 08:48 02.04.2020
5580 Rain 25 1004 100 0 2.6 20 08:29 02.04.2020
5581 Clouds 25 1004 100 0 2.1 20 07:59 02.04.2020
5582 Clouds 25 1004 100 0 2.1 20 07:59 02.04.2020
5583 Clouds 25 1004 100 0 2.1 20 07:41 02.04.2020
5584 Clouds 25 1004 100 0 2.1 20 07:19 02.04.2020
5585 Clouds 27 1003 94 0 4.6 360 06:25 02.04.2020
5586 Rain 30 1004 84 10000 5.7 360 05:46 02.04.2020
5587 Rain 30 1004 84 10000 5.7 360 05:18 02.04.2020
5588 Rain 30 1007 84 10000 1.5 90 02:26 02.04.2020
5589 Rain 28 1007 88 10000 2.6 200 01:27 02.04.2020
5590 Clouds 26 1007 100 10000 2.6 200 00:41 02.04.2020
5591 Clouds 26 1007 100 10000 2.6 200 00:20 02.04.2020
5592 Clouds 25 1007 94 8000 1 230 23:39 01.04.2020
5593 Clouds 25 1007 94 8000 1 230 23:19 01.04.2020
5594 Drizzle 25 1006 94 10000 1 140 22:56 01.04.2020
5595 Drizzle 25 1006 94 10000 1 140 22:38 01.04.2020
5596 Drizzle 25 1006 94 10000 1 140 22:19 01.04.2020
5597 Clouds 25 1006 94 10000 1.38 85 21:41 01.04.2020
5598 Clouds 24 1006 100 10000 2.1 180 21:19 01.04.2020
5599 Clouds 24 1006 100 0 1.5 160 20:56 01.04.2020
5600 Clouds 24 1006 100 0 1.5 160 20:38 01.04.2020
5601 Clouds 24 1006 100 0 1.5 160 20:19 01.04.2020
5602 Drizzle 24 1007 100 10000 2.1 180 19:57 01.04.2020
5603 Drizzle 24 1007 100 10000 2.1 180 19:37 01.04.2020
5604 Drizzle 24 1007 100 10000 2.1 180 19:19 01.04.2020
5605 Rain 26 1006 80 0 0.75 10 18:42 01.04.2020
5606 Clouds 25 1007 100 0 2.1 360 18:22 01.04.2020
5607 Clouds 25 1007 100 0 2.1 360 17:57 01.04.2020
5608 Clouds 25 1007 100 0 2.1 360 17:37 01.04.2020
5609 Clouds 25 1007 100 0 2.1 360 17:37 01.04.2020
5610 Clouds 25 1007 100 0 2.1 360 17:18 01.04.2020
5611 Clouds 25 1007 94 10000 1 200 16:56 01.04.2020
5612 Clouds 25 1007 94 10000 1 200 16:38 01.04.2020
5613 Clouds 25 1007 94 10000 1 200 16:20 01.04.2020
5614 Clouds 25 1008 94 10000 1 290 15:42 01.04.2020
5615 Clouds 25 1008 94 10000 1 290 15:22 01.04.2020
5616 Clouds 25 1008 94 10000 1 180 14:59 01.04.2020
5617 Clouds 25 1008 94 10000 1 180 14:39 01.04.2020
5618 Clouds 25 1008 94 10000 1 180 14:21 01.04.2020
5619 Rain 26 1007 81 0 0.93 11 13:59 01.04.2020
5620 Rain 26 1007 81 0 0.93 11 13:38 01.04.2020
5621 Rain 26 1007 81 0 0.93 11 13:19 01.04.2020
5622 Rain 26 1007 81 0 0.93 11 12:56 01.04.2020
5623 Rain 26 1007 81 0 0.93 11 12:37 01.04.2020
5624 Rain 27 1007 80 0 0.17 323 12:18 01.04.2020
5625 Drizzle 27 1007 94 10000 2.1 140 11:54 01.04.2020
5626 Drizzle 27 1007 94 10000 2.1 140 11:36 01.04.2020
5627 Drizzle 27 1007 94 10000 2.1 140 11:18 01.04.2020
5628 Clouds 28 1007 88 10000 1 20 10:38 01.04.2020
5629 Clouds 28 1007 88 10000 1 20 10:19 01.04.2020
5630 Clouds 28 1007 88 10000 1 20 10:19 01.04.2020
5631 Clouds 29 1006 83 10000 2.6 70 09:57 01.04.2020
5632 Clouds 29 1006 83 10000 2.6 70 09:39 01.04.2020
5633 Clouds 29 1006 83 10000 2.6 70 09:18 01.04.2020
5634 Clouds 31 1006 66 10000 2.1 340 08:41 01.04.2020
5635 Clouds 31 1006 66 10000 2.1 340 08:18 01.04.2020
5636 Rain 29 1005 77 0 1.73 360 07:44 01.04.2020
5637 Clouds 30 1005 79 10000 2.1 290 07:21 01.04.2020
5638 Clouds 30 1005 79 10000 2.1 290 06:48 01.04.2020
5639 Clouds 30 1005 79 10000 2.1 290 06:26 01.04.2020
5640 Clouds 31 1006 70 10000 2.25 360 05:56 01.04.2020
5641 Rain 30 1005 73 0 2.25 360 04:32 01.04.2020
5642 Rain 30 1005 73 0 2.25 360 03:30 01.04.2020
5643 Rain 30 1008 66 0 1.56 9 02:49 01.04.2020
5644 Clouds 31 1008 70 10000 2.1 140 01:59 01.04.2020
5645 Clouds 31 1008 70 10000 2.1 140 01:38 01.04.2020
5646 Clouds 31 1008 70 10000 2.1 140 01:18 01.04.2020
5647 Clouds 29 1008 83 10000 1 180 00:45 01.04.2020
5648 Clouds 29 1008 83 10000 1 180 00:20 01.04.2020
5649 Clouds 26 1008 88 10000 2.1 180 23:42 31.03.2020
5650 Clouds 26 1008 88 10000 2.1 180 23:23 31.03.2020
5651 Clouds 24 1007 100 10000 1.5 140 22:58 31.03.2020
5652 Clouds 24 1007 100 10000 1.5 140 22:37 31.03.2020
5653 Clouds 24 1007 100 10000 1.5 140 22:19 31.03.2020
5654 Clouds 24 1006 100 10000 1 180 21:56 31.03.2020
5655 Clouds 24 1006 100 10000 1 180 21:37 31.03.2020
5656 Clouds 24 1006 100 10000 1 180 21:19 31.03.2020
5657 Rain 25 1006 94 10000 1.5 230 20:55 31.03.2020
5658 Rain 25 1006 94 10000 1.5 230 20:36 31.03.2020
5659 Rain 25 1006 94 10000 1.5 230 20:36 31.03.2020
5660 Clouds 25 1006 94 10000 0.52 156 20:18 31.03.2020
5661 Clouds 25 1006 94 10000 0.52 156 19:41 31.03.2020
5662 Clouds 25 1006 94 10000 2.6 180 19:22 31.03.2020
5663 Clouds 25 1006 94 10000 2.6 180 18:55 31.03.2020
5664 Clouds 25 1006 94 10000 2.6 180 18:37 31.03.2020
5665 Rain 25 1007 100 10000 2.1 230 18:18 31.03.2020
5666 Rain 25 1007 100 10000 2.1 230 17:54 31.03.2020
5667 Rain 25 1007 100 10000 2.1 230 17:36 31.03.2020
5668 Rain 25 1007 100 10000 2.1 230 17:36 31.03.2020
5669 Rain 25 1008 100 10000 3.1 230 17:18 31.03.2020
5670 Rain 25 1008 100 10000 3.1 230 16:38 31.03.2020
5671 Rain 25 1008 100 10000 3.1 230 16:19 31.03.2020
5672 Clouds 26 1009 94 10000 4.6 360 15:57 31.03.2020
5673 Clouds 26 1009 94 10000 4.6 360 15:38 31.03.2020
5674 Clouds 26 1009 94 10000 4.6 360 15:19 31.03.2020
5675 Clouds 25 1008 100 10000 1.5 180 14:56 31.03.2020
5676 Clouds 25 1008 100 10000 1.5 180 14:56 31.03.2020
5677 Clouds 25 1008 100 10000 1.5 180 14:38 31.03.2020
5678 Clouds 25 1008 100 10000 1.5 180 14:18 31.03.2020
5679 Clouds 25 1008 100 10000 2.1 180 13:42 31.03.2020
5680 Clouds 25 1008 100 10000 2.1 180 13:19 31.03.2020
5681 Rain 26 1008 100 10000 2.1 160 12:55 31.03.2020
5682 Rain 26 1008 100 10000 2.1 160 12:37 31.03.2020
5683 Rain 26 1008 100 10000 2.1 160 12:18 31.03.2020
5684 Clouds 26 1008 94 10000 1.5 200 11:38 31.03.2020
5685 Clouds 26 1008 94 10000 1.5 200 11:19 31.03.2020
5686 Clouds 27 1007 88 10000 2.1 200 10:57 31.03.2020
5687 Clouds 27 1007 88 10000 2.1 200 10:39 31.03.2020
5688 Clouds 27 1007 88 10000 2.1 200 10:20 31.03.2020
5689 Clouds 28 1006 83 10000 1.5 230 09:55 31.03.2020
5690 Clouds 28 1006 83 10000 1.5 230 09:37 31.03.2020
5691 Clouds 28 1006 83 10000 1.5 230 09:19 31.03.2020
5692 Clouds 30 1005 74 10000 3.1 360 08:54 31.03.2020
5693 Clouds 30 1005 74 10000 3.1 360 08:36 31.03.2020
5694 Clouds 30 1005 74 10000 3.1 360 08:18 31.03.2020
5695 Clouds 30 1005 79 10000 4.6 360 07:43 31.03.2020
5696 Clouds 30 1005 79 10000 4.6 360 07:23 31.03.2020
5697 Clouds 31 1005 74 10000 4.1 360 06:58 31.03.2020
5698 Clouds 31 1005 74 10000 4.1 360 06:39 31.03.2020
5699 Clouds 31 1005 74 10000 2.1 360 05:42 31.03.2020
5700 Clouds 31 1005 74 10000 2.1 360 05:23 31.03.2020
5701 Clouds 30 1008 79 10000 2.1 50 02:53 31.03.2020
5702 Clouds 30 1008 79 10000 2.1 70 01:47 31.03.2020
5703 Clouds 30 1008 79 10000 2.1 70 01:19 31.03.2020
5704 Clouds 29 1008 83 10000 1 200 00:42 31.03.2020
5705 Clouds 29 1008 83 10000 1 200 00:19 31.03.2020
5706 Clouds 27 1008 83 10000 1 160 23:39 30.03.2020
5707 Clouds 27 1008 83 10000 1 160 23:20 30.03.2020
5708 Clouds 24 1007 100 10000 0.45 31 22:57 30.03.2020
5709 Clouds 24 1007 100 10000 0.45 31 22:38 30.03.2020
5710 Clouds 24 1007 100 10000 0.45 31 22:18 30.03.2020
5711 Drizzle 24 1007 100 10000 1.5 160 21:57 30.03.2020
5712 Drizzle 24 1007 100 10000 1.5 160 21:37 30.03.2020
5713 Drizzle 24 1007 100 10000 1.5 160 21:19 30.03.2020
5714 Clouds 25 1006 94 10000 0.22 264 20:55 30.03.2020
5715 Clouds 25 1006 94 10000 0.22 264 20:36 30.03.2020
5716 Clouds 25 1006 94 10000 0.22 264 20:36 30.03.2020
5717 Clouds 25 1006 94 10000 0.22 264 20:18 30.03.2020
5718 Clouds 25 1006 94 10000 1.5 110 19:40 30.03.2020
5719 Clouds 25 1006 94 10000 1.5 110 19:22 30.03.2020
5720 Clouds 25 1006 100 10000 2.6 160 18:57 30.03.2020
5721 Clouds 25 1006 100 10000 2.6 160 18:38 30.03.2020
5722 Clouds 25 1006 100 10000 2.6 160 18:20 30.03.2020
5723 Clouds 25 1006 100 10000 2.6 160 17:57 30.03.2020
5724 Clouds 25 1006 100 10000 1 180 17:38 30.03.2020
5725 Clouds 25 1006 100 10000 1 180 17:38 30.03.2020
5726 Clouds 25 1006 100 10000 1 180 17:18 30.03.2020
5727 Clouds 25 1007 100 10000 1.5 90 16:55 30.03.2020
5728 Clouds 25 1007 100 10000 1.5 90 16:36 30.03.2020
5729 Clouds 25 1007 100 10000 1.5 90 16:18 30.03.2020
5730 Clouds 25 1008 100 10000 1 110 15:42 30.03.2020
5731 Clouds 25 1008 100 10000 1 110 15:22 30.03.2020
5732 Clouds 26 1008 94 10000 1.5 180 14:59 30.03.2020
5733 Clouds 26 1008 94 10000 1.5 180 14:39 30.03.2020
5734 Clouds 26 1008 94 10000 1.5 180 14:19 30.03.2020
5735 Clouds 25 1008 100 10000 1 180 13:58 30.03.2020
5736 Clouds 25 1008 100 10000 1 180 13:58 30.03.2020
5737 Clouds 25 1008 100 10000 1 180 13:39 30.03.2020
5738 Clouds 25 1008 100 10000 1 180 13:20 30.03.2020
5739 Clouds 26 1008 94 10000 2.1 200 12:45 30.03.2020
5740 Clouds 26 1008 94 10000 2.1 200 12:22 30.03.2020
5741 Drizzle 26 1007 94 10000 3.1 290 11:59 30.03.2020
5742 Drizzle 26 1007 94 10000 3.1 290 11:41 30.03.2020
5743 Drizzle 26 1007 94 10000 3.1 290 11:22 30.03.2020
5744 Drizzle 26 1007 94 10000 3.1 290 11:22 30.03.2020
5745 Drizzle 27 1006 94 10000 2.1 230 10:57 30.03.2020
5746 Drizzle 27 1006 94 10000 2.1 230 10:37 30.03.2020
5747 Drizzle 27 1006 94 10000 2.1 230 10:19 30.03.2020
5748 Clouds 27 1005 94 10000 2.1 200 09:41 30.03.2020
5749 Clouds 27 1005 94 10000 2.1 200 09:20 30.03.2020
5750 Drizzle 28 1005 88 10000 2.1 200 08:57 30.03.2020
5751 Drizzle 28 1005 88 10000 2.1 200 08:38 30.03.2020
5752 Drizzle 28 1005 88 10000 2.1 200 08:19 30.03.2020
5753 Thunderstorm 29 1005 83 10000 1.5 340 07:43 30.03.2020
5754 Thunderstorm 29 1005 83 10000 1.5 340 07:21 30.03.2020
5755 Thunderstorm 30 1004 79 10000 3.1 360 06:43 30.03.2020
5756 Thunderstorm 30 1004 79 10000 3.1 360 06:25 30.03.2020
5757 Thunderstorm 30 1005 79 10000 5.1 340 05:43 30.03.2020
5758 Clouds 31 1006 74 10000 4.1 340 04:29 30.03.2020
5759 Clouds 30 1007 79 10000 3.1 360 03:54 30.03.2020
5760 Clouds 31 1007 74 10000 4.1 360 02:44 30.03.2020
5761 Clouds 31 1008 70 10000 1 70 01:55 30.03.2020
5762 Clouds 29 1008 83 10000 1.5 110 00:57 30.03.2020
5763 Clouds 29 1008 83 10000 1.5 110 00:27 30.03.2020
5764 Clouds 25 1008 94 10000 1 180 23:55 29.03.2020
5765 Clouds 25 1008 94 10000 1 180 23:36 29.03.2020
5766 Clouds 25 1008 94 10000 1 180 23:18 29.03.2020
5767 Clouds 25 1007 94 10000 1 180 22:40 29.03.2020
5768 Clouds 25 1007 94 10000 1 180 22:20 29.03.2020
5769 Clouds 25 1006 94 10000 1 200 21:59 29.03.2020
5770 Clouds 25 1006 94 10000 1 200 21:37 29.03.2020
5771 Clouds 25 1006 94 10000 1 200 21:19 29.03.2020
5772 Clouds 25 1006 94 10000 1 140 20:55 29.03.2020
5773 Clouds 25 1006 94 10000 1 140 20:37 29.03.2020
5774 Clouds 24 1006 100 10000 1 160 20:18 29.03.2020
5775 Clouds 24 1006 100 10000 1 160 20:18 29.03.2020
5776 Clouds 24 1006 100 10000 1 160 20:18 29.03.2020
5777 Clouds 24 1006 100 10000 1 160 19:55 29.03.2020
5778 Clouds 24 1006 100 10000 1 160 19:37 29.03.2020
5779 Clouds 25 1006 100 10000 1 160 19:19 29.03.2020
5780 Clouds 25 1006 100 10000 1 160 18:55 29.03.2020
5781 Clouds 25 1006 100 10000 1 160 18:37 29.03.2020
5782 Clouds 25 1007 100 10000 1 200 18:18 29.03.2020
5783 Clouds 25 1007 100 10000 1 200 17:42 29.03.2020
5784 Clouds 25 1007 100 10000 1 200 17:24 29.03.2020
5785 Clouds 25 1008 94 10000 1 140 16:59 29.03.2020
5786 Clouds 25 1008 94 10000 1 140 16:41 29.03.2020
5787 Clouds 25 1008 94 10000 1 140 16:21 29.03.2020
5788 Clouds 25 1009 94 10000 1 140 15:59 29.03.2020
5789 Clouds 25 1009 94 10000 1 140 15:59 29.03.2020
5790 Clouds 25 1009 94 10000 1 140 15:40 29.03.2020
5791 Clouds 25 1009 94 10000 1 140 15:21 29.03.2020
5792 Clouds 25 1009 94 10000 1 140 15:21 29.03.2020
5793 Drizzle 25 1010 94 10000 1.21 271 14:57 29.03.2020
5794 Drizzle 25 1010 94 10000 1.21 271 14:37 29.03.2020
5795 Drizzle 25 1010 94 10000 1.21 271 14:19 29.03.2020
5796 Drizzle 25 1009 100 10000 1.5 200 13:55 29.03.2020
5797 Drizzle 25 1009 100 10000 1.5 200 13:37 29.03.2020
5798 Drizzle 25 1009 100 10000 1.5 200 13:18 29.03.2020
5799 Drizzle 25 1009 100 10000 1.5 160 12:54 29.03.2020
5800 Drizzle 25 1009 100 10000 1.5 160 12:54 29.03.2020
5801 Drizzle 25 1009 100 10000 1.5 160 12:36 29.03.2020
5802 Rain 25 1009 100 10000 2.1 140 12:18 29.03.2020
5803 Rain 25 1009 100 10000 2.1 140 11:38 29.03.2020
5804 Rain 25 1009 100 10000 2.1 140 11:20 29.03.2020
5805 Clouds 26 1008 100 10000 1.5 160 10:40 29.03.2020
5806 Clouds 26 1008 100 10000 1.5 160 10:21 29.03.2020
5807 Clouds 27 1007 94 10000 1.5 110 09:57 29.03.2020
5808 Clouds 27 1007 94 10000 1.5 110 09:38 29.03.2020
5809 Clouds 27 1007 94 10000 1.5 110 09:18 29.03.2020
5810 Clouds 27 1007 94 10000 1.5 110 09:18 29.03.2020
5811 Drizzle 27 1006 88 10000 1 180 08:45 29.03.2020
5812 Drizzle 27 1006 88 10000 1 180 08:26 29.03.2020
5813 Drizzle 28 1005 88 10000 3.6 290 07:48 29.03.2020
5814 Drizzle 28 1005 88 10000 3.6 290 07:23 29.03.2020
5815 Clouds 30 1005 79 10000 2.1 20 06:40 29.03.2020
5816 Clouds 29 1006 83 10000 3.1 290 04:56 29.03.2020
5817 Clouds 30 1007 84 10000 5.1 360 03:41 29.03.2020
5818 Clouds 30 1007 84 10000 5.1 360 03:20 29.03.2020
5819 Clouds 31 1008 70 10000 3.1 360 01:43 29.03.2020
5820 Clouds 31 1008 70 10000 3.1 360 01:22 29.03.2020
5821 Clouds 31 1008 74 10000 1 20 00:45 29.03.2020
5822 Clouds 31 1008 74 10000 1 20 00:27 29.03.2020
5823 Clouds 30 1008 84 10000 1 290 23:41 28.03.2020
5824 Clouds 25 1008 94 10000 1 140 23:22 28.03.2020
5825 Clouds 25 1008 94 10000 1 140 22:44 28.03.2020
5826 Clouds 25 1008 94 10000 1 140 22:23 28.03.2020
5827 Clouds 23 1007 100 10000 0.27 166 21:57 28.03.2020
5828 Clouds 23 1007 100 10000 0.27 166 21:57 28.03.2020
5829 Clouds 23 1007 100 10000 0.27 166 21:57 28.03.2020
5830 Clouds 23 1007 100 10000 0.27 166 21:39 28.03.2020
5831 Clouds 23 1007 100 10000 0.27 166 21:20 28.03.2020
5832 Clouds 23 1006 100 10000 1 110 20:57 28.03.2020
5833 Clouds 23 1006 100 10000 1 110 20:38 28.03.2020
5834 Clouds 23 1006 100 10000 1 110 20:19 28.03.2020
5835 Clouds 23 1006 100 10000 1 110 20:19 28.03.2020
5836 Clouds 24 1006 94 10000 0.43 122 19:55 28.03.2020
5837 Clouds 24 1006 94 10000 0.43 122 19:36 28.03.2020
5838 Clouds 24 1006 94 10000 1 140 19:18 28.03.2020
5839 Clouds 24 1006 94 10000 1 140 18:39 28.03.2020
5840 Clouds 24 1006 94 10000 1 140 18:20 28.03.2020
5841 Clouds 24 1006 100 10000 0.43 122 17:41 28.03.2020
5842 Clouds 25 1006 94 10000 0.43 122 17:22 28.03.2020
5843 Clouds 25 1006 94 10000 1 358 16:59 28.03.2020
5844 Clouds 25 1006 94 10000 1 358 16:38 28.03.2020
5845 Clouds 25 1006 94 10000 1 358 16:18 28.03.2020
5846 Clouds 25 1007 94 10000 1 180 15:40 28.03.2020
5847 Clouds 25 1007 94 10000 1 180 15:19 28.03.2020
5848 Clouds 25 1007 94 10000 1 180 15:19 28.03.2020
5849 Clouds 25 1008 94 10000 1.5 200 14:57 28.03.2020
5850 Clouds 25 1008 94 10000 1.5 200 14:39 28.03.2020
5851 Clouds 25 1008 94 10000 1.5 200 14:20 28.03.2020
5852 Clouds 25 1008 94 10000 1.5 200 14:20 28.03.2020
5853 Clouds 25 1008 94 10000 1.5 200 14:20 28.03.2020
5854 Clouds 25 1008 100 10000 0.8 14 13:42 28.03.2020
5855 Clouds 25 1008 100 10000 1.31 24 13:23 28.03.2020
5856 Clouds 25 1009 100 10000 1.5 200 12:41 28.03.2020
5857 Clouds 25 1009 100 10000 1.5 200 12:22 28.03.2020
5858 Clouds 25 1008 100 10000 1.5 140 11:43 28.03.2020
5859 Drizzle 26 1007 100 10000 1.5 160 11:23 28.03.2020
5860 Drizzle 26 1007 100 10000 1.5 160 10:58 28.03.2020
5861 Drizzle 26 1007 100 10000 1.5 160 10:38 28.03.2020
5862 Drizzle 26 1007 100 10000 1.5 160 10:18 28.03.2020
5863 Rain 26 1007 100 10000 3.1 90 09:42 28.03.2020
5864 Rain 26 1007 100 10000 3.1 90 09:23 28.03.2020
5865 Rain 26 1006 100 10000 2.1 160 08:55 28.03.2020
5866 Rain 26 1006 100 10000 2.1 160 08:37 28.03.2020
5867 Rain 26 1006 100 10000 2.1 160 08:18 28.03.2020
5868 Rain 27 1006 94 10000 2.1 180 07:41 28.03.2020
5869 Rain 28 1006 88 10000 2.1 70 06:58 28.03.2020
5870 Rain 28 1006 88 10000 2.1 70 06:34 28.03.2020
5871 Rain 29 1006 83 10000 3.6 20 05:41 28.03.2020
5872 Rain 29 1006 79 10000 3.6 360 05:21 28.03.2020
5873 Rain 29 1006 79 10000 3.6 360 04:40 28.03.2020
5874 Rain 30 1007 79 10000 6.7 360 03:21 28.03.2020
5875 Clouds 31 1009 70 10000 2.6 20 01:49 28.03.2020
5876 Clouds 31 1009 70 10000 2.6 20 01:25 28.03.2020
5877 Clouds 31 1009 74 10000 1 360 00:55 28.03.2020
5878 Clouds 31 1009 74 10000 1 360 00:33 28.03.2020
5879 Clouds 28 1009 88 10000 1 160 23:45 27.03.2020
5880 Clouds 28 1009 88 10000 1 160 23:26 27.03.2020
5881 Clouds 25 1008 94 10000 1 200 22:58 27.03.2020
5882 Clouds 25 1008 94 10000 1 200 22:40 27.03.2020
5883 Clouds 25 1008 94 10000 1 200 22:21 27.03.2020
5884 Clouds 25 1008 88 10000 1 200 21:59 27.03.2020
5885 Clouds 24 1008 94 10000 0.95 184 21:41 27.03.2020
5886 Clouds 24 1008 94 10000 0.95 184 21:23 27.03.2020
5887 Clouds 23 1007 100 10000 1 160 20:57 27.03.2020
5888 Clouds 23 1007 100 10000 1 160 20:39 27.03.2020
5889 Clouds 23 1007 100 10000 1 160 20:19 27.03.2020
5890 Clouds 23 1007 100 10000 1 160 20:19 27.03.2020
5891 Clouds 24 1007 94 10000 1 160 19:55 27.03.2020
5892 Clouds 24 1007 94 10000 1 160 19:36 27.03.2020
5893 Clouds 24 1007 94 10000 1 160 19:18 27.03.2020
5894 Rain 27 1007 77 0 0.42 182 18:42 27.03.2020
5895 Clouds 24 1007 94 10000 1 110 18:23 27.03.2020
5896 Clouds 24 1007 94 10000 1 110 17:54 27.03.2020
5897 Clouds 24 1007 94 10000 1 110 17:36 27.03.2020
5898 Clouds 23 1008 100 10000 1 200 17:18 27.03.2020
5899 Clouds 23 1008 100 10000 1 200 16:41 27.03.2020
5900 Clouds 23 1008 100 10000 1 200 16:23 27.03.2020
5901 Clouds 23 1009 100 10000 1.18 181 15:43 27.03.2020
5902 Clouds 23 1009 100 10000 1.18 181 15:25 27.03.2020
5903 Clouds 24 1009 94 10000 1.18 181 14:48 27.03.2020
5904 Clouds 24 1009 94 10000 1.18 181 14:27 27.03.2020
5905 Clouds 24 1010 94 10000 1 110 13:58 27.03.2020
5906 Clouds 24 1010 94 10000 1 110 13:40 27.03.2020
5907 Clouds 24 1010 94 10000 1 110 13:21 27.03.2020
5908 Clouds 24 1009 100 10000 1 160 12:57 27.03.2020
5909 Clouds 24 1009 100 10000 1 160 12:39 27.03.2020
5910 Clouds 24 1009 100 10000 1 160 12:18 27.03.2020
5911 Clouds 25 1009 94 10000 1.44 212 11:41 27.03.2020
5912 Clouds 25 1008 94 10000 1 140 11:23 27.03.2020
5913 Clouds 25 1008 94 10000 1 140 11:23 27.03.2020
5914 Clouds 25 1008 94 10000 1 140 10:55 27.03.2020
5915 Clouds 25 1008 94 10000 1 140 10:37 27.03.2020
5916 Clouds 25 1008 94 10000 1 140 10:18 27.03.2020
5917 Clouds 25 1008 94 10000 1 110 09:56 27.03.2020
5918 Clouds 25 1008 94 10000 1 110 09:37 27.03.2020
5919 Clouds 25 1008 94 10000 1 110 09:18 27.03.2020
5920 Clouds 26 1007 88 10000 1 140 08:56 27.03.2020
5921 Clouds 26 1007 88 10000 1 140 08:37 27.03.2020
5922 Clouds 26 1007 88 10000 1 140 08:19 27.03.2020
5923 Clouds 26 1007 88 0 2.1 180 07:50 27.03.2020
5924 Clouds 26 1007 88 0 2.1 180 07:23 27.03.2020
5925 Rain 28 1007 78 10000 3.6 180 06:51 27.03.2020
5926 Rain 28 1007 78 10000 3.6 180 06:33 27.03.2020
5927 Rain 32 1007 66 10000 3.6 340 04:23 27.03.2020
5928 Clouds 31 1009 70 10000 4.1 360 02:25 27.03.2020
5929 Clouds 31 1009 70 10000 3.1 360 01:23 27.03.2020
5930 Clouds 30 1010 70 10000 2.6 260 00:48 27.03.2020
5931 Clouds 30 1010 70 10000 2.6 260 00:23 27.03.2020
5932 Clouds 30 1010 74 10000 0.79 22 23:42 26.03.2020
5933 Clouds 26 1009 83 10000 1.5 180 23:21 26.03.2020
5934 Clouds 26 1009 83 10000 1.5 180 22:58 26.03.2020
5935 Clouds 26 1009 83 10000 1.5 180 22:37 26.03.2020
5936 Clouds 26 1009 83 10000 1.5 180 22:19 26.03.2020
5937 Clouds 24 1008 94 10000 1 200 21:55 26.03.2020
5938 Clouds 24 1008 94 10000 1 200 21:55 26.03.2020
5939 Clouds 24 1008 94 10000 1 200 21:36 26.03.2020
5940 Clouds 24 1008 94 10000 1 200 21:18 26.03.2020
5941 Rain 27 1009 75 0 0.98 115 20:41 26.03.2020
5942 Clouds 23 1008 100 10000 1 140 20:23 26.03.2020
5943 Clouds 23 1008 100 10000 1 140 20:23 26.03.2020
5944 Clouds 23 1008 100 10000 1 140 19:58 26.03.2020
5945 Clouds 23 1008 100 10000 1 140 19:40 26.03.2020
5946 Clouds 23 1008 100 10000 1 140 19:22 26.03.2020
5947 Clouds 23 1008 100 10000 1.15 191 18:58 26.03.2020
5948 Clouds 23 1008 100 10000 1.15 191 18:40 26.03.2020
5949 Clouds 24 1007 94 10000 1 180 18:22 26.03.2020
5950 Clouds 24 1007 94 10000 1 180 17:45 26.03.2020
5951 Clouds 24 1007 94 10000 1 180 17:20 26.03.2020
5952 Clouds 24 1007 94 10000 1 180 16:57 26.03.2020
5953 Clouds 24 1007 94 10000 1 180 16:57 26.03.2020
5954 Clouds 24 1008 94 10000 1.17 208 16:38 26.03.2020
5955 Clouds 24 1008 94 10000 1.17 208 16:19 26.03.2020
5956 Clouds 25 1009 94 10000 1 230 15:56 26.03.2020
5957 Clouds 25 1009 94 10000 1 230 15:56 26.03.2020
5958 Clouds 25 1009 94 10000 1 230 15:37 26.03.2020
5959 Clouds 25 1009 94 10000 1 230 15:18 26.03.2020
5960 Clouds 25 1010 94 10000 1.5 180 14:43 26.03.2020
5961 Clouds 25 1010 94 10000 1.5 180 14:24 26.03.2020
5962 Clouds 25 1011 94 10000 0.76 217 13:56 26.03.2020
5963 Clouds 25 1011 94 10000 0.76 217 13:56 26.03.2020
5964 Clouds 25 1011 94 10000 0.76 217 13:38 26.03.2020
5965 Clouds 25 1011 94 10000 1.12 193 13:19 26.03.2020
5966 Clouds 25 1011 94 10000 1 160 12:38 26.03.2020
5967 Clouds 25 1011 100 10000 1 140 12:20 26.03.2020
5968 Clouds 25 1011 100 10000 1 140 11:46 26.03.2020
5969 Clouds 25 1011 100 10000 1 140 11:23 26.03.2020
5970 Drizzle 26 1010 94 10000 1.5 160 10:59 26.03.2020
5971 Drizzle 26 1010 94 10000 1.5 160 10:41 26.03.2020
5972 Drizzle 26 1010 94 10000 1.5 160 10:20 26.03.2020
5973 Clouds 27 1010 88 10000 3.1 110 09:45 26.03.2020
5974 Clouds 27 1010 88 10000 3.1 110 09:21 26.03.2020
5975 Clouds 29 1009 79 10000 2.6 110 08:57 26.03.2020
5976 Clouds 29 1009 79 10000 2.6 110 08:57 26.03.2020
5977 Clouds 29 1009 79 10000 2.6 110 08:38 26.03.2020
5978 Clouds 29 1009 79 10000 2.6 110 08:19 26.03.2020
5979 Clouds 30 1008 70 10000 3.1 230 07:44 26.03.2020
5980 Clouds 30 1008 70 10000 3.1 230 07:22 26.03.2020
5981 Clouds 31 1008 70 10000 2.1 290 06:57 26.03.2020
5982 Clouds 32 1008 66 10000 1.89 326 06:27 26.03.2020
5983 Rain 32 1008 62 10000 4.1 340 05:22 26.03.2020
5984 Clouds 32 1009 66 10000 3.1 346 03:45 26.03.2020
5985 Clouds 31 1010 70 10000 3.1 340 02:56 26.03.2020
5986 Clouds 31 1011 70 10000 2.1 360 01:50 26.03.2020
5987 Clouds 30 1010 74 10000 2.1 20 00:55 26.03.2020
5988 Clouds 30 1010 74 10000 2.1 20 00:22 26.03.2020
5989 Clouds 29 1010 79 10000 1.8 14 23:41 25.03.2020
5990 Clouds 27 1010 83 10000 1.5 180 23:21 25.03.2020
5991 Clouds 27 1010 83 10000 1.5 180 22:41 25.03.2020
5992 Clouds 27 1010 83 10000 1.5 180 22:21 25.03.2020
5993 Clouds 25 1010 94 10000 1.5 180 21:56 25.03.2020
5994 Clouds 25 1010 94 10000 1.5 180 21:38 25.03.2020
5995 Clouds 25 1010 94 10000 1.5 180 21:19 25.03.2020
5996 Clouds 25 1009 94 10000 0.65 137 20:55 25.03.2020
5997 Clouds 25 1009 94 10000 0.65 137 20:37 25.03.2020
5998 Clouds 25 1009 94 10000 0.97 106 20:18 25.03.2020
5999 Clouds 25 1009 94 10000 0.97 106 19:42 25.03.2020
6000 Clouds 25 1009 94 10000 0.97 106 19:22 25.03.2020
6001 Clouds 25 1009 94 10000 1.12 126 18:57 25.03.2020
6002 Clouds 25 1008 94 10000 0.97 106 18:38 25.03.2020
6003 Clouds 25 1008 94 10000 0.97 106 18:20 25.03.2020
6004 Clouds 26 1008 94 10000 1.5 290 17:55 25.03.2020
6005 Clouds 26 1008 94 10000 1.5 290 17:36 25.03.2020
6006 Clouds 26 1008 94 10000 1.5 290 17:18 25.03.2020
6007 Clouds 26 1009 94 10000 2.6 270 16:43 25.03.2020
6008 Clouds 26 1009 94 10000 2.6 270 16:22 25.03.2020
6009 Clouds 26 1010 100 10000 1 270 15:57 25.03.2020
6010 Clouds 26 1010 100 10000 1 270 15:38 25.03.2020
6011 Clouds 26 1010 100 10000 1 270 15:19 25.03.2020
6012 Clouds 26 1010 100 10000 1.5 200 14:41 25.03.2020
6013 Clouds 26 1010 100 10000 1.5 200 14:21 25.03.2020
6014 Clouds 27 1011 94 10000 1.72 171 13:46 25.03.2020
6015 Clouds 27 1011 94 10000 1.72 171 13:26 25.03.2020
6016 Clouds 27 1010 88 10000 1 360 12:55 25.03.2020
6017 Clouds 27 1010 88 10000 1 360 12:37 25.03.2020
6018 Clouds 27 1010 88 10000 1 320 12:18 25.03.2020
6019 Clouds 27 1010 88 10000 1 320 11:41 25.03.2020
6020 Clouds 28 1009 83 10000 1 110 11:21 25.03.2020
6021 Clouds 28 1009 83 10000 1 110 10:59 25.03.2020
6022 Clouds 28 1009 83 10000 1 110 10:59 25.03.2020
6023 Clouds 28 1009 83 10000 1 110 10:40 25.03.2020
6024 Clouds 28 1009 83 10000 1 110 10:19 25.03.2020
6025 Clouds 30 1008 74 10000 1 70 09:58 25.03.2020
6026 Clouds 30 1008 74 10000 1 70 09:39 25.03.2020
6027 Clouds 30 1008 74 10000 1 70 09:21 25.03.2020
6028 Clouds 30 1007 74 10000 1.5 50 08:43 25.03.2020
6029 Clouds 30 1007 74 10000 1.5 50 08:25 25.03.2020
6030 Clouds 31 1007 66 10000 2.6 70 07:57 25.03.2020
6031 Clouds 31 1007 66 10000 2.6 70 07:38 25.03.2020
6032 Clouds 31 1006 70 10000 3.1 360 07:18 25.03.2020
6033 Clouds 31 1006 70 10000 3.1 360 06:42 25.03.2020
6034 Clouds 31 1006 70 10000 3.1 360 06:23 25.03.2020
6035 Clouds 32 1006 66 10000 3.1 360 05:47 25.03.2020
6036 Clouds 32 1007 62 10000 3.6 360 04:46 25.03.2020
6037 Clouds 32 1007 66 10000 3.1 20 03:58 25.03.2020
6038 Clouds 32 1007 66 10000 3.1 20 03:33 25.03.2020
6039 Clouds 31 1009 70 10000 4.1 360 01:40 25.03.2020
6040 Clouds 32 1009 66 10000 2.1 70 00:50 25.03.2020
6041 Clouds 32 1009 66 10000 2.1 70 00:27 25.03.2020
6042 Clouds 28 1009 83 10000 1 180 23:55 24.03.2020
6043 Clouds 28 1009 83 10000 1 180 23:28 24.03.2020
6044 Clouds 26 1009 88 10000 1 180 22:58 24.03.2020
6045 Clouds 26 1009 88 10000 1 180 22:38 24.03.2020
6046 Clouds 26 1009 88 10000 1 180 22:38 24.03.2020
6047 Clouds 26 1009 88 10000 1 180 22:20 24.03.2020
6048 Clouds 25 1008 88 10000 1 180 21:58 24.03.2020
6049 Clouds 25 1008 88 10000 1 180 21:40 24.03.2020
6050 Clouds 25 1008 88 10000 1 180 21:19 24.03.2020
6051 Clouds 24 1007 94 10000 1 180 20:58 24.03.2020
6052 Clouds 24 1007 94 10000 1 180 20:39 24.03.2020
6053 Clouds 24 1007 94 10000 1 180 20:21 24.03.2020
6054 Clouds 24 1007 94 10000 1 180 19:47 24.03.2020
6055 Clouds 24 1007 94 10000 1 180 19:22 24.03.2020
6056 Clouds 24 1007 94 10000 1 180 18:56 24.03.2020
6057 Clouds 25 1007 94 10000 1 180 18:38 24.03.2020
6058 Clouds 25 1007 94 10000 1 180 18:19 24.03.2020
6059 Clouds 25 1007 94 10000 1 180 17:56 24.03.2020
6060 Clouds 25 1007 94 10000 1 180 17:37 24.03.2020
6061 Clouds 25 1008 94 10000 1 200 17:19 24.03.2020
6062 Clouds 25 1008 94 10000 1 200 16:54 24.03.2020
6063 Clouds 25 1008 94 10000 1 200 16:36 24.03.2020
6064 Clouds 25 1008 94 10000 1 200 16:36 24.03.2020
6065 Clouds 25 1008 94 10000 1 200 16:18 24.03.2020
6066 Clouds 25 1008 94 10000 1.45 189 15:42 24.03.2020
6067 Clouds 25 1008 94 10000 1.45 189 15:23 24.03.2020
6068 Clouds 25 1009 94 10000 1.45 189 14:43 24.03.2020
6069 Clouds 25 1009 94 10000 1.06 171 14:22 24.03.2020
6070 Clouds 25 1009 94 10000 1.34 156 13:56 24.03.2020
6071 Clouds 25 1009 94 10000 1.34 156 13:38 24.03.2020
6072 Clouds 25 1009 94 10000 1.08 132 13:20 24.03.2020
6073 Clouds 25 1009 100 10000 1.08 132 12:42 24.03.2020
6074 Clouds 25 1009 100 10000 1.08 132 12:23 24.03.2020
6075 Clouds 26 1009 94 10000 1.5 140 11:41 24.03.2020
6076 Clouds 26 1009 94 10000 1.5 140 11:20 24.03.2020
6077 Clouds 26 1008 88 10000 1 160 10:57 24.03.2020
6078 Clouds 26 1008 88 10000 1 160 10:57 24.03.2020
6079 Clouds 26 1008 88 10000 1 160 10:38 24.03.2020
6080 Clouds 26 1008 88 10000 1 160 10:18 24.03.2020
6081 Clouds 27 1007 83 10000 2.1 140 09:43 24.03.2020
6082 Clouds 27 1007 83 10000 2.1 140 09:25 24.03.2020
6083 Rain 30 1006 74 10000 3.1 70 08:40 24.03.2020
6084 Rain 30 1006 74 10000 3.1 70 08:21 24.03.2020
6085 Rain 31 1006 62 10000 1.5 360 07:59 24.03.2020
6086 Rain 31 1006 62 10000 1.5 360 07:41 24.03.2020
6087 Rain 31 1006 62 10000 1.5 360 07:21 24.03.2020
6088 Clouds 32 1006 59 10000 2.1 360 06:34 24.03.2020
6089 Clouds 31 1006 66 10000 4.1 320 05:30 24.03.2020
6090 Clouds 32 1006 62 10000 2.6 20 04:49 24.03.2020
6091 Clouds 31 1007 70 10000 4.1 360 03:19 24.03.2020
6092 Clouds 31 1009 70 10000 3.6 360 01:59 24.03.2020
6093 Clouds 30 1009 74 10000 2.1 320 00:52 24.03.2020
6094 Clouds 30 1009 74 10000 2.1 320 00:26 24.03.2020
6095 Clouds 29 1009 79 10000 1.73 14 23:50 23.03.2020
6096 Clouds 29 1009 79 10000 1.73 14 23:30 23.03.2020
6097 Clouds 26 1008 94 10000 1.02 172 22:59 23.03.2020
6098 Clouds 26 1008 94 10000 1.02 172 22:40 23.03.2020
6099 Clouds 26 1008 94 10000 1.02 172 22:22 23.03.2020
6100 Clouds 24 1007 100 10000 1 180 21:44 23.03.2020
6101 Clouds 24 1007 100 10000 1 180 21:21 23.03.2020
6102 Clouds 23 1007 100 10000 1 140 21:00 23.03.2020
6103 Clouds 23 1007 100 10000 1 140 20:41 23.03.2020
6104 Clouds 23 1007 100 10000 1 140 20:23 23.03.2020
6105 Clouds 24 1006 94 10000 1 160 19:55 23.03.2020
6106 Clouds 24 1006 94 10000 1 160 19:37 23.03.2020
6107 Clouds 24 1006 94 10000 1 160 19:18 23.03.2020
6108 Clouds 24 1007 100 10000 1 160 18:43 23.03.2020
6109 Clouds 24 1007 100 10000 1 160 18:24 23.03.2020
6110 Clouds 24 1007 100 10000 1 160 17:57 23.03.2020
6111 Clouds 24 1007 100 10000 1 160 17:57 23.03.2020
6112 Clouds 24 1007 100 10000 1 160 17:38 23.03.2020
6113 Clouds 25 1008 94 10000 0.66 331 17:19 23.03.2020
6114 Clouds 25 1008 94 10000 0.66 331 16:43 23.03.2020
6115 Clouds 25 1008 94 10000 0.66 331 16:25 23.03.2020
6116 Clouds 25 1009 100 10000 1 200 15:44 23.03.2020
6117 Clouds 25 1009 100 10000 1 200 15:21 23.03.2020
6118 Clouds 25 1010 100 10000 2.1 200 14:57 23.03.2020
6119 Clouds 25 1010 100 10000 2.1 200 14:37 23.03.2020
6120 Clouds 25 1010 100 10000 2.1 200 14:18 23.03.2020
6121 Clouds 25 1010 100 10000 2.1 200 14:18 23.03.2020
6122 Clouds 25 1010 100 10000 1 230 13:41 23.03.2020
6123 Clouds 25 1010 100 10000 1 230 13:22 23.03.2020
6124 Clouds 25 1010 94 10000 1 70 12:58 23.03.2020
6125 Clouds 25 1010 94 10000 1 70 12:58 23.03.2020
6126 Clouds 25 1010 94 10000 1 70 12:40 23.03.2020
6127 Clouds 25 1010 94 10000 1 70 12:21 23.03.2020
6128 Rain 25 1009 94 10000 1.5 110 11:42 23.03.2020
6129 Rain 26 1009 88 10000 2.6 90 11:21 23.03.2020
6130 Rain 26 1009 88 10000 2.6 90 10:58 23.03.2020
6131 Rain 26 1009 88 10000 2.6 90 10:39 23.03.2020
6132 Rain 26 1009 88 10000 2.6 90 10:21 23.03.2020
6133 Clouds 25 1008 94 10000 1.05 355 09:57 23.03.2020
6134 Clouds 25 1008 94 10000 1.05 355 09:37 23.03.2020
6135 Clouds 25 1008 94 10000 1.05 355 09:18 23.03.2020
6136 Rain 26 1007 88 10000 1.5 140 08:37 23.03.2020
6137 Rain 26 1007 88 10000 1.5 140 08:19 23.03.2020
6138 Clouds 27 1006 83 10000 1.5 180 07:48 23.03.2020
6139 Clouds 27 1006 83 10000 1.5 180 07:29 23.03.2020
6140 Rain 29 1007 83 10000 1.5 250 06:52 23.03.2020
6141 Rain 29 1007 83 10000 1.5 250 06:25 23.03.2020
6142 Clouds 29 1006 79 10000 2.1 320 05:34 23.03.2020
6143 Thunderstorm 30 1006 79 0 4.6 340 03:45 23.03.2020
6144 Clouds 32 1008 70 10000 3.6 360 02:37 23.03.2020
6145 Clouds 31 1009 66 10000 2.1 20 01:34 23.03.2020
6146 Clouds 31 1009 74 10000 2.6 50 00:40 23.03.2020
6147 Clouds 30 1009 74 10000 2.18 39 23:53 22.03.2020
6148 Clouds 30 1009 74 10000 2.18 39 23:26 22.03.2020
6149 Clouds 30 1009 74 10000 2.18 39 23:26 22.03.2020
6150 Clouds 27 1009 83 10000 1.08 127 22:47 22.03.2020
6151 Clouds 27 1009 83 10000 1.08 127 22:26 22.03.2020
6152 Clouds 24 1008 100 10000 1.08 127 21:57 22.03.2020
6153 Clouds 24 1008 100 10000 1.08 127 21:57 22.03.2020
6154 Clouds 24 1008 100 10000 1.08 127 21:39 22.03.2020
6155 Clouds 24 1008 100 10000 1.08 127 21:20 22.03.2020
6156 Clouds 24 1008 94 10000 1.08 127 20:54 22.03.2020
6157 Clouds 24 1008 94 10000 1.08 127 20:36 22.03.2020
6158 Clouds 24 1008 94 10000 1.12 161 20:18 22.03.2020
6159 Clouds 24 1007 94 10000 1.12 161 19:54 22.03.2020
6160 Clouds 24 1007 94 10000 1.12 161 19:36 22.03.2020
6161 Clouds 24 1007 94 10000 1.12 161 19:18 22.03.2020
6162 Clouds 24 1007 100 10000 1.12 161 18:41 22.03.2020
6163 Clouds 24 1007 100 10000 1.12 161 18:22 22.03.2020
6164 Clouds 24 1007 100 10000 1.12 161 18:22 22.03.2020
6165 Clouds 24 1007 100 10000 1 180 17:59 22.03.2020
6166 Clouds 24 1007 100 10000 1 180 17:59 22.03.2020
6167 Clouds 24 1007 100 10000 1 180 17:39 22.03.2020
6168 Clouds 24 1008 100 10000 1.32 152 17:21 22.03.2020
6169 Clouds 24 1008 100 10000 1.32 152 17:21 22.03.2020
6170 Clouds 24 1008 100 10000 1.32 152 16:59 22.03.2020
6171 Clouds 24 1008 100 10000 1.32 152 16:59 22.03.2020
6172 Clouds 24 1008 100 10000 1.32 152 16:41 22.03.2020
6173 Clouds 24 1008 100 10000 1.32 152 16:21 22.03.2020
6174 Clouds 25 1009 94 10000 1.32 152 15:58 22.03.2020
6175 Clouds 25 1009 94 10000 1.32 152 15:39 22.03.2020
6176 Clouds 25 1009 94 10000 1.32 152 14:47 22.03.2020
6177 Clouds 25 1009 94 10000 1.2 141 14:19 22.03.2020
6178 Rain 24 1009 91 0 1.2 141 13:56 22.03.2020
6179 Rain 24 1009 91 0 1.2 141 13:37 22.03.2020
6180 Rain 24 1009 90 0 1.13 149 13:19 22.03.2020
6181 Rain 24 1009 90 0 1.13 149 12:43 22.03.2020
6182 Rain 24 1009 90 0 1.13 149 12:20 22.03.2020
6183 Rain 24 1009 90 0 1.13 149 11:56 22.03.2020
6184 Rain 24 1009 90 0 1.13 149 11:37 22.03.2020
6185 Rain 24 1008 90 0 1.09 190 11:19 22.03.2020
6186 Rain 24 1008 90 0 1.09 190 10:43 22.03.2020
6187 Rain 24 1008 90 0 1.09 190 10:24 22.03.2020
6188 Rain 24 1008 90 0 1.09 190 10:24 22.03.2020
6189 Rain 24 1008 90 0 1.09 190 09:48 22.03.2020
6190 Rain 24 1008 90 0 1.09 190 09:29 22.03.2020
6191 Rain 24 1008 90 0 1.09 190 08:54 22.03.2020
6192 Rain 24 1008 90 0 1.09 190 08:54 22.03.2020
6193 Rain 24 1008 90 0 1.09 190 08:36 22.03.2020
6194 Rain 26 1007 87 0 0.57 327 08:18 22.03.2020
6195 Rain 26 1007 87 0 0.57 327 07:41 22.03.2020
6196 Rain 26 1007 87 0 0.57 327 07:18 22.03.2020
6197 Rain 26 1007 87 0 0.57 327 05:54 22.03.2020
6198 Clouds 31 1007 74 10000 4.6 50 04:50 22.03.2020
6199 Clouds 31 1008 79 10000 4.6 50 02:43 22.03.2020
6200 Clouds 32 1010 70 10000 3.6 20 01:19 22.03.2020
6201 Clouds 31 1010 70 10000 2.6 70 00:34 22.03.2020
6202 Clouds 30 1011 74 10000 1.5 90 23:47 21.03.2020
6203 Clouds 30 1011 74 10000 1.5 90 23:24 21.03.2020
6204 Clouds 27 1011 83 10000 0.72 178 22:59 21.03.2020
6205 Clouds 27 1011 83 10000 0.72 178 22:38 21.03.2020
6206 Clouds 27 1011 83 10000 0.72 178 22:20 21.03.2020
6207 Clouds 25 1010 94 10000 0.72 178 21:59 21.03.2020
6208 Clouds 25 1010 94 10000 0.72 178 21:39 21.03.2020
6209 Clouds 25 1010 94 10000 0.72 178 21:20 21.03.2020
6210 Clouds 25 1010 94 10000 0.72 178 21:20 21.03.2020
6211 Clouds 24 1009 100 10000 1 160 20:44 21.03.2020
6212 Clouds 24 1009 100 10000 1 160 20:22 21.03.2020
6213 Clouds 24 1009 100 10000 1.39 181 19:56 21.03.2020
6214 Clouds 24 1009 100 10000 1.39 181 19:38 21.03.2020
6215 Clouds 24 1009 100 10000 1.39 181 19:19 21.03.2020
6216 Clouds 24 1009 100 10000 1.39 181 18:41 21.03.2020
6217 Clouds 24 1009 100 10000 1.39 181 18:21 21.03.2020
6218 Clouds 25 1009 94 10000 1.39 181 17:59 21.03.2020
6219 Clouds 25 1009 94 10000 1.39 181 17:41 21.03.2020
6220 Clouds 25 1010 100 10000 1 200 17:22 21.03.2020
6221 Clouds 25 1010 100 10000 1 200 16:42 21.03.2020
6222 Clouds 25 1010 100 10000 1 200 16:24 21.03.2020
6223 Clouds 26 1011 94 10000 2.6 200 15:59 21.03.2020
6224 Clouds 26 1011 94 10000 2.6 200 15:40 21.03.2020
6225 Clouds 26 1011 94 10000 2.6 200 15:22 21.03.2020
6226 Clouds 26 1011 94 10000 1.5 140 14:57 21.03.2020
6227 Clouds 26 1011 94 10000 1.5 140 14:38 21.03.2020
6228 Clouds 26 1011 94 10000 1.5 140 14:38 21.03.2020
6229 Clouds 26 1011 94 10000 1.5 140 14:19 21.03.2020
6230 Thunderstorm 26 1012 94 10000 1 200 13:58 21.03.2020
6231 Thunderstorm 26 1012 94 10000 1 200 13:39 21.03.2020
6232 Thunderstorm 26 1012 94 10000 1 200 13:21 21.03.2020
6233 Clouds 26 1011 94 10000 1.5 200 12:55 21.03.2020
6234 Clouds 26 1011 94 10000 1.5 200 12:36 21.03.2020
6235 Clouds 26 1011 94 10000 1.5 200 12:18 21.03.2020
6236 Clouds 26 1011 94 10000 1.5 200 11:55 21.03.2020
6237 Clouds 26 1011 94 10000 2.1 200 11:37 21.03.2020
6238 Clouds 27 1010 94 10000 1 180 11:18 21.03.2020
6239 Clouds 27 1010 94 10000 1 180 10:55 21.03.2020
6240 Clouds 27 1010 94 10000 1 180 10:37 21.03.2020
6241 Clouds 27 1010 94 10000 1 180 10:18 21.03.2020
6242 Clouds 28 1010 88 10000 1 320 09:40 21.03.2020
6243 Clouds 28 1010 88 10000 1 320 09:21 21.03.2020
6244 Clouds 30 1009 79 10000 1 50 08:56 21.03.2020
6245 Clouds 30 1009 79 10000 1 50 08:38 21.03.2020
6246 Clouds 30 1009 79 10000 1 50 08:20 21.03.2020
6247 Clouds 30 1008 74 10000 1 180 07:39 21.03.2020
6248 Clouds 30 1008 74 10000 1 180 07:20 21.03.2020
6249 Clouds 30 1008 74 10000 1 180 07:20 21.03.2020
6250 Clouds 29 1008 79 10000 1 230 06:45 21.03.2020
6251 Clouds 29 1009 79 10000 3.1 230 06:25 21.03.2020
6252 Clouds 29 1009 79 10000 1 20 05:41 21.03.2020
6253 Rain 31 1009 70 10000 2.6 50 04:34 21.03.2020
6254 Clouds 31 1011 74 10000 4.1 50 02:38 21.03.2020
6255 Clouds 30 1011 74 10000 2.6 50 01:49 21.03.2020
6256 Clouds 30 1011 74 10000 2.6 50 01:26 21.03.2020
6257 Clouds 29 1011 79 10000 3.1 50 00:43 21.03.2020
6258 Clouds 29 1011 79 10000 3.1 50 00:23 21.03.2020
6259 Clouds 28 1012 83 10000 1 70 23:44 20.03.2020
6260 Clouds 28 1012 83 10000 1 70 23:22 20.03.2020
6261 Clouds 27 1011 88 10000 0.85 174 22:44 20.03.2020
6262 Clouds 27 1011 88 10000 0.85 174 22:44 20.03.2020
6263 Clouds 27 1011 88 10000 0.85 174 22:25 20.03.2020
6264 Clouds 24 1011 100 10000 0.85 174 21:59 20.03.2020
6265 Clouds 24 1011 100 10000 0.85 174 21:40 20.03.2020
6266 Clouds 24 1011 100 10000 0.85 174 21:20 20.03.2020
6267 Clouds 24 1010 100 10000 0.85 174 20:59 20.03.2020
6268 Clouds 24 1010 100 10000 0.85 174 20:41 20.03.2020
6269 Clouds 24 1010 100 10000 1.46 184 20:20 20.03.2020
6270 Clouds 24 1010 100 10000 1.46 184 19:48 20.03.2020
6271 Clouds 24 1010 100 10000 1.46 184 19:22 20.03.2020
6272 Clouds 24 1010 100 10000 1.46 184 19:22 20.03.2020
6273 Clouds 24 1009 100 10000 1 160 18:58 20.03.2020
6274 Clouds 24 1009 100 10000 1 160 18:38 20.03.2020
6275 Clouds 24 1009 100 10000 1 160 18:20 20.03.2020
6276 Clouds 24 1009 100 10000 1 160 18:20 20.03.2020
6277 Clouds 24 1009 100 10000 1 160 17:56 20.03.2020
6278 Clouds 25 1010 100 10000 1.46 184 17:37 20.03.2020
6279 Clouds 25 1010 94 10000 1.36 191 17:19 20.03.2020
6280 Clouds 25 1010 94 10000 1.36 191 16:42 20.03.2020
6281 Clouds 25 1010 94 10000 1.36 191 16:21 20.03.2020
6282 Rain 25 1011 100 10000 1.36 191 15:55 20.03.2020
6283 Rain 25 1011 100 10000 1.36 191 15:37 20.03.2020
6284 Rain 25 1011 100 10000 1.36 191 15:18 20.03.2020
6285 Drizzle 25 1011 100 10000 1 160 14:42 20.03.2020
6286 Drizzle 25 1011 100 10000 1 160 14:21 20.03.2020
6287 Drizzle 25 1011 100 10000 1 160 14:20 20.03.2020
6288 Drizzle 25 1012 94 10000 1.5 180 13:48 20.03.2020
6289 Drizzle 25 1012 94 10000 1.5 180 13:24 20.03.2020
6290 Drizzle 25 1012 94 10000 1.5 180 13:24 20.03.2020
6291 Clouds 24 1012 100 10000 1.5 110 12:58 20.03.2020
6292 Clouds 24 1012 100 10000 1.5 110 12:38 20.03.2020
6293 Clouds 24 1012 100 10000 1.5 110 12:19 20.03.2020
6294 Drizzle 25 1011 100 10000 3.1 160 11:39 20.03.2020
6295 Thunderstorm 25 1011 100 10000 3.1 140 11:20 20.03.2020
6296 Thunderstorm 25 1011 100 10000 3.1 140 10:55 20.03.2020
6297 Thunderstorm 25 1011 100 10000 3.1 140 10:37 20.03.2020
6298 Thunderstorm 25 1011 100 10000 3.1 140 10:18 20.03.2020
6299 Thunderstorm 25 1011 100 10000 3.1 140 10:18 20.03.2020
6300 Clouds 29 1009 83 10000 1.5 290 09:44 20.03.2020
6301 Clouds 29 1009 83 10000 1.5 290 09:20 20.03.2020
6302 Clouds 30 1009 79 10000 1.5 320 08:44 20.03.2020
6303 Clouds 30 1009 79 10000 1.5 320 08:23 20.03.2020
6304 Clouds 31 1008 70 10000 3.1 340 07:59 20.03.2020
6305 Clouds 31 1008 70 10000 3.1 340 07:39 20.03.2020
6306 Clouds 31 1008 70 10000 3.1 340 07:39 20.03.2020
6307 Clouds 31 1008 70 10000 3.1 340 07:21 20.03.2020
6308 Clouds 31 1008 74 10000 2.6 320 06:42 20.03.2020
6309 Clouds 31 1008 74 10000 2.6 320 06:18 20.03.2020
6310 Clouds 32 1009 62 10000 4.1 360 04:36 20.03.2020
6311 Clouds 31 1011 70 10000 3.1 50 02:50 20.03.2020
6312 Clouds 31 1011 70 10000 3.6 50 01:50 20.03.2020
6313 Clouds 31 1012 70 10000 1 90 00:38 20.03.2020
6314 Clouds 30 1011 79 10000 1 70 23:59 19.03.2020
6315 Clouds 30 1011 79 10000 1 70 23:40 19.03.2020
6316 Clouds 26 1011 88 0 1 180 23:19 19.03.2020
6317 Clouds 26 1011 88 0 1 180 22:40 19.03.2020
6318 Clouds 26 1011 88 0 1 180 22:22 19.03.2020
6319 Clouds 25 1010 94 10000 1 110 21:58 19.03.2020
6320 Clouds 25 1010 94 10000 1 110 21:38 19.03.2020
6321 Clouds 25 1010 94 10000 1 110 21:18 19.03.2020
6322 Rain 25 1011 88 0 0.7 164 20:43 19.03.2020
6323 Clouds 25 1011 87 0 0.66 163 20:25 19.03.2020
6324 Clouds 23 1009 91 0 0.91 189 19:59 19.03.2020
6325 Clouds 23 1009 91 0 0.91 189 19:38 19.03.2020
6326 Clouds 23 1009 91 0 0.91 189 19:20 19.03.2020
6327 Clouds 23 1009 91 0 0.91 189 18:57 19.03.2020
6328 Clouds 23 1009 91 0 0.91 189 18:38 19.03.2020
6329 Clouds 23 1009 91 0 0.91 189 18:19 19.03.2020
6330 Clouds 23 1009 91 0 0.91 189 17:42 19.03.2020
6331 Clouds 23 1009 91 0 1.12 186 17:20 19.03.2020
6332 Clouds 23 1009 91 0 1.12 186 16:56 19.03.2020
6333 Clouds 23 1009 91 0 1.12 186 16:37 19.03.2020
6334 Clouds 23 1009 91 0 1.12 186 16:19 19.03.2020
6335 Clouds 23 1009 91 0 1.12 186 15:40 19.03.2020
6336 Clouds 23 1009 91 0 1.12 186 15:18 19.03.2020
6337 Thunderstorm 25 1012 100 10000 2.1 140 14:43 19.03.2020
6338 Thunderstorm 25 1012 100 10000 2.1 140 14:21 19.03.2020
6339 Thunderstorm 25 1012 100 10000 2.1 140 13:41 19.03.2020
6340 Clouds 26 1012 100 10000 3.1 140 13:20 19.03.2020
6341 Clouds 26 1012 100 10000 3.1 140 12:58 19.03.2020
6342 Clouds 26 1012 100 10000 3.1 140 12:40 19.03.2020
6343 Clouds 26 1012 100 10000 3.1 140 12:21 19.03.2020
6344 Clouds 27 1011 88 10000 1.5 160 11:43 19.03.2020
6345 Clouds 27 1010 88 10000 1.5 230 11:24 19.03.2020
6346 Clouds 27 1010 88 10000 1.5 230 10:57 19.03.2020
6347 Clouds 27 1010 88 10000 1.5 230 10:38 19.03.2020
6348 Clouds 27 1010 88 10000 1.5 230 10:19 19.03.2020
6349 Rain 29 1010 83 10000 0.9 148 09:45 19.03.2020
6350 Rain 29 1010 83 10000 0.9 148 09:27 19.03.2020
6351 Rain 30 1009 74 10000 2.1 290 08:58 19.03.2020
6352 Rain 30 1009 74 10000 2.1 290 08:40 19.03.2020
6353 Rain 30 1009 74 10000 2.1 290 08:19 19.03.2020
6354 Clouds 31 1008 70 10000 2.6 290 07:44 19.03.2020
6355 Clouds 31 1008 70 10000 2.6 290 07:23 19.03.2020
6356 Clouds 31 1008 74 10000 3.1 20 06:32 19.03.2020
6357 Clouds 31 1008 74 10000 1.5 340 05:46 19.03.2020
6358 Clouds 32 1009 66 10000 3.6 360 04:51 19.03.2020
6359 Clouds 32 1009 66 10000 3.6 360 04:24 19.03.2020
6360 Clouds 31 1010 74 10000 3.1 20 02:34 19.03.2020
6361 Clouds 31 1011 74 10000 3.1 50 00:55 19.03.2020
6362 Clouds 31 1011 74 10000 3.1 50 00:20 19.03.2020
6363 Clouds 30 1011 79 10000 3.1 110 23:45 18.03.2020
6364 Clouds 30 1011 79 10000 3.1 110 23:26 18.03.2020
6365 Clouds 30 1011 79 10000 3.1 110 23:26 18.03.2020
6366 Clouds 27 1011 83 10000 2.1 200 22:43 18.03.2020
6367 Clouds 27 1011 83 10000 2.1 200 22:24 18.03.2020
6368 Clouds 24 1010 100 10000 1 180 21:59 18.03.2020
6369 Clouds 24 1010 100 10000 1 180 21:40 18.03.2020
6370 Clouds 24 1010 100 10000 1 180 21:21 18.03.2020
6371 Clouds 24 1010 100 10000 1 180 21:21 18.03.2020
6372 Clouds 24 1010 94 10000 1.5 140 20:56 18.03.2020
6373 Clouds 24 1010 94 10000 1.5 140 20:38 18.03.2020
6374 Clouds 24 1010 94 10000 1.5 140 20:19 18.03.2020
6375 Clouds 24 1009 100 10000 1 200 19:42 18.03.2020
6376 Clouds 24 1009 100 10000 1 200 19:21 18.03.2020
6377 Clouds 24 1009 100 10000 1 200 18:59 18.03.2020
6378 Clouds 23 1009 92 0 1.16 197 18:40 18.03.2020
6379 Clouds 25 1009 94 10000 1 200 18:19 18.03.2020
6380 Clouds 25 1009 94 10000 1 200 17:56 18.03.2020
6381 Clouds 25 1009 94 10000 1 200 17:38 18.03.2020
6382 Clouds 25 1010 94 10000 1.5 200 17:19 18.03.2020
6383 Clouds 25 1010 94 10000 1.5 200 16:43 18.03.2020
6384 Clouds 25 1010 94 10000 1.5 200 16:21 18.03.2020
6385 Clouds 25 1010 100 10000 1.5 140 15:58 18.03.2020
6386 Clouds 25 1010 100 10000 1.5 140 15:38 18.03.2020
6387 Clouds 25 1010 100 10000 1.5 140 15:20 18.03.2020
6388 Clouds 25 1011 100 10000 0.92 196 14:43 18.03.2020
6389 Clouds 25 1011 100 10000 1.15 178 14:21 18.03.2020
6390 Clouds 26 1012 94 10000 1.15 178 13:42 18.03.2020
6391 Clouds 26 1012 94 10000 1.11 174 13:19 18.03.2020
6392 Clouds 26 1012 94 10000 1.5 110 12:55 18.03.2020
6393 Clouds 26 1012 94 10000 1.5 110 12:37 18.03.2020
6394 Clouds 26 1012 94 10000 1.5 110 12:18 18.03.2020
6395 Clouds 27 1011 94 10000 1 160 11:38 18.03.2020
6396 Clouds 27 1010 94 10000 1 160 11:19 18.03.2020
6397 Clouds 27 1010 94 10000 1 160 10:57 18.03.2020
6398 Clouds 27 1010 94 10000 1 160 10:37 18.03.2020
6399 Clouds 27 1010 94 10000 1 160 10:19 18.03.2020
6400 Clouds 27 1010 94 10000 2.6 160 09:43 18.03.2020
6401 Clouds 27 1010 94 10000 2.6 160 09:23 18.03.2020
6402 Clouds 27 1010 94 10000 2.6 160 09:23 18.03.2020
6403 Rain 29 1009 83 10000 3.1 110 08:55 18.03.2020
6404 Rain 29 1009 83 10000 3.1 110 08:37 18.03.2020
6405 Rain 29 1009 83 10000 3.1 110 08:19 18.03.2020
6406 Clouds 29 1008 79 10000 1.5 90 07:41 18.03.2020
6407 Clouds 29 1008 79 10000 1.5 90 07:23 18.03.2020
6408 Clouds 29 1008 83 10000 2.6 140 06:43 18.03.2020
6409 Rain 30 1009 74 10000 3.1 180 05:53 18.03.2020
6410 Rain 30 1009 74 10000 3.1 180 05:19 18.03.2020
6411 Rain 31 1009 74 10000 4.1 340 03:53 18.03.2020
6412 Clouds 31 1011 74 10000 3.1 20 02:37 18.03.2020
6413 Clouds 31 1011 66 10000 2.6 50 01:46 18.03.2020
6414 Clouds 31 1011 66 10000 2.6 50 01:21 18.03.2020
6415 Clouds 31 1012 74 10000 3.1 50 00:23 18.03.2020
6416 Clouds 31 1012 74 10000 1.5 50 23:43 17.03.2020
6417 Clouds 30 1012 79 10000 1 50 23:23 17.03.2020
6418 Clouds 27 1012 83 10000 0.78 208 22:47 17.03.2020
6419 Clouds 27 1012 83 10000 0.78 208 22:28 17.03.2020
6420 Clouds 25 1011 94 10000 1 180 21:57 17.03.2020
6421 Clouds 25 1011 94 10000 1 180 21:37 17.03.2020
6422 Clouds 25 1011 94 10000 1 180 21:19 17.03.2020
6423 Clouds 24 1010 100 10000 0.78 208 20:38 17.03.2020
6424 Clouds 24 1010 100 10000 1.3 191 20:20 17.03.2020
6425 Clouds 25 1010 94 10000 1.3 191 19:42 17.03.2020
6426 Clouds 25 1010 94 10000 1.3 191 19:22 17.03.2020
6427 Clouds 25 1010 94 10000 1.3 191 18:59 17.03.2020
6428 Clouds 25 1010 94 10000 1.3 191 18:40 17.03.2020
6429 Clouds 25 1010 94 10000 1.3 191 18:22 17.03.2020
6430 Clouds 25 1010 94 10000 1.3 191 17:59 17.03.2020
6431 Rain 25 1010 100 10000 1.3 191 17:39 17.03.2020
6432 Rain 26 1011 94 10000 2.1 180 17:20 17.03.2020
6433 Rain 26 1011 94 10000 2.1 180 16:43 17.03.2020
6434 Rain 26 1011 94 10000 2.1 180 16:19 17.03.2020
6435 Clouds 26 1011 94 10000 1 230 15:48 17.03.2020
6436 Clouds 26 1011 94 10000 1 230 15:23 17.03.2020
6437 Rain 26 1012 94 10000 3.1 180 14:49 17.03.2020
6438 Rain 26 1012 94 10000 3.1 180 14:31 17.03.2020
6439 Clouds 27 1012 88 10000 1 250 13:59 17.03.2020
6440 Clouds 27 1012 88 10000 1 250 13:41 17.03.2020
6441 Clouds 27 1012 88 10000 1 250 13:22 17.03.2020
6442 Rain 23 1012 92 0 1.61 206 12:47 17.03.2020
6443 Rain 23 1012 92 0 1.61 206 12:25 17.03.2020
6444 Rain 23 1012 92 0 1.61 206 11:57 17.03.2020
6445 Rain 23 1012 92 0 1.55 208 11:39 17.03.2020
6446 Rain 24 1011 93 0 1.78 227 11:20 17.03.2020
6447 Rain 24 1011 93 0 1.78 227 10:54 17.03.2020
6448 Rain 24 1011 93 0 1.78 227 10:36 17.03.2020
6449 Clouds 29 1010 74 10000 3.1 140 10:18 17.03.2020
6450 Clouds 29 1010 74 10000 3.1 140 09:44 17.03.2020
6451 Clouds 30 1009 70 10000 3.1 340 09:20 17.03.2020
6452 Clouds 30 1009 70 10000 3.1 340 08:51 17.03.2020
6453 Clouds 30 1009 70 10000 3.1 340 08:24 17.03.2020
6454 Clouds 31 1009 66 10000 5.1 340 07:58 17.03.2020
6455 Clouds 31 1009 66 10000 5.1 340 07:40 17.03.2020
6456 Clouds 31 1009 66 10000 5.1 340 07:19 17.03.2020
6457 Clouds 32 1008 75 10000 3.6 360 06:41 17.03.2020
6458 Clouds 32 1008 75 10000 3.6 360 06:19 17.03.2020
6459 Rain 32 1010 66 10000 4.1 340 04:51 17.03.2020
6460 Clouds 31 1010 74 10000 4.6 320 03:19 17.03.2020
6461 Clouds 31 1012 70 10000 3.6 320 01:49 17.03.2020
6462 Clouds 31 1012 70 10000 3.6 320 01:28 17.03.2020
6463 Clouds 31 1012 74 10000 2.1 320 00:48 17.03.2020
6464 Clouds 29 1012 83 10000 1.5 360 23:51 16.03.2020
6465 Clouds 29 1012 83 10000 1.5 360 23:32 16.03.2020
6466 Clouds 26 1012 88 10000 1.5 160 22:43 16.03.2020
6467 Clouds 26 1012 88 10000 1.5 160 22:25 16.03.2020
6468 Clouds 24 1011 100 10000 1.5 180 21:59 16.03.2020
6469 Clouds 24 1011 100 10000 1.5 180 21:40 16.03.2020
6470 Clouds 24 1011 100 10000 1.5 180 21:22 16.03.2020
6471 Clouds 24 1010 100 10000 1 110 20:56 16.03.2020
6472 Clouds 24 1010 100 10000 1 110 20:38 16.03.2020
6473 Clouds 24 1010 100 10000 1 110 20:19 16.03.2020
6474 Clouds 25 1010 94 10000 1 180 19:41 16.03.2020
6475 Clouds 25 1010 94 10000 1 180 19:21 16.03.2020
6476 Clouds 25 1010 94 10000 1.24 227 18:43 16.03.2020
6477 Clouds 25 1010 94 10000 1.24 227 18:22 16.03.2020
6478 Clouds 25 1010 94 10000 1.24 227 17:57 16.03.2020
6479 Clouds 25 1010 94 10000 1.24 227 17:37 16.03.2020
6480 Rain 25 1011 94 10000 1.32 224 17:18 16.03.2020
6481 Rain 25 1011 94 10000 1.32 224 16:45 16.03.2020
6482 Rain 25 1011 94 10000 1.32 224 16:27 16.03.2020
6483 Clouds 25 1012 94 10000 1 160 15:46 16.03.2020
6484 Clouds 25 1012 94 10000 1 160 15:28 16.03.2020
6485 Clouds 26 1012 88 10000 1.32 224 14:49 16.03.2020
6486 Clouds 26 1012 88 10000 1.32 224 14:28 16.03.2020
6487 Clouds 26 1013 88 10000 1 200 13:58 16.03.2020
6488 Clouds 26 1013 88 10000 1 200 13:40 16.03.2020
6489 Clouds 26 1013 88 10000 1 200 13:21 16.03.2020
6490 Clouds 27 1012 83 10000 2.6 250 12:44 16.03.2020
6491 Clouds 27 1012 83 10000 2.6 250 12:23 16.03.2020
6492 Clouds 27 1012 83 10000 4.6 250 11:46 16.03.2020
6493 Clouds 27 1011 94 10000 1 180 11:27 16.03.2020
6494 Clouds 27 1012 83 10000 4.6 250 11:27 16.03.2020
6495 Clouds 27 1011 94 10000 1 180 10:56 16.03.2020
6496 Clouds 27 1011 94 10000 1 180 10:37 16.03.2020
6497 Clouds 27 1011 94 10000 1 180 10:18 16.03.2020
6498 Clouds 29 1011 83 10000 1 270 09:42 16.03.2020
6499 Clouds 29 1011 83 10000 1 270 09:21 16.03.2020
6500 Clouds 29 1010 83 10000 3.1 320 08:50 16.03.2020
6501 Clouds 29 1010 83 10000 3.1 320 08:25 16.03.2020
6502 Clouds 30 1009 79 10000 3.1 290 07:45 16.03.2020
6503 Clouds 30 1009 79 10000 3.1 290 07:21 16.03.2020
6504 Clouds 30 1009 74 10000 5.1 320 06:51 16.03.2020
6505 Clouds 30 1009 74 10000 5.1 320 06:23 16.03.2020
6506 Clouds 30 1009 74 10000 4.1 320 04:54 16.03.2020
6507 Rain 30 1011 79 10000 3.1 340 02:40 16.03.2020
6508 Clouds 30 1011 79 10000 3.1 320 00:49 16.03.2020
6509 Clouds 30 1011 79 10000 3.1 320 00:30 16.03.2020
6510 Clouds 28 1012 88 10000 1.5 140 23:42 15.03.2020
6511 Clouds 28 1012 88 10000 1.5 140 23:20 15.03.2020
6512 Rain 26 1011 94 10000 1.14 246 22:42 15.03.2020
6513 Rain 26 1011 94 10000 1.14 246 22:22 15.03.2020
6514 Clouds 24 1010 100 10000 1.5 160 21:40 15.03.2020
6515 Clouds 24 1010 100 10000 1.5 160 21:22 15.03.2020
6516 Clouds 24 1009 100 10000 1.14 246 20:58 15.03.2020
6517 Clouds 24 1009 100 10000 1.14 246 20:58 15.03.2020
6518 Clouds 24 1009 100 10000 1.14 246 20:40 15.03.2020
6519 Clouds 24 1009 100 10000 1.12 221 20:20 15.03.2020
6520 Clouds 24 1009 100 10000 1.12 221 19:55 15.03.2020
6521 Clouds 24 1009 100 10000 1.12 221 19:55 15.03.2020
6522 Clouds 24 1009 100 10000 1.12 221 19:37 15.03.2020
6523 Clouds 24 1009 100 10000 1.12 221 19:18 15.03.2020
6524 Clouds 24 1008 100 10000 1.5 140 18:42 15.03.2020
6525 Clouds 24 1008 100 10000 1.5 140 18:24 15.03.2020
6526 Clouds 25 1008 100 10000 1.12 221 17:59 15.03.2020
6527 Clouds 25 1008 100 10000 1.12 221 17:39 15.03.2020
6528 Clouds 25 1009 94 10000 1.5 180 17:20 15.03.2020
6529 Clouds 25 1009 94 10000 1.5 180 16:55 15.03.2020
6530 Clouds 25 1009 94 10000 1.5 180 16:37 15.03.2020
6531 Clouds 25 1009 94 10000 1.5 180 16:18 15.03.2020
6532 Clouds 25 1010 94 10000 1.43 247 15:42 15.03.2020
6533 Clouds 25 1010 94 10000 1.43 247 15:22 15.03.2020
6534 Clouds 25 1010 100 10000 1.43 247 14:47 15.03.2020
6535 Clouds 25 1010 100 10000 1.43 247 14:28 15.03.2020
6536 Clouds 25 1010 94 10000 1.83 302 13:59 15.03.2020
6537 Clouds 25 1010 94 10000 1.83 302 13:39 15.03.2020
6538 Clouds 25 1010 94 10000 1.83 302 13:21 15.03.2020
6539 Rain 24 1010 88 0 1.7 283 12:44 15.03.2020
6540 Rain 24 1010 88 0 1.7 283 12:26 15.03.2020
6541 Rain 24 1010 88 0 1.7 283 11:59 15.03.2020
6542 Rain 24 1010 88 0 1.7 283 11:40 15.03.2020
6543 Clouds 26 1009 94 10000 2.1 250 11:22 15.03.2020
6544 Clouds 26 1009 94 10000 2.1 250 10:56 15.03.2020
6545 Clouds 26 1009 94 10000 2.1 250 10:36 15.03.2020
6546 Clouds 26 1009 94 10000 2.1 250 10:18 15.03.2020
6547 Clouds 26 1009 94 10000 2.1 320 09:40 15.03.2020
6548 Clouds 26 1009 94 10000 2.1 320 09:21 15.03.2020
6549 Clouds 25 1007 94 10000 2.1 320 08:42 15.03.2020
6550 Clouds 25 1007 94 10000 2.1 320 08:42 15.03.2020
6551 Clouds 25 1007 94 10000 2.1 320 08:20 15.03.2020
6552 Drizzle 25 1007 94 10000 3.1 250 07:51 15.03.2020
6553 Drizzle 25 1007 94 10000 3.1 250 07:29 15.03.2020
6554 Clouds 25 1008 94 0 6.2 270 06:49 15.03.2020
6555 Clouds 32 1006 70 10000 5.7 320 05:50 15.03.2020
6556 Clouds 32 1007 70 10000 5.7 320 05:18 15.03.2020
6557 Clouds 32 1007 70 10000 5.7 320 04:41 15.03.2020
6558 Clouds 32 1007 70 10000 5.7 320 04:41 15.03.2020
6559 Clouds 32 1007 70 10000 5.7 320 04:23 15.03.2020
6560 Clouds 32 1007 75 10000 5.7 320 03:30 15.03.2020
6561 Clouds 32 1008 75 10000 5.7 320 02:37 15.03.2020
6562 Clouds 31 1008 79 10000 3.6 290 01:20 15.03.2020
6563 Clouds 31 1008 79 10000 3.6 290 00:43 15.03.2020
6564 Clouds 29 1008 89 10000 2.6 290 00:21 15.03.2020
6565 Clouds 29 1008 89 10000 2.6 290 23:41 14.03.2020
6566 Clouds 27 1008 88 10000 1 180 23:21 14.03.2020
6567 Clouds 27 1008 88 10000 1 180 22:57 14.03.2020
6568 Clouds 27 1008 88 10000 1 180 22:38 14.03.2020
6569 Clouds 27 1008 88 10000 1 180 22:20 14.03.2020
6570 Clouds 26 1007 88 10000 2.1 180 21:56 14.03.2020
6571 Clouds 26 1007 88 10000 2.1 180 21:36 14.03.2020
6572 Clouds 26 1007 88 10000 2.1 180 21:18 14.03.2020
6573 Clouds 26 1007 88 10000 2.1 180 21:18 14.03.2020
6574 Clouds 25 1006 94 10000 1 160 20:58 14.03.2020
6575 Clouds 25 1006 94 10000 1 160 20:39 14.03.2020
6576 Clouds 25 1006 94 10000 1 160 20:18 14.03.2020
6577 Clouds 25 1006 94 10000 1 200 19:42 14.03.2020
6578 Clouds 25 1006 94 10000 1 200 19:24 14.03.2020
6579 Clouds 25 1005 94 10000 1 200 18:41 14.03.2020
6580 Clouds 25 1005 94 10000 1 200 18:21 14.03.2020
6581 Drizzle 27 1006 94 10000 1 230 17:43 14.03.2020
6582 Clouds 27 1006 94 10000 1 230 17:24 14.03.2020
6583 Clouds 27 1006 94 10000 1 230 16:59 14.03.2020
6584 Clouds 27 1006 94 10000 1 230 16:39 14.03.2020
6585 Clouds 27 1006 94 10000 1 230 16:20 14.03.2020
6586 Clouds 25 1007 94 10000 2.1 200 15:48 14.03.2020
6587 Clouds 25 1007 94 10000 2.1 200 15:25 14.03.2020
6588 Drizzle 27 1008 94 10000 2.1 230 14:44 14.03.2020
6589 Drizzle 27 1008 94 10000 2.1 230 14:22 14.03.2020
6590 Clouds 27 1008 94 10000 1.5 200 13:57 14.03.2020
6591 Clouds 27 1008 94 10000 1.5 200 13:39 14.03.2020
6592 Clouds 27 1008 94 10000 1.5 200 13:20 14.03.2020
6593 Clouds 27 1008 100 10000 2.6 230 12:44 14.03.2020
6594 Clouds 27 1008 100 10000 2.6 230 12:26 14.03.2020
6595 Clouds 27 1007 94 10000 1.72 253 11:47 14.03.2020
6596 Clouds 27 1007 94 10000 1.72 253 11:26 14.03.2020
6597 Clouds 27 1007 94 10000 1.82 266 10:57 14.03.2020
6598 Drizzle 28 1006 88 10000 1 110 10:39 14.03.2020
6599 Drizzle 28 1006 88 10000 1 110 10:20 14.03.2020
6600 Clouds 28 1005 88 10000 1.82 266 09:41 14.03.2020
6601 Clouds 28 1005 88 10000 1.82 266 09:22 14.03.2020
6602 Clouds 29 1004 83 10000 1 20 08:47 14.03.2020
6603 Clouds 29 1004 83 10000 1 20 08:47 14.03.2020
6604 Clouds 29 1004 83 10000 1 20 08:27 14.03.2020
6605 Clouds 31 1004 70 10000 2.1 290 07:49 14.03.2020
6606 Clouds 31 1004 70 10000 2.1 290 07:23 14.03.2020
6607 Clouds 32 1003 66 10000 3.1 290 06:59 14.03.2020
6608 Clouds 32 1003 66 10000 3.1 290 06:39 14.03.2020
6609 Clouds 31 1004 70 10000 3.1 270 04:58 14.03.2020
6610 Clouds 31 1005 70 10000 5.1 290 03:41 14.03.2020
6611 Clouds 31 1005 70 10000 5.1 290 03:20 14.03.2020
6612 Clouds 31 1006 70 10000 2.1 360 02:19 14.03.2020
6613 Clouds 31 1007 74 10000 2.6 50 00:42 14.03.2020
6614 Clouds 30 1007 84 10000 1 250 23:44 13.03.2020
6615 Clouds 30 1007 84 10000 1 250 23:25 13.03.2020
6616 Clouds 27 1007 88 10000 1 160 22:46 13.03.2020
6617 Clouds 27 1007 88 10000 1 160 22:25 13.03.2020
6618 Clouds 24 1006 100 10000 1 200 21:42 13.03.2020
6619 Clouds 24 1006 100 10000 1 200 21:21 13.03.2020
6620 Clouds 24 1006 100 10000 1.63 326 20:56 13.03.2020
6621 Clouds 24 1006 100 10000 1.63 326 20:37 13.03.2020
6622 Clouds 24 1006 100 10000 1.3 277 20:18 13.03.2020
6623 Clouds 24 1006 100 10000 1.5 140 19:42 13.03.2020
6624 Clouds 24 1006 100 10000 1.5 140 19:23 13.03.2020
6625 Clouds 24 1006 100 10000 2.6 200 18:44 13.03.2020
6626 Clouds 24 1006 100 10000 2.6 200 18:25 13.03.2020
6627 Clouds 23 1005 91 0 1.3 277 17:43 13.03.2020
6628 Clouds 24 1006 100 10000 1.3 277 17:22 13.03.2020
6629 Clouds 24 1006 100 10000 0.91 238 16:59 13.03.2020
6630 Clouds 24 1006 100 10000 0.91 238 16:39 13.03.2020
6631 Clouds 24 1006 100 10000 0.91 238 16:21 13.03.2020
6632 Clouds 24 1006 100 10000 0.91 238 15:46 13.03.2020
6633 Clouds 24 1006 100 10000 0.91 238 15:23 13.03.2020
6634 Clouds 25 1007 100 10000 1 160 14:59 13.03.2020
6635 Clouds 25 1007 100 10000 1 160 14:40 13.03.2020
6636 Clouds 25 1007 100 10000 1 160 14:21 13.03.2020
6637 Clouds 25 1008 100 10000 0.69 186 13:43 13.03.2020
6638 Clouds 25 1008 100 10000 0.69 186 13:24 13.03.2020
6639 Clouds 25 1008 100 10000 1.5 140 12:59 13.03.2020
6640 Clouds 25 1008 100 10000 1.5 140 12:39 13.03.2020
6641 Clouds 25 1008 100 10000 1.5 140 12:20 13.03.2020
6642 Clouds 26 1008 100 10000 0.85 192 11:56 13.03.2020
6643 Clouds 26 1008 100 10000 0.85 192 11:36 13.03.2020
6644 Clouds 27 1007 83 10000 1 160 11:18 13.03.2020
6645 Clouds 27 1007 83 10000 1 160 10:46 13.03.2020
6646 Clouds 27 1007 83 10000 1 160 10:26 13.03.2020
6647 Clouds 27 1007 94 10000 1.21 263 09:48 13.03.2020
6648 Clouds 27 1007 94 10000 1.21 263 09:30 13.03.2020
6649 Clouds 28 1006 88 10000 1.21 263 08:59 13.03.2020
6650 Clouds 28 1006 88 10000 1.21 263 08:38 13.03.2020
6651 Clouds 28 1006 88 10000 1.21 263 08:38 13.03.2020
6652 Clouds 28 1006 88 10000 1.21 263 08:38 13.03.2020
6653 Clouds 28 1006 88 10000 2.11 302 08:20 13.03.2020
6654 Clouds 29 1006 79 10000 2.26 293 07:44 13.03.2020
6655 Clouds 29 1006 79 10000 2.26 293 07:25 13.03.2020
6656 Clouds 29 1006 83 10000 1.5 340 06:46 13.03.2020
6657 Clouds 29 1006 83 10000 1.5 340 06:21 13.03.2020
6658 Clouds 29 1007 83 10000 1.5 320 05:45 13.03.2020
6659 Clouds 29 1007 79 10000 1.5 270 04:57 13.03.2020
6660 Clouds 29 1007 79 10000 1.5 270 04:25 13.03.2020
6661 Rain 29 1009 79 10000 2.41 299 02:42 13.03.2020
6662 Rain 28 100